<?xml version="1.0" encoding="UTF-8" standalone="no" ?>
<gpx xmlns="http://www.topografix.com/GPX/1/1" xmlns:xsi="http://www.w3.org/2001/XMLSchema-instance" xsi:schemaLocation="http://www.topografix.com/GPX/1/1 http://www.topografix.com/GPX/1/1/gpx.xsd" version="1.1" creator="VisuGPX - https://www.visugpx.com">
  <metadata>
    <name>Trilogie Oche Bise Grange</name>
    <desc><![CDATA[Trilogie Oche Bise Grange]]></desc>
  </metadata>
  <trk>
    <name><![CDATA[TRILOGIE]]></name>
    <trkseg>
      <trkpt lat="46.34624" lon="6.70814">
        <ele>1181.12</ele>
        <time>2013-09-28T05:01:05Z</time>
      </trkpt>
      <trkpt lat="46.34624" lon="6.70813">
        <ele>1182.56</ele>
        <time>2013-09-28T05:01:30Z</time>
      </trkpt>
      <trkpt lat="46.34624" lon="6.70812">
        <ele>1183.04</ele>
        <time>2013-09-28T05:01:52Z</time>
      </trkpt>
      <trkpt lat="46.34622" lon="6.70813">
        <ele>1183.04</ele>
        <time>2013-09-28T05:02:09Z</time>
      </trkpt>
      <trkpt lat="46.34621" lon="6.70815">
        <ele>1183.52</ele>
        <time>2013-09-28T05:02:27Z</time>
      </trkpt>
      <trkpt lat="46.3461" lon="6.70835">
        <ele>1186.88</ele>
        <time>2013-09-28T05:02:43Z</time>
      </trkpt>
      <trkpt lat="46.34591" lon="6.7087">
        <ele>1196.02</ele>
        <time>2013-09-28T05:02:59Z</time>
      </trkpt>
      <trkpt lat="46.34583" lon="6.70894">
        <ele>1197.46</ele>
        <time>2013-09-28T05:03:17Z</time>
      </trkpt>
      <trkpt lat="46.3458" lon="6.70897">
        <ele>1198.42</ele>
        <time>2013-09-28T05:03:36Z</time>
      </trkpt>
      <trkpt lat="46.34571" lon="6.70897">
        <ele>1198.9</ele>
        <time>2013-09-28T05:03:57Z</time>
      </trkpt>
      <trkpt lat="46.34564" lon="6.70895">
        <ele>1199.38</ele>
        <time>2013-09-28T05:04:17Z</time>
      </trkpt>
      <trkpt lat="46.34553" lon="6.70899">
        <ele>1199.86</ele>
        <time>2013-09-28T05:04:30Z</time>
      </trkpt>
      <trkpt lat="46.34529" lon="6.7092">
        <ele>1200.34</ele>
        <time>2013-09-28T05:04:49Z</time>
      </trkpt>
      <trkpt lat="46.34516" lon="6.70936">
        <ele>1200.82</ele>
        <time>2013-09-28T05:05:02Z</time>
      </trkpt>
      <trkpt lat="46.34503" lon="6.70953">
        <ele>1200.82</ele>
        <time>2013-09-28T05:05:21Z</time>
      </trkpt>
      <trkpt lat="46.34504" lon="6.70967">
        <ele>1200.82</ele>
        <time>2013-09-28T05:05:42Z</time>
      </trkpt>
      <trkpt lat="46.34495" lon="6.70984">
        <ele>1201.3</ele>
        <time>2013-09-28T05:06:02Z</time>
      </trkpt>
      <trkpt lat="46.34491" lon="6.71006">
        <ele>1201.3</ele>
        <time>2013-09-28T05:06:18Z</time>
      </trkpt>
      <trkpt lat="46.34486" lon="6.71013">
        <ele>1201.3</ele>
        <time>2013-09-28T05:06:35Z</time>
      </trkpt>
      <trkpt lat="46.34483" lon="6.71022">
        <ele>1201.79</ele>
        <time>2013-09-28T05:06:52Z</time>
      </trkpt>
      <trkpt lat="46.34471" lon="6.71035">
        <ele>1201.79</ele>
        <time>2013-09-28T05:07:07Z</time>
      </trkpt>
      <trkpt lat="46.34456" lon="6.71044">
        <ele>1201.79</ele>
        <time>2013-09-28T05:07:26Z</time>
      </trkpt>
      <trkpt lat="46.34452" lon="6.71047">
        <ele>1201.79</ele>
        <time>2013-09-28T05:07:42Z</time>
      </trkpt>
      <trkpt lat="46.34446" lon="6.71055">
        <ele>1202.27</ele>
        <time>2013-09-28T05:07:59Z</time>
      </trkpt>
      <trkpt lat="46.3444" lon="6.71065">
        <ele>1202.27</ele>
        <time>2013-09-28T05:08:15Z</time>
      </trkpt>
      <trkpt lat="46.34442" lon="6.71093">
        <ele>1202.27</ele>
        <time>2013-09-28T05:08:35Z</time>
      </trkpt>
      <trkpt lat="46.3444" lon="6.71112">
        <ele>1202.75</ele>
        <time>2013-09-28T05:08:45Z</time>
      </trkpt>
      <trkpt lat="46.34428" lon="6.71153">
        <ele>1202.75</ele>
        <time>2013-09-28T05:09:02Z</time>
      </trkpt>
      <trkpt lat="46.34421" lon="6.71172">
        <ele>1202.75</ele>
        <time>2013-09-28T05:09:14Z</time>
      </trkpt>
      <trkpt lat="46.3442" lon="6.71184">
        <ele>1202.75</ele>
        <time>2013-09-28T05:09:26Z</time>
      </trkpt>
      <trkpt lat="46.3442" lon="6.71188">
        <ele>1202.75</ele>
        <time>2013-09-28T05:09:30Z</time>
      </trkpt>
      <trkpt lat="46.34419" lon="6.71195">
        <ele>1202.75</ele>
        <time>2013-09-28T05:09:43Z</time>
      </trkpt>
      <trkpt lat="46.34407" lon="6.71229">
        <ele>1206.11</ele>
        <time>2013-09-28T05:10:01Z</time>
      </trkpt>
      <trkpt lat="46.344" lon="6.71247">
        <ele>1206.59</ele>
        <time>2013-09-28T05:10:16Z</time>
      </trkpt>
      <trkpt lat="46.34399" lon="6.71263">
        <ele>1206.59</ele>
        <time>2013-09-28T05:10:34Z</time>
      </trkpt>
      <trkpt lat="46.344" lon="6.71285">
        <ele>1206.59</ele>
        <time>2013-09-28T05:10:48Z</time>
      </trkpt>
      <trkpt lat="46.34394" lon="6.71313">
        <ele>1206.59</ele>
        <time>2013-09-28T05:11:06Z</time>
      </trkpt>
      <trkpt lat="46.34388" lon="6.71317">
        <ele>1206.59</ele>
        <time>2013-09-28T05:11:10Z</time>
      </trkpt>
      <trkpt lat="46.34381" lon="6.71332">
        <ele>1206.59</ele>
        <time>2013-09-28T05:11:25Z</time>
      </trkpt>
      <trkpt lat="46.34368" lon="6.71351">
        <ele>1206.59</ele>
        <time>2013-09-28T05:11:42Z</time>
      </trkpt>
      <trkpt lat="46.34363" lon="6.71365">
        <ele>1206.59</ele>
        <time>2013-09-28T05:11:55Z</time>
      </trkpt>
      <trkpt lat="46.34356" lon="6.71379">
        <ele>1206.59</ele>
        <time>2013-09-28T05:12:12Z</time>
      </trkpt>
      <trkpt lat="46.34352" lon="6.71387">
        <ele>1206.59</ele>
        <time>2013-09-28T05:12:16Z</time>
      </trkpt>
      <trkpt lat="46.34341" lon="6.71412">
        <ele>1206.59</ele>
        <time>2013-09-28T05:12:33Z</time>
      </trkpt>
      <trkpt lat="46.34319" lon="6.71434">
        <ele>1206.59</ele>
        <time>2013-09-28T05:12:54Z</time>
      </trkpt>
      <trkpt lat="46.34287" lon="6.71452">
        <ele>1206.11</ele>
        <time>2013-09-28T05:13:07Z</time>
      </trkpt>
      <trkpt lat="46.3427" lon="6.71472">
        <ele>1206.11</ele>
        <time>2013-09-28T05:13:22Z</time>
      </trkpt>
      <trkpt lat="46.34272" lon="6.71485">
        <ele>1206.11</ele>
        <time>2013-09-28T05:13:37Z</time>
      </trkpt>
      <trkpt lat="46.34283" lon="6.7148">
        <ele>1206.11</ele>
        <time>2013-09-28T05:13:38Z</time>
      </trkpt>
      <trkpt lat="46.34314" lon="6.71478">
        <ele>1206.11</ele>
        <time>2013-09-28T05:13:47Z</time>
      </trkpt>
      <trkpt lat="46.34317" lon="6.71481">
        <ele>1206.59</ele>
        <time>2013-09-28T05:13:52Z</time>
      </trkpt>
      <trkpt lat="46.34325" lon="6.71488">
        <ele>1206.59</ele>
        <time>2013-09-28T05:14:06Z</time>
      </trkpt>
      <trkpt lat="46.34329" lon="6.7149">
        <ele>1206.59</ele>
        <time>2013-09-28T05:14:20Z</time>
      </trkpt>
      <trkpt lat="46.34329" lon="6.71503">
        <ele>1223.42</ele>
        <time>2013-09-28T05:14:35Z</time>
      </trkpt>
      <trkpt lat="46.34332" lon="6.71488">
        <ele>1227.26</ele>
        <time>2013-09-28T05:14:40Z</time>
      </trkpt>
      <trkpt lat="46.34358" lon="6.71473">
        <ele>1249.37</ele>
        <time>2013-09-28T05:14:53Z</time>
      </trkpt>
      <trkpt lat="46.34373" lon="6.71477">
        <ele>1263.31</ele>
        <time>2013-09-28T05:15:04Z</time>
      </trkpt>
      <trkpt lat="46.34386" lon="6.71481">
        <ele>1277.73</ele>
        <time>2013-09-28T05:15:16Z</time>
      </trkpt>
      <trkpt lat="46.34471" lon="6.71458">
        <ele>1335.41</ele>
        <time>2013-09-28T05:15:26Z</time>
      </trkpt>
      <trkpt lat="46.34541" lon="6.71437">
        <ele>1387.32</ele>
        <time>2013-09-28T05:15:38Z</time>
      </trkpt>
      <trkpt lat="46.34544" lon="6.71443">
        <ele>1392.61</ele>
        <time>2013-09-28T05:15:48Z</time>
      </trkpt>
      <trkpt lat="46.34545" lon="6.71452">
        <ele>1395.01</ele>
        <time>2013-09-28T05:15:59Z</time>
      </trkpt>
      <trkpt lat="46.34545" lon="6.71456">
        <ele>1397.89</ele>
        <time>2013-09-28T05:16:11Z</time>
      </trkpt>
      <trkpt lat="46.34546" lon="6.71459">
        <ele>1397.41</ele>
        <time>2013-09-28T05:16:14Z</time>
      </trkpt>
      <trkpt lat="46.34549" lon="6.71466">
        <ele>1397.89</ele>
        <time>2013-09-28T05:16:18Z</time>
      </trkpt>
      <trkpt lat="46.34557" lon="6.71474">
        <ele>1400.78</ele>
        <time>2013-09-28T05:16:31Z</time>
      </trkpt>
      <trkpt lat="46.34557" lon="6.71482">
        <ele>1402.7</ele>
        <time>2013-09-28T05:16:43Z</time>
      </trkpt>
      <trkpt lat="46.34558" lon="6.71482">
        <ele>1402.7</ele>
        <time>2013-09-28T05:16:45Z</time>
      </trkpt>
      <trkpt lat="46.34556" lon="6.71489">
        <ele>1406.55</ele>
        <time>2013-09-28T05:16:57Z</time>
      </trkpt>
      <trkpt lat="46.34555" lon="6.71499">
        <ele>1410.39</ele>
        <time>2013-09-28T05:17:07Z</time>
      </trkpt>
      <trkpt lat="46.34552" lon="6.71505">
        <ele>1410.87</ele>
        <time>2013-09-28T05:17:12Z</time>
      </trkpt>
      <trkpt lat="46.3455" lon="6.71507">
        <ele>1410.87</ele>
        <time>2013-09-28T05:17:14Z</time>
      </trkpt>
      <trkpt lat="46.34548" lon="6.71519">
        <ele>1410.87</ele>
        <time>2013-09-28T05:17:25Z</time>
      </trkpt>
      <trkpt lat="46.34558" lon="6.7152">
        <ele>1412.79</ele>
        <time>2013-09-28T05:17:38Z</time>
      </trkpt>
      <trkpt lat="46.34572" lon="6.71517">
        <ele>1416.16</ele>
        <time>2013-09-28T05:17:46Z</time>
      </trkpt>
      <trkpt lat="46.34574" lon="6.71517">
        <ele>1417.12</ele>
        <time>2013-09-28T05:17:48Z</time>
      </trkpt>
      <trkpt lat="46.34583" lon="6.71524">
        <ele>1419.52</ele>
        <time>2013-09-28T05:18:02Z</time>
      </trkpt>
      <trkpt lat="46.3459" lon="6.71526">
        <ele>1422.89</ele>
        <time>2013-09-28T05:18:15Z</time>
      </trkpt>
      <trkpt lat="46.34597" lon="6.71523">
        <ele>1426.25</ele>
        <time>2013-09-28T05:18:28Z</time>
      </trkpt>
      <trkpt lat="46.34603" lon="6.71521">
        <ele>1428.66</ele>
        <time>2013-09-28T05:18:42Z</time>
      </trkpt>
      <trkpt lat="46.34611" lon="6.7152">
        <ele>1434.42</ele>
        <time>2013-09-28T05:18:55Z</time>
      </trkpt>
      <trkpt lat="46.34611" lon="6.71519">
        <ele>1434.91</ele>
        <time>2013-09-28T05:18:56Z</time>
      </trkpt>
      <trkpt lat="46.34617" lon="6.7152">
        <ele>1438.27</ele>
        <time>2013-09-28T05:19:03Z</time>
      </trkpt>
      <trkpt lat="46.34619" lon="6.7152">
        <ele>1439.71</ele>
        <time>2013-09-28T05:19:06Z</time>
      </trkpt>
      <trkpt lat="46.34625" lon="6.71514">
        <ele>1443.08</ele>
        <time>2013-09-28T05:19:15Z</time>
      </trkpt>
      <trkpt lat="46.34629" lon="6.71511">
        <ele>1444.52</ele>
        <time>2013-09-28T05:19:26Z</time>
      </trkpt>
      <trkpt lat="46.34632" lon="6.71522">
        <ele>1444.52</ele>
        <time>2013-09-28T05:19:39Z</time>
      </trkpt>
      <trkpt lat="46.34634" lon="6.71533">
        <ele>1446.44</ele>
        <time>2013-09-28T05:19:52Z</time>
      </trkpt>
      <trkpt lat="46.34638" lon="6.71541">
        <ele>1448.84</ele>
        <time>2013-09-28T05:20:02Z</time>
      </trkpt>
      <trkpt lat="46.34641" lon="6.71552">
        <ele>1452.69</ele>
        <time>2013-09-28T05:20:14Z</time>
      </trkpt>
      <trkpt lat="46.34641" lon="6.71559">
        <ele>1456.53</ele>
        <time>2013-09-28T05:20:25Z</time>
      </trkpt>
      <trkpt lat="46.34649" lon="6.71563">
        <ele>1458.94</ele>
        <time>2013-09-28T05:20:36Z</time>
      </trkpt>
      <trkpt lat="46.34656" lon="6.71565">
        <ele>1461.82</ele>
        <time>2013-09-28T05:20:48Z</time>
      </trkpt>
      <trkpt lat="46.3466" lon="6.7156">
        <ele>1463.26</ele>
        <time>2013-09-28T05:21:03Z</time>
      </trkpt>
      <trkpt lat="46.34666" lon="6.71562">
        <ele>1467.11</ele>
        <time>2013-09-28T05:21:15Z</time>
      </trkpt>
      <trkpt lat="46.34666" lon="6.71573">
        <ele>1472.4</ele>
        <time>2013-09-28T05:21:29Z</time>
      </trkpt>
      <trkpt lat="46.34665" lon="6.71583">
        <ele>1478.65</ele>
        <time>2013-09-28T05:21:40Z</time>
      </trkpt>
      <trkpt lat="46.34667" lon="6.71592">
        <ele>1481.05</ele>
        <time>2013-09-28T05:21:48Z</time>
      </trkpt>
      <trkpt lat="46.34668" lon="6.71595">
        <ele>1481.53</ele>
        <time>2013-09-28T05:21:50Z</time>
      </trkpt>
      <trkpt lat="46.34668" lon="6.71613">
        <ele>1482.97</ele>
        <time>2013-09-28T05:22:04Z</time>
      </trkpt>
      <trkpt lat="46.34676" lon="6.71625">
        <ele>1483.93</ele>
        <time>2013-09-28T05:22:19Z</time>
      </trkpt>
      <trkpt lat="46.34683" lon="6.71643">
        <ele>1486.34</ele>
        <time>2013-09-28T05:22:34Z</time>
      </trkpt>
      <trkpt lat="46.34683" lon="6.71657">
        <ele>1490.18</ele>
        <time>2013-09-28T05:22:47Z</time>
      </trkpt>
      <trkpt lat="46.34684" lon="6.71663">
        <ele>1492.1</ele>
        <time>2013-09-28T05:22:52Z</time>
      </trkpt>
      <trkpt lat="46.34686" lon="6.71669">
        <ele>1492.1</ele>
        <time>2013-09-28T05:22:57Z</time>
      </trkpt>
      <trkpt lat="46.34685" lon="6.71684">
        <ele>1497.39</ele>
        <time>2013-09-28T05:23:11Z</time>
      </trkpt>
      <trkpt lat="46.34682" lon="6.71699">
        <ele>1502.2</ele>
        <time>2013-09-28T05:23:25Z</time>
      </trkpt>
      <trkpt lat="46.34677" lon="6.71713">
        <ele>1505.08</ele>
        <time>2013-09-28T05:23:37Z</time>
      </trkpt>
      <trkpt lat="46.34681" lon="6.71728">
        <ele>1507</ele>
        <time>2013-09-28T05:23:49Z</time>
      </trkpt>
      <trkpt lat="46.34683" lon="6.71746">
        <ele>1509.41</ele>
        <time>2013-09-28T05:24:02Z</time>
      </trkpt>
      <trkpt lat="46.34683" lon="6.71747">
        <ele>1509.41</ele>
        <time>2013-09-28T05:24:03Z</time>
      </trkpt>
      <trkpt lat="46.34684" lon="6.71753">
        <ele>1509.89</ele>
        <time>2013-09-28T05:24:09Z</time>
      </trkpt>
      <trkpt lat="46.34686" lon="6.71768">
        <ele>1513.25</ele>
        <time>2013-09-28T05:24:22Z</time>
      </trkpt>
      <trkpt lat="46.34688" lon="6.71779">
        <ele>1515.66</ele>
        <time>2013-09-28T05:24:32Z</time>
      </trkpt>
      <trkpt lat="46.34691" lon="6.71781">
        <ele>1516.62</ele>
        <time>2013-09-28T05:24:34Z</time>
      </trkpt>
      <trkpt lat="46.34691" lon="6.71794">
        <ele>1520.94</ele>
        <time>2013-09-28T05:24:44Z</time>
      </trkpt>
      <trkpt lat="46.34697" lon="6.71809">
        <ele>1525.75</ele>
        <time>2013-09-28T05:24:58Z</time>
      </trkpt>
      <trkpt lat="46.34701" lon="6.71818">
        <ele>1528.63</ele>
        <time>2013-09-28T05:25:14Z</time>
      </trkpt>
      <trkpt lat="46.34711" lon="6.7182">
        <ele>1529.59</ele>
        <time>2013-09-28T05:25:27Z</time>
      </trkpt>
      <trkpt lat="46.34721" lon="6.71829">
        <ele>1531.52</ele>
        <time>2013-09-28T05:25:40Z</time>
      </trkpt>
      <trkpt lat="46.34725" lon="6.71843">
        <ele>1534.88</ele>
        <time>2013-09-28T05:25:56Z</time>
      </trkpt>
      <trkpt lat="46.34724" lon="6.71852">
        <ele>1537.77</ele>
        <time>2013-09-28T05:26:07Z</time>
      </trkpt>
      <trkpt lat="46.34725" lon="6.71869">
        <ele>1542.09</ele>
        <time>2013-09-28T05:26:18Z</time>
      </trkpt>
      <trkpt lat="46.34728" lon="6.71877">
        <ele>1544.98</ele>
        <time>2013-09-28T05:26:30Z</time>
      </trkpt>
      <trkpt lat="46.34727" lon="6.71891">
        <ele>1548.82</ele>
        <time>2013-09-28T05:26:45Z</time>
      </trkpt>
      <trkpt lat="46.34729" lon="6.71905">
        <ele>1553.15</ele>
        <time>2013-09-28T05:27:00Z</time>
      </trkpt>
      <trkpt lat="46.34726" lon="6.71922">
        <ele>1554.59</ele>
        <time>2013-09-28T05:27:16Z</time>
      </trkpt>
      <trkpt lat="46.34732" lon="6.71929">
        <ele>1554.59</ele>
        <time>2013-09-28T05:27:22Z</time>
      </trkpt>
      <trkpt lat="46.34729" lon="6.71945">
        <ele>1557.95</ele>
        <time>2013-09-28T05:27:34Z</time>
      </trkpt>
      <trkpt lat="46.34727" lon="6.71948">
        <ele>1558.92</ele>
        <time>2013-09-28T05:27:38Z</time>
      </trkpt>
      <trkpt lat="46.34719" lon="6.71962">
        <ele>1561.32</ele>
        <time>2013-09-28T05:27:53Z</time>
      </trkpt>
      <trkpt lat="46.34719" lon="6.71963">
        <ele>1561.32</ele>
        <time>2013-09-28T05:27:54Z</time>
      </trkpt>
      <trkpt lat="46.3472" lon="6.7198">
        <ele>1564.2</ele>
        <time>2013-09-28T05:28:07Z</time>
      </trkpt>
      <trkpt lat="46.34715" lon="6.71995">
        <ele>1567.09</ele>
        <time>2013-09-28T05:28:19Z</time>
      </trkpt>
      <trkpt lat="46.34709" lon="6.72011">
        <ele>1569.97</ele>
        <time>2013-09-28T05:28:36Z</time>
      </trkpt>
      <trkpt lat="46.34709" lon="6.72012">
        <ele>1570.45</ele>
        <time>2013-09-28T05:28:37Z</time>
      </trkpt>
      <trkpt lat="46.34708" lon="6.72029">
        <ele>1571.89</ele>
        <time>2013-09-28T05:28:50Z</time>
      </trkpt>
      <trkpt lat="46.34708" lon="6.72043">
        <ele>1573.82</ele>
        <time>2013-09-28T05:29:01Z</time>
      </trkpt>
      <trkpt lat="46.34714" lon="6.72058">
        <ele>1577.66</ele>
        <time>2013-09-28T05:29:15Z</time>
      </trkpt>
      <trkpt lat="46.34721" lon="6.72069">
        <ele>1580.54</ele>
        <time>2013-09-28T05:29:28Z</time>
      </trkpt>
      <trkpt lat="46.34727" lon="6.72075">
        <ele>1581.03</ele>
        <time>2013-09-28T05:29:37Z</time>
      </trkpt>
      <trkpt lat="46.3473" lon="6.72081">
        <ele>1581.51</ele>
        <time>2013-09-28T05:29:42Z</time>
      </trkpt>
      <trkpt lat="46.34729" lon="6.72098">
        <ele>1584.87</ele>
        <time>2013-09-28T05:29:55Z</time>
      </trkpt>
      <trkpt lat="46.3473" lon="6.72116">
        <ele>1588.72</ele>
        <time>2013-09-28T05:30:10Z</time>
      </trkpt>
      <trkpt lat="46.34731" lon="6.72122">
        <ele>1591.12</ele>
        <time>2013-09-28T05:30:15Z</time>
      </trkpt>
      <trkpt lat="46.34731" lon="6.7214">
        <ele>1593.52</ele>
        <time>2013-09-28T05:30:25Z</time>
      </trkpt>
      <trkpt lat="46.34731" lon="6.72143">
        <ele>1594</ele>
        <time>2013-09-28T05:30:27Z</time>
      </trkpt>
      <trkpt lat="46.34731" lon="6.7217">
        <ele>1596.41</ele>
        <time>2013-09-28T05:30:41Z</time>
      </trkpt>
      <trkpt lat="46.34726" lon="6.72182">
        <ele>1602.17</ele>
        <time>2013-09-28T05:30:55Z</time>
      </trkpt>
      <trkpt lat="46.34721" lon="6.72202">
        <ele>1606.02</ele>
        <time>2013-09-28T05:31:09Z</time>
      </trkpt>
      <trkpt lat="46.34721" lon="6.72226">
        <ele>1606.98</ele>
        <time>2013-09-28T05:31:24Z</time>
      </trkpt>
      <trkpt lat="46.3472" lon="6.72248">
        <ele>1607.94</ele>
        <time>2013-09-28T05:31:37Z</time>
      </trkpt>
      <trkpt lat="46.34714" lon="6.72267">
        <ele>1608.9</ele>
        <time>2013-09-28T05:31:50Z</time>
      </trkpt>
      <trkpt lat="46.34712" lon="6.72268">
        <ele>1609.38</ele>
        <time>2013-09-28T05:31:53Z</time>
      </trkpt>
      <trkpt lat="46.347" lon="6.72297">
        <ele>1609.86</ele>
        <time>2013-09-28T05:32:13Z</time>
      </trkpt>
      <trkpt lat="46.34696" lon="6.72305">
        <ele>1609.86</ele>
        <time>2013-09-28T05:32:20Z</time>
      </trkpt>
      <trkpt lat="46.34694" lon="6.72317">
        <ele>1610.83</ele>
        <time>2013-09-28T05:32:27Z</time>
      </trkpt>
      <trkpt lat="46.34687" lon="6.72347">
        <ele>1613.71</ele>
        <time>2013-09-28T05:32:45Z</time>
      </trkpt>
      <trkpt lat="46.34687" lon="6.72367">
        <ele>1617.56</ele>
        <time>2013-09-28T05:33:01Z</time>
      </trkpt>
      <trkpt lat="46.34687" lon="6.7237">
        <ele>1618.04</ele>
        <time>2013-09-28T05:33:03Z</time>
      </trkpt>
      <trkpt lat="46.34687" lon="6.72398">
        <ele>1619</ele>
        <time>2013-09-28T05:33:19Z</time>
      </trkpt>
      <trkpt lat="46.34687" lon="6.7243">
        <ele>1619</ele>
        <time>2013-09-28T05:33:38Z</time>
      </trkpt>
      <trkpt lat="46.34694" lon="6.72439">
        <ele>1625.25</ele>
        <time>2013-09-28T05:33:49Z</time>
      </trkpt>
      <trkpt lat="46.34697" lon="6.7245">
        <ele>1629.09</ele>
        <time>2013-09-28T05:34:03Z</time>
      </trkpt>
      <trkpt lat="46.34698" lon="6.72451">
        <ele>1628.61</ele>
        <time>2013-09-28T05:34:28Z</time>
      </trkpt>
      <trkpt lat="46.34699" lon="6.72451">
        <ele>1628.13</ele>
        <time>2013-09-28T05:34:58Z</time>
      </trkpt>
      <trkpt lat="46.34701" lon="6.72452">
        <ele>1629.09</ele>
        <time>2013-09-28T05:35:27Z</time>
      </trkpt>
      <trkpt lat="46.34702" lon="6.72452">
        <ele>1629.57</ele>
        <time>2013-09-28T05:35:28Z</time>
      </trkpt>
      <trkpt lat="46.34718" lon="6.72465">
        <ele>1634.38</ele>
        <time>2013-09-28T05:35:45Z</time>
      </trkpt>
      <trkpt lat="46.34732" lon="6.72475">
        <ele>1638.7</ele>
        <time>2013-09-28T05:36:00Z</time>
      </trkpt>
      <trkpt lat="46.34745" lon="6.72481">
        <ele>1640.63</ele>
        <time>2013-09-28T05:36:17Z</time>
      </trkpt>
      <trkpt lat="46.34746" lon="6.72481">
        <ele>1640.63</ele>
        <time>2013-09-28T05:36:18Z</time>
      </trkpt>
      <trkpt lat="46.34769" lon="6.72485">
        <ele>1642.07</ele>
        <time>2013-09-28T05:36:42Z</time>
      </trkpt>
      <trkpt lat="46.34782" lon="6.72477">
        <ele>1648.32</ele>
        <time>2013-09-28T05:37:01Z</time>
      </trkpt>
      <trkpt lat="46.34795" lon="6.72469">
        <ele>1649.28</ele>
        <time>2013-09-28T05:37:19Z</time>
      </trkpt>
      <trkpt lat="46.3481" lon="6.72465">
        <ele>1652.16</ele>
        <time>2013-09-28T05:37:35Z</time>
      </trkpt>
      <trkpt lat="46.34821" lon="6.72463">
        <ele>1657.45</ele>
        <time>2013-09-28T05:37:55Z</time>
      </trkpt>
      <trkpt lat="46.34827" lon="6.72457">
        <ele>1658.89</ele>
        <time>2013-09-28T05:38:05Z</time>
      </trkpt>
      <trkpt lat="46.34835" lon="6.72437">
        <ele>1661.3</ele>
        <time>2013-09-28T05:38:24Z</time>
      </trkpt>
      <trkpt lat="46.34835" lon="6.72436">
        <ele>1661.3</ele>
        <time>2013-09-28T05:38:25Z</time>
      </trkpt>
      <trkpt lat="46.34846" lon="6.72435">
        <ele>1665.62</ele>
        <time>2013-09-28T05:38:40Z</time>
      </trkpt>
      <trkpt lat="46.34846" lon="6.72437">
        <ele>1666.58</ele>
        <time>2013-09-28T05:38:42Z</time>
      </trkpt>
      <trkpt lat="46.34848" lon="6.72448">
        <ele>1670.91</ele>
        <time>2013-09-28T05:38:52Z</time>
      </trkpt>
      <trkpt lat="46.34854" lon="6.72465">
        <ele>1680.04</ele>
        <time>2013-09-28T05:39:13Z</time>
      </trkpt>
      <trkpt lat="46.34858" lon="6.72482">
        <ele>1685.81</ele>
        <time>2013-09-28T05:39:29Z</time>
      </trkpt>
      <trkpt lat="46.34861" lon="6.72504">
        <ele>1691.58</ele>
        <time>2013-09-28T05:39:47Z</time>
      </trkpt>
      <trkpt lat="46.34862" lon="6.72507">
        <ele>1692.06</ele>
        <time>2013-09-28T05:39:50Z</time>
      </trkpt>
      <trkpt lat="46.34864" lon="6.7252">
        <ele>1693.5</ele>
        <time>2013-09-28T05:39:59Z</time>
      </trkpt>
      <trkpt lat="46.34862" lon="6.72541">
        <ele>1697.83</ele>
        <time>2013-09-28T05:40:16Z</time>
      </trkpt>
      <trkpt lat="46.34862" lon="6.72542">
        <ele>1697.83</ele>
        <time>2013-09-28T05:40:17Z</time>
      </trkpt>
      <trkpt lat="46.34862" lon="6.72563">
        <ele>1701.67</ele>
        <time>2013-09-28T05:40:36Z</time>
      </trkpt>
      <trkpt lat="46.34864" lon="6.72567">
        <ele>1703.11</ele>
        <time>2013-09-28T05:40:41Z</time>
      </trkpt>
      <trkpt lat="46.34866" lon="6.72579">
        <ele>1705.04</ele>
        <time>2013-09-28T05:40:51Z</time>
      </trkpt>
      <trkpt lat="46.34864" lon="6.72603">
        <ele>1709.84</ele>
        <time>2013-09-28T05:41:10Z</time>
      </trkpt>
      <trkpt lat="46.34869" lon="6.72626">
        <ele>1713.69</ele>
        <time>2013-09-28T05:41:28Z</time>
      </trkpt>
      <trkpt lat="46.34875" lon="6.72648">
        <ele>1717.53</ele>
        <time>2013-09-28T05:41:46Z</time>
      </trkpt>
      <trkpt lat="46.34882" lon="6.72668">
        <ele>1721.38</ele>
        <time>2013-09-28T05:42:04Z</time>
      </trkpt>
      <trkpt lat="46.34885" lon="6.72686">
        <ele>1725.22</ele>
        <time>2013-09-28T05:42:21Z</time>
      </trkpt>
      <trkpt lat="46.3489" lon="6.72703">
        <ele>1729.07</ele>
        <time>2013-09-28T05:42:36Z</time>
      </trkpt>
      <trkpt lat="46.34892" lon="6.72723">
        <ele>1734.36</ele>
        <time>2013-09-28T05:42:53Z</time>
      </trkpt>
      <trkpt lat="46.34904" lon="6.72738">
        <ele>1738.68</ele>
        <time>2013-09-28T05:43:12Z</time>
      </trkpt>
      <trkpt lat="46.34908" lon="6.72743">
        <ele>1738.68</ele>
        <time>2013-09-28T05:43:18Z</time>
      </trkpt>
      <trkpt lat="46.34913" lon="6.72752">
        <ele>1738.68</ele>
        <time>2013-09-28T05:43:26Z</time>
      </trkpt>
      <trkpt lat="46.3492" lon="6.72761">
        <ele>1738.68</ele>
        <time>2013-09-28T05:43:38Z</time>
      </trkpt>
      <trkpt lat="46.34927" lon="6.7277">
        <ele>1738.68</ele>
        <time>2013-09-28T05:43:53Z</time>
      </trkpt>
      <trkpt lat="46.34934" lon="6.72782">
        <ele>1738.68</ele>
        <time>2013-09-28T05:44:09Z</time>
      </trkpt>
      <trkpt lat="46.3494" lon="6.72787">
        <ele>1739.16</ele>
        <time>2013-09-28T05:44:24Z</time>
      </trkpt>
      <trkpt lat="46.34945" lon="6.72799">
        <ele>1739.16</ele>
        <time>2013-09-28T05:44:39Z</time>
      </trkpt>
      <trkpt lat="46.34944" lon="6.72816">
        <ele>1752.62</ele>
        <time>2013-09-28T05:44:57Z</time>
      </trkpt>
      <trkpt lat="46.34946" lon="6.72822">
        <ele>1757.91</ele>
        <time>2013-09-28T05:45:12Z</time>
      </trkpt>
      <trkpt lat="46.34956" lon="6.72808">
        <ele>1760.31</ele>
        <time>2013-09-28T05:45:30Z</time>
      </trkpt>
      <trkpt lat="46.34964" lon="6.72789">
        <ele>1760.79</ele>
        <time>2013-09-28T05:45:50Z</time>
      </trkpt>
      <trkpt lat="46.34972" lon="6.72781">
        <ele>1760.79</ele>
        <time>2013-09-28T05:46:06Z</time>
      </trkpt>
      <trkpt lat="46.34977" lon="6.72786">
        <ele>1760.79</ele>
        <time>2013-09-28T05:46:19Z</time>
      </trkpt>
      <trkpt lat="46.34986" lon="6.72776">
        <ele>1761.27</ele>
        <time>2013-09-28T05:46:37Z</time>
      </trkpt>
      <trkpt lat="46.34996" lon="6.7276">
        <ele>1761.27</ele>
        <time>2013-09-28T05:46:57Z</time>
      </trkpt>
      <trkpt lat="46.35004" lon="6.72746">
        <ele>1761.27</ele>
        <time>2013-09-28T05:47:14Z</time>
      </trkpt>
      <trkpt lat="46.35005" lon="6.72735">
        <ele>1762.71</ele>
        <time>2013-09-28T05:47:33Z</time>
      </trkpt>
      <trkpt lat="46.35001" lon="6.72719">
        <ele>1783.38</ele>
        <time>2013-09-28T05:47:48Z</time>
      </trkpt>
      <trkpt lat="46.35003" lon="6.72703">
        <ele>1792.52</ele>
        <time>2013-09-28T05:48:04Z</time>
      </trkpt>
      <trkpt lat="46.34987" lon="6.72674">
        <ele>1813.66</ele>
        <time>2013-09-28T05:48:16Z</time>
      </trkpt>
      <trkpt lat="46.34997" lon="6.72669">
        <ele>1810.78</ele>
        <time>2013-09-28T05:48:33Z</time>
      </trkpt>
      <trkpt lat="46.35006" lon="6.72666">
        <ele>1809.34</ele>
        <time>2013-09-28T05:48:50Z</time>
      </trkpt>
      <trkpt lat="46.35013" lon="6.72657">
        <ele>1809.82</ele>
        <time>2013-09-28T05:49:09Z</time>
      </trkpt>
      <trkpt lat="46.3502" lon="6.72646">
        <ele>1812.22</ele>
        <time>2013-09-28T05:49:25Z</time>
      </trkpt>
      <trkpt lat="46.35021" lon="6.72642">
        <ele>1819.43</ele>
        <time>2013-09-28T05:49:41Z</time>
      </trkpt>
      <trkpt lat="46.35023" lon="6.72643">
        <ele>1821.84</ele>
        <time>2013-09-28T05:50:01Z</time>
      </trkpt>
      <trkpt lat="46.35016" lon="6.72629">
        <ele>1834.33</ele>
        <time>2013-09-28T05:50:17Z</time>
      </trkpt>
      <trkpt lat="46.35019" lon="6.72624">
        <ele>1839.62</ele>
        <time>2013-09-28T05:50:32Z</time>
      </trkpt>
      <trkpt lat="46.35026" lon="6.72616">
        <ele>1846.83</ele>
        <time>2013-09-28T05:50:48Z</time>
      </trkpt>
      <trkpt lat="46.35031" lon="6.72607">
        <ele>1852.6</ele>
        <time>2013-09-28T05:51:05Z</time>
      </trkpt>
      <trkpt lat="46.35037" lon="6.72595">
        <ele>1857.89</ele>
        <time>2013-09-28T05:51:21Z</time>
      </trkpt>
      <trkpt lat="46.35043" lon="6.72584">
        <ele>1861.73</ele>
        <time>2013-09-28T05:51:39Z</time>
      </trkpt>
      <trkpt lat="46.35049" lon="6.72568">
        <ele>1865.58</ele>
        <time>2013-09-28T05:51:55Z</time>
      </trkpt>
      <trkpt lat="46.35052" lon="6.72556">
        <ele>1870.38</ele>
        <time>2013-09-28T05:52:11Z</time>
      </trkpt>
      <trkpt lat="46.3505" lon="6.72553">
        <ele>1871.34</ele>
        <time>2013-09-28T05:52:14Z</time>
      </trkpt>
      <trkpt lat="46.35046" lon="6.72537">
        <ele>1871.82</ele>
        <time>2013-09-28T05:52:30Z</time>
      </trkpt>
      <trkpt lat="46.35046" lon="6.72534">
        <ele>1871.82</ele>
        <time>2013-09-28T05:52:37Z</time>
      </trkpt>
      <trkpt lat="46.35051" lon="6.72505">
        <ele>1876.15</ele>
        <time>2013-09-28T05:52:57Z</time>
      </trkpt>
      <trkpt lat="46.3506" lon="6.72488">
        <ele>1879.03</ele>
        <time>2013-09-28T05:53:15Z</time>
      </trkpt>
      <trkpt lat="46.3506" lon="6.72485">
        <ele>1879.51</ele>
        <time>2013-09-28T05:53:18Z</time>
      </trkpt>
      <trkpt lat="46.35064" lon="6.72483">
        <ele>1882.88</ele>
        <time>2013-09-28T05:53:33Z</time>
      </trkpt>
      <trkpt lat="46.35065" lon="6.72496">
        <ele>1885.76</ele>
        <time>2013-09-28T05:53:48Z</time>
      </trkpt>
      <trkpt lat="46.3507" lon="6.72511">
        <ele>1890.09</ele>
        <time>2013-09-28T05:54:06Z</time>
      </trkpt>
      <trkpt lat="46.35077" lon="6.72515">
        <ele>1894.9</ele>
        <time>2013-09-28T05:54:19Z</time>
      </trkpt>
      <trkpt lat="46.35081" lon="6.72507">
        <ele>1901.14</ele>
        <time>2013-09-28T05:54:35Z</time>
      </trkpt>
      <trkpt lat="46.35086" lon="6.7249">
        <ele>1907.39</ele>
        <time>2013-09-28T05:54:54Z</time>
      </trkpt>
      <trkpt lat="46.35091" lon="6.72498">
        <ele>1908.35</ele>
        <time>2013-09-28T05:55:08Z</time>
      </trkpt>
      <trkpt lat="46.35092" lon="6.72507">
        <ele>1909.8</ele>
        <time>2013-09-28T05:55:16Z</time>
      </trkpt>
      <trkpt lat="46.35095" lon="6.72526">
        <ele>1914.12</ele>
        <time>2013-09-28T05:55:33Z</time>
      </trkpt>
      <trkpt lat="46.35102" lon="6.72522">
        <ele>1918.45</ele>
        <time>2013-09-28T05:55:47Z</time>
      </trkpt>
      <trkpt lat="46.35109" lon="6.72501">
        <ele>1921.81</ele>
        <time>2013-09-28T05:56:06Z</time>
      </trkpt>
      <trkpt lat="46.3512" lon="6.72485">
        <ele>1924.22</ele>
        <time>2013-09-28T05:56:26Z</time>
      </trkpt>
      <trkpt lat="46.35127" lon="6.72466">
        <ele>1928.54</ele>
        <time>2013-09-28T05:56:46Z</time>
      </trkpt>
      <trkpt lat="46.3513" lon="6.72465">
        <ele>1929.5</ele>
        <time>2013-09-28T05:57:07Z</time>
      </trkpt>
      <trkpt lat="46.35129" lon="6.72464">
        <ele>1929.5</ele>
        <time>2013-09-28T05:57:33Z</time>
      </trkpt>
      <trkpt lat="46.35128" lon="6.72465">
        <ele>1931.43</ele>
        <time>2013-09-28T05:57:54Z</time>
      </trkpt>
      <trkpt lat="46.35129" lon="6.72464">
        <ele>1929.98</ele>
        <time>2013-09-28T05:58:13Z</time>
      </trkpt>
      <trkpt lat="46.35129" lon="6.72468">
        <ele>1930.46</ele>
        <time>2013-09-28T05:58:17Z</time>
      </trkpt>
      <trkpt lat="46.35131" lon="6.72485">
        <ele>1933.35</ele>
        <time>2013-09-28T05:58:31Z</time>
      </trkpt>
      <trkpt lat="46.35134" lon="6.72501">
        <ele>1937.19</ele>
        <time>2013-09-28T05:58:46Z</time>
      </trkpt>
      <trkpt lat="46.35134" lon="6.72513">
        <ele>1939.6</ele>
        <time>2013-09-28T05:58:56Z</time>
      </trkpt>
      <trkpt lat="46.3513" lon="6.72528">
        <ele>1942</ele>
        <time>2013-09-28T05:59:11Z</time>
      </trkpt>
      <trkpt lat="46.35135" lon="6.72531">
        <ele>1945.36</ele>
        <time>2013-09-28T05:59:25Z</time>
      </trkpt>
      <trkpt lat="46.35139" lon="6.72528">
        <ele>1945.85</ele>
        <time>2013-09-28T05:59:38Z</time>
      </trkpt>
      <trkpt lat="46.35145" lon="6.72526">
        <ele>1947.29</ele>
        <time>2013-09-28T05:59:44Z</time>
      </trkpt>
      <trkpt lat="46.35147" lon="6.7254">
        <ele>1951.61</ele>
        <time>2013-09-28T05:59:59Z</time>
      </trkpt>
      <trkpt lat="46.35146" lon="6.72551">
        <ele>1958.82</ele>
        <time>2013-09-28T06:00:12Z</time>
      </trkpt>
      <trkpt lat="46.35151" lon="6.72562">
        <ele>1965.07</ele>
        <time>2013-09-28T06:00:26Z</time>
      </trkpt>
      <trkpt lat="46.35152" lon="6.72575">
        <ele>1970.36</ele>
        <time>2013-09-28T06:00:42Z</time>
      </trkpt>
      <trkpt lat="46.35156" lon="6.72589">
        <ele>1974.2</ele>
        <time>2013-09-28T06:01:00Z</time>
      </trkpt>
      <trkpt lat="46.35155" lon="6.72593">
        <ele>1975.65</ele>
        <time>2013-09-28T06:01:05Z</time>
      </trkpt>
      <trkpt lat="46.35154" lon="6.72609">
        <ele>1979.01</ele>
        <time>2013-09-28T06:01:19Z</time>
      </trkpt>
      <trkpt lat="46.35154" lon="6.72621">
        <ele>1982.38</ele>
        <time>2013-09-28T06:01:32Z</time>
      </trkpt>
      <trkpt lat="46.35162" lon="6.7262">
        <ele>1987.66</ele>
        <time>2013-09-28T06:01:48Z</time>
      </trkpt>
      <trkpt lat="46.35168" lon="6.72621">
        <ele>1992.47</ele>
        <time>2013-09-28T06:02:05Z</time>
      </trkpt>
      <trkpt lat="46.3517" lon="6.72632">
        <ele>1996.8</ele>
        <time>2013-09-28T06:02:19Z</time>
      </trkpt>
      <trkpt lat="46.35169" lon="6.72644">
        <ele>2002.08</ele>
        <time>2013-09-28T06:02:35Z</time>
      </trkpt>
      <trkpt lat="46.35175" lon="6.72659">
        <ele>2004.01</ele>
        <time>2013-09-28T06:02:53Z</time>
      </trkpt>
      <trkpt lat="46.35176" lon="6.7266">
        <ele>2004.01</ele>
        <time>2013-09-28T06:02:55Z</time>
      </trkpt>
      <trkpt lat="46.35188" lon="6.72668">
        <ele>2004.01</ele>
        <time>2013-09-28T06:03:11Z</time>
      </trkpt>
      <trkpt lat="46.35192" lon="6.72677">
        <ele>2004.01</ele>
        <time>2013-09-28T06:03:28Z</time>
      </trkpt>
      <trkpt lat="46.35197" lon="6.72685">
        <ele>2004.01</ele>
        <time>2013-09-28T06:03:47Z</time>
      </trkpt>
      <trkpt lat="46.35201" lon="6.72689">
        <ele>2004.01</ele>
        <time>2013-09-28T06:04:03Z</time>
      </trkpt>
      <trkpt lat="46.35205" lon="6.72694">
        <ele>2004.01</ele>
        <time>2013-09-28T06:04:17Z</time>
      </trkpt>
      <trkpt lat="46.35209" lon="6.72692">
        <ele>2004.01</ele>
        <time>2013-09-28T06:04:35Z</time>
      </trkpt>
      <trkpt lat="46.35215" lon="6.72697">
        <ele>2004.01</ele>
        <time>2013-09-28T06:04:48Z</time>
      </trkpt>
      <trkpt lat="46.35215" lon="6.72698">
        <ele>2006.89</ele>
        <time>2013-09-28T06:05:01Z</time>
      </trkpt>
      <trkpt lat="46.35215" lon="6.72702">
        <ele>2012.18</ele>
        <time>2013-09-28T06:05:13Z</time>
      </trkpt>
      <trkpt lat="46.35216" lon="6.72709">
        <ele>2017.94</ele>
        <time>2013-09-28T06:05:28Z</time>
      </trkpt>
      <trkpt lat="46.35214" lon="6.72715">
        <ele>2027.08</ele>
        <time>2013-09-28T06:05:41Z</time>
      </trkpt>
      <trkpt lat="46.35212" lon="6.72722">
        <ele>2036.69</ele>
        <time>2013-09-28T06:05:54Z</time>
      </trkpt>
      <trkpt lat="46.35213" lon="6.72727">
        <ele>2041.98</ele>
        <time>2013-09-28T06:06:06Z</time>
      </trkpt>
      <trkpt lat="46.35216" lon="6.72735">
        <ele>2048.71</ele>
        <time>2013-09-28T06:06:21Z</time>
      </trkpt>
      <trkpt lat="46.3522" lon="6.72737">
        <ele>2050.15</ele>
        <time>2013-09-28T06:06:35Z</time>
      </trkpt>
      <trkpt lat="46.35224" lon="6.72742">
        <ele>2051.11</ele>
        <time>2013-09-28T06:06:53Z</time>
      </trkpt>
      <trkpt lat="46.35235" lon="6.72756">
        <ele>2050.63</ele>
        <time>2013-09-28T06:07:45Z</time>
      </trkpt>
      <trkpt lat="46.35231" lon="6.72763">
        <ele>2051.59</ele>
        <time>2013-09-28T06:08:00Z</time>
      </trkpt>
      <trkpt lat="46.35231" lon="6.72768">
        <ele>2051.11</ele>
        <time>2013-09-28T06:08:16Z</time>
      </trkpt>
      <trkpt lat="46.35244" lon="6.72766">
        <ele>2056.4</ele>
        <time>2013-09-28T06:08:35Z</time>
      </trkpt>
      <trkpt lat="46.35249" lon="6.72765">
        <ele>2058.8</ele>
        <time>2013-09-28T06:08:53Z</time>
      </trkpt>
      <trkpt lat="46.35247" lon="6.72768">
        <ele>2060.72</ele>
        <time>2013-09-28T06:09:11Z</time>
      </trkpt>
      <trkpt lat="46.35246" lon="6.72771">
        <ele>2061.2</ele>
        <time>2013-09-28T06:09:29Z</time>
      </trkpt>
      <trkpt lat="46.35253" lon="6.72775">
        <ele>2061.68</ele>
        <time>2013-09-28T06:09:45Z</time>
      </trkpt>
      <trkpt lat="46.35257" lon="6.72778">
        <ele>2062.17</ele>
        <time>2013-09-28T06:09:52Z</time>
      </trkpt>
      <trkpt lat="46.35257" lon="6.72785">
        <ele>2066.01</ele>
        <time>2013-09-28T06:10:06Z</time>
      </trkpt>
      <trkpt lat="46.35258" lon="6.72787">
        <ele>2068.89</ele>
        <time>2013-09-28T06:10:21Z</time>
      </trkpt>
      <trkpt lat="46.35258" lon="6.72789">
        <ele>2070.82</ele>
        <time>2013-09-28T06:10:35Z</time>
      </trkpt>
      <trkpt lat="46.3526" lon="6.72792">
        <ele>2070.82</ele>
        <time>2013-09-28T06:10:49Z</time>
      </trkpt>
      <trkpt lat="46.3526" lon="6.72795">
        <ele>2072.26</ele>
        <time>2013-09-28T06:11:09Z</time>
      </trkpt>
      <trkpt lat="46.3526" lon="6.72798">
        <ele>2074.18</ele>
        <time>2013-09-28T06:11:30Z</time>
      </trkpt>
      <trkpt lat="46.35266" lon="6.72808">
        <ele>2075.14</ele>
        <time>2013-09-28T06:11:48Z</time>
      </trkpt>
      <trkpt lat="46.3527" lon="6.72822">
        <ele>2078.51</ele>
        <time>2013-09-28T06:12:01Z</time>
      </trkpt>
      <trkpt lat="46.35272" lon="6.72833">
        <ele>2090.52</ele>
        <time>2013-09-28T06:12:11Z</time>
      </trkpt>
      <trkpt lat="46.35272" lon="6.72836">
        <ele>2095.33</ele>
        <time>2013-09-28T06:12:28Z</time>
      </trkpt>
      <trkpt lat="46.35277" lon="6.72852">
        <ele>2095.81</ele>
        <time>2013-09-28T06:12:42Z</time>
      </trkpt>
      <trkpt lat="46.35269" lon="6.72861">
        <ele>2096.29</ele>
        <time>2013-09-28T06:13:00Z</time>
      </trkpt>
      <trkpt lat="46.35265" lon="6.7288">
        <ele>2100.14</ele>
        <time>2013-09-28T06:13:11Z</time>
      </trkpt>
      <trkpt lat="46.35271" lon="6.72891">
        <ele>2103.5</ele>
        <time>2013-09-28T06:13:21Z</time>
      </trkpt>
      <trkpt lat="46.35271" lon="6.72892">
        <ele>2104.94</ele>
        <time>2013-09-28T06:13:23Z</time>
      </trkpt>
      <trkpt lat="46.35275" lon="6.72902">
        <ele>2108.31</ele>
        <time>2013-09-28T06:13:36Z</time>
      </trkpt>
      <trkpt lat="46.35277" lon="6.72908">
        <ele>2110.23</ele>
        <time>2013-09-28T06:13:45Z</time>
      </trkpt>
      <trkpt lat="46.35278" lon="6.72911">
        <ele>2110.23</ele>
        <time>2013-09-28T06:13:48Z</time>
      </trkpt>
      <trkpt lat="46.35283" lon="6.72923">
        <ele>2111.19</ele>
        <time>2013-09-28T06:14:02Z</time>
      </trkpt>
      <trkpt lat="46.35291" lon="6.72937">
        <ele>2112.63</ele>
        <time>2013-09-28T06:14:14Z</time>
      </trkpt>
      <trkpt lat="46.35297" lon="6.7295">
        <ele>2114.56</ele>
        <time>2013-09-28T06:14:25Z</time>
      </trkpt>
      <trkpt lat="46.35296" lon="6.72949">
        <ele>2120.32</ele>
        <time>2013-09-28T06:14:38Z</time>
      </trkpt>
      <trkpt lat="46.35287" lon="6.72946">
        <ele>2131.86</ele>
        <time>2013-09-28T06:14:52Z</time>
      </trkpt>
      <trkpt lat="46.35279" lon="6.72948">
        <ele>2135.23</ele>
        <time>2013-09-28T06:15:05Z</time>
      </trkpt>
      <trkpt lat="46.35275" lon="6.72947">
        <ele>2137.63</ele>
        <time>2013-09-28T06:15:19Z</time>
      </trkpt>
      <trkpt lat="46.35276" lon="6.72953">
        <ele>2138.11</ele>
        <time>2013-09-28T06:15:31Z</time>
      </trkpt>
      <trkpt lat="46.35277" lon="6.72961">
        <ele>2138.11</ele>
        <time>2013-09-28T06:15:43Z</time>
      </trkpt>
      <trkpt lat="46.35278" lon="6.72975">
        <ele>2139.07</ele>
        <time>2013-09-28T06:15:58Z</time>
      </trkpt>
      <trkpt lat="46.35279" lon="6.7298">
        <ele>2140.99</ele>
        <time>2013-09-28T06:16:12Z</time>
      </trkpt>
      <trkpt lat="46.35279" lon="6.72982">
        <ele>2145.32</ele>
        <time>2013-09-28T06:16:27Z</time>
      </trkpt>
      <trkpt lat="46.3528" lon="6.72986">
        <ele>2147.72</ele>
        <time>2013-09-28T06:16:42Z</time>
      </trkpt>
      <trkpt lat="46.35277" lon="6.72988">
        <ele>2151.09</ele>
        <time>2013-09-28T06:16:57Z</time>
      </trkpt>
      <trkpt lat="46.35277" lon="6.72989">
        <ele>2152.05</ele>
        <time>2013-09-28T06:17:08Z</time>
      </trkpt>
      <trkpt lat="46.35276" lon="6.72992">
        <ele>2152.53</ele>
        <time>2013-09-28T06:17:20Z</time>
      </trkpt>
      <trkpt lat="46.35272" lon="6.72993">
        <ele>2153.49</ele>
        <time>2013-09-28T06:17:30Z</time>
      </trkpt>
      <trkpt lat="46.35267" lon="6.72996">
        <ele>2154.93</ele>
        <time>2013-09-28T06:17:42Z</time>
      </trkpt>
      <trkpt lat="46.35267" lon="6.73003">
        <ele>2155.41</ele>
        <time>2013-09-28T06:17:53Z</time>
      </trkpt>
      <trkpt lat="46.35264" lon="6.73004">
        <ele>2156.37</ele>
        <time>2013-09-28T06:18:06Z</time>
      </trkpt>
      <trkpt lat="46.3526" lon="6.73003">
        <ele>2159.26</ele>
        <time>2013-09-28T06:18:21Z</time>
      </trkpt>
      <trkpt lat="46.35258" lon="6.73">
        <ele>2166.47</ele>
        <time>2013-09-28T06:18:36Z</time>
      </trkpt>
      <trkpt lat="46.35256" lon="6.72999">
        <ele>2167.91</ele>
        <time>2013-09-28T06:18:39Z</time>
      </trkpt>
      <trkpt lat="46.35254" lon="6.73">
        <ele>2169.35</ele>
        <time>2013-09-28T06:18:47Z</time>
      </trkpt>
      <trkpt lat="46.35256" lon="6.73">
        <ele>2170.31</ele>
        <time>2013-09-28T06:18:58Z</time>
      </trkpt>
      <trkpt lat="46.35255" lon="6.73001">
        <ele>2173.68</ele>
        <time>2013-09-28T06:19:10Z</time>
      </trkpt>
      <trkpt lat="46.35254" lon="6.72999">
        <ele>2177.04</ele>
        <time>2013-09-28T06:19:27Z</time>
      </trkpt>
      <trkpt lat="46.35257" lon="6.73003">
        <ele>2181.85</ele>
        <time>2013-09-28T06:19:37Z</time>
      </trkpt>
      <trkpt lat="46.35258" lon="6.73003">
        <ele>2186.18</ele>
        <time>2013-09-28T06:19:50Z</time>
      </trkpt>
      <trkpt lat="46.3526" lon="6.7301">
        <ele>2193.39</ele>
        <time>2013-09-28T06:20:05Z</time>
      </trkpt>
      <trkpt lat="46.35262" lon="6.73006">
        <ele>2198.67</ele>
        <time>2013-09-28T06:20:16Z</time>
      </trkpt>
      <trkpt lat="46.35262" lon="6.73007">
        <ele>2199.15</ele>
        <time>2013-09-28T06:20:19Z</time>
      </trkpt>
      <trkpt lat="46.35265" lon="6.73012">
        <ele>2201.08</ele>
        <time>2013-09-28T06:20:32Z</time>
      </trkpt>
      <trkpt lat="46.35266" lon="6.73012">
        <ele>2201.08</ele>
        <time>2013-09-28T06:20:47Z</time>
      </trkpt>
      <trkpt lat="46.35266" lon="6.73013">
        <ele>2201.56</ele>
        <time>2013-09-28T06:20:53Z</time>
      </trkpt>
      <trkpt lat="46.35269" lon="6.73012">
        <ele>2202.52</ele>
        <time>2013-09-28T06:20:57Z</time>
      </trkpt>
      <trkpt lat="46.35272" lon="6.73018">
        <ele>2205.88</ele>
        <time>2013-09-28T06:21:05Z</time>
      </trkpt>
      <trkpt lat="46.35276" lon="6.73028">
        <ele>2207.81</ele>
        <time>2013-09-28T06:21:16Z</time>
      </trkpt>
      <trkpt lat="46.35277" lon="6.73035">
        <ele>2208.77</ele>
        <time>2013-09-28T06:21:21Z</time>
      </trkpt>
      <trkpt lat="46.35276" lon="6.73043">
        <ele>2209.25</ele>
        <time>2013-09-28T06:21:41Z</time>
      </trkpt>
      <trkpt lat="46.35278" lon="6.7306">
        <ele>2209.25</ele>
        <time>2013-09-28T06:21:57Z</time>
      </trkpt>
      <trkpt lat="46.35278" lon="6.73068">
        <ele>2210.21</ele>
        <time>2013-09-28T06:22:05Z</time>
      </trkpt>
      <trkpt lat="46.35281" lon="6.73086">
        <ele>2212.13</ele>
        <time>2013-09-28T06:22:21Z</time>
      </trkpt>
      <trkpt lat="46.35284" lon="6.73091">
        <ele>2214.53</ele>
        <time>2013-09-28T06:22:37Z</time>
      </trkpt>
      <trkpt lat="46.35285" lon="6.73093">
        <ele>2214.53</ele>
        <time>2013-09-28T06:22:45Z</time>
      </trkpt>
      <trkpt lat="46.35294" lon="6.73109">
        <ele>2216.94</ele>
        <time>2013-09-28T06:23:03Z</time>
      </trkpt>
      <trkpt lat="46.35288" lon="6.7312">
        <ele>2220.78</ele>
        <time>2013-09-28T06:23:21Z</time>
      </trkpt>
      <trkpt lat="46.35293" lon="6.73135">
        <ele>2224.63</ele>
        <time>2013-09-28T06:23:35Z</time>
      </trkpt>
      <trkpt lat="46.35293" lon="6.73136">
        <ele>2225.11</ele>
        <time>2013-09-28T06:24:00Z</time>
      </trkpt>
      <trkpt lat="46.35293" lon="6.73136">
        <ele>2224.63</ele>
        <time>2013-09-28T06:24:34Z</time>
      </trkpt>
      <trkpt lat="46.35294" lon="6.73136">
        <ele>2224.63</ele>
        <time>2013-09-28T06:25:01Z</time>
      </trkpt>
      <trkpt lat="46.35294" lon="6.73136">
        <ele>2224.15</ele>
        <time>2013-09-28T06:25:27Z</time>
      </trkpt>
      <trkpt lat="46.35294" lon="6.73137">
        <ele>2224.15</ele>
        <time>2013-09-28T06:25:52Z</time>
      </trkpt>
      <trkpt lat="46.35293" lon="6.73141">
        <ele>2223.67</ele>
        <time>2013-09-28T06:26:05Z</time>
      </trkpt>
      <trkpt lat="46.35292" lon="6.7315">
        <ele>2223.19</ele>
        <time>2013-09-28T06:26:19Z</time>
      </trkpt>
      <trkpt lat="46.35295" lon="6.73159">
        <ele>2221.74</ele>
        <time>2013-09-28T06:26:31Z</time>
      </trkpt>
      <trkpt lat="46.35297" lon="6.73164">
        <ele>2220.3</ele>
        <time>2013-09-28T06:26:49Z</time>
      </trkpt>
      <trkpt lat="46.35297" lon="6.73166">
        <ele>2219.34</ele>
        <time>2013-09-28T06:27:04Z</time>
      </trkpt>
      <trkpt lat="46.35302" lon="6.73183">
        <ele>2215.98</ele>
        <time>2013-09-28T06:27:20Z</time>
      </trkpt>
      <trkpt lat="46.35304" lon="6.73194">
        <ele>2213.09</ele>
        <time>2013-09-28T06:27:36Z</time>
      </trkpt>
      <trkpt lat="46.35303" lon="6.732">
        <ele>2211.65</ele>
        <time>2013-09-28T06:27:43Z</time>
      </trkpt>
      <trkpt lat="46.35299" lon="6.73218">
        <ele>2208.77</ele>
        <time>2013-09-28T06:27:56Z</time>
      </trkpt>
      <trkpt lat="46.353" lon="6.7322">
        <ele>2206.84</ele>
        <time>2013-09-28T06:28:13Z</time>
      </trkpt>
      <trkpt lat="46.353" lon="6.73223">
        <ele>2205.4</ele>
        <time>2013-09-28T06:28:31Z</time>
      </trkpt>
      <trkpt lat="46.35298" lon="6.73229">
        <ele>2205.88</ele>
        <time>2013-09-28T06:28:35Z</time>
      </trkpt>
      <trkpt lat="46.35299" lon="6.7324">
        <ele>2205.88</ele>
        <time>2013-09-28T06:28:51Z</time>
      </trkpt>
      <trkpt lat="46.35297" lon="6.7325">
        <ele>2204.92</ele>
        <time>2013-09-28T06:29:08Z</time>
      </trkpt>
      <trkpt lat="46.35298" lon="6.73257">
        <ele>2203.96</ele>
        <time>2013-09-28T06:29:23Z</time>
      </trkpt>
      <trkpt lat="46.35297" lon="6.73261">
        <ele>2203.96</ele>
        <time>2013-09-28T06:29:42Z</time>
      </trkpt>
      <trkpt lat="46.35298" lon="6.73264">
        <ele>2203.96</ele>
        <time>2013-09-28T06:30:08Z</time>
      </trkpt>
      <trkpt lat="46.35296" lon="6.73267">
        <ele>2204.44</ele>
        <time>2013-09-28T06:30:36Z</time>
      </trkpt>
      <trkpt lat="46.35293" lon="6.73274">
        <ele>2203</ele>
        <time>2013-09-28T06:30:52Z</time>
      </trkpt>
      <trkpt lat="46.35292" lon="6.73277">
        <ele>2202.04</ele>
        <time>2013-09-28T06:31:09Z</time>
      </trkpt>
      <trkpt lat="46.35292" lon="6.7328">
        <ele>2201.08</ele>
        <time>2013-09-28T06:31:25Z</time>
      </trkpt>
      <trkpt lat="46.3529" lon="6.73282">
        <ele>2199.63</ele>
        <time>2013-09-28T06:31:42Z</time>
      </trkpt>
      <trkpt lat="46.3529" lon="6.73284">
        <ele>2199.15</ele>
        <time>2013-09-28T06:31:57Z</time>
      </trkpt>
      <trkpt lat="46.35287" lon="6.73286">
        <ele>2196.27</ele>
        <time>2013-09-28T06:32:11Z</time>
      </trkpt>
      <trkpt lat="46.3528" lon="6.73284">
        <ele>2193.87</ele>
        <time>2013-09-28T06:32:24Z</time>
      </trkpt>
      <trkpt lat="46.35279" lon="6.73285">
        <ele>2192.9</ele>
        <time>2013-09-28T06:32:37Z</time>
      </trkpt>
      <trkpt lat="46.35281" lon="6.7329">
        <ele>2190.98</ele>
        <time>2013-09-28T06:32:40Z</time>
      </trkpt>
      <trkpt lat="46.35277" lon="6.73299">
        <ele>2185.69</ele>
        <time>2013-09-28T06:32:53Z</time>
      </trkpt>
      <trkpt lat="46.35276" lon="6.73297">
        <ele>2184.73</ele>
        <time>2013-09-28T06:33:11Z</time>
      </trkpt>
      <trkpt lat="46.35276" lon="6.73297">
        <ele>2183.77</ele>
        <time>2013-09-28T06:33:31Z</time>
      </trkpt>
      <trkpt lat="46.35276" lon="6.73301">
        <ele>2183.29</ele>
        <time>2013-09-28T06:33:45Z</time>
      </trkpt>
      <trkpt lat="46.35274" lon="6.73302">
        <ele>2180.41</ele>
        <time>2013-09-28T06:34:00Z</time>
      </trkpt>
      <trkpt lat="46.35272" lon="6.73307">
        <ele>2176.56</ele>
        <time>2013-09-28T06:34:12Z</time>
      </trkpt>
      <trkpt lat="46.3527" lon="6.73312">
        <ele>2173.68</ele>
        <time>2013-09-28T06:34:24Z</time>
      </trkpt>
      <trkpt lat="46.35267" lon="6.73317">
        <ele>2172.24</ele>
        <time>2013-09-28T06:34:40Z</time>
      </trkpt>
      <trkpt lat="46.35262" lon="6.73329">
        <ele>2169.35</ele>
        <time>2013-09-28T06:34:53Z</time>
      </trkpt>
      <trkpt lat="46.35262" lon="6.73334">
        <ele>2168.39</ele>
        <time>2013-09-28T06:34:58Z</time>
      </trkpt>
      <trkpt lat="46.3526" lon="6.73343">
        <ele>2169.35</ele>
        <time>2013-09-28T06:35:13Z</time>
      </trkpt>
      <trkpt lat="46.35259" lon="6.73344">
        <ele>2168.87</ele>
        <time>2013-09-28T06:35:28Z</time>
      </trkpt>
      <trkpt lat="46.35255" lon="6.73345">
        <ele>2167.43</ele>
        <time>2013-09-28T06:35:41Z</time>
      </trkpt>
      <trkpt lat="46.35249" lon="6.73354">
        <ele>2166.95</ele>
        <time>2013-09-28T06:35:51Z</time>
      </trkpt>
      <trkpt lat="46.35242" lon="6.73367">
        <ele>2164.06</ele>
        <time>2013-09-28T06:36:06Z</time>
      </trkpt>
      <trkpt lat="46.35236" lon="6.73378">
        <ele>2157.82</ele>
        <time>2013-09-28T06:36:16Z</time>
      </trkpt>
      <trkpt lat="46.35235" lon="6.73379">
        <ele>2156.37</ele>
        <time>2013-09-28T06:36:22Z</time>
      </trkpt>
      <trkpt lat="46.35233" lon="6.73377">
        <ele>2155.41</ele>
        <time>2013-09-28T06:36:24Z</time>
      </trkpt>
      <trkpt lat="46.35227" lon="6.73389">
        <ele>2148.2</ele>
        <time>2013-09-28T06:36:37Z</time>
      </trkpt>
      <trkpt lat="46.35226" lon="6.73394">
        <ele>2145.32</ele>
        <time>2013-09-28T06:36:45Z</time>
      </trkpt>
      <trkpt lat="46.35227" lon="6.734">
        <ele>2141.95</ele>
        <time>2013-09-28T06:36:58Z</time>
      </trkpt>
      <trkpt lat="46.35228" lon="6.73404">
        <ele>2140.99</ele>
        <time>2013-09-28T06:37:10Z</time>
      </trkpt>
      <trkpt lat="46.35231" lon="6.73409">
        <ele>2138.59</ele>
        <time>2013-09-28T06:37:25Z</time>
      </trkpt>
      <trkpt lat="46.35231" lon="6.73409">
        <ele>2138.11</ele>
        <time>2013-09-28T06:37:26Z</time>
      </trkpt>
      <trkpt lat="46.3523" lon="6.73416">
        <ele>2135.71</ele>
        <time>2013-09-28T06:37:40Z</time>
      </trkpt>
      <trkpt lat="46.35231" lon="6.7342">
        <ele>2135.71</ele>
        <time>2013-09-28T06:37:46Z</time>
      </trkpt>
      <trkpt lat="46.35232" lon="6.73436">
        <ele>2132.34</ele>
        <time>2013-09-28T06:38:01Z</time>
      </trkpt>
      <trkpt lat="46.35232" lon="6.73442">
        <ele>2131.86</ele>
        <time>2013-09-28T06:38:13Z</time>
      </trkpt>
      <trkpt lat="46.35229" lon="6.73442">
        <ele>2131.38</ele>
        <time>2013-09-28T06:38:18Z</time>
      </trkpt>
      <trkpt lat="46.35227" lon="6.73451">
        <ele>2127.53</ele>
        <time>2013-09-28T06:38:31Z</time>
      </trkpt>
      <trkpt lat="46.35225" lon="6.73459">
        <ele>2123.21</ele>
        <time>2013-09-28T06:38:45Z</time>
      </trkpt>
      <trkpt lat="46.35224" lon="6.73459">
        <ele>2120.32</ele>
        <time>2013-09-28T06:38:55Z</time>
      </trkpt>
      <trkpt lat="46.35219" lon="6.73468">
        <ele>2115.04</ele>
        <time>2013-09-28T06:39:08Z</time>
      </trkpt>
      <trkpt lat="46.35219" lon="6.73469">
        <ele>2114.56</ele>
        <time>2013-09-28T06:39:09Z</time>
      </trkpt>
      <trkpt lat="46.35218" lon="6.73474">
        <ele>2114.08</ele>
        <time>2013-09-28T06:39:14Z</time>
      </trkpt>
      <trkpt lat="46.35209" lon="6.73485">
        <ele>2110.71</ele>
        <time>2013-09-28T06:39:28Z</time>
      </trkpt>
      <trkpt lat="46.35207" lon="6.73491">
        <ele>2107.83</ele>
        <time>2013-09-28T06:39:39Z</time>
      </trkpt>
      <trkpt lat="46.35205" lon="6.73497">
        <ele>2104.46</ele>
        <time>2013-09-28T06:39:51Z</time>
      </trkpt>
      <trkpt lat="46.35202" lon="6.73498">
        <ele>2102.54</ele>
        <time>2013-09-28T06:40:03Z</time>
      </trkpt>
      <trkpt lat="46.35199" lon="6.73497">
        <ele>2098.21</ele>
        <time>2013-09-28T06:40:16Z</time>
      </trkpt>
      <trkpt lat="46.35199" lon="6.73495">
        <ele>2096.77</ele>
        <time>2013-09-28T06:40:35Z</time>
      </trkpt>
      <trkpt lat="46.35196" lon="6.73496">
        <ele>2095.33</ele>
        <time>2013-09-28T06:40:48Z</time>
      </trkpt>
      <trkpt lat="46.35193" lon="6.73503">
        <ele>2091.97</ele>
        <time>2013-09-28T06:41:00Z</time>
      </trkpt>
      <trkpt lat="46.35187" lon="6.73513">
        <ele>2089.08</ele>
        <time>2013-09-28T06:41:14Z</time>
      </trkpt>
      <trkpt lat="46.3519" lon="6.73517">
        <ele>2085.72</ele>
        <time>2013-09-28T06:41:29Z</time>
      </trkpt>
      <trkpt lat="46.35191" lon="6.7352">
        <ele>2084.76</ele>
        <time>2013-09-28T06:41:34Z</time>
      </trkpt>
      <trkpt lat="46.35192" lon="6.7353">
        <ele>2084.28</ele>
        <time>2013-09-28T06:41:46Z</time>
      </trkpt>
      <trkpt lat="46.35192" lon="6.73534">
        <ele>2083.79</ele>
        <time>2013-09-28T06:42:00Z</time>
      </trkpt>
      <trkpt lat="46.35189" lon="6.73538">
        <ele>2082.83</ele>
        <time>2013-09-28T06:42:13Z</time>
      </trkpt>
      <trkpt lat="46.35187" lon="6.73544">
        <ele>2078.99</ele>
        <time>2013-09-28T06:42:25Z</time>
      </trkpt>
      <trkpt lat="46.35186" lon="6.73555">
        <ele>2075.62</ele>
        <time>2013-09-28T06:42:35Z</time>
      </trkpt>
      <trkpt lat="46.35185" lon="6.73564">
        <ele>2072.74</ele>
        <time>2013-09-28T06:42:48Z</time>
      </trkpt>
      <trkpt lat="46.35187" lon="6.73566">
        <ele>2070.82</ele>
        <time>2013-09-28T06:43:04Z</time>
      </trkpt>
      <trkpt lat="46.35186" lon="6.7357">
        <ele>2069.38</ele>
        <time>2013-09-28T06:43:19Z</time>
      </trkpt>
      <trkpt lat="46.35187" lon="6.73574">
        <ele>2066.49</ele>
        <time>2013-09-28T06:43:31Z</time>
      </trkpt>
      <trkpt lat="46.35187" lon="6.73576">
        <ele>2065.53</ele>
        <time>2013-09-28T06:43:50Z</time>
      </trkpt>
      <trkpt lat="46.35185" lon="6.73582">
        <ele>2063.13</ele>
        <time>2013-09-28T06:44:03Z</time>
      </trkpt>
      <trkpt lat="46.35184" lon="6.73589">
        <ele>2061.2</ele>
        <time>2013-09-28T06:44:20Z</time>
      </trkpt>
      <trkpt lat="46.35184" lon="6.73593">
        <ele>2059.28</ele>
        <time>2013-09-28T06:44:31Z</time>
      </trkpt>
      <trkpt lat="46.35182" lon="6.73599">
        <ele>2057.36</ele>
        <time>2013-09-28T06:44:46Z</time>
      </trkpt>
      <trkpt lat="46.35182" lon="6.73607">
        <ele>2056.4</ele>
        <time>2013-09-28T06:45:01Z</time>
      </trkpt>
      <trkpt lat="46.35182" lon="6.73613">
        <ele>2054.47</ele>
        <time>2013-09-28T06:45:13Z</time>
      </trkpt>
      <trkpt lat="46.35181" lon="6.73616">
        <ele>2053.03</ele>
        <time>2013-09-28T06:45:28Z</time>
      </trkpt>
      <trkpt lat="46.35181" lon="6.7362">
        <ele>2051.59</ele>
        <time>2013-09-28T06:45:42Z</time>
      </trkpt>
      <trkpt lat="46.3518" lon="6.73628">
        <ele>2049.67</ele>
        <time>2013-09-28T06:45:58Z</time>
      </trkpt>
      <trkpt lat="46.35178" lon="6.73634">
        <ele>2048.23</ele>
        <time>2013-09-28T06:46:15Z</time>
      </trkpt>
      <trkpt lat="46.35178" lon="6.73634">
        <ele>2046.78</ele>
        <time>2013-09-28T06:46:38Z</time>
      </trkpt>
      <trkpt lat="46.35177" lon="6.73641">
        <ele>2042.94</ele>
        <time>2013-09-28T06:46:53Z</time>
      </trkpt>
      <trkpt lat="46.35178" lon="6.73645">
        <ele>2041.02</ele>
        <time>2013-09-28T06:47:06Z</time>
      </trkpt>
      <trkpt lat="46.35177" lon="6.73647">
        <ele>2040.54</ele>
        <time>2013-09-28T06:47:21Z</time>
      </trkpt>
      <trkpt lat="46.35178" lon="6.73652">
        <ele>2040.05</ele>
        <time>2013-09-28T06:47:38Z</time>
      </trkpt>
      <trkpt lat="46.35178" lon="6.73653">
        <ele>2038.61</ele>
        <time>2013-09-28T06:47:51Z</time>
      </trkpt>
      <trkpt lat="46.35177" lon="6.73655">
        <ele>2038.13</ele>
        <time>2013-09-28T06:48:05Z</time>
      </trkpt>
      <trkpt lat="46.35175" lon="6.73657">
        <ele>2037.17</ele>
        <time>2013-09-28T06:48:19Z</time>
      </trkpt>
      <trkpt lat="46.35175" lon="6.73667">
        <ele>2035.73</ele>
        <time>2013-09-28T06:48:30Z</time>
      </trkpt>
      <trkpt lat="46.35175" lon="6.73669">
        <ele>2035.73</ele>
        <time>2013-09-28T06:48:47Z</time>
      </trkpt>
      <trkpt lat="46.35176" lon="6.73672">
        <ele>2035.25</ele>
        <time>2013-09-28T06:49:01Z</time>
      </trkpt>
      <trkpt lat="46.35175" lon="6.73672">
        <ele>2035.25</ele>
        <time>2013-09-28T06:49:02Z</time>
      </trkpt>
      <trkpt lat="46.35167" lon="6.73677">
        <ele>2034.77</ele>
        <time>2013-09-28T06:49:15Z</time>
      </trkpt>
      <trkpt lat="46.35166" lon="6.73688">
        <ele>2033.81</ele>
        <time>2013-09-28T06:49:26Z</time>
      </trkpt>
      <trkpt lat="46.35167" lon="6.737">
        <ele>2032.84</ele>
        <time>2013-09-28T06:49:43Z</time>
      </trkpt>
      <trkpt lat="46.35165" lon="6.7371">
        <ele>2031.88</ele>
        <time>2013-09-28T06:49:56Z</time>
      </trkpt>
      <trkpt lat="46.35168" lon="6.73717">
        <ele>2031.4</ele>
        <time>2013-09-28T06:50:08Z</time>
      </trkpt>
      <trkpt lat="46.35164" lon="6.73726">
        <ele>2030.44</ele>
        <time>2013-09-28T06:50:21Z</time>
      </trkpt>
      <trkpt lat="46.35164" lon="6.73728">
        <ele>2029.96</ele>
        <time>2013-09-28T06:50:37Z</time>
      </trkpt>
      <trkpt lat="46.35157" lon="6.73731">
        <ele>2030.44</ele>
        <time>2013-09-28T06:50:50Z</time>
      </trkpt>
      <trkpt lat="46.35147" lon="6.73746">
        <ele>2028.04</ele>
        <time>2013-09-28T06:51:03Z</time>
      </trkpt>
      <trkpt lat="46.35142" lon="6.73747">
        <ele>2022.27</ele>
        <time>2013-09-28T06:51:18Z</time>
      </trkpt>
      <trkpt lat="46.35141" lon="6.73749">
        <ele>2018.91</ele>
        <time>2013-09-28T06:51:55Z</time>
      </trkpt>
      <trkpt lat="46.35137" lon="6.73755">
        <ele>2015.06</ele>
        <time>2013-09-28T06:52:04Z</time>
      </trkpt>
      <trkpt lat="46.35131" lon="6.73762">
        <ele>2009.29</ele>
        <time>2013-09-28T06:52:18Z</time>
      </trkpt>
      <trkpt lat="46.3513" lon="6.73765">
        <ele>2007.85</ele>
        <time>2013-09-28T06:52:20Z</time>
      </trkpt>
      <trkpt lat="46.35126" lon="6.73769">
        <ele>2004.01</ele>
        <time>2013-09-28T06:52:34Z</time>
      </trkpt>
      <trkpt lat="46.35124" lon="6.7377">
        <ele>2000.16</ele>
        <time>2013-09-28T06:52:45Z</time>
      </trkpt>
      <trkpt lat="46.3512" lon="6.73771">
        <ele>1995.35</ele>
        <time>2013-09-28T06:53:01Z</time>
      </trkpt>
      <trkpt lat="46.35114" lon="6.73778">
        <ele>1992.47</ele>
        <time>2013-09-28T06:53:13Z</time>
      </trkpt>
      <trkpt lat="46.35115" lon="6.73782">
        <ele>1988.62</ele>
        <time>2013-09-28T06:53:30Z</time>
      </trkpt>
      <trkpt lat="46.35115" lon="6.73784">
        <ele>1987.66</ele>
        <time>2013-09-28T06:53:45Z</time>
      </trkpt>
      <trkpt lat="46.35115" lon="6.73785">
        <ele>1986.7</ele>
        <time>2013-09-28T06:53:59Z</time>
      </trkpt>
      <trkpt lat="46.35114" lon="6.73787">
        <ele>1985.26</ele>
        <time>2013-09-28T06:54:14Z</time>
      </trkpt>
      <trkpt lat="46.35112" lon="6.73796">
        <ele>1983.34</ele>
        <time>2013-09-28T06:54:26Z</time>
      </trkpt>
      <trkpt lat="46.35109" lon="6.73804">
        <ele>1980.45</ele>
        <time>2013-09-28T06:54:41Z</time>
      </trkpt>
      <trkpt lat="46.35104" lon="6.73814">
        <ele>1975.65</ele>
        <time>2013-09-28T06:54:53Z</time>
      </trkpt>
      <trkpt lat="46.35101" lon="6.73824">
        <ele>1973.24</ele>
        <time>2013-09-28T06:55:06Z</time>
      </trkpt>
      <trkpt lat="46.35097" lon="6.73842">
        <ele>1973.24</ele>
        <time>2013-09-28T06:55:18Z</time>
      </trkpt>
      <trkpt lat="46.35093" lon="6.73851">
        <ele>1974.2</ele>
        <time>2013-09-28T06:55:25Z</time>
      </trkpt>
      <trkpt lat="46.35091" lon="6.7387">
        <ele>1974.69</ele>
        <time>2013-09-28T06:55:38Z</time>
      </trkpt>
      <trkpt lat="46.35089" lon="6.73888">
        <ele>1975.65</ele>
        <time>2013-09-28T06:55:50Z</time>
      </trkpt>
      <trkpt lat="46.35087" lon="6.73902">
        <ele>1975.65</ele>
        <time>2013-09-28T06:56:06Z</time>
      </trkpt>
      <trkpt lat="46.35087" lon="6.73906">
        <ele>1976.13</ele>
        <time>2013-09-28T06:56:26Z</time>
      </trkpt>
      <trkpt lat="46.35086" lon="6.7391">
        <ele>1974.69</ele>
        <time>2013-09-28T06:56:40Z</time>
      </trkpt>
      <trkpt lat="46.35078" lon="6.73919">
        <ele>1971.8</ele>
        <time>2013-09-28T06:56:53Z</time>
      </trkpt>
      <trkpt lat="46.35072" lon="6.73931">
        <ele>1968.92</ele>
        <time>2013-09-28T06:57:06Z</time>
      </trkpt>
      <trkpt lat="46.3507" lon="6.73926">
        <ele>1967.48</ele>
        <time>2013-09-28T06:57:15Z</time>
      </trkpt>
      <trkpt lat="46.35064" lon="6.73913">
        <ele>1965.55</ele>
        <time>2013-09-28T06:57:28Z</time>
      </trkpt>
      <trkpt lat="46.3506" lon="6.73908">
        <ele>1965.55</ele>
        <time>2013-09-28T06:57:37Z</time>
      </trkpt>
      <trkpt lat="46.35054" lon="6.73914">
        <ele>1964.59</ele>
        <time>2013-09-28T06:57:51Z</time>
      </trkpt>
      <trkpt lat="46.35048" lon="6.73912">
        <ele>1964.11</ele>
        <time>2013-09-28T06:58:05Z</time>
      </trkpt>
      <trkpt lat="46.35045" lon="6.73899">
        <ele>1961.71</ele>
        <time>2013-09-28T06:58:20Z</time>
      </trkpt>
      <trkpt lat="46.35042" lon="6.73893">
        <ele>1960.27</ele>
        <time>2013-09-28T06:58:35Z</time>
      </trkpt>
      <trkpt lat="46.35041" lon="6.73887">
        <ele>1958.82</ele>
        <time>2013-09-28T06:58:41Z</time>
      </trkpt>
      <trkpt lat="46.35038" lon="6.73876">
        <ele>1957.38</ele>
        <time>2013-09-28T06:58:51Z</time>
      </trkpt>
      <trkpt lat="46.35037" lon="6.73865">
        <ele>1954.5</ele>
        <time>2013-09-28T06:59:05Z</time>
      </trkpt>
      <trkpt lat="46.35038" lon="6.73854">
        <ele>1953.06</ele>
        <time>2013-09-28T06:59:17Z</time>
      </trkpt>
      <trkpt lat="46.35036" lon="6.7384">
        <ele>1951.13</ele>
        <time>2013-09-28T06:59:31Z</time>
      </trkpt>
      <trkpt lat="46.35038" lon="6.73826">
        <ele>1947.77</ele>
        <time>2013-09-28T06:59:46Z</time>
      </trkpt>
      <trkpt lat="46.35036" lon="6.73817">
        <ele>1944.88</ele>
        <time>2013-09-28T06:59:56Z</time>
      </trkpt>
      <trkpt lat="46.35025" lon="6.73825">
        <ele>1943.44</ele>
        <time>2013-09-28T07:00:11Z</time>
      </trkpt>
      <trkpt lat="46.35023" lon="6.73826">
        <ele>1942.96</ele>
        <time>2013-09-28T07:00:14Z</time>
      </trkpt>
      <trkpt lat="46.35012" lon="6.73825">
        <ele>1941.52</ele>
        <time>2013-09-28T07:00:29Z</time>
      </trkpt>
      <trkpt lat="46.35009" lon="6.73823">
        <ele>1941.52</ele>
        <time>2013-09-28T07:00:34Z</time>
      </trkpt>
      <trkpt lat="46.34999" lon="6.73813">
        <ele>1939.6</ele>
        <time>2013-09-28T07:00:47Z</time>
      </trkpt>
      <trkpt lat="46.34997" lon="6.73802">
        <ele>1937.67</ele>
        <time>2013-09-28T07:01:04Z</time>
      </trkpt>
      <trkpt lat="46.35" lon="6.73786">
        <ele>1934.31</ele>
        <time>2013-09-28T07:01:17Z</time>
      </trkpt>
      <trkpt lat="46.35" lon="6.73776">
        <ele>1932.87</ele>
        <time>2013-09-28T07:01:24Z</time>
      </trkpt>
      <trkpt lat="46.34993" lon="6.73776">
        <ele>1930.95</ele>
        <time>2013-09-28T07:01:33Z</time>
      </trkpt>
      <trkpt lat="46.34993" lon="6.73762">
        <ele>1925.66</ele>
        <time>2013-09-28T07:01:47Z</time>
      </trkpt>
      <trkpt lat="46.34996" lon="6.73749">
        <ele>1918.93</ele>
        <time>2013-09-28T07:02:00Z</time>
      </trkpt>
      <trkpt lat="46.34998" lon="6.73738">
        <ele>1911.72</ele>
        <time>2013-09-28T07:02:15Z</time>
      </trkpt>
      <trkpt lat="46.35" lon="6.73722">
        <ele>1901.63</ele>
        <time>2013-09-28T07:02:28Z</time>
      </trkpt>
      <trkpt lat="46.35001" lon="6.73719">
        <ele>1900.18</ele>
        <time>2013-09-28T07:02:30Z</time>
      </trkpt>
      <trkpt lat="46.34999" lon="6.7371">
        <ele>1893.93</ele>
        <time>2013-09-28T07:02:46Z</time>
      </trkpt>
      <trkpt lat="46.35002" lon="6.73713">
        <ele>1880</ele>
        <time>2013-09-28T07:03:11Z</time>
      </trkpt>
      <trkpt lat="46.35006" lon="6.73698">
        <ele>1872.3</ele>
        <time>2013-09-28T07:03:23Z</time>
      </trkpt>
      <trkpt lat="46.34997" lon="6.73682">
        <ele>1865.09</ele>
        <time>2013-09-28T07:03:37Z</time>
      </trkpt>
      <trkpt lat="46.34993" lon="6.73683">
        <ele>1864.61</ele>
        <time>2013-09-28T07:03:41Z</time>
      </trkpt>
      <trkpt lat="46.34982" lon="6.73699">
        <ele>1862.69</ele>
        <time>2013-09-28T07:03:54Z</time>
      </trkpt>
      <trkpt lat="46.34969" lon="6.73708">
        <ele>1860.77</ele>
        <time>2013-09-28T07:04:11Z</time>
      </trkpt>
      <trkpt lat="46.34962" lon="6.73715">
        <ele>1859.33</ele>
        <time>2013-09-28T07:04:22Z</time>
      </trkpt>
      <trkpt lat="46.34961" lon="6.73713">
        <ele>1858.85</ele>
        <time>2013-09-28T07:04:24Z</time>
      </trkpt>
      <trkpt lat="46.34961" lon="6.73705">
        <ele>1854.52</ele>
        <time>2013-09-28T07:04:38Z</time>
      </trkpt>
      <trkpt lat="46.3496" lon="6.73691">
        <ele>1852.6</ele>
        <time>2013-09-28T07:04:53Z</time>
      </trkpt>
      <trkpt lat="46.34957" lon="6.73676">
        <ele>1849.71</ele>
        <time>2013-09-28T07:05:07Z</time>
      </trkpt>
      <trkpt lat="46.34954" lon="6.73663">
        <ele>1845.87</ele>
        <time>2013-09-28T07:05:19Z</time>
      </trkpt>
      <trkpt lat="46.34954" lon="6.73668">
        <ele>1844.91</ele>
        <time>2013-09-28T07:05:29Z</time>
      </trkpt>
      <trkpt lat="46.34949" lon="6.73676">
        <ele>1843.95</ele>
        <time>2013-09-28T07:05:37Z</time>
      </trkpt>
      <trkpt lat="46.3494" lon="6.73677">
        <ele>1842.98</ele>
        <time>2013-09-28T07:05:49Z</time>
      </trkpt>
      <trkpt lat="46.34935" lon="6.73675">
        <ele>1841.06</ele>
        <time>2013-09-28T07:06:00Z</time>
      </trkpt>
      <trkpt lat="46.34934" lon="6.73661">
        <ele>1838.66</ele>
        <time>2013-09-28T07:06:13Z</time>
      </trkpt>
      <trkpt lat="46.34933" lon="6.73658">
        <ele>1838.18</ele>
        <time>2013-09-28T07:06:15Z</time>
      </trkpt>
      <trkpt lat="46.3493" lon="6.73641">
        <ele>1834.33</ele>
        <time>2013-09-28T07:06:31Z</time>
      </trkpt>
      <trkpt lat="46.34926" lon="6.73634">
        <ele>1832.41</ele>
        <time>2013-09-28T07:06:44Z</time>
      </trkpt>
      <trkpt lat="46.34919" lon="6.73621">
        <ele>1830.49</ele>
        <time>2013-09-28T07:07:00Z</time>
      </trkpt>
      <trkpt lat="46.34921" lon="6.73611">
        <ele>1828.56</ele>
        <time>2013-09-28T07:07:10Z</time>
      </trkpt>
      <trkpt lat="46.34921" lon="6.73595">
        <ele>1825.2</ele>
        <time>2013-09-28T07:07:22Z</time>
      </trkpt>
      <trkpt lat="46.34919" lon="6.73583">
        <ele>1821.84</ele>
        <time>2013-09-28T07:07:29Z</time>
      </trkpt>
      <trkpt lat="46.34916" lon="6.73571">
        <ele>1818.95</ele>
        <time>2013-09-28T07:07:37Z</time>
      </trkpt>
      <trkpt lat="46.34909" lon="6.73561">
        <ele>1817.03</ele>
        <time>2013-09-28T07:07:44Z</time>
      </trkpt>
      <trkpt lat="46.34904" lon="6.73554">
        <ele>1811.26</ele>
        <time>2013-09-28T07:07:59Z</time>
      </trkpt>
      <trkpt lat="46.34902" lon="6.73556">
        <ele>1807.9</ele>
        <time>2013-09-28T07:08:05Z</time>
      </trkpt>
      <trkpt lat="46.34894" lon="6.73563">
        <ele>1801.17</ele>
        <time>2013-09-28T07:08:18Z</time>
      </trkpt>
      <trkpt lat="46.34892" lon="6.73566">
        <ele>1799.73</ele>
        <time>2013-09-28T07:08:21Z</time>
      </trkpt>
      <trkpt lat="46.34889" lon="6.73571">
        <ele>1797.8</ele>
        <time>2013-09-28T07:08:25Z</time>
      </trkpt>
      <trkpt lat="46.34886" lon="6.73581">
        <ele>1793.48</ele>
        <time>2013-09-28T07:08:36Z</time>
      </trkpt>
      <trkpt lat="46.34875" lon="6.73589">
        <ele>1787.71</ele>
        <time>2013-09-28T07:08:53Z</time>
      </trkpt>
      <trkpt lat="46.34869" lon="6.73579">
        <ele>1785.31</ele>
        <time>2013-09-28T07:09:07Z</time>
      </trkpt>
      <trkpt lat="46.34867" lon="6.73575">
        <ele>1784.34</ele>
        <time>2013-09-28T07:09:10Z</time>
      </trkpt>
      <trkpt lat="46.34858" lon="6.73578">
        <ele>1782.9</ele>
        <time>2013-09-28T07:09:22Z</time>
      </trkpt>
      <trkpt lat="46.34851" lon="6.73572">
        <ele>1780.98</ele>
        <time>2013-09-28T07:09:34Z</time>
      </trkpt>
      <trkpt lat="46.34849" lon="6.73565">
        <ele>1779.54</ele>
        <time>2013-09-28T07:09:39Z</time>
      </trkpt>
      <trkpt lat="46.34847" lon="6.73552">
        <ele>1776.65</ele>
        <time>2013-09-28T07:09:53Z</time>
      </trkpt>
      <trkpt lat="46.34842" lon="6.7355">
        <ele>1775.69</ele>
        <time>2013-09-28T07:10:06Z</time>
      </trkpt>
      <trkpt lat="46.34844" lon="6.7355">
        <ele>1775.21</ele>
        <time>2013-09-28T07:10:44Z</time>
      </trkpt>
      <trkpt lat="46.34846" lon="6.73549">
        <ele>1770.89</ele>
        <time>2013-09-28T07:11:03Z</time>
      </trkpt>
      <trkpt lat="46.34845" lon="6.73551">
        <ele>1769.44</ele>
        <time>2013-09-28T07:11:12Z</time>
      </trkpt>
      <trkpt lat="46.34836" lon="6.7356">
        <ele>1767.04</ele>
        <time>2013-09-28T07:11:24Z</time>
      </trkpt>
      <trkpt lat="46.34831" lon="6.73558">
        <ele>1766.08</ele>
        <time>2013-09-28T07:11:42Z</time>
      </trkpt>
      <trkpt lat="46.34834" lon="6.73556">
        <ele>1767.04</ele>
        <time>2013-09-28T07:12:02Z</time>
      </trkpt>
      <trkpt lat="46.34836" lon="6.73552">
        <ele>1768.96</ele>
        <time>2013-09-28T07:12:26Z</time>
      </trkpt>
      <trkpt lat="46.34833" lon="6.7355">
        <ele>1770.41</ele>
        <time>2013-09-28T07:12:55Z</time>
      </trkpt>
      <trkpt lat="46.34828" lon="6.73549">
        <ele>1771.85</ele>
        <time>2013-09-28T07:13:07Z</time>
      </trkpt>
      <trkpt lat="46.34824" lon="6.73546">
        <ele>1771.85</ele>
        <time>2013-09-28T07:13:12Z</time>
      </trkpt>
      <trkpt lat="46.34813" lon="6.73533">
        <ele>1771.85</ele>
        <time>2013-09-28T07:13:25Z</time>
      </trkpt>
      <trkpt lat="46.34806" lon="6.73529">
        <ele>1771.85</ele>
        <time>2013-09-28T07:13:31Z</time>
      </trkpt>
      <trkpt lat="46.34797" lon="6.73521">
        <ele>1772.33</ele>
        <time>2013-09-28T07:13:39Z</time>
      </trkpt>
      <trkpt lat="46.34795" lon="6.73519">
        <ele>1772.33</ele>
        <time>2013-09-28T07:13:41Z</time>
      </trkpt>
      <trkpt lat="46.34784" lon="6.73503">
        <ele>1773.29</ele>
        <time>2013-09-28T07:13:56Z</time>
      </trkpt>
      <trkpt lat="46.34774" lon="6.73497">
        <ele>1775.21</ele>
        <time>2013-09-28T07:14:08Z</time>
      </trkpt>
      <trkpt lat="46.34759" lon="6.73481">
        <ele>1777.13</ele>
        <time>2013-09-28T07:14:21Z</time>
      </trkpt>
      <trkpt lat="46.34754" lon="6.73478">
        <ele>1777.13</ele>
        <time>2013-09-28T07:14:25Z</time>
      </trkpt>
      <trkpt lat="46.34744" lon="6.73456">
        <ele>1775.21</ele>
        <time>2013-09-28T07:14:40Z</time>
      </trkpt>
      <trkpt lat="46.34744" lon="6.73449">
        <ele>1771.85</ele>
        <time>2013-09-28T07:14:54Z</time>
      </trkpt>
      <trkpt lat="46.34736" lon="6.73444">
        <ele>1772.81</ele>
        <time>2013-09-28T07:15:07Z</time>
      </trkpt>
      <trkpt lat="46.34735" lon="6.73446">
        <ele>1775.21</ele>
        <time>2013-09-28T07:15:12Z</time>
      </trkpt>
      <trkpt lat="46.34732" lon="6.73445">
        <ele>1776.65</ele>
        <time>2013-09-28T07:15:15Z</time>
      </trkpt>
      <trkpt lat="46.34721" lon="6.73446">
        <ele>1780.02</ele>
        <time>2013-09-28T07:15:27Z</time>
      </trkpt>
      <trkpt lat="46.34715" lon="6.73435">
        <ele>1783.38</ele>
        <time>2013-09-28T07:15:40Z</time>
      </trkpt>
      <trkpt lat="46.34714" lon="6.73434">
        <ele>1781.46</ele>
        <time>2013-09-28T07:15:46Z</time>
      </trkpt>
      <trkpt lat="46.34706" lon="6.73425">
        <ele>1779.54</ele>
        <time>2013-09-28T07:15:58Z</time>
      </trkpt>
      <trkpt lat="46.34704" lon="6.73425">
        <ele>1780.02</ele>
        <time>2013-09-28T07:16:11Z</time>
      </trkpt>
      <trkpt lat="46.34702" lon="6.73425">
        <ele>1781.46</ele>
        <time>2013-09-28T07:16:31Z</time>
      </trkpt>
      <trkpt lat="46.347" lon="6.73425">
        <ele>1781.46</ele>
        <time>2013-09-28T07:16:47Z</time>
      </trkpt>
      <trkpt lat="46.347" lon="6.73426">
        <ele>1779.54</ele>
        <time>2013-09-28T07:16:58Z</time>
      </trkpt>
      <trkpt lat="46.34699" lon="6.73425">
        <ele>1778.58</ele>
        <time>2013-09-28T07:17:02Z</time>
      </trkpt>
      <trkpt lat="46.34697" lon="6.73422">
        <ele>1778.1</ele>
        <time>2013-09-28T07:17:05Z</time>
      </trkpt>
      <trkpt lat="46.34693" lon="6.73425">
        <ele>1776.65</ele>
        <time>2013-09-28T07:17:09Z</time>
      </trkpt>
      <trkpt lat="46.3469" lon="6.73427">
        <ele>1776.17</ele>
        <time>2013-09-28T07:17:11Z</time>
      </trkpt>
      <trkpt lat="46.34688" lon="6.7343">
        <ele>1775.69</ele>
        <time>2013-09-28T07:17:13Z</time>
      </trkpt>
      <trkpt lat="46.34662" lon="6.73443">
        <ele>1773.77</ele>
        <time>2013-09-28T07:17:25Z</time>
      </trkpt>
      <trkpt lat="46.3466" lon="6.73451">
        <ele>1773.77</ele>
        <time>2013-09-28T07:17:32Z</time>
      </trkpt>
      <trkpt lat="46.34661" lon="6.73483">
        <ele>1771.85</ele>
        <time>2013-09-28T07:17:50Z</time>
      </trkpt>
      <trkpt lat="46.34662" lon="6.73491">
        <ele>1770.89</ele>
        <time>2013-09-28T07:17:57Z</time>
      </trkpt>
      <trkpt lat="46.3466" lon="6.73523">
        <ele>1770.89</ele>
        <time>2013-09-28T07:18:15Z</time>
      </trkpt>
      <trkpt lat="46.34658" lon="6.73548">
        <ele>1771.37</ele>
        <time>2013-09-28T07:18:29Z</time>
      </trkpt>
      <trkpt lat="46.34656" lon="6.73553">
        <ele>1772.33</ele>
        <time>2013-09-28T07:18:37Z</time>
      </trkpt>
      <trkpt lat="46.34654" lon="6.73579">
        <ele>1774.25</ele>
        <time>2013-09-28T07:18:52Z</time>
      </trkpt>
      <trkpt lat="46.34652" lon="6.7361">
        <ele>1774.25</ele>
        <time>2013-09-28T07:19:11Z</time>
      </trkpt>
      <trkpt lat="46.34648" lon="6.73637">
        <ele>1777.61</ele>
        <time>2013-09-28T07:19:28Z</time>
      </trkpt>
      <trkpt lat="46.34651" lon="6.73663">
        <ele>1777.61</ele>
        <time>2013-09-28T07:19:44Z</time>
      </trkpt>
      <trkpt lat="46.34653" lon="6.73681">
        <ele>1779.06</ele>
        <time>2013-09-28T07:20:03Z</time>
      </trkpt>
      <trkpt lat="46.34654" lon="6.73702">
        <ele>1788.19</ele>
        <time>2013-09-28T07:20:21Z</time>
      </trkpt>
      <trkpt lat="46.34655" lon="6.73721">
        <ele>1793</ele>
        <time>2013-09-28T07:20:39Z</time>
      </trkpt>
      <trkpt lat="46.3466" lon="6.73744">
        <ele>1793.48</ele>
        <time>2013-09-28T07:20:56Z</time>
      </trkpt>
      <trkpt lat="46.34667" lon="6.73761">
        <ele>1793.96</ele>
        <time>2013-09-28T07:21:12Z</time>
      </trkpt>
      <trkpt lat="46.34668" lon="6.73791">
        <ele>1795.4</ele>
        <time>2013-09-28T07:21:24Z</time>
      </trkpt>
      <trkpt lat="46.34675" lon="6.73815">
        <ele>1794.92</ele>
        <time>2013-09-28T07:21:40Z</time>
      </trkpt>
      <trkpt lat="46.3466" lon="6.73808">
        <ele>1797.8</ele>
        <time>2013-09-28T07:22:08Z</time>
      </trkpt>
      <trkpt lat="46.3466" lon="6.7381">
        <ele>1797.8</ele>
        <time>2013-09-28T07:22:09Z</time>
      </trkpt>
      <trkpt lat="46.34657" lon="6.73838">
        <ele>1799.73</ele>
        <time>2013-09-28T07:22:28Z</time>
      </trkpt>
      <trkpt lat="46.34653" lon="6.73862">
        <ele>1802.61</ele>
        <time>2013-09-28T07:22:49Z</time>
      </trkpt>
      <trkpt lat="46.3465" lon="6.73877">
        <ele>1805.97</ele>
        <time>2013-09-28T07:23:05Z</time>
      </trkpt>
      <trkpt lat="46.34643" lon="6.73903">
        <ele>1808.86</ele>
        <time>2013-09-28T07:23:25Z</time>
      </trkpt>
      <trkpt lat="46.34649" lon="6.73912">
        <ele>1809.34</ele>
        <time>2013-09-28T07:23:35Z</time>
      </trkpt>
      <trkpt lat="46.34649" lon="6.73957">
        <ele>1809.34</ele>
        <time>2013-09-28T07:24:00Z</time>
      </trkpt>
      <trkpt lat="46.34643" lon="6.73968">
        <ele>1809.82</ele>
        <time>2013-09-28T07:24:10Z</time>
      </trkpt>
      <trkpt lat="46.34628" lon="6.73974">
        <ele>1814.15</ele>
        <time>2013-09-28T07:24:28Z</time>
      </trkpt>
      <trkpt lat="46.34617" lon="6.73975">
        <ele>1817.99</ele>
        <time>2013-09-28T07:24:43Z</time>
      </trkpt>
      <trkpt lat="46.3461" lon="6.73978">
        <ele>1826.16</ele>
        <time>2013-09-28T07:25:00Z</time>
      </trkpt>
      <trkpt lat="46.34608" lon="6.73986">
        <ele>1830.49</ele>
        <time>2013-09-28T07:25:20Z</time>
      </trkpt>
      <trkpt lat="46.34605" lon="6.74">
        <ele>1835.29</ele>
        <time>2013-09-28T07:25:31Z</time>
      </trkpt>
      <trkpt lat="46.34603" lon="6.74026">
        <ele>1850.19</ele>
        <time>2013-09-28T07:25:49Z</time>
      </trkpt>
      <trkpt lat="46.34602" lon="6.74044">
        <ele>1852.6</ele>
        <time>2013-09-28T07:26:08Z</time>
      </trkpt>
      <trkpt lat="46.34598" lon="6.74056">
        <ele>1859.33</ele>
        <time>2013-09-28T07:26:28Z</time>
      </trkpt>
      <trkpt lat="46.34604" lon="6.7405">
        <ele>1870.86</ele>
        <time>2013-09-28T07:26:47Z</time>
      </trkpt>
      <trkpt lat="46.34603" lon="6.74063">
        <ele>1879.51</ele>
        <time>2013-09-28T07:27:05Z</time>
      </trkpt>
      <trkpt lat="46.34595" lon="6.74074">
        <ele>1892.01</ele>
        <time>2013-09-28T07:27:24Z</time>
      </trkpt>
      <trkpt lat="46.34587" lon="6.74078">
        <ele>1902.59</ele>
        <time>2013-09-28T07:27:46Z</time>
      </trkpt>
      <trkpt lat="46.34585" lon="6.74089">
        <ele>1913.64</ele>
        <time>2013-09-28T07:28:06Z</time>
      </trkpt>
      <trkpt lat="46.3457" lon="6.74111">
        <ele>1930.95</ele>
        <time>2013-09-28T07:28:24Z</time>
      </trkpt>
      <trkpt lat="46.34557" lon="6.7415">
        <ele>1950.17</ele>
        <time>2013-09-28T07:28:45Z</time>
      </trkpt>
      <trkpt lat="46.34574" lon="6.74186">
        <ele>1961.71</ele>
        <time>2013-09-28T07:29:04Z</time>
      </trkpt>
      <trkpt lat="46.34571" lon="6.74216">
        <ele>1954.98</ele>
        <time>2013-09-28T07:29:23Z</time>
      </trkpt>
      <trkpt lat="46.34564" lon="6.74256">
        <ele>1942.96</ele>
        <time>2013-09-28T07:29:41Z</time>
      </trkpt>
      <trkpt lat="46.34552" lon="6.7428">
        <ele>1928.06</ele>
        <time>2013-09-28T07:29:59Z</time>
      </trkpt>
      <trkpt lat="46.34547" lon="6.74294">
        <ele>1928.54</ele>
        <time>2013-09-28T07:30:17Z</time>
      </trkpt>
      <trkpt lat="46.34544" lon="6.74296">
        <ele>1928.06</ele>
        <time>2013-09-28T07:30:50Z</time>
      </trkpt>
      <trkpt lat="46.34547" lon="6.74306">
        <ele>1928.06</ele>
        <time>2013-09-28T07:30:55Z</time>
      </trkpt>
      <trkpt lat="46.34549" lon="6.74315">
        <ele>1928.06</ele>
        <time>2013-09-28T07:31:14Z</time>
      </trkpt>
      <trkpt lat="46.34549" lon="6.74314">
        <ele>1928.06</ele>
        <time>2013-09-28T07:31:38Z</time>
      </trkpt>
      <trkpt lat="46.34551" lon="6.74316">
        <ele>1929.02</ele>
        <time>2013-09-28T07:31:56Z</time>
      </trkpt>
      <trkpt lat="46.34562" lon="6.7433">
        <ele>1928.54</ele>
        <time>2013-09-28T07:32:13Z</time>
      </trkpt>
      <trkpt lat="46.3457" lon="6.7435">
        <ele>1926.62</ele>
        <time>2013-09-28T07:32:28Z</time>
      </trkpt>
      <trkpt lat="46.34572" lon="6.74358">
        <ele>1925.66</ele>
        <time>2013-09-28T07:32:34Z</time>
      </trkpt>
      <trkpt lat="46.34584" lon="6.74368">
        <ele>1923.74</ele>
        <time>2013-09-28T07:32:49Z</time>
      </trkpt>
      <trkpt lat="46.34587" lon="6.74368">
        <ele>1923.25</ele>
        <time>2013-09-28T07:32:52Z</time>
      </trkpt>
      <trkpt lat="46.34601" lon="6.74371">
        <ele>1923.25</ele>
        <time>2013-09-28T07:33:06Z</time>
      </trkpt>
      <trkpt lat="46.34613" lon="6.74369">
        <ele>1923.25</ele>
        <time>2013-09-28T07:33:15Z</time>
      </trkpt>
      <trkpt lat="46.34633" lon="6.74386">
        <ele>1922.29</ele>
        <time>2013-09-28T07:33:31Z</time>
      </trkpt>
      <trkpt lat="46.34649" lon="6.74404">
        <ele>1922.29</ele>
        <time>2013-09-28T07:33:48Z</time>
      </trkpt>
      <trkpt lat="46.3465" lon="6.74409">
        <ele>1922.29</ele>
        <time>2013-09-28T07:33:51Z</time>
      </trkpt>
      <trkpt lat="46.34655" lon="6.7443">
        <ele>1922.29</ele>
        <time>2013-09-28T07:34:03Z</time>
      </trkpt>
      <trkpt lat="46.34664" lon="6.74461">
        <ele>1921.81</ele>
        <time>2013-09-28T07:34:19Z</time>
      </trkpt>
      <trkpt lat="46.3467" lon="6.74473">
        <ele>1921.81</ele>
        <time>2013-09-28T07:34:31Z</time>
      </trkpt>
      <trkpt lat="46.34673" lon="6.74476">
        <ele>1921.81</ele>
        <time>2013-09-28T07:34:35Z</time>
      </trkpt>
      <trkpt lat="46.34677" lon="6.74482">
        <ele>1921.81</ele>
        <time>2013-09-28T07:34:40Z</time>
      </trkpt>
      <trkpt lat="46.34678" lon="6.74492">
        <ele>1921.81</ele>
        <time>2013-09-28T07:34:44Z</time>
      </trkpt>
      <trkpt lat="46.34682" lon="6.74509">
        <ele>1921.33</ele>
        <time>2013-09-28T07:34:58Z</time>
      </trkpt>
      <trkpt lat="46.34682" lon="6.7451">
        <ele>1921.33</ele>
        <time>2013-09-28T07:34:59Z</time>
      </trkpt>
      <trkpt lat="46.34696" lon="6.74525">
        <ele>1920.85</ele>
        <time>2013-09-28T07:35:16Z</time>
      </trkpt>
      <trkpt lat="46.34702" lon="6.74539">
        <ele>1919.89</ele>
        <time>2013-09-28T07:35:30Z</time>
      </trkpt>
      <trkpt lat="46.34703" lon="6.74548">
        <ele>1919.89</ele>
        <time>2013-09-28T07:35:44Z</time>
      </trkpt>
      <trkpt lat="46.34708" lon="6.74563">
        <ele>1916.53</ele>
        <time>2013-09-28T07:35:54Z</time>
      </trkpt>
      <trkpt lat="46.34715" lon="6.7459">
        <ele>1909.8</ele>
        <time>2013-09-28T07:36:10Z</time>
      </trkpt>
      <trkpt lat="46.3472" lon="6.74617">
        <ele>1904.03</ele>
        <time>2013-09-28T07:36:24Z</time>
      </trkpt>
      <trkpt lat="46.34733" lon="6.74625">
        <ele>1907.39</ele>
        <time>2013-09-28T07:36:41Z</time>
      </trkpt>
      <trkpt lat="46.34739" lon="6.7465">
        <ele>1906.91</ele>
        <time>2013-09-28T07:36:57Z</time>
      </trkpt>
      <trkpt lat="46.34744" lon="6.7467">
        <ele>1909.32</ele>
        <time>2013-09-28T07:37:14Z</time>
      </trkpt>
      <trkpt lat="46.34748" lon="6.74685">
        <ele>1912.2</ele>
        <time>2013-09-28T07:37:25Z</time>
      </trkpt>
      <trkpt lat="46.3475" lon="6.74713">
        <ele>1911.72</ele>
        <time>2013-09-28T07:37:42Z</time>
      </trkpt>
      <trkpt lat="46.3475" lon="6.74748">
        <ele>1907.39</ele>
        <time>2013-09-28T07:38:01Z</time>
      </trkpt>
      <trkpt lat="46.34756" lon="6.7477">
        <ele>1908.35</ele>
        <time>2013-09-28T07:38:17Z</time>
      </trkpt>
      <trkpt lat="46.34759" lon="6.74798">
        <ele>1909.32</ele>
        <time>2013-09-28T07:38:39Z</time>
      </trkpt>
      <trkpt lat="46.34756" lon="6.74803">
        <ele>1909.8</ele>
        <time>2013-09-28T07:38:56Z</time>
      </trkpt>
      <trkpt lat="46.34756" lon="6.74825">
        <ele>1909.8</ele>
        <time>2013-09-28T07:39:13Z</time>
      </trkpt>
      <trkpt lat="46.34747" lon="6.74864">
        <ele>1907.87</ele>
        <time>2013-09-28T07:39:31Z</time>
      </trkpt>
      <trkpt lat="46.34734" lon="6.74904">
        <ele>1912.68</ele>
        <time>2013-09-28T07:39:51Z</time>
      </trkpt>
      <trkpt lat="46.34716" lon="6.74941">
        <ele>1914.6</ele>
        <time>2013-09-28T07:40:11Z</time>
      </trkpt>
      <trkpt lat="46.347" lon="6.74956">
        <ele>1926.62</ele>
        <time>2013-09-28T07:40:30Z</time>
      </trkpt>
      <trkpt lat="46.34688" lon="6.74971">
        <ele>1927.58</ele>
        <time>2013-09-28T07:40:40Z</time>
      </trkpt>
      <trkpt lat="46.34688" lon="6.74991">
        <ele>1929.02</ele>
        <time>2013-09-28T07:40:54Z</time>
      </trkpt>
      <trkpt lat="46.34689" lon="6.74992">
        <ele>1929.02</ele>
        <time>2013-09-28T07:41:16Z</time>
      </trkpt>
      <trkpt lat="46.34687" lon="6.74998">
        <ele>1930.95</ele>
        <time>2013-09-28T07:41:39Z</time>
      </trkpt>
      <trkpt lat="46.34682" lon="6.75028">
        <ele>1929.02</ele>
        <time>2013-09-28T07:41:56Z</time>
      </trkpt>
      <trkpt lat="46.34681" lon="6.7503">
        <ele>1929.02</ele>
        <time>2013-09-28T07:41:57Z</time>
      </trkpt>
      <trkpt lat="46.34681" lon="6.75037">
        <ele>1929.02</ele>
        <time>2013-09-28T07:42:01Z</time>
      </trkpt>
      <trkpt lat="46.34676" lon="6.75053">
        <ele>1929.5</ele>
        <time>2013-09-28T07:42:17Z</time>
      </trkpt>
      <trkpt lat="46.34675" lon="6.7506">
        <ele>1928.54</ele>
        <time>2013-09-28T07:42:29Z</time>
      </trkpt>
      <trkpt lat="46.34678" lon="6.75084">
        <ele>1928.06</ele>
        <time>2013-09-28T07:42:45Z</time>
      </trkpt>
      <trkpt lat="46.34689" lon="6.75111">
        <ele>1926.14</ele>
        <time>2013-09-28T07:43:04Z</time>
      </trkpt>
      <trkpt lat="46.34697" lon="6.75142">
        <ele>1923.25</ele>
        <time>2013-09-28T07:43:21Z</time>
      </trkpt>
      <trkpt lat="46.3471" lon="6.75182">
        <ele>1923.25</ele>
        <time>2013-09-28T07:43:40Z</time>
      </trkpt>
      <trkpt lat="46.34731" lon="6.75212">
        <ele>1923.25</ele>
        <time>2013-09-28T07:43:59Z</time>
      </trkpt>
      <trkpt lat="46.34757" lon="6.7523">
        <ele>1928.06</ele>
        <time>2013-09-28T07:44:18Z</time>
      </trkpt>
      <trkpt lat="46.3477" lon="6.75247">
        <ele>1928.54</ele>
        <time>2013-09-28T07:44:33Z</time>
      </trkpt>
      <trkpt lat="46.34774" lon="6.75243">
        <ele>1933.35</ele>
        <time>2013-09-28T07:44:49Z</time>
      </trkpt>
      <trkpt lat="46.34774" lon="6.75244">
        <ele>1935.27</ele>
        <time>2013-09-28T07:44:52Z</time>
      </trkpt>
      <trkpt lat="46.34775" lon="6.75253">
        <ele>1934.31</ele>
        <time>2013-09-28T07:44:57Z</time>
      </trkpt>
      <trkpt lat="46.34779" lon="6.75257">
        <ele>1933.83</ele>
        <time>2013-09-28T07:45:00Z</time>
      </trkpt>
      <trkpt lat="46.34783" lon="6.75262">
        <ele>1933.35</ele>
        <time>2013-09-28T07:45:04Z</time>
      </trkpt>
      <trkpt lat="46.34788" lon="6.75278">
        <ele>1931.91</ele>
        <time>2013-09-28T07:45:15Z</time>
      </trkpt>
      <trkpt lat="46.34783" lon="6.75298">
        <ele>1928.54</ele>
        <time>2013-09-28T07:45:30Z</time>
      </trkpt>
      <trkpt lat="46.34783" lon="6.75306">
        <ele>1928.06</ele>
        <time>2013-09-28T07:45:35Z</time>
      </trkpt>
      <trkpt lat="46.34785" lon="6.75316">
        <ele>1925.18</ele>
        <time>2013-09-28T07:45:45Z</time>
      </trkpt>
      <trkpt lat="46.34785" lon="6.75319">
        <ele>1924.22</ele>
        <time>2013-09-28T07:45:47Z</time>
      </trkpt>
      <trkpt lat="46.34786" lon="6.75328">
        <ele>1921.81</ele>
        <time>2013-09-28T07:45:54Z</time>
      </trkpt>
      <trkpt lat="46.34803" lon="6.75323">
        <ele>1917.49</ele>
        <time>2013-09-28T07:46:11Z</time>
      </trkpt>
      <trkpt lat="46.34803" lon="6.75327">
        <ele>1915.56</ele>
        <time>2013-09-28T07:46:15Z</time>
      </trkpt>
      <trkpt lat="46.34798" lon="6.75346">
        <ele>1910.76</ele>
        <time>2013-09-28T07:46:29Z</time>
      </trkpt>
      <trkpt lat="46.34798" lon="6.75348">
        <ele>1910.28</ele>
        <time>2013-09-28T07:46:31Z</time>
      </trkpt>
      <trkpt lat="46.34803" lon="6.75367">
        <ele>1906.43</ele>
        <time>2013-09-28T07:46:44Z</time>
      </trkpt>
      <trkpt lat="46.34804" lon="6.75371">
        <ele>1905.95</ele>
        <time>2013-09-28T07:46:46Z</time>
      </trkpt>
      <trkpt lat="46.34812" lon="6.75381">
        <ele>1904.51</ele>
        <time>2013-09-28T07:46:54Z</time>
      </trkpt>
      <trkpt lat="46.34822" lon="6.75401">
        <ele>1902.59</ele>
        <time>2013-09-28T07:47:08Z</time>
      </trkpt>
      <trkpt lat="46.34824" lon="6.75404">
        <ele>1902.11</ele>
        <time>2013-09-28T07:47:10Z</time>
      </trkpt>
      <trkpt lat="46.34834" lon="6.75411">
        <ele>1900.18</ele>
        <time>2013-09-28T07:47:20Z</time>
      </trkpt>
      <trkpt lat="46.34841" lon="6.75418">
        <ele>1897.3</ele>
        <time>2013-09-28T07:47:28Z</time>
      </trkpt>
      <trkpt lat="46.34844" lon="6.75426">
        <ele>1895.38</ele>
        <time>2013-09-28T07:47:35Z</time>
      </trkpt>
      <trkpt lat="46.34845" lon="6.7543">
        <ele>1894.42</ele>
        <time>2013-09-28T07:47:38Z</time>
      </trkpt>
      <trkpt lat="46.34847" lon="6.75433">
        <ele>1893.93</ele>
        <time>2013-09-28T07:47:40Z</time>
      </trkpt>
      <trkpt lat="46.3485" lon="6.75435">
        <ele>1893.45</ele>
        <time>2013-09-28T07:47:44Z</time>
      </trkpt>
      <trkpt lat="46.34855" lon="6.75451">
        <ele>1891.53</ele>
        <time>2013-09-28T07:48:00Z</time>
      </trkpt>
      <trkpt lat="46.34856" lon="6.75457">
        <ele>1890.57</ele>
        <time>2013-09-28T07:48:12Z</time>
      </trkpt>
      <trkpt lat="46.34857" lon="6.75463">
        <ele>1889.61</ele>
        <time>2013-09-28T07:48:21Z</time>
      </trkpt>
      <trkpt lat="46.34856" lon="6.7547">
        <ele>1888.65</ele>
        <time>2013-09-28T07:48:25Z</time>
      </trkpt>
      <trkpt lat="46.34855" lon="6.75484">
        <ele>1885.28</ele>
        <time>2013-09-28T07:48:39Z</time>
      </trkpt>
      <trkpt lat="46.34854" lon="6.75512">
        <ele>1881.44</ele>
        <time>2013-09-28T07:48:52Z</time>
      </trkpt>
      <trkpt lat="46.34854" lon="6.75514">
        <ele>1881.44</ele>
        <time>2013-09-28T07:48:53Z</time>
      </trkpt>
      <trkpt lat="46.34848" lon="6.75523">
        <ele>1880</ele>
        <time>2013-09-28T07:48:58Z</time>
      </trkpt>
      <trkpt lat="46.3485" lon="6.7555">
        <ele>1879.03</ele>
        <time>2013-09-28T07:49:14Z</time>
      </trkpt>
      <trkpt lat="46.34854" lon="6.75562">
        <ele>1877.11</ele>
        <time>2013-09-28T07:49:23Z</time>
      </trkpt>
      <trkpt lat="46.34851" lon="6.75571">
        <ele>1876.15</ele>
        <time>2013-09-28T07:49:28Z</time>
      </trkpt>
      <trkpt lat="46.34855" lon="6.75591">
        <ele>1872.79</ele>
        <time>2013-09-28T07:49:42Z</time>
      </trkpt>
      <trkpt lat="46.34854" lon="6.75615">
        <ele>1870.86</ele>
        <time>2013-09-28T07:49:55Z</time>
      </trkpt>
      <trkpt lat="46.34851" lon="6.75634">
        <ele>1869.9</ele>
        <time>2013-09-28T07:50:07Z</time>
      </trkpt>
      <trkpt lat="46.3485" lon="6.75638">
        <ele>1869.9</ele>
        <time>2013-09-28T07:50:09Z</time>
      </trkpt>
      <trkpt lat="46.34851" lon="6.75647">
        <ele>1869.9</ele>
        <time>2013-09-28T07:50:14Z</time>
      </trkpt>
      <trkpt lat="46.34848" lon="6.7568">
        <ele>1867.98</ele>
        <time>2013-09-28T07:50:29Z</time>
      </trkpt>
      <trkpt lat="46.34835" lon="6.75706">
        <ele>1867.5</ele>
        <time>2013-09-28T07:50:45Z</time>
      </trkpt>
      <trkpt lat="46.34828" lon="6.75713">
        <ele>1867.98</ele>
        <time>2013-09-28T07:50:51Z</time>
      </trkpt>
      <trkpt lat="46.34819" lon="6.75725">
        <ele>1868.46</ele>
        <time>2013-09-28T07:51:01Z</time>
      </trkpt>
      <trkpt lat="46.34811" lon="6.75748">
        <ele>1870.86</ele>
        <time>2013-09-28T07:51:16Z</time>
      </trkpt>
      <trkpt lat="46.34812" lon="6.75754">
        <ele>1870.86</ele>
        <time>2013-09-28T07:51:21Z</time>
      </trkpt>
      <trkpt lat="46.34812" lon="6.75762">
        <ele>1870.86</ele>
        <time>2013-09-28T07:51:25Z</time>
      </trkpt>
      <trkpt lat="46.34811" lon="6.75795">
        <ele>1866.54</ele>
        <time>2013-09-28T07:51:42Z</time>
      </trkpt>
      <trkpt lat="46.34804" lon="6.75817">
        <ele>1864.13</ele>
        <time>2013-09-28T07:51:58Z</time>
      </trkpt>
      <trkpt lat="46.34797" lon="6.75853">
        <ele>1861.25</ele>
        <time>2013-09-28T07:52:14Z</time>
      </trkpt>
      <trkpt lat="46.3479" lon="6.75865">
        <ele>1857.89</ele>
        <time>2013-09-28T07:52:21Z</time>
      </trkpt>
      <trkpt lat="46.3478" lon="6.75874">
        <ele>1856.92</ele>
        <time>2013-09-28T07:52:28Z</time>
      </trkpt>
      <trkpt lat="46.34773" lon="6.75889">
        <ele>1856.92</ele>
        <time>2013-09-28T07:52:43Z</time>
      </trkpt>
      <trkpt lat="46.34774" lon="6.7589">
        <ele>1856.44</ele>
        <time>2013-09-28T07:53:05Z</time>
      </trkpt>
      <trkpt lat="46.34774" lon="6.75891">
        <ele>1856.44</ele>
        <time>2013-09-28T07:53:22Z</time>
      </trkpt>
      <trkpt lat="46.34772" lon="6.75889">
        <ele>1856.44</ele>
        <time>2013-09-28T07:53:34Z</time>
      </trkpt>
      <trkpt lat="46.34771" lon="6.75889">
        <ele>1855</ele>
        <time>2013-09-28T07:53:54Z</time>
      </trkpt>
      <trkpt lat="46.34771" lon="6.7589">
        <ele>1855</ele>
        <time>2013-09-28T07:54:10Z</time>
      </trkpt>
      <trkpt lat="46.34771" lon="6.7589">
        <ele>1854.52</ele>
        <time>2013-09-28T07:54:30Z</time>
      </trkpt>
      <trkpt lat="46.34769" lon="6.75892">
        <ele>1854.04</ele>
        <time>2013-09-28T07:54:40Z</time>
      </trkpt>
      <trkpt lat="46.34755" lon="6.75918">
        <ele>1853.08</ele>
        <time>2013-09-28T07:54:50Z</time>
      </trkpt>
      <trkpt lat="46.34729" lon="6.75943">
        <ele>1853.56</ele>
        <time>2013-09-28T07:55:03Z</time>
      </trkpt>
      <trkpt lat="46.34718" lon="6.7595">
        <ele>1855.48</ele>
        <time>2013-09-28T07:55:17Z</time>
      </trkpt>
      <trkpt lat="46.3471" lon="6.75964">
        <ele>1857.89</ele>
        <time>2013-09-28T07:55:28Z</time>
      </trkpt>
      <trkpt lat="46.34698" lon="6.75968">
        <ele>1860.77</ele>
        <time>2013-09-28T07:55:45Z</time>
      </trkpt>
      <trkpt lat="46.34696" lon="6.75968">
        <ele>1862.21</ele>
        <time>2013-09-28T07:55:53Z</time>
      </trkpt>
      <trkpt lat="46.34682" lon="6.75979">
        <ele>1866.54</ele>
        <time>2013-09-28T07:56:11Z</time>
      </trkpt>
      <trkpt lat="46.34673" lon="6.75976">
        <ele>1871.82</ele>
        <time>2013-09-28T07:56:27Z</time>
      </trkpt>
      <trkpt lat="46.34663" lon="6.75973">
        <ele>1876.63</ele>
        <time>2013-09-28T07:56:44Z</time>
      </trkpt>
      <trkpt lat="46.34654" lon="6.75973">
        <ele>1881.44</ele>
        <time>2013-09-28T07:57:01Z</time>
      </trkpt>
      <trkpt lat="46.34639" lon="6.75969">
        <ele>1885.28</ele>
        <time>2013-09-28T07:57:20Z</time>
      </trkpt>
      <trkpt lat="46.34629" lon="6.75973">
        <ele>1889.61</ele>
        <time>2013-09-28T07:57:38Z</time>
      </trkpt>
      <trkpt lat="46.3462" lon="6.7598">
        <ele>1896.34</ele>
        <time>2013-09-28T07:57:53Z</time>
      </trkpt>
      <trkpt lat="46.34603" lon="6.75987">
        <ele>1902.11</ele>
        <time>2013-09-28T07:58:12Z</time>
      </trkpt>
      <trkpt lat="46.34587" lon="6.76002">
        <ele>1907.87</ele>
        <time>2013-09-28T07:58:29Z</time>
      </trkpt>
      <trkpt lat="46.34577" lon="6.76011">
        <ele>1907.87</ele>
        <time>2013-09-28T07:58:41Z</time>
      </trkpt>
      <trkpt lat="46.34561" lon="6.76028">
        <ele>1910.76</ele>
        <time>2013-09-28T07:59:01Z</time>
      </trkpt>
      <trkpt lat="46.34556" lon="6.7603">
        <ele>1914.12</ele>
        <time>2013-09-28T07:59:16Z</time>
      </trkpt>
      <trkpt lat="46.34555" lon="6.76034">
        <ele>1914.12</ele>
        <time>2013-09-28T07:59:30Z</time>
      </trkpt>
      <trkpt lat="46.34555" lon="6.76034">
        <ele>1914.12</ele>
        <time>2013-09-28T07:59:46Z</time>
      </trkpt>
      <trkpt lat="46.34542" lon="6.76052">
        <ele>1912.2</ele>
        <time>2013-09-28T07:59:56Z</time>
      </trkpt>
      <trkpt lat="46.34532" lon="6.76076">
        <ele>1912.2</ele>
        <time>2013-09-28T08:00:11Z</time>
      </trkpt>
      <trkpt lat="46.34527" lon="6.76103">
        <ele>1913.16</ele>
        <time>2013-09-28T08:00:26Z</time>
      </trkpt>
      <trkpt lat="46.34519" lon="6.76127">
        <ele>1915.56</ele>
        <time>2013-09-28T08:00:42Z</time>
      </trkpt>
      <trkpt lat="46.34513" lon="6.76143">
        <ele>1919.89</ele>
        <time>2013-09-28T08:00:54Z</time>
      </trkpt>
      <trkpt lat="46.34513" lon="6.76143">
        <ele>1920.37</ele>
        <time>2013-09-28T08:00:55Z</time>
      </trkpt>
      <trkpt lat="46.34503" lon="6.76158">
        <ele>1925.18</ele>
        <time>2013-09-28T08:01:10Z</time>
      </trkpt>
      <trkpt lat="46.34498" lon="6.76164">
        <ele>1928.06</ele>
        <time>2013-09-28T08:01:19Z</time>
      </trkpt>
      <trkpt lat="46.34494" lon="6.76168">
        <ele>1929.5</ele>
        <time>2013-09-28T08:01:23Z</time>
      </trkpt>
      <trkpt lat="46.34486" lon="6.76183">
        <ele>1933.35</ele>
        <time>2013-09-28T08:01:38Z</time>
      </trkpt>
      <trkpt lat="46.34483" lon="6.76185">
        <ele>1935.27</ele>
        <time>2013-09-28T08:01:55Z</time>
      </trkpt>
      <trkpt lat="46.3448" lon="6.7619">
        <ele>1937.67</ele>
        <time>2013-09-28T08:02:15Z</time>
      </trkpt>
      <trkpt lat="46.3447" lon="6.76204">
        <ele>1937.19</ele>
        <time>2013-09-28T08:02:27Z</time>
      </trkpt>
      <trkpt lat="46.3446" lon="6.76221">
        <ele>1937.19</ele>
        <time>2013-09-28T08:02:43Z</time>
      </trkpt>
      <trkpt lat="46.34455" lon="6.76232">
        <ele>1939.12</ele>
        <time>2013-09-28T08:02:54Z</time>
      </trkpt>
      <trkpt lat="46.34453" lon="6.76235">
        <ele>1939.6</ele>
        <time>2013-09-28T08:02:57Z</time>
      </trkpt>
      <trkpt lat="46.3445" lon="6.7624">
        <ele>1941.04</ele>
        <time>2013-09-28T08:03:01Z</time>
      </trkpt>
      <trkpt lat="46.34448" lon="6.76245">
        <ele>1942.48</ele>
        <time>2013-09-28T08:03:05Z</time>
      </trkpt>
      <trkpt lat="46.3444" lon="6.76251">
        <ele>1944.88</ele>
        <time>2013-09-28T08:03:13Z</time>
      </trkpt>
      <trkpt lat="46.3443" lon="6.76265">
        <ele>1945.85</ele>
        <time>2013-09-28T08:03:28Z</time>
      </trkpt>
      <trkpt lat="46.34428" lon="6.76269">
        <ele>1946.81</ele>
        <time>2013-09-28T08:03:31Z</time>
      </trkpt>
      <trkpt lat="46.34425" lon="6.76274">
        <ele>1948.25</ele>
        <time>2013-09-28T08:03:36Z</time>
      </trkpt>
      <trkpt lat="46.3442" lon="6.76288">
        <ele>1952.09</ele>
        <time>2013-09-28T08:03:49Z</time>
      </trkpt>
      <trkpt lat="46.34414" lon="6.76299">
        <ele>1955.46</ele>
        <time>2013-09-28T08:04:01Z</time>
      </trkpt>
      <trkpt lat="46.34409" lon="6.76307">
        <ele>1959.78</ele>
        <time>2013-09-28T08:04:12Z</time>
      </trkpt>
      <trkpt lat="46.34404" lon="6.7632">
        <ele>1964.59</ele>
        <time>2013-09-28T08:04:27Z</time>
      </trkpt>
      <trkpt lat="46.34397" lon="6.76328">
        <ele>1967.48</ele>
        <time>2013-09-28T08:04:39Z</time>
      </trkpt>
      <trkpt lat="46.34392" lon="6.76336">
        <ele>1971.32</ele>
        <time>2013-09-28T08:04:53Z</time>
      </trkpt>
      <trkpt lat="46.34387" lon="6.76347">
        <ele>1976.61</ele>
        <time>2013-09-28T08:05:09Z</time>
      </trkpt>
      <trkpt lat="46.3438" lon="6.76356">
        <ele>1980.45</ele>
        <time>2013-09-28T08:05:22Z</time>
      </trkpt>
      <trkpt lat="46.34377" lon="6.76361">
        <ele>1981.9</ele>
        <time>2013-09-28T08:05:32Z</time>
      </trkpt>
      <trkpt lat="46.34374" lon="6.76372">
        <ele>1983.82</ele>
        <time>2013-09-28T08:05:42Z</time>
      </trkpt>
      <trkpt lat="46.3437" lon="6.7638">
        <ele>1985.74</ele>
        <time>2013-09-28T08:05:50Z</time>
      </trkpt>
      <trkpt lat="46.34367" lon="6.76386">
        <ele>1986.7</ele>
        <time>2013-09-28T08:05:55Z</time>
      </trkpt>
      <trkpt lat="46.34358" lon="6.764">
        <ele>1990.55</ele>
        <time>2013-09-28T08:06:10Z</time>
      </trkpt>
      <trkpt lat="46.34352" lon="6.76407">
        <ele>1993.91</ele>
        <time>2013-09-28T08:06:24Z</time>
      </trkpt>
      <trkpt lat="46.34343" lon="6.76417">
        <ele>1996.32</ele>
        <time>2013-09-28T08:06:40Z</time>
      </trkpt>
      <trkpt lat="46.34336" lon="6.76433">
        <ele>1999.2</ele>
        <time>2013-09-28T08:06:53Z</time>
      </trkpt>
      <trkpt lat="46.3433" lon="6.7645">
        <ele>2003.04</ele>
        <time>2013-09-28T08:07:06Z</time>
      </trkpt>
      <trkpt lat="46.34326" lon="6.76471">
        <ele>2006.41</ele>
        <time>2013-09-28T08:07:22Z</time>
      </trkpt>
      <trkpt lat="46.34318" lon="6.76488">
        <ele>2007.37</ele>
        <time>2013-09-28T08:07:36Z</time>
      </trkpt>
      <trkpt lat="46.34311" lon="6.76506">
        <ele>2005.93</ele>
        <time>2013-09-28T08:07:47Z</time>
      </trkpt>
      <trkpt lat="46.34304" lon="6.76523">
        <ele>2005.93</ele>
        <time>2013-09-28T08:08:00Z</time>
      </trkpt>
      <trkpt lat="46.34295" lon="6.76543">
        <ele>2005.45</ele>
        <time>2013-09-28T08:08:14Z</time>
      </trkpt>
      <trkpt lat="46.3429" lon="6.76562">
        <ele>2002.08</ele>
        <time>2013-09-28T08:08:27Z</time>
      </trkpt>
      <trkpt lat="46.34282" lon="6.76579">
        <ele>1998.72</ele>
        <time>2013-09-28T08:08:43Z</time>
      </trkpt>
      <trkpt lat="46.34279" lon="6.76593">
        <ele>1999.68</ele>
        <time>2013-09-28T08:08:58Z</time>
      </trkpt>
      <trkpt lat="46.34272" lon="6.7661">
        <ele>2004.49</ele>
        <time>2013-09-28T08:09:14Z</time>
      </trkpt>
      <trkpt lat="46.34269" lon="6.76614">
        <ele>2008.33</ele>
        <time>2013-09-28T08:09:29Z</time>
      </trkpt>
      <trkpt lat="46.34265" lon="6.7662">
        <ele>2012.18</ele>
        <time>2013-09-28T08:09:40Z</time>
      </trkpt>
      <trkpt lat="46.34264" lon="6.76635">
        <ele>2014.58</ele>
        <time>2013-09-28T08:09:54Z</time>
      </trkpt>
      <trkpt lat="46.34262" lon="6.76646">
        <ele>2015.54</ele>
        <time>2013-09-28T08:10:06Z</time>
      </trkpt>
      <trkpt lat="46.34259" lon="6.76672">
        <ele>2016.98</ele>
        <time>2013-09-28T08:10:22Z</time>
      </trkpt>
      <trkpt lat="46.34259" lon="6.76689">
        <ele>2020.83</ele>
        <time>2013-09-28T08:10:36Z</time>
      </trkpt>
      <trkpt lat="46.34259" lon="6.76701">
        <ele>2024.67</ele>
        <time>2013-09-28T08:10:49Z</time>
      </trkpt>
      <trkpt lat="46.34259" lon="6.76701">
        <ele>2024.67</ele>
        <time>2013-09-28T08:10:54Z</time>
      </trkpt>
      <trkpt lat="46.34261" lon="6.7671">
        <ele>2026.12</ele>
        <time>2013-09-28T08:11:00Z</time>
      </trkpt>
      <trkpt lat="46.34267" lon="6.76721">
        <ele>2025.15</ele>
        <time>2013-09-28T08:11:15Z</time>
      </trkpt>
      <trkpt lat="46.34272" lon="6.76732">
        <ele>2022.75</ele>
        <time>2013-09-28T08:11:26Z</time>
      </trkpt>
      <trkpt lat="46.34272" lon="6.76733">
        <ele>2022.27</ele>
        <time>2013-09-28T08:11:27Z</time>
      </trkpt>
      <trkpt lat="46.34278" lon="6.76746">
        <ele>2020.83</ele>
        <time>2013-09-28T08:11:40Z</time>
      </trkpt>
      <trkpt lat="46.3428" lon="6.7675">
        <ele>2019.87</ele>
        <time>2013-09-28T08:12:00Z</time>
      </trkpt>
      <trkpt lat="46.34286" lon="6.76771">
        <ele>2021.31</ele>
        <time>2013-09-28T08:12:14Z</time>
      </trkpt>
      <trkpt lat="46.34291" lon="6.76797">
        <ele>2024.67</ele>
        <time>2013-09-28T08:12:29Z</time>
      </trkpt>
      <trkpt lat="46.34294" lon="6.76806">
        <ele>2029</ele>
        <time>2013-09-28T08:12:43Z</time>
      </trkpt>
      <trkpt lat="46.34295" lon="6.76816">
        <ele>2031.4</ele>
        <time>2013-09-28T08:12:59Z</time>
      </trkpt>
      <trkpt lat="46.34298" lon="6.76829">
        <ele>2031.88</ele>
        <time>2013-09-28T08:13:13Z</time>
      </trkpt>
      <trkpt lat="46.34307" lon="6.76849">
        <ele>2029.96</ele>
        <time>2013-09-28T08:13:26Z</time>
      </trkpt>
      <trkpt lat="46.34315" lon="6.76865">
        <ele>2031.4</ele>
        <time>2013-09-28T08:13:41Z</time>
      </trkpt>
      <trkpt lat="46.34316" lon="6.76873">
        <ele>2034.29</ele>
        <time>2013-09-28T08:13:51Z</time>
      </trkpt>
      <trkpt lat="46.34317" lon="6.76881">
        <ele>2037.65</ele>
        <time>2013-09-28T08:14:04Z</time>
      </trkpt>
      <trkpt lat="46.34318" lon="6.76889">
        <ele>2040.54</ele>
        <time>2013-09-28T08:14:18Z</time>
      </trkpt>
      <trkpt lat="46.34324" lon="6.76894">
        <ele>2041.5</ele>
        <time>2013-09-28T08:14:30Z</time>
      </trkpt>
      <trkpt lat="46.34333" lon="6.76906">
        <ele>2041.98</ele>
        <time>2013-09-28T08:14:45Z</time>
      </trkpt>
      <trkpt lat="46.34355" lon="6.76923">
        <ele>2042.46</ele>
        <time>2013-09-28T08:15:03Z</time>
      </trkpt>
      <trkpt lat="46.34376" lon="6.76941">
        <ele>2038.61</ele>
        <time>2013-09-28T08:15:22Z</time>
      </trkpt>
      <trkpt lat="46.34399" lon="6.76953">
        <ele>2040.05</ele>
        <time>2013-09-28T08:15:45Z</time>
      </trkpt>
      <trkpt lat="46.34417" lon="6.76972">
        <ele>2042.94</ele>
        <time>2013-09-28T08:16:04Z</time>
      </trkpt>
      <trkpt lat="46.34434" lon="6.76987">
        <ele>2046.3</ele>
        <time>2013-09-28T08:16:22Z</time>
      </trkpt>
      <trkpt lat="46.34447" lon="6.77003">
        <ele>2051.59</ele>
        <time>2013-09-28T08:16:39Z</time>
      </trkpt>
      <trkpt lat="46.3446" lon="6.77021">
        <ele>2056.4</ele>
        <time>2013-09-28T08:16:56Z</time>
      </trkpt>
      <trkpt lat="46.34474" lon="6.77048">
        <ele>2060.24</ele>
        <time>2013-09-28T08:17:19Z</time>
      </trkpt>
      <trkpt lat="46.34478" lon="6.77065">
        <ele>2061.68</ele>
        <time>2013-09-28T08:17:28Z</time>
      </trkpt>
      <trkpt lat="46.34484" lon="6.77095">
        <ele>2064.09</ele>
        <time>2013-09-28T08:17:47Z</time>
      </trkpt>
      <trkpt lat="46.34494" lon="6.7712">
        <ele>2066.49</ele>
        <time>2013-09-28T08:18:06Z</time>
      </trkpt>
      <trkpt lat="46.34498" lon="6.77143">
        <ele>2068.89</ele>
        <time>2013-09-28T08:18:23Z</time>
      </trkpt>
      <trkpt lat="46.34496" lon="6.7715">
        <ele>2068.89</ele>
        <time>2013-09-28T08:18:27Z</time>
      </trkpt>
      <trkpt lat="46.34504" lon="6.77183">
        <ele>2072.26</ele>
        <time>2013-09-28T08:18:50Z</time>
      </trkpt>
      <trkpt lat="46.34511" lon="6.77196">
        <ele>2078.51</ele>
        <time>2013-09-28T08:19:09Z</time>
      </trkpt>
      <trkpt lat="46.34518" lon="6.77215">
        <ele>2085.24</ele>
        <time>2013-09-28T08:19:30Z</time>
      </trkpt>
      <trkpt lat="46.34531" lon="6.77229">
        <ele>2090.04</ele>
        <time>2013-09-28T08:19:52Z</time>
      </trkpt>
      <trkpt lat="46.34536" lon="6.77241">
        <ele>2094.37</ele>
        <time>2013-09-28T08:20:08Z</time>
      </trkpt>
      <trkpt lat="46.3454" lon="6.77253">
        <ele>2096.77</ele>
        <time>2013-09-28T08:20:17Z</time>
      </trkpt>
      <trkpt lat="46.34547" lon="6.77275">
        <ele>2099.18</ele>
        <time>2013-09-28T08:20:40Z</time>
      </trkpt>
      <trkpt lat="46.3455" lon="6.77282">
        <ele>2099.18</ele>
        <time>2013-09-28T08:20:48Z</time>
      </trkpt>
      <trkpt lat="46.34558" lon="6.77294">
        <ele>2095.81</ele>
        <time>2013-09-28T08:21:04Z</time>
      </trkpt>
      <trkpt lat="46.34565" lon="6.77308">
        <ele>2094.85</ele>
        <time>2013-09-28T08:21:18Z</time>
      </trkpt>
      <trkpt lat="46.34566" lon="6.7731">
        <ele>2093.89</ele>
        <time>2013-09-28T08:21:19Z</time>
      </trkpt>
      <trkpt lat="46.34591" lon="6.77321">
        <ele>2090.04</ele>
        <time>2013-09-28T08:21:40Z</time>
      </trkpt>
      <trkpt lat="46.34609" lon="6.7734">
        <ele>2090.04</ele>
        <time>2013-09-28T08:21:58Z</time>
      </trkpt>
      <trkpt lat="46.34627" lon="6.77358">
        <ele>2087.64</ele>
        <time>2013-09-28T08:22:17Z</time>
      </trkpt>
      <trkpt lat="46.3463" lon="6.77372">
        <ele>2086.68</ele>
        <time>2013-09-28T08:22:28Z</time>
      </trkpt>
      <trkpt lat="46.34635" lon="6.77395">
        <ele>2083.79</ele>
        <time>2013-09-28T08:22:44Z</time>
      </trkpt>
      <trkpt lat="46.34645" lon="6.77415">
        <ele>2079.47</ele>
        <time>2013-09-28T08:23:00Z</time>
      </trkpt>
      <trkpt lat="46.34646" lon="6.7742">
        <ele>2078.51</ele>
        <time>2013-09-28T08:23:03Z</time>
      </trkpt>
      <trkpt lat="46.34657" lon="6.77429">
        <ele>2074.66</ele>
        <time>2013-09-28T08:23:18Z</time>
      </trkpt>
      <trkpt lat="46.34676" lon="6.77441">
        <ele>2069.86</ele>
        <time>2013-09-28T08:23:35Z</time>
      </trkpt>
      <trkpt lat="46.34686" lon="6.77461">
        <ele>2066.97</ele>
        <time>2013-09-28T08:23:51Z</time>
      </trkpt>
      <trkpt lat="46.34686" lon="6.77463">
        <ele>2066.49</ele>
        <time>2013-09-28T08:23:53Z</time>
      </trkpt>
      <trkpt lat="46.34696" lon="6.7748">
        <ele>2062.65</ele>
        <time>2013-09-28T08:24:09Z</time>
      </trkpt>
      <trkpt lat="46.34696" lon="6.77484">
        <ele>2060.72</ele>
        <time>2013-09-28T08:24:16Z</time>
      </trkpt>
      <trkpt lat="46.34702" lon="6.77499">
        <ele>2058.32</ele>
        <time>2013-09-28T08:24:32Z</time>
      </trkpt>
      <trkpt lat="46.34705" lon="6.77505">
        <ele>2055.92</ele>
        <time>2013-09-28T08:24:48Z</time>
      </trkpt>
      <trkpt lat="46.34706" lon="6.77507">
        <ele>2054.96</ele>
        <time>2013-09-28T08:25:03Z</time>
      </trkpt>
      <trkpt lat="46.34708" lon="6.77508">
        <ele>2053.99</ele>
        <time>2013-09-28T08:25:16Z</time>
      </trkpt>
      <trkpt lat="46.34707" lon="6.77509">
        <ele>2051.11</ele>
        <time>2013-09-28T08:25:32Z</time>
      </trkpt>
      <trkpt lat="46.34707" lon="6.77513">
        <ele>2049.67</ele>
        <time>2013-09-28T08:25:35Z</time>
      </trkpt>
      <trkpt lat="46.34705" lon="6.77524">
        <ele>2046.3</ele>
        <time>2013-09-28T08:25:52Z</time>
      </trkpt>
      <trkpt lat="46.34705" lon="6.77528">
        <ele>2045.82</ele>
        <time>2013-09-28T08:25:55Z</time>
      </trkpt>
      <trkpt lat="46.3471" lon="6.77536">
        <ele>2043.42</ele>
        <time>2013-09-28T08:26:12Z</time>
      </trkpt>
      <trkpt lat="46.34715" lon="6.77544">
        <ele>2040.54</ele>
        <time>2013-09-28T08:26:28Z</time>
      </trkpt>
      <trkpt lat="46.34721" lon="6.7755">
        <ele>2038.61</ele>
        <time>2013-09-28T08:26:42Z</time>
      </trkpt>
      <trkpt lat="46.34733" lon="6.77548">
        <ele>2039.09</ele>
        <time>2013-09-28T08:27:04Z</time>
      </trkpt>
      <trkpt lat="46.3474" lon="6.77545">
        <ele>2039.09</ele>
        <time>2013-09-28T08:27:14Z</time>
      </trkpt>
      <trkpt lat="46.34742" lon="6.77545">
        <ele>2039.09</ele>
        <time>2013-09-28T08:27:32Z</time>
      </trkpt>
      <trkpt lat="46.34739" lon="6.77552">
        <ele>2042.94</ele>
        <time>2013-09-28T08:27:50Z</time>
      </trkpt>
      <trkpt lat="46.34748" lon="6.77578">
        <ele>2048.71</ele>
        <time>2013-09-28T08:28:05Z</time>
      </trkpt>
      <trkpt lat="46.34754" lon="6.7759">
        <ele>2056.4</ele>
        <time>2013-09-28T08:28:19Z</time>
      </trkpt>
      <trkpt lat="46.34761" lon="6.77603">
        <ele>2061.2</ele>
        <time>2013-09-28T08:28:33Z</time>
      </trkpt>
      <trkpt lat="46.34761" lon="6.77607">
        <ele>2061.68</ele>
        <time>2013-09-28T08:28:36Z</time>
      </trkpt>
      <trkpt lat="46.34763" lon="6.7764">
        <ele>2061.68</ele>
        <time>2013-09-28T08:28:51Z</time>
      </trkpt>
      <trkpt lat="46.34766" lon="6.77678">
        <ele>2056.88</ele>
        <time>2013-09-28T08:29:04Z</time>
      </trkpt>
      <trkpt lat="46.34771" lon="6.77723">
        <ele>2051.11</ele>
        <time>2013-09-28T08:29:17Z</time>
      </trkpt>
      <trkpt lat="46.34768" lon="6.7777">
        <ele>2046.78</ele>
        <time>2013-09-28T08:29:31Z</time>
      </trkpt>
      <trkpt lat="46.3476" lon="6.77802">
        <ele>2041.02</ele>
        <time>2013-09-28T08:29:44Z</time>
      </trkpt>
      <trkpt lat="46.34759" lon="6.77804">
        <ele>2040.54</ele>
        <time>2013-09-28T08:29:45Z</time>
      </trkpt>
      <trkpt lat="46.3476" lon="6.77816">
        <ele>2038.13</ele>
        <time>2013-09-28T08:29:50Z</time>
      </trkpt>
      <trkpt lat="46.3476" lon="6.77827">
        <ele>2035.25</ele>
        <time>2013-09-28T08:29:56Z</time>
      </trkpt>
      <trkpt lat="46.3475" lon="6.77866">
        <ele>2030.44</ele>
        <time>2013-09-28T08:30:09Z</time>
      </trkpt>
      <trkpt lat="46.34745" lon="6.77904">
        <ele>2027.08</ele>
        <time>2013-09-28T08:30:22Z</time>
      </trkpt>
      <trkpt lat="46.34734" lon="6.77946">
        <ele>2023.71</ele>
        <time>2013-09-28T08:30:35Z</time>
      </trkpt>
      <trkpt lat="46.34725" lon="6.77994">
        <ele>2018.91</ele>
        <time>2013-09-28T08:30:51Z</time>
      </trkpt>
      <trkpt lat="46.34722" lon="6.78014">
        <ele>2016.98</ele>
        <time>2013-09-28T08:31:04Z</time>
      </trkpt>
      <trkpt lat="46.34721" lon="6.78013">
        <ele>2016.5</ele>
        <time>2013-09-28T08:31:28Z</time>
      </trkpt>
      <trkpt lat="46.34723" lon="6.78017">
        <ele>2016.5</ele>
        <time>2013-09-28T08:31:54Z</time>
      </trkpt>
      <trkpt lat="46.34719" lon="6.78035">
        <ele>2016.5</ele>
        <time>2013-09-28T08:32:06Z</time>
      </trkpt>
      <trkpt lat="46.34719" lon="6.78038">
        <ele>2016.02</ele>
        <time>2013-09-28T08:32:08Z</time>
      </trkpt>
      <trkpt lat="46.34718" lon="6.78043">
        <ele>2015.06</ele>
        <time>2013-09-28T08:32:11Z</time>
      </trkpt>
      <trkpt lat="46.3471" lon="6.78062">
        <ele>2012.18</ele>
        <time>2013-09-28T08:32:25Z</time>
      </trkpt>
      <trkpt lat="46.3471" lon="6.78063">
        <ele>2012.18</ele>
        <time>2013-09-28T08:32:26Z</time>
      </trkpt>
      <trkpt lat="46.34697" lon="6.78076">
        <ele>2010.25</ele>
        <time>2013-09-28T08:32:40Z</time>
      </trkpt>
      <trkpt lat="46.34694" lon="6.78085">
        <ele>2010.25</ele>
        <time>2013-09-28T08:32:47Z</time>
      </trkpt>
      <trkpt lat="46.34678" lon="6.7811">
        <ele>2011.7</ele>
        <time>2013-09-28T08:33:03Z</time>
      </trkpt>
      <trkpt lat="46.34662" lon="6.78131">
        <ele>2010.25</ele>
        <time>2013-09-28T08:33:15Z</time>
      </trkpt>
      <trkpt lat="46.34652" lon="6.78167">
        <ele>2006.41</ele>
        <time>2013-09-28T08:33:34Z</time>
      </trkpt>
      <trkpt lat="46.3465" lon="6.78182">
        <ele>2004.49</ele>
        <time>2013-09-28T08:33:43Z</time>
      </trkpt>
      <trkpt lat="46.3465" lon="6.78204">
        <ele>2001.12</ele>
        <time>2013-09-28T08:33:55Z</time>
      </trkpt>
      <trkpt lat="46.34649" lon="6.78212">
        <ele>1999.68</ele>
        <time>2013-09-28T08:34:00Z</time>
      </trkpt>
      <trkpt lat="46.34638" lon="6.78227">
        <ele>1999.2</ele>
        <time>2013-09-28T08:34:12Z</time>
      </trkpt>
      <trkpt lat="46.34616" lon="6.78233">
        <ele>1997.28</ele>
        <time>2013-09-28T08:34:28Z</time>
      </trkpt>
      <trkpt lat="46.34613" lon="6.78229">
        <ele>1997.28</ele>
        <time>2013-09-28T08:34:31Z</time>
      </trkpt>
      <trkpt lat="46.3461" lon="6.7822">
        <ele>1995.35</ele>
        <time>2013-09-28T08:34:45Z</time>
      </trkpt>
      <trkpt lat="46.34607" lon="6.78217">
        <ele>1994.87</ele>
        <time>2013-09-28T08:34:49Z</time>
      </trkpt>
      <trkpt lat="46.34593" lon="6.78204">
        <ele>1993.91</ele>
        <time>2013-09-28T08:35:01Z</time>
      </trkpt>
      <trkpt lat="46.34577" lon="6.78218">
        <ele>1992.95</ele>
        <time>2013-09-28T08:35:13Z</time>
      </trkpt>
      <trkpt lat="46.34576" lon="6.7822">
        <ele>1992.95</ele>
        <time>2013-09-28T08:35:14Z</time>
      </trkpt>
      <trkpt lat="46.34579" lon="6.78226">
        <ele>1993.43</ele>
        <time>2013-09-28T08:35:20Z</time>
      </trkpt>
      <trkpt lat="46.34576" lon="6.78238">
        <ele>1991.99</ele>
        <time>2013-09-28T08:35:26Z</time>
      </trkpt>
      <trkpt lat="46.34573" lon="6.78248">
        <ele>1991.99</ele>
        <time>2013-09-28T08:35:31Z</time>
      </trkpt>
      <trkpt lat="46.34572" lon="6.78259">
        <ele>1992.47</ele>
        <time>2013-09-28T08:35:37Z</time>
      </trkpt>
      <trkpt lat="46.34566" lon="6.78291">
        <ele>1993.91</ele>
        <time>2013-09-28T08:35:51Z</time>
      </trkpt>
      <trkpt lat="46.34568" lon="6.78319">
        <ele>1993.43</ele>
        <time>2013-09-28T08:36:04Z</time>
      </trkpt>
      <trkpt lat="46.34576" lon="6.78345">
        <ele>1992.47</ele>
        <time>2013-09-28T08:36:17Z</time>
      </trkpt>
      <trkpt lat="46.34588" lon="6.78378">
        <ele>1991.51</ele>
        <time>2013-09-28T08:36:34Z</time>
      </trkpt>
      <trkpt lat="46.3459" lon="6.78391">
        <ele>1991.03</ele>
        <time>2013-09-28T08:36:41Z</time>
      </trkpt>
      <trkpt lat="46.34588" lon="6.78409">
        <ele>1988.62</ele>
        <time>2013-09-28T08:36:54Z</time>
      </trkpt>
      <trkpt lat="46.34587" lon="6.78416">
        <ele>1988.62</ele>
        <time>2013-09-28T08:36:58Z</time>
      </trkpt>
      <trkpt lat="46.34577" lon="6.78441">
        <ele>1986.22</ele>
        <time>2013-09-28T08:37:13Z</time>
      </trkpt>
      <trkpt lat="46.34567" lon="6.78471">
        <ele>1983.34</ele>
        <time>2013-09-28T08:37:29Z</time>
      </trkpt>
      <trkpt lat="46.34556" lon="6.78495">
        <ele>1979.97</ele>
        <time>2013-09-28T08:37:47Z</time>
      </trkpt>
      <trkpt lat="46.34557" lon="6.78495">
        <ele>1981.41</ele>
        <time>2013-09-28T08:38:00Z</time>
      </trkpt>
      <trkpt lat="46.34546" lon="6.7851">
        <ele>1982.86</ele>
        <time>2013-09-28T08:38:12Z</time>
      </trkpt>
      <trkpt lat="46.34546" lon="6.78511">
        <ele>1982.86</ele>
        <time>2013-09-28T08:38:13Z</time>
      </trkpt>
      <trkpt lat="46.34539" lon="6.78523">
        <ele>1982.38</ele>
        <time>2013-09-28T08:38:20Z</time>
      </trkpt>
      <trkpt lat="46.34538" lon="6.78532">
        <ele>1981.9</ele>
        <time>2013-09-28T08:38:25Z</time>
      </trkpt>
      <trkpt lat="46.34548" lon="6.78548">
        <ele>1980.45</ele>
        <time>2013-09-28T08:38:41Z</time>
      </trkpt>
      <trkpt lat="46.34549" lon="6.78564">
        <ele>1979.01</ele>
        <time>2013-09-28T08:38:54Z</time>
      </trkpt>
      <trkpt lat="46.34546" lon="6.78571">
        <ele>1978.53</ele>
        <time>2013-09-28T08:39:00Z</time>
      </trkpt>
      <trkpt lat="46.34527" lon="6.78583">
        <ele>1977.57</ele>
        <time>2013-09-28T08:39:18Z</time>
      </trkpt>
      <trkpt lat="46.34523" lon="6.78583">
        <ele>1977.57</ele>
        <time>2013-09-28T08:39:21Z</time>
      </trkpt>
      <trkpt lat="46.34507" lon="6.78607">
        <ele>1976.13</ele>
        <time>2013-09-28T08:39:37Z</time>
      </trkpt>
      <trkpt lat="46.34494" lon="6.78629">
        <ele>1973.72</ele>
        <time>2013-09-28T08:39:52Z</time>
      </trkpt>
      <trkpt lat="46.34477" lon="6.7865">
        <ele>1971.32</ele>
        <time>2013-09-28T08:40:14Z</time>
      </trkpt>
      <trkpt lat="46.34479" lon="6.7865">
        <ele>1965.55</ele>
        <time>2013-09-28T08:40:30Z</time>
      </trkpt>
      <trkpt lat="46.34475" lon="6.78649">
        <ele>1964.11</ele>
        <time>2013-09-28T08:40:36Z</time>
      </trkpt>
      <trkpt lat="46.34467" lon="6.78646">
        <ele>1963.15</ele>
        <time>2013-09-28T08:40:43Z</time>
      </trkpt>
      <trkpt lat="46.3446" lon="6.78636">
        <ele>1963.15</ele>
        <time>2013-09-28T08:40:52Z</time>
      </trkpt>
      <trkpt lat="46.34444" lon="6.78608">
        <ele>1962.19</ele>
        <time>2013-09-28T08:41:09Z</time>
      </trkpt>
      <trkpt lat="46.34426" lon="6.78587">
        <ele>1958.82</ele>
        <time>2013-09-28T08:41:26Z</time>
      </trkpt>
      <trkpt lat="46.34407" lon="6.78567">
        <ele>1957.38</ele>
        <time>2013-09-28T08:41:42Z</time>
      </trkpt>
      <trkpt lat="46.3439" lon="6.78545">
        <ele>1955.94</ele>
        <time>2013-09-28T08:41:59Z</time>
      </trkpt>
      <trkpt lat="46.34371" lon="6.78531">
        <ele>1955.46</ele>
        <time>2013-09-28T08:42:14Z</time>
      </trkpt>
      <trkpt lat="46.34347" lon="6.78535">
        <ele>1956.42</ele>
        <time>2013-09-28T08:42:31Z</time>
      </trkpt>
      <trkpt lat="46.34322" lon="6.78557">
        <ele>1952.57</ele>
        <time>2013-09-28T08:42:47Z</time>
      </trkpt>
      <trkpt lat="46.34299" lon="6.78586">
        <ele>1949.21</ele>
        <time>2013-09-28T08:43:07Z</time>
      </trkpt>
      <trkpt lat="46.34288" lon="6.78616">
        <ele>1945.36</ele>
        <time>2013-09-28T08:43:24Z</time>
      </trkpt>
      <trkpt lat="46.34281" lon="6.78641">
        <ele>1937.67</ele>
        <time>2013-09-28T08:43:40Z</time>
      </trkpt>
      <trkpt lat="46.34269" lon="6.7866">
        <ele>1930.46</ele>
        <time>2013-09-28T08:43:54Z</time>
      </trkpt>
      <trkpt lat="46.34259" lon="6.78665">
        <ele>1925.66</ele>
        <time>2013-09-28T08:44:03Z</time>
      </trkpt>
      <trkpt lat="46.34249" lon="6.7866">
        <ele>1924.22</ele>
        <time>2013-09-28T08:44:07Z</time>
      </trkpt>
      <trkpt lat="46.34235" lon="6.78649">
        <ele>1922.29</ele>
        <time>2013-09-28T08:44:20Z</time>
      </trkpt>
      <trkpt lat="46.34233" lon="6.78643">
        <ele>1922.77</ele>
        <time>2013-09-28T08:44:24Z</time>
      </trkpt>
      <trkpt lat="46.34234" lon="6.78634">
        <ele>1924.7</ele>
        <time>2013-09-28T08:44:31Z</time>
      </trkpt>
      <trkpt lat="46.34234" lon="6.78631">
        <ele>1924.7</ele>
        <time>2013-09-28T08:44:33Z</time>
      </trkpt>
      <trkpt lat="46.34224" lon="6.78602">
        <ele>1929.02</ele>
        <time>2013-09-28T08:44:53Z</time>
      </trkpt>
      <trkpt lat="46.34211" lon="6.78582">
        <ele>1932.39</ele>
        <time>2013-09-28T08:45:11Z</time>
      </trkpt>
      <trkpt lat="46.34202" lon="6.78568">
        <ele>1936.23</ele>
        <time>2013-09-28T08:45:26Z</time>
      </trkpt>
      <trkpt lat="46.34201" lon="6.78567">
        <ele>1936.71</ele>
        <time>2013-09-28T08:45:27Z</time>
      </trkpt>
      <trkpt lat="46.34184" lon="6.78552">
        <ele>1938.16</ele>
        <time>2013-09-28T08:45:45Z</time>
      </trkpt>
      <trkpt lat="46.34178" lon="6.78548">
        <ele>1939.12</ele>
        <time>2013-09-28T08:45:52Z</time>
      </trkpt>
      <trkpt lat="46.34165" lon="6.78541">
        <ele>1940.56</ele>
        <time>2013-09-28T08:46:08Z</time>
      </trkpt>
      <trkpt lat="46.34151" lon="6.7854">
        <ele>1940.56</ele>
        <time>2013-09-28T08:46:18Z</time>
      </trkpt>
      <trkpt lat="46.34136" lon="6.78524">
        <ele>1942.48</ele>
        <time>2013-09-28T08:46:37Z</time>
      </trkpt>
      <trkpt lat="46.34125" lon="6.78515">
        <ele>1943.92</ele>
        <time>2013-09-28T08:46:54Z</time>
      </trkpt>
      <trkpt lat="46.34118" lon="6.78518">
        <ele>1942.96</ele>
        <time>2013-09-28T08:47:02Z</time>
      </trkpt>
      <trkpt lat="46.34103" lon="6.78516">
        <ele>1942.96</ele>
        <time>2013-09-28T08:47:18Z</time>
      </trkpt>
      <trkpt lat="46.34092" lon="6.78521">
        <ele>1941.52</ele>
        <time>2013-09-28T08:47:29Z</time>
      </trkpt>
      <trkpt lat="46.34086" lon="6.78521">
        <ele>1941.52</ele>
        <time>2013-09-28T08:47:33Z</time>
      </trkpt>
      <trkpt lat="46.34064" lon="6.7853">
        <ele>1940.56</ele>
        <time>2013-09-28T08:47:53Z</time>
      </trkpt>
      <trkpt lat="46.34043" lon="6.7854">
        <ele>1941.04</ele>
        <time>2013-09-28T08:48:12Z</time>
      </trkpt>
      <trkpt lat="46.34033" lon="6.78545">
        <ele>1941.52</ele>
        <time>2013-09-28T08:48:21Z</time>
      </trkpt>
      <trkpt lat="46.34018" lon="6.78562">
        <ele>1940.08</ele>
        <time>2013-09-28T08:48:34Z</time>
      </trkpt>
      <trkpt lat="46.3403" lon="6.78593">
        <ele>1939.6</ele>
        <time>2013-09-28T08:48:50Z</time>
      </trkpt>
      <trkpt lat="46.3402" lon="6.78609">
        <ele>1937.67</ele>
        <time>2013-09-28T08:49:06Z</time>
      </trkpt>
      <trkpt lat="46.3401" lon="6.7863">
        <ele>1936.23</ele>
        <time>2013-09-28T08:49:21Z</time>
      </trkpt>
      <trkpt lat="46.3401" lon="6.78632">
        <ele>1936.23</ele>
        <time>2013-09-28T08:49:22Z</time>
      </trkpt>
      <trkpt lat="46.33999" lon="6.78665">
        <ele>1935.27</ele>
        <time>2013-09-28T08:49:41Z</time>
      </trkpt>
      <trkpt lat="46.33988" lon="6.78681">
        <ele>1935.75</ele>
        <time>2013-09-28T08:49:58Z</time>
      </trkpt>
      <trkpt lat="46.33972" lon="6.78694">
        <ele>1936.23</ele>
        <time>2013-09-28T08:50:17Z</time>
      </trkpt>
      <trkpt lat="46.33959" lon="6.78701">
        <ele>1936.71</ele>
        <time>2013-09-28T08:50:36Z</time>
      </trkpt>
      <trkpt lat="46.33958" lon="6.78708">
        <ele>1941.04</ele>
        <time>2013-09-28T08:50:50Z</time>
      </trkpt>
      <trkpt lat="46.33953" lon="6.78745">
        <ele>1940.08</ele>
        <time>2013-09-28T08:51:06Z</time>
      </trkpt>
      <trkpt lat="46.33959" lon="6.78755">
        <ele>1931.91</ele>
        <time>2013-09-28T08:51:21Z</time>
      </trkpt>
      <trkpt lat="46.3396" lon="6.78754">
        <ele>1932.39</ele>
        <time>2013-09-28T08:51:49Z</time>
      </trkpt>
      <trkpt lat="46.33959" lon="6.78769">
        <ele>1940.56</ele>
        <time>2013-09-28T08:52:04Z</time>
      </trkpt>
      <trkpt lat="46.33958" lon="6.78783">
        <ele>1944.4</ele>
        <time>2013-09-28T08:52:15Z</time>
      </trkpt>
      <trkpt lat="46.33959" lon="6.78788">
        <ele>1945.85</ele>
        <time>2013-09-28T08:52:17Z</time>
      </trkpt>
      <trkpt lat="46.33962" lon="6.78799">
        <ele>1948.73</ele>
        <time>2013-09-28T08:52:24Z</time>
      </trkpt>
      <trkpt lat="46.33963" lon="6.78808">
        <ele>1952.57</ele>
        <time>2013-09-28T08:52:38Z</time>
      </trkpt>
      <trkpt lat="46.33964" lon="6.78809">
        <ele>1953.54</ele>
        <time>2013-09-28T08:52:50Z</time>
      </trkpt>
      <trkpt lat="46.33966" lon="6.78828">
        <ele>1955.46</ele>
        <time>2013-09-28T08:53:05Z</time>
      </trkpt>
      <trkpt lat="46.33969" lon="6.7884">
        <ele>1958.34</ele>
        <time>2013-09-28T08:53:19Z</time>
      </trkpt>
      <trkpt lat="46.3397" lon="6.78841">
        <ele>1959.78</ele>
        <time>2013-09-28T08:53:33Z</time>
      </trkpt>
      <trkpt lat="46.33972" lon="6.78851">
        <ele>1960.75</ele>
        <time>2013-09-28T08:53:48Z</time>
      </trkpt>
      <trkpt lat="46.33972" lon="6.78855">
        <ele>1961.71</ele>
        <time>2013-09-28T08:53:51Z</time>
      </trkpt>
      <trkpt lat="46.33971" lon="6.7886">
        <ele>1962.19</ele>
        <time>2013-09-28T08:53:54Z</time>
      </trkpt>
      <trkpt lat="46.33965" lon="6.78884">
        <ele>1963.15</ele>
        <time>2013-09-28T08:54:09Z</time>
      </trkpt>
      <trkpt lat="46.33968" lon="6.78914">
        <ele>1961.71</ele>
        <time>2013-09-28T08:54:26Z</time>
      </trkpt>
      <trkpt lat="46.33977" lon="6.7894">
        <ele>1958.82</ele>
        <time>2013-09-28T08:54:45Z</time>
      </trkpt>
      <trkpt lat="46.33977" lon="6.78943">
        <ele>1957.86</ele>
        <time>2013-09-28T08:54:50Z</time>
      </trkpt>
      <trkpt lat="46.33989" lon="6.78952">
        <ele>1956.42</ele>
        <time>2013-09-28T08:55:08Z</time>
      </trkpt>
      <trkpt lat="46.33997" lon="6.78962">
        <ele>1954.98</ele>
        <time>2013-09-28T08:55:22Z</time>
      </trkpt>
      <trkpt lat="46.33998" lon="6.7897">
        <ele>1954.5</ele>
        <time>2013-09-28T08:55:34Z</time>
      </trkpt>
      <trkpt lat="46.33996" lon="6.78996">
        <ele>1954.5</ele>
        <time>2013-09-28T08:55:51Z</time>
      </trkpt>
      <trkpt lat="46.33995" lon="6.79006">
        <ele>1954.98</ele>
        <time>2013-09-28T08:55:58Z</time>
      </trkpt>
      <trkpt lat="46.33994" lon="6.79021">
        <ele>1955.94</ele>
        <time>2013-09-28T08:56:11Z</time>
      </trkpt>
      <trkpt lat="46.33995" lon="6.79027">
        <ele>1955.94</ele>
        <time>2013-09-28T08:56:15Z</time>
      </trkpt>
      <trkpt lat="46.34001" lon="6.79053">
        <ele>1956.9</ele>
        <time>2013-09-28T08:56:32Z</time>
      </trkpt>
      <trkpt lat="46.34003" lon="6.79074">
        <ele>1962.19</ele>
        <time>2013-09-28T08:56:45Z</time>
      </trkpt>
      <trkpt lat="46.34003" lon="6.7908">
        <ele>1963.15</ele>
        <time>2013-09-28T08:56:49Z</time>
      </trkpt>
      <trkpt lat="46.34006" lon="6.79098">
        <ele>1970.84</ele>
        <time>2013-09-28T08:57:00Z</time>
      </trkpt>
      <trkpt lat="46.34002" lon="6.79137">
        <ele>1976.13</ele>
        <time>2013-09-28T08:57:19Z</time>
      </trkpt>
      <trkpt lat="46.34001" lon="6.79142">
        <ele>1974.69</ele>
        <time>2013-09-28T08:57:22Z</time>
      </trkpt>
      <trkpt lat="46.34002" lon="6.79165">
        <ele>1969.4</ele>
        <time>2013-09-28T08:57:40Z</time>
      </trkpt>
      <trkpt lat="46.34007" lon="6.79183">
        <ele>1971.8</ele>
        <time>2013-09-28T08:57:56Z</time>
      </trkpt>
      <trkpt lat="46.34007" lon="6.79221">
        <ele>1973.24</ele>
        <time>2013-09-28T08:58:15Z</time>
      </trkpt>
      <trkpt lat="46.34003" lon="6.7925">
        <ele>1974.2</ele>
        <time>2013-09-28T08:58:31Z</time>
      </trkpt>
      <trkpt lat="46.33999" lon="6.79256">
        <ele>1976.13</ele>
        <time>2013-09-28T08:58:38Z</time>
      </trkpt>
      <trkpt lat="46.33994" lon="6.79254">
        <ele>1977.09</ele>
        <time>2013-09-28T08:58:41Z</time>
      </trkpt>
      <trkpt lat="46.33976" lon="6.79248">
        <ele>1984.3</ele>
        <time>2013-09-28T08:59:00Z</time>
      </trkpt>
      <trkpt lat="46.33973" lon="6.79248">
        <ele>1985.74</ele>
        <time>2013-09-28T08:59:04Z</time>
      </trkpt>
      <trkpt lat="46.33954" lon="6.79257">
        <ele>1993.91</ele>
        <time>2013-09-28T08:59:24Z</time>
      </trkpt>
      <trkpt lat="46.33944" lon="6.79281">
        <ele>2002.08</ele>
        <time>2013-09-28T08:59:42Z</time>
      </trkpt>
      <trkpt lat="46.33929" lon="6.79298">
        <ele>2007.37</ele>
        <time>2013-09-28T09:00:00Z</time>
      </trkpt>
      <trkpt lat="46.33921" lon="6.79322">
        <ele>2011.7</ele>
        <time>2013-09-28T09:00:18Z</time>
      </trkpt>
      <trkpt lat="46.33914" lon="6.79337">
        <ele>2013.14</ele>
        <time>2013-09-28T09:00:39Z</time>
      </trkpt>
      <trkpt lat="46.33907" lon="6.79354">
        <ele>2016.98</ele>
        <time>2013-09-28T09:00:58Z</time>
      </trkpt>
      <trkpt lat="46.33907" lon="6.79355">
        <ele>2016.98</ele>
        <time>2013-09-28T09:00:59Z</time>
      </trkpt>
      <trkpt lat="46.33911" lon="6.7936">
        <ele>2021.31</ele>
        <time>2013-09-28T09:01:16Z</time>
      </trkpt>
      <trkpt lat="46.3391" lon="6.7937">
        <ele>2027.56</ele>
        <time>2013-09-28T09:01:32Z</time>
      </trkpt>
      <trkpt lat="46.33901" lon="6.7938">
        <ele>2031.4</ele>
        <time>2013-09-28T09:01:48Z</time>
      </trkpt>
      <trkpt lat="46.33897" lon="6.79399">
        <ele>2035.25</ele>
        <time>2013-09-28T09:02:05Z</time>
      </trkpt>
      <trkpt lat="46.33896" lon="6.79416">
        <ele>2039.57</ele>
        <time>2013-09-28T09:02:24Z</time>
      </trkpt>
      <trkpt lat="46.33894" lon="6.79425">
        <ele>2041.5</ele>
        <time>2013-09-28T09:02:41Z</time>
      </trkpt>
      <trkpt lat="46.33892" lon="6.79426">
        <ele>2042.46</ele>
        <time>2013-09-28T09:02:45Z</time>
      </trkpt>
      <trkpt lat="46.33886" lon="6.79445">
        <ele>2047.26</ele>
        <time>2013-09-28T09:03:03Z</time>
      </trkpt>
      <trkpt lat="46.33887" lon="6.79455">
        <ele>2048.23</ele>
        <time>2013-09-28T09:03:22Z</time>
      </trkpt>
      <trkpt lat="46.33885" lon="6.79472">
        <ele>2053.51</ele>
        <time>2013-09-28T09:03:36Z</time>
      </trkpt>
      <trkpt lat="46.33882" lon="6.79477">
        <ele>2054.96</ele>
        <time>2013-09-28T09:03:41Z</time>
      </trkpt>
      <trkpt lat="46.3388" lon="6.79494">
        <ele>2056.88</ele>
        <time>2013-09-28T09:03:54Z</time>
      </trkpt>
      <trkpt lat="46.33873" lon="6.79504">
        <ele>2058.32</ele>
        <time>2013-09-28T09:04:10Z</time>
      </trkpt>
      <trkpt lat="46.33863" lon="6.79499">
        <ele>2066.49</ele>
        <time>2013-09-28T09:04:28Z</time>
      </trkpt>
      <trkpt lat="46.33857" lon="6.79499">
        <ele>2070.82</ele>
        <time>2013-09-28T09:04:38Z</time>
      </trkpt>
      <trkpt lat="46.33851" lon="6.79498">
        <ele>2072.26</ele>
        <time>2013-09-28T09:04:44Z</time>
      </trkpt>
      <trkpt lat="46.33836" lon="6.79502">
        <ele>2077.07</ele>
        <time>2013-09-28T09:05:00Z</time>
      </trkpt>
      <trkpt lat="46.33835" lon="6.79502">
        <ele>2077.07</ele>
        <time>2013-09-28T09:05:01Z</time>
      </trkpt>
      <trkpt lat="46.33816" lon="6.79492">
        <ele>2079.95</ele>
        <time>2013-09-28T09:05:23Z</time>
      </trkpt>
      <trkpt lat="46.33802" lon="6.79486">
        <ele>2082.83</ele>
        <time>2013-09-28T09:05:39Z</time>
      </trkpt>
      <trkpt lat="46.338" lon="6.79486">
        <ele>2082.83</ele>
        <time>2013-09-28T09:05:41Z</time>
      </trkpt>
      <trkpt lat="46.33788" lon="6.79489">
        <ele>2083.31</ele>
        <time>2013-09-28T09:05:53Z</time>
      </trkpt>
      <trkpt lat="46.33773" lon="6.79487">
        <ele>2083.31</ele>
        <time>2013-09-28T09:06:09Z</time>
      </trkpt>
      <trkpt lat="46.33759" lon="6.79485">
        <ele>2087.16</ele>
        <time>2013-09-28T09:06:27Z</time>
      </trkpt>
      <trkpt lat="46.33749" lon="6.79473">
        <ele>2095.81</ele>
        <time>2013-09-28T09:06:47Z</time>
      </trkpt>
      <trkpt lat="46.33748" lon="6.79468">
        <ele>2095.81</ele>
        <time>2013-09-28T09:06:51Z</time>
      </trkpt>
      <trkpt lat="46.33748" lon="6.79463">
        <ele>2095.81</ele>
        <time>2013-09-28T09:06:55Z</time>
      </trkpt>
      <trkpt lat="46.33745" lon="6.79448">
        <ele>2097.73</ele>
        <time>2013-09-28T09:07:05Z</time>
      </trkpt>
      <trkpt lat="46.33747" lon="6.79441">
        <ele>2097.73</ele>
        <time>2013-09-28T09:07:09Z</time>
      </trkpt>
      <trkpt lat="46.33749" lon="6.79424">
        <ele>2097.73</ele>
        <time>2013-09-28T09:07:21Z</time>
      </trkpt>
      <trkpt lat="46.33753" lon="6.79413">
        <ele>2098.21</ele>
        <time>2013-09-28T09:07:30Z</time>
      </trkpt>
      <trkpt lat="46.33754" lon="6.79391">
        <ele>2098.7</ele>
        <time>2013-09-28T09:07:42Z</time>
      </trkpt>
      <trkpt lat="46.33758" lon="6.79373">
        <ele>2102.06</ele>
        <time>2013-09-28T09:07:58Z</time>
      </trkpt>
      <trkpt lat="46.33751" lon="6.79371">
        <ele>2104.46</ele>
        <time>2013-09-28T09:08:13Z</time>
      </trkpt>
      <trkpt lat="46.33752" lon="6.79365">
        <ele>2106.39</ele>
        <time>2013-09-28T09:08:20Z</time>
      </trkpt>
      <trkpt lat="46.33752" lon="6.79359">
        <ele>2107.35</ele>
        <time>2013-09-28T09:08:25Z</time>
      </trkpt>
      <trkpt lat="46.33747" lon="6.79346">
        <ele>2107.83</ele>
        <time>2013-09-28T09:08:46Z</time>
      </trkpt>
      <trkpt lat="46.33746" lon="6.7934">
        <ele>2104.94</ele>
        <time>2013-09-28T09:09:08Z</time>
      </trkpt>
      <trkpt lat="46.33747" lon="6.7934">
        <ele>2103.02</ele>
        <time>2013-09-28T09:09:34Z</time>
      </trkpt>
      <trkpt lat="46.33744" lon="6.7934">
        <ele>2103.5</ele>
        <time>2013-09-28T09:09:42Z</time>
      </trkpt>
      <trkpt lat="46.33724" lon="6.79341">
        <ele>2106.87</ele>
        <time>2013-09-28T09:09:58Z</time>
      </trkpt>
      <trkpt lat="46.3372" lon="6.79339">
        <ele>2107.83</ele>
        <time>2013-09-28T09:10:03Z</time>
      </trkpt>
      <trkpt lat="46.33711" lon="6.79329">
        <ele>2109.27</ele>
        <time>2013-09-28T09:10:17Z</time>
      </trkpt>
      <trkpt lat="46.33697" lon="6.79321">
        <ele>2111.19</ele>
        <time>2013-09-28T09:10:33Z</time>
      </trkpt>
      <trkpt lat="46.33683" lon="6.79328">
        <ele>2111.67</ele>
        <time>2013-09-28T09:10:49Z</time>
      </trkpt>
      <trkpt lat="46.33665" lon="6.79322">
        <ele>2111.19</ele>
        <time>2013-09-28T09:11:06Z</time>
      </trkpt>
      <trkpt lat="46.33639" lon="6.79318">
        <ele>2110.71</ele>
        <time>2013-09-28T09:11:26Z</time>
      </trkpt>
      <trkpt lat="46.33621" lon="6.79309">
        <ele>2111.19</ele>
        <time>2013-09-28T09:11:44Z</time>
      </trkpt>
      <trkpt lat="46.33614" lon="6.79306">
        <ele>2112.63</ele>
        <time>2013-09-28T09:11:51Z</time>
      </trkpt>
      <trkpt lat="46.33609" lon="6.79288">
        <ele>2113.12</ele>
        <time>2013-09-28T09:12:02Z</time>
      </trkpt>
      <trkpt lat="46.33605" lon="6.79287">
        <ele>2113.12</ele>
        <time>2013-09-28T09:12:19Z</time>
      </trkpt>
      <trkpt lat="46.33606" lon="6.79287">
        <ele>2113.12</ele>
        <time>2013-09-28T09:12:22Z</time>
      </trkpt>
      <trkpt lat="46.33598" lon="6.79284">
        <ele>2114.08</ele>
        <time>2013-09-28T09:12:29Z</time>
      </trkpt>
      <trkpt lat="46.33597" lon="6.79288">
        <ele>2116.48</ele>
        <time>2013-09-28T09:12:41Z</time>
      </trkpt>
      <trkpt lat="46.33596" lon="6.79282">
        <ele>2116.96</ele>
        <time>2013-09-28T09:12:47Z</time>
      </trkpt>
      <trkpt lat="46.33585" lon="6.79267">
        <ele>2116.96</ele>
        <time>2013-09-28T09:12:54Z</time>
      </trkpt>
      <trkpt lat="46.33578" lon="6.79235">
        <ele>2116.48</ele>
        <time>2013-09-28T09:13:07Z</time>
      </trkpt>
      <trkpt lat="46.33567" lon="6.79201">
        <ele>2116</ele>
        <time>2013-09-28T09:13:24Z</time>
      </trkpt>
      <trkpt lat="46.33558" lon="6.79178">
        <ele>2116.48</ele>
        <time>2013-09-28T09:13:39Z</time>
      </trkpt>
      <trkpt lat="46.33547" lon="6.79166">
        <ele>2116.48</ele>
        <time>2013-09-28T09:13:49Z</time>
      </trkpt>
      <trkpt lat="46.33544" lon="6.79159">
        <ele>2116.96</ele>
        <time>2013-09-28T09:13:53Z</time>
      </trkpt>
      <trkpt lat="46.33535" lon="6.79126">
        <ele>2118.88</ele>
        <time>2013-09-28T09:14:13Z</time>
      </trkpt>
      <trkpt lat="46.33534" lon="6.79119">
        <ele>2119.84</ele>
        <time>2013-09-28T09:14:27Z</time>
      </trkpt>
      <trkpt lat="46.33538" lon="6.79112">
        <ele>2120.81</ele>
        <time>2013-09-28T09:14:43Z</time>
      </trkpt>
      <trkpt lat="46.33538" lon="6.79103">
        <ele>2124.17</ele>
        <time>2013-09-28T09:14:53Z</time>
      </trkpt>
      <trkpt lat="46.33543" lon="6.79089">
        <ele>2129.46</ele>
        <time>2013-09-28T09:15:07Z</time>
      </trkpt>
      <trkpt lat="46.33537" lon="6.79067">
        <ele>2133.78</ele>
        <time>2013-09-28T09:15:23Z</time>
      </trkpt>
      <trkpt lat="46.33533" lon="6.79056">
        <ele>2134.74</ele>
        <time>2013-09-28T09:15:30Z</time>
      </trkpt>
      <trkpt lat="46.33527" lon="6.79036">
        <ele>2133.78</ele>
        <time>2013-09-28T09:15:46Z</time>
      </trkpt>
      <trkpt lat="46.33517" lon="6.79019">
        <ele>2135.23</ele>
        <time>2013-09-28T09:16:04Z</time>
      </trkpt>
      <trkpt lat="46.33509" lon="6.79003">
        <ele>2138.11</ele>
        <time>2013-09-28T09:16:20Z</time>
      </trkpt>
      <trkpt lat="46.33504" lon="6.78994">
        <ele>2137.63</ele>
        <time>2013-09-28T09:16:35Z</time>
      </trkpt>
      <trkpt lat="46.33502" lon="6.78991">
        <ele>2137.15</ele>
        <time>2013-09-28T09:16:51Z</time>
      </trkpt>
      <trkpt lat="46.33501" lon="6.78989">
        <ele>2137.15</ele>
        <time>2013-09-28T09:16:52Z</time>
      </trkpt>
      <trkpt lat="46.335" lon="6.78985">
        <ele>2136.67</ele>
        <time>2013-09-28T09:16:54Z</time>
      </trkpt>
      <trkpt lat="46.33495" lon="6.78978">
        <ele>2139.55</ele>
        <time>2013-09-28T09:17:05Z</time>
      </trkpt>
      <trkpt lat="46.33496" lon="6.78976">
        <ele>2140.03</ele>
        <time>2013-09-28T09:17:14Z</time>
      </trkpt>
      <trkpt lat="46.33498" lon="6.78977">
        <ele>2140.03</ele>
        <time>2013-09-28T09:17:16Z</time>
      </trkpt>
      <trkpt lat="46.33505" lon="6.78973">
        <ele>2139.07</ele>
        <time>2013-09-28T09:17:31Z</time>
      </trkpt>
      <trkpt lat="46.33503" lon="6.78957">
        <ele>2140.03</ele>
        <time>2013-09-28T09:17:44Z</time>
      </trkpt>
      <trkpt lat="46.335" lon="6.78947">
        <ele>2142.92</ele>
        <time>2013-09-28T09:18:00Z</time>
      </trkpt>
      <trkpt lat="46.33494" lon="6.78939">
        <ele>2148.2</ele>
        <time>2013-09-28T09:18:18Z</time>
      </trkpt>
      <trkpt lat="46.3349" lon="6.78934">
        <ele>2149.65</ele>
        <time>2013-09-28T09:18:23Z</time>
      </trkpt>
      <trkpt lat="46.33477" lon="6.78923">
        <ele>2153.01</ele>
        <time>2013-09-28T09:18:40Z</time>
      </trkpt>
      <trkpt lat="46.33465" lon="6.78913">
        <ele>2153.01</ele>
        <time>2013-09-28T09:18:53Z</time>
      </trkpt>
      <trkpt lat="46.33456" lon="6.789">
        <ele>2153.97</ele>
        <time>2013-09-28T09:19:08Z</time>
      </trkpt>
      <trkpt lat="46.33448" lon="6.78891">
        <ele>2155.89</ele>
        <time>2013-09-28T09:19:24Z</time>
      </trkpt>
      <trkpt lat="46.33437" lon="6.78873">
        <ele>2158.78</ele>
        <time>2013-09-28T09:19:43Z</time>
      </trkpt>
      <trkpt lat="46.33434" lon="6.78851">
        <ele>2161.66</ele>
        <time>2013-09-28T09:20:01Z</time>
      </trkpt>
      <trkpt lat="46.33434" lon="6.78833">
        <ele>2164.55</ele>
        <time>2013-09-28T09:20:17Z</time>
      </trkpt>
      <trkpt lat="46.33426" lon="6.78819">
        <ele>2170.31</ele>
        <time>2013-09-28T09:20:36Z</time>
      </trkpt>
      <trkpt lat="46.33424" lon="6.78814">
        <ele>2172.24</ele>
        <time>2013-09-28T09:20:52Z</time>
      </trkpt>
      <trkpt lat="46.33418" lon="6.78799">
        <ele>2179.45</ele>
        <time>2013-09-28T09:21:10Z</time>
      </trkpt>
      <trkpt lat="46.33412" lon="6.78789">
        <ele>2182.81</ele>
        <time>2013-09-28T09:21:24Z</time>
      </trkpt>
      <trkpt lat="46.33407" lon="6.7878">
        <ele>2184.73</ele>
        <time>2013-09-28T09:21:39Z</time>
      </trkpt>
      <trkpt lat="46.33402" lon="6.78765">
        <ele>2187.14</ele>
        <time>2013-09-28T09:21:58Z</time>
      </trkpt>
      <trkpt lat="46.33399" lon="6.7876">
        <ele>2189.54</ele>
        <time>2013-09-28T09:22:12Z</time>
      </trkpt>
      <trkpt lat="46.33388" lon="6.78753">
        <ele>2190.98</ele>
        <time>2013-09-28T09:22:29Z</time>
      </trkpt>
      <trkpt lat="46.33386" lon="6.78748">
        <ele>2193.87</ele>
        <time>2013-09-28T09:22:44Z</time>
      </trkpt>
      <trkpt lat="46.33387" lon="6.78737">
        <ele>2197.71</ele>
        <time>2013-09-28T09:23:00Z</time>
      </trkpt>
      <trkpt lat="46.33386" lon="6.78735">
        <ele>2199.63</ele>
        <time>2013-09-28T09:23:14Z</time>
      </trkpt>
      <trkpt lat="46.33386" lon="6.7873">
        <ele>2202.04</ele>
        <time>2013-09-28T09:23:28Z</time>
      </trkpt>
      <trkpt lat="46.33385" lon="6.78718">
        <ele>2204.92</ele>
        <time>2013-09-28T09:23:43Z</time>
      </trkpt>
      <trkpt lat="46.33381" lon="6.78705">
        <ele>2206.84</ele>
        <time>2013-09-28T09:24:01Z</time>
      </trkpt>
      <trkpt lat="46.33379" lon="6.7869">
        <ele>2209.73</ele>
        <time>2013-09-28T09:24:18Z</time>
      </trkpt>
      <trkpt lat="46.33377" lon="6.78683">
        <ele>2213.57</ele>
        <time>2013-09-28T09:24:32Z</time>
      </trkpt>
      <trkpt lat="46.33376" lon="6.78674">
        <ele>2215.98</ele>
        <time>2013-09-28T09:24:48Z</time>
      </trkpt>
      <trkpt lat="46.33373" lon="6.78671">
        <ele>2217.42</ele>
        <time>2013-09-28T09:25:06Z</time>
      </trkpt>
      <trkpt lat="46.33373" lon="6.78667">
        <ele>2217.9</ele>
        <time>2013-09-28T09:25:22Z</time>
      </trkpt>
      <trkpt lat="46.33369" lon="6.78668">
        <ele>2215.98</ele>
        <time>2013-09-28T09:25:46Z</time>
      </trkpt>
      <trkpt lat="46.33369" lon="6.78668">
        <ele>2215.98</ele>
        <time>2013-09-28T09:25:57Z</time>
      </trkpt>
      <trkpt lat="46.33359" lon="6.78662">
        <ele>2220.3</ele>
        <time>2013-09-28T09:26:11Z</time>
      </trkpt>
      <trkpt lat="46.33347" lon="6.78649">
        <ele>2221.26</ele>
        <time>2013-09-28T09:26:31Z</time>
      </trkpt>
      <trkpt lat="46.33343" lon="6.78641">
        <ele>2222.22</ele>
        <time>2013-09-28T09:26:40Z</time>
      </trkpt>
      <trkpt lat="46.33336" lon="6.7864">
        <ele>2223.19</ele>
        <time>2013-09-28T09:26:58Z</time>
      </trkpt>
      <trkpt lat="46.33336" lon="6.78633">
        <ele>2226.55</ele>
        <time>2013-09-28T09:27:14Z</time>
      </trkpt>
      <trkpt lat="46.33333" lon="6.78624">
        <ele>2226.55</ele>
        <time>2013-09-28T09:27:31Z</time>
      </trkpt>
      <trkpt lat="46.33328" lon="6.78618">
        <ele>2227.99</ele>
        <time>2013-09-28T09:27:51Z</time>
      </trkpt>
      <trkpt lat="46.33319" lon="6.78616">
        <ele>2231.84</ele>
        <time>2013-09-28T09:28:10Z</time>
      </trkpt>
      <trkpt lat="46.33305" lon="6.78619">
        <ele>2234.72</ele>
        <time>2013-09-28T09:28:29Z</time>
      </trkpt>
      <trkpt lat="46.33297" lon="6.78619">
        <ele>2236.64</ele>
        <time>2013-09-28T09:28:35Z</time>
      </trkpt>
      <trkpt lat="46.3327" lon="6.7862">
        <ele>2239.53</ele>
        <time>2013-09-28T09:28:57Z</time>
      </trkpt>
      <trkpt lat="46.33255" lon="6.78616">
        <ele>2240.49</ele>
        <time>2013-09-28T09:29:16Z</time>
      </trkpt>
      <trkpt lat="46.33248" lon="6.78625">
        <ele>2241.45</ele>
        <time>2013-09-28T09:29:27Z</time>
      </trkpt>
      <trkpt lat="46.33244" lon="6.78628">
        <ele>2241.93</ele>
        <time>2013-09-28T09:29:35Z</time>
      </trkpt>
      <trkpt lat="46.33237" lon="6.78636">
        <ele>2241.93</ele>
        <time>2013-09-28T09:29:43Z</time>
      </trkpt>
      <trkpt lat="46.33241" lon="6.78715">
        <ele>2257.31</ele>
        <time>2013-09-28T09:30:03Z</time>
      </trkpt>
      <trkpt lat="46.33241" lon="6.78719">
        <ele>2257.79</ele>
        <time>2013-09-28T09:30:08Z</time>
      </trkpt>
      <trkpt lat="46.33238" lon="6.78724">
        <ele>2256.83</ele>
        <time>2013-09-28T09:30:12Z</time>
      </trkpt>
      <trkpt lat="46.33228" lon="6.78751">
        <ele>2254.91</ele>
        <time>2013-09-28T09:30:29Z</time>
      </trkpt>
      <trkpt lat="46.33233" lon="6.78761">
        <ele>2260.68</ele>
        <time>2013-09-28T09:30:42Z</time>
      </trkpt>
      <trkpt lat="46.33233" lon="6.78763">
        <ele>2260.68</ele>
        <time>2013-09-28T09:30:44Z</time>
      </trkpt>
      <trkpt lat="46.33229" lon="6.78786">
        <ele>2257.79</ele>
        <time>2013-09-28T09:31:00Z</time>
      </trkpt>
      <trkpt lat="46.33222" lon="6.78783">
        <ele>2254.91</ele>
        <time>2013-09-28T09:31:14Z</time>
      </trkpt>
      <trkpt lat="46.33216" lon="6.78784">
        <ele>2254.43</ele>
        <time>2013-09-28T09:31:34Z</time>
      </trkpt>
      <trkpt lat="46.33216" lon="6.78784">
        <ele>2254.91</ele>
        <time>2013-09-28T09:31:43Z</time>
      </trkpt>
      <trkpt lat="46.33201" lon="6.78775">
        <ele>2258.27</ele>
        <time>2013-09-28T09:32:01Z</time>
      </trkpt>
      <trkpt lat="46.33189" lon="6.78762">
        <ele>2262.6</ele>
        <time>2013-09-28T09:32:19Z</time>
      </trkpt>
      <trkpt lat="46.3318" lon="6.78752">
        <ele>2267.41</ele>
        <time>2013-09-28T09:32:35Z</time>
      </trkpt>
      <trkpt lat="46.33174" lon="6.78741">
        <ele>2270.77</ele>
        <time>2013-09-28T09:32:57Z</time>
      </trkpt>
      <trkpt lat="46.33173" lon="6.78739">
        <ele>2273.17</ele>
        <time>2013-09-28T09:33:12Z</time>
      </trkpt>
      <trkpt lat="46.33173" lon="6.78736">
        <ele>2276.54</ele>
        <time>2013-09-28T09:33:27Z</time>
      </trkpt>
      <trkpt lat="46.33173" lon="6.78735">
        <ele>2280.38</ele>
        <time>2013-09-28T09:33:43Z</time>
      </trkpt>
      <trkpt lat="46.33171" lon="6.78728">
        <ele>2279.9</ele>
        <time>2013-09-28T09:33:58Z</time>
      </trkpt>
      <trkpt lat="46.3317" lon="6.78724">
        <ele>2279.9</ele>
        <time>2013-09-28T09:34:15Z</time>
      </trkpt>
      <trkpt lat="46.33169" lon="6.78716">
        <ele>2282.79</ele>
        <time>2013-09-28T09:34:33Z</time>
      </trkpt>
      <trkpt lat="46.33167" lon="6.78711">
        <ele>2283.27</ele>
        <time>2013-09-28T09:34:49Z</time>
      </trkpt>
      <trkpt lat="46.33166" lon="6.78708">
        <ele>2283.27</ele>
        <time>2013-09-28T09:35:04Z</time>
      </trkpt>
      <trkpt lat="46.33165" lon="6.78707">
        <ele>2285.19</ele>
        <time>2013-09-28T09:35:22Z</time>
      </trkpt>
      <trkpt lat="46.33164" lon="6.78704">
        <ele>2287.11</ele>
        <time>2013-09-28T09:35:41Z</time>
      </trkpt>
      <trkpt lat="46.33161" lon="6.78696">
        <ele>2291.92</ele>
        <time>2013-09-28T09:36:00Z</time>
      </trkpt>
      <trkpt lat="46.33159" lon="6.78691">
        <ele>2292.4</ele>
        <time>2013-09-28T09:36:28Z</time>
      </trkpt>
      <trkpt lat="46.33157" lon="6.78686">
        <ele>2294.32</ele>
        <time>2013-09-28T09:36:46Z</time>
      </trkpt>
      <trkpt lat="46.33156" lon="6.78669">
        <ele>2301.53</ele>
        <time>2013-09-28T09:37:03Z</time>
      </trkpt>
      <trkpt lat="46.33163" lon="6.78665">
        <ele>2309.22</ele>
        <time>2013-09-28T09:37:16Z</time>
      </trkpt>
      <trkpt lat="46.33165" lon="6.78666">
        <ele>2314.51</ele>
        <time>2013-09-28T09:37:29Z</time>
      </trkpt>
      <trkpt lat="46.3317" lon="6.78659">
        <ele>2319.8</ele>
        <time>2013-09-28T09:37:43Z</time>
      </trkpt>
      <trkpt lat="46.33171" lon="6.78656">
        <ele>2322.2</ele>
        <time>2013-09-28T09:37:56Z</time>
      </trkpt>
      <trkpt lat="46.33171" lon="6.7865">
        <ele>2325.09</ele>
        <time>2013-09-28T09:38:12Z</time>
      </trkpt>
      <trkpt lat="46.33176" lon="6.78644">
        <ele>2329.41</ele>
        <time>2013-09-28T09:38:29Z</time>
      </trkpt>
      <trkpt lat="46.33178" lon="6.78641">
        <ele>2331.33</ele>
        <time>2013-09-28T09:38:44Z</time>
      </trkpt>
      <trkpt lat="46.33184" lon="6.78643">
        <ele>2336.14</ele>
        <time>2013-09-28T09:38:59Z</time>
      </trkpt>
      <trkpt lat="46.33183" lon="6.78633">
        <ele>2339.51</ele>
        <time>2013-09-28T09:39:13Z</time>
      </trkpt>
      <trkpt lat="46.33186" lon="6.78632">
        <ele>2342.87</ele>
        <time>2013-09-28T09:39:31Z</time>
      </trkpt>
      <trkpt lat="46.33191" lon="6.78632">
        <ele>2345.75</ele>
        <time>2013-09-28T09:39:40Z</time>
      </trkpt>
      <trkpt lat="46.33195" lon="6.78632">
        <ele>2347.68</ele>
        <time>2013-09-28T09:39:54Z</time>
      </trkpt>
      <trkpt lat="46.33204" lon="6.78636">
        <ele>2352.96</ele>
        <time>2013-09-28T09:40:11Z</time>
      </trkpt>
      <trkpt lat="46.33207" lon="6.78633">
        <ele>2357.29</ele>
        <time>2013-09-28T09:40:27Z</time>
      </trkpt>
      <trkpt lat="46.33211" lon="6.78631">
        <ele>2361.62</ele>
        <time>2013-09-28T09:40:42Z</time>
      </trkpt>
      <trkpt lat="46.33215" lon="6.78631">
        <ele>2364.5</ele>
        <time>2013-09-28T09:40:58Z</time>
      </trkpt>
      <trkpt lat="46.33222" lon="6.7863">
        <ele>2368.35</ele>
        <time>2013-09-28T09:41:14Z</time>
      </trkpt>
      <trkpt lat="46.33226" lon="6.78626">
        <ele>2372.19</ele>
        <time>2013-09-28T09:41:29Z</time>
      </trkpt>
      <trkpt lat="46.33228" lon="6.78625">
        <ele>2375.55</ele>
        <time>2013-09-28T09:41:42Z</time>
      </trkpt>
      <trkpt lat="46.33233" lon="6.78625">
        <ele>2377</ele>
        <time>2013-09-28T09:41:57Z</time>
      </trkpt>
      <trkpt lat="46.33241" lon="6.78627">
        <ele>2380.36</ele>
        <time>2013-09-28T09:42:11Z</time>
      </trkpt>
      <trkpt lat="46.33248" lon="6.78627">
        <ele>2383.25</ele>
        <time>2013-09-28T09:42:25Z</time>
      </trkpt>
      <trkpt lat="46.33249" lon="6.78616">
        <ele>2387.09</ele>
        <time>2013-09-28T09:42:40Z</time>
      </trkpt>
      <trkpt lat="46.33249" lon="6.786">
        <ele>2392.38</ele>
        <time>2013-09-28T09:42:56Z</time>
      </trkpt>
      <trkpt lat="46.33251" lon="6.78589">
        <ele>2394.78</ele>
        <time>2013-09-28T09:43:09Z</time>
      </trkpt>
      <trkpt lat="46.3325" lon="6.78576">
        <ele>2397.18</ele>
        <time>2013-09-28T09:43:22Z</time>
      </trkpt>
      <trkpt lat="46.33252" lon="6.78573">
        <ele>2398.63</ele>
        <time>2013-09-28T09:43:29Z</time>
      </trkpt>
      <trkpt lat="46.3325" lon="6.78564">
        <ele>2401.99</ele>
        <time>2013-09-28T09:43:43Z</time>
      </trkpt>
      <trkpt lat="46.3325" lon="6.78553">
        <ele>2404.88</ele>
        <time>2013-09-28T09:43:55Z</time>
      </trkpt>
      <trkpt lat="46.33247" lon="6.78545">
        <ele>2408.24</ele>
        <time>2013-09-28T09:44:07Z</time>
      </trkpt>
      <trkpt lat="46.33247" lon="6.78537">
        <ele>2411.12</ele>
        <time>2013-09-28T09:44:20Z</time>
      </trkpt>
      <trkpt lat="46.33248" lon="6.78536">
        <ele>2411.6</ele>
        <time>2013-09-28T09:44:21Z</time>
      </trkpt>
      <trkpt lat="46.33247" lon="6.7853">
        <ele>2412.57</ele>
        <time>2013-09-28T09:44:26Z</time>
      </trkpt>
      <trkpt lat="46.33244" lon="6.78519">
        <ele>2415.93</ele>
        <time>2013-09-28T09:44:38Z</time>
      </trkpt>
      <trkpt lat="46.33241" lon="6.78506">
        <ele>2419.78</ele>
        <time>2013-09-28T09:44:51Z</time>
      </trkpt>
      <trkpt lat="46.33241" lon="6.785">
        <ele>2423.14</ele>
        <time>2013-09-28T09:45:03Z</time>
      </trkpt>
      <trkpt lat="46.33241" lon="6.78498">
        <ele>2424.1</ele>
        <time>2013-09-28T09:45:08Z</time>
      </trkpt>
      <trkpt lat="46.33243" lon="6.78496">
        <ele>2424.58</ele>
        <time>2013-09-28T09:45:19Z</time>
      </trkpt>
      <trkpt lat="46.33244" lon="6.78495">
        <ele>2424.1</ele>
        <time>2013-09-28T09:45:34Z</time>
      </trkpt>
      <trkpt lat="46.3325" lon="6.78485">
        <ele>2427.95</ele>
        <time>2013-09-28T09:45:48Z</time>
      </trkpt>
      <trkpt lat="46.33251" lon="6.78485">
        <ele>2428.43</ele>
        <time>2013-09-28T09:45:50Z</time>
      </trkpt>
      <trkpt lat="46.33255" lon="6.78479">
        <ele>2431.31</ele>
        <time>2013-09-28T09:46:03Z</time>
      </trkpt>
      <trkpt lat="46.3326" lon="6.78466">
        <ele>2435.16</ele>
        <time>2013-09-28T09:46:20Z</time>
      </trkpt>
      <trkpt lat="46.3326" lon="6.78467">
        <ele>2437.08</ele>
        <time>2013-09-28T09:46:40Z</time>
      </trkpt>
      <trkpt lat="46.3326" lon="6.78466">
        <ele>2437.08</ele>
        <time>2013-09-28T09:46:56Z</time>
      </trkpt>
      <trkpt lat="46.3326" lon="6.78466">
        <ele>2437.08</ele>
        <time>2013-09-28T09:47:16Z</time>
      </trkpt>
      <trkpt lat="46.33259" lon="6.78463">
        <ele>2436.6</ele>
        <time>2013-09-28T09:47:36Z</time>
      </trkpt>
      <trkpt lat="46.3326" lon="6.78463">
        <ele>2436.12</ele>
        <time>2013-09-28T09:47:55Z</time>
      </trkpt>
      <trkpt lat="46.3326" lon="6.78462">
        <ele>2436.6</ele>
        <time>2013-09-28T09:48:20Z</time>
      </trkpt>
      <trkpt lat="46.33261" lon="6.78462">
        <ele>2436.6</ele>
        <time>2013-09-28T09:48:49Z</time>
      </trkpt>
      <trkpt lat="46.33261" lon="6.78462">
        <ele>2436.6</ele>
        <time>2013-09-28T09:49:18Z</time>
      </trkpt>
      <trkpt lat="46.33261" lon="6.78462">
        <ele>2437.08</ele>
        <time>2013-09-28T09:49:46Z</time>
      </trkpt>
      <trkpt lat="46.33261" lon="6.78462">
        <ele>2436.12</ele>
        <time>2013-09-28T09:50:15Z</time>
      </trkpt>
      <trkpt lat="46.33262" lon="6.78461">
        <ele>2434.68</ele>
        <time>2013-09-28T09:50:48Z</time>
      </trkpt>
      <trkpt lat="46.33262" lon="6.78462">
        <ele>2434.2</ele>
        <time>2013-09-28T09:51:18Z</time>
      </trkpt>
      <trkpt lat="46.33262" lon="6.78461">
        <ele>2433.71</ele>
        <time>2013-09-28T09:51:50Z</time>
      </trkpt>
      <trkpt lat="46.33262" lon="6.78461">
        <ele>2433.23</ele>
        <time>2013-09-28T09:52:23Z</time>
      </trkpt>
      <trkpt lat="46.33261" lon="6.78461">
        <ele>2432.75</ele>
        <time>2013-09-28T09:52:53Z</time>
      </trkpt>
      <trkpt lat="46.33258" lon="6.78466">
        <ele>2433.23</ele>
        <time>2013-09-28T09:53:06Z</time>
      </trkpt>
      <trkpt lat="46.3326" lon="6.78464">
        <ele>2433.71</ele>
        <time>2013-09-28T09:53:30Z</time>
      </trkpt>
      <trkpt lat="46.33261" lon="6.78463">
        <ele>2433.71</ele>
        <time>2013-09-28T09:53:50Z</time>
      </trkpt>
      <trkpt lat="46.3326" lon="6.78463">
        <ele>2433.71</ele>
        <time>2013-09-28T09:54:09Z</time>
      </trkpt>
      <trkpt lat="46.3326" lon="6.78463">
        <ele>2433.71</ele>
        <time>2013-09-28T09:54:39Z</time>
      </trkpt>
      <trkpt lat="46.33259" lon="6.78463">
        <ele>2433.71</ele>
        <time>2013-09-28T09:55:00Z</time>
      </trkpt>
      <trkpt lat="46.3326" lon="6.78462">
        <ele>2434.2</ele>
        <time>2013-09-28T09:55:20Z</time>
      </trkpt>
      <trkpt lat="46.3326" lon="6.78462">
        <ele>2434.2</ele>
        <time>2013-09-28T09:55:35Z</time>
      </trkpt>
      <trkpt lat="46.33257" lon="6.78463">
        <ele>2433.71</ele>
        <time>2013-09-28T09:55:43Z</time>
      </trkpt>
      <trkpt lat="46.33255" lon="6.78473">
        <ele>2430.83</ele>
        <time>2013-09-28T09:55:54Z</time>
      </trkpt>
      <trkpt lat="46.33251" lon="6.78482">
        <ele>2425.54</ele>
        <time>2013-09-28T09:56:09Z</time>
      </trkpt>
      <trkpt lat="46.33249" lon="6.78495">
        <ele>2419.78</ele>
        <time>2013-09-28T09:56:20Z</time>
      </trkpt>
      <trkpt lat="46.33252" lon="6.78504">
        <ele>2415.93</ele>
        <time>2013-09-28T09:56:37Z</time>
      </trkpt>
      <trkpt lat="46.33251" lon="6.78514">
        <ele>2415.93</ele>
        <time>2013-09-28T09:57:02Z</time>
      </trkpt>
      <trkpt lat="46.33252" lon="6.78526">
        <ele>2415.93</ele>
        <time>2013-09-28T09:57:12Z</time>
      </trkpt>
      <trkpt lat="46.33256" lon="6.78543">
        <ele>2415.45</ele>
        <time>2013-09-28T09:57:28Z</time>
      </trkpt>
      <trkpt lat="46.33258" lon="6.78551">
        <ele>2414.97</ele>
        <time>2013-09-28T09:57:39Z</time>
      </trkpt>
      <trkpt lat="46.33258" lon="6.78564">
        <ele>2413.05</ele>
        <time>2013-09-28T09:57:54Z</time>
      </trkpt>
      <trkpt lat="46.33258" lon="6.78574">
        <ele>2412.09</ele>
        <time>2013-09-28T09:58:01Z</time>
      </trkpt>
      <trkpt lat="46.33254" lon="6.7859">
        <ele>2409.2</ele>
        <time>2013-09-28T09:58:17Z</time>
      </trkpt>
      <trkpt lat="46.33252" lon="6.78595">
        <ele>2405.36</ele>
        <time>2013-09-28T09:58:38Z</time>
      </trkpt>
      <trkpt lat="46.33252" lon="6.78597">
        <ele>2403.91</ele>
        <time>2013-09-28T09:58:42Z</time>
      </trkpt>
      <trkpt lat="46.33252" lon="6.78623">
        <ele>2396.7</ele>
        <time>2013-09-28T09:58:58Z</time>
      </trkpt>
      <trkpt lat="46.33238" lon="6.78629">
        <ele>2389.97</ele>
        <time>2013-09-28T09:59:13Z</time>
      </trkpt>
      <trkpt lat="46.33234" lon="6.78625">
        <ele>2389.01</ele>
        <time>2013-09-28T09:59:30Z</time>
      </trkpt>
      <trkpt lat="46.33231" lon="6.78619">
        <ele>2387.57</ele>
        <time>2013-09-28T09:59:41Z</time>
      </trkpt>
      <trkpt lat="46.33229" lon="6.78623">
        <ele>2387.57</ele>
        <time>2013-09-28T09:59:54Z</time>
      </trkpt>
      <trkpt lat="46.33222" lon="6.78617">
        <ele>2387.09</ele>
        <time>2013-09-28T10:00:07Z</time>
      </trkpt>
      <trkpt lat="46.33219" lon="6.78627">
        <ele>2386.13</ele>
        <time>2013-09-28T10:00:23Z</time>
      </trkpt>
      <trkpt lat="46.33213" lon="6.78635">
        <ele>2383.73</ele>
        <time>2013-09-28T10:00:36Z</time>
      </trkpt>
      <trkpt lat="46.33209" lon="6.78639">
        <ele>2381.8</ele>
        <time>2013-09-28T10:00:52Z</time>
      </trkpt>
      <trkpt lat="46.33201" lon="6.78638">
        <ele>2377.96</ele>
        <time>2013-09-28T10:01:06Z</time>
      </trkpt>
      <trkpt lat="46.332" lon="6.78639">
        <ele>2377.48</ele>
        <time>2013-09-28T10:01:08Z</time>
      </trkpt>
      <trkpt lat="46.33194" lon="6.78644">
        <ele>2373.63</ele>
        <time>2013-09-28T10:01:24Z</time>
      </trkpt>
      <trkpt lat="46.33189" lon="6.78646">
        <ele>2370.27</ele>
        <time>2013-09-28T10:01:44Z</time>
      </trkpt>
      <trkpt lat="46.33185" lon="6.78647">
        <ele>2366.9</ele>
        <time>2013-09-28T10:01:57Z</time>
      </trkpt>
      <trkpt lat="46.33184" lon="6.78649">
        <ele>2364.02</ele>
        <time>2013-09-28T10:02:17Z</time>
      </trkpt>
      <trkpt lat="46.33178" lon="6.78646">
        <ele>2357.77</ele>
        <time>2013-09-28T10:02:32Z</time>
      </trkpt>
      <trkpt lat="46.33174" lon="6.78648">
        <ele>2353.93</ele>
        <time>2013-09-28T10:02:45Z</time>
      </trkpt>
      <trkpt lat="46.33171" lon="6.78646">
        <ele>2352</ele>
        <time>2013-09-28T10:02:55Z</time>
      </trkpt>
      <trkpt lat="46.33165" lon="6.78653">
        <ele>2345.27</ele>
        <time>2013-09-28T10:03:09Z</time>
      </trkpt>
      <trkpt lat="46.33162" lon="6.78657">
        <ele>2336.14</ele>
        <time>2013-09-28T10:03:25Z</time>
      </trkpt>
      <trkpt lat="46.3316" lon="6.78663">
        <ele>2329.41</ele>
        <time>2013-09-28T10:03:37Z</time>
      </trkpt>
      <trkpt lat="46.33158" lon="6.78666">
        <ele>2324.61</ele>
        <time>2013-09-28T10:03:52Z</time>
      </trkpt>
      <trkpt lat="46.33155" lon="6.78672">
        <ele>2320.28</ele>
        <time>2013-09-28T10:04:03Z</time>
      </trkpt>
      <trkpt lat="46.33154" lon="6.78673">
        <ele>2318.84</ele>
        <time>2013-09-28T10:04:07Z</time>
      </trkpt>
      <trkpt lat="46.33153" lon="6.78676">
        <ele>2317.88</ele>
        <time>2013-09-28T10:04:09Z</time>
      </trkpt>
      <trkpt lat="46.33155" lon="6.78687">
        <ele>2312.59</ele>
        <time>2013-09-28T10:04:23Z</time>
      </trkpt>
      <trkpt lat="46.33155" lon="6.78696">
        <ele>2309.7</ele>
        <time>2013-09-28T10:04:38Z</time>
      </trkpt>
      <trkpt lat="46.33154" lon="6.78698">
        <ele>2309.22</ele>
        <time>2013-09-28T10:04:55Z</time>
      </trkpt>
      <trkpt lat="46.33154" lon="6.787">
        <ele>2309.22</ele>
        <time>2013-09-28T10:05:02Z</time>
      </trkpt>
      <trkpt lat="46.33156" lon="6.7871">
        <ele>2306.34</ele>
        <time>2013-09-28T10:05:18Z</time>
      </trkpt>
      <trkpt lat="46.33157" lon="6.78714">
        <ele>2303.46</ele>
        <time>2013-09-28T10:05:32Z</time>
      </trkpt>
      <trkpt lat="46.33155" lon="6.78717">
        <ele>2301.53</ele>
        <time>2013-09-28T10:05:48Z</time>
      </trkpt>
      <trkpt lat="46.33158" lon="6.78718">
        <ele>2299.61</ele>
        <time>2013-09-28T10:06:01Z</time>
      </trkpt>
      <trkpt lat="46.33161" lon="6.78725">
        <ele>2298.65</ele>
        <time>2013-09-28T10:06:14Z</time>
      </trkpt>
      <trkpt lat="46.33162" lon="6.78731">
        <ele>2295.77</ele>
        <time>2013-09-28T10:06:30Z</time>
      </trkpt>
      <trkpt lat="46.33168" lon="6.7873">
        <ele>2292.4</ele>
        <time>2013-09-28T10:06:45Z</time>
      </trkpt>
      <trkpt lat="46.33172" lon="6.78736">
        <ele>2290</ele>
        <time>2013-09-28T10:07:00Z</time>
      </trkpt>
      <trkpt lat="46.33174" lon="6.78744">
        <ele>2287.11</ele>
        <time>2013-09-28T10:07:16Z</time>
      </trkpt>
      <trkpt lat="46.33175" lon="6.78746">
        <ele>2286.15</ele>
        <time>2013-09-28T10:07:25Z</time>
      </trkpt>
      <trkpt lat="46.3318" lon="6.78755">
        <ele>2283.27</ele>
        <time>2013-09-28T10:07:36Z</time>
      </trkpt>
      <trkpt lat="46.33184" lon="6.78763">
        <ele>2281.35</ele>
        <time>2013-09-28T10:07:44Z</time>
      </trkpt>
      <trkpt lat="46.33188" lon="6.78768">
        <ele>2279.42</ele>
        <time>2013-09-28T10:07:50Z</time>
      </trkpt>
      <trkpt lat="46.3319" lon="6.78769">
        <ele>2279.42</ele>
        <time>2013-09-28T10:07:52Z</time>
      </trkpt>
      <trkpt lat="46.33197" lon="6.7878">
        <ele>2278.46</ele>
        <time>2013-09-28T10:08:03Z</time>
      </trkpt>
      <trkpt lat="46.33203" lon="6.78791">
        <ele>2277.02</ele>
        <time>2013-09-28T10:08:12Z</time>
      </trkpt>
      <trkpt lat="46.33211" lon="6.78816">
        <ele>2274.14</ele>
        <time>2013-09-28T10:08:29Z</time>
      </trkpt>
      <trkpt lat="46.33222" lon="6.78839">
        <ele>2262.6</ele>
        <time>2013-09-28T10:08:48Z</time>
      </trkpt>
      <trkpt lat="46.33225" lon="6.78843">
        <ele>2260.68</ele>
        <time>2013-09-28T10:08:53Z</time>
      </trkpt>
      <trkpt lat="46.33225" lon="6.78853">
        <ele>2258.75</ele>
        <time>2013-09-28T10:08:59Z</time>
      </trkpt>
      <trkpt lat="46.33228" lon="6.78882">
        <ele>2255.39</ele>
        <time>2013-09-28T10:09:14Z</time>
      </trkpt>
      <trkpt lat="46.33223" lon="6.78891">
        <ele>2253.47</ele>
        <time>2013-09-28T10:09:21Z</time>
      </trkpt>
      <trkpt lat="46.3322" lon="6.78899">
        <ele>2252.03</ele>
        <time>2013-09-28T10:09:26Z</time>
      </trkpt>
      <trkpt lat="46.33211" lon="6.78923">
        <ele>2245.3</ele>
        <time>2013-09-28T10:09:44Z</time>
      </trkpt>
      <trkpt lat="46.3321" lon="6.78924">
        <ele>2244.82</ele>
        <time>2013-09-28T10:09:45Z</time>
      </trkpt>
      <trkpt lat="46.33192" lon="6.7894">
        <ele>2240.01</ele>
        <time>2013-09-28T10:10:01Z</time>
      </trkpt>
      <trkpt lat="46.33185" lon="6.78954">
        <ele>2240.01</ele>
        <time>2013-09-28T10:10:10Z</time>
      </trkpt>
      <trkpt lat="46.33174" lon="6.78962">
        <ele>2238.57</ele>
        <time>2013-09-28T10:10:22Z</time>
      </trkpt>
      <trkpt lat="46.33166" lon="6.78965">
        <ele>2238.09</ele>
        <time>2013-09-28T10:10:36Z</time>
      </trkpt>
      <trkpt lat="46.33156" lon="6.78965">
        <ele>2237.61</ele>
        <time>2013-09-28T10:10:54Z</time>
      </trkpt>
      <trkpt lat="46.3315" lon="6.7897">
        <ele>2235.2</ele>
        <time>2013-09-28T10:11:11Z</time>
      </trkpt>
      <trkpt lat="46.3314" lon="6.78977">
        <ele>2233.28</ele>
        <time>2013-09-28T10:11:29Z</time>
      </trkpt>
      <trkpt lat="46.33134" lon="6.7898">
        <ele>2230.88</ele>
        <time>2013-09-28T10:11:41Z</time>
      </trkpt>
      <trkpt lat="46.33117" lon="6.78976">
        <ele>2225.11</ele>
        <time>2013-09-28T10:11:57Z</time>
      </trkpt>
      <trkpt lat="46.33116" lon="6.78977">
        <ele>2224.63</ele>
        <time>2013-09-28T10:11:58Z</time>
      </trkpt>
      <trkpt lat="46.33104" lon="6.7899">
        <ele>2216.46</ele>
        <time>2013-09-28T10:12:14Z</time>
      </trkpt>
      <trkpt lat="46.33098" lon="6.79005">
        <ele>2212.13</ele>
        <time>2013-09-28T10:12:31Z</time>
      </trkpt>
      <trkpt lat="46.33098" lon="6.79005">
        <ele>2212.13</ele>
        <time>2013-09-28T10:12:32Z</time>
      </trkpt>
      <trkpt lat="46.33092" lon="6.79023">
        <ele>2205.88</ele>
        <time>2013-09-28T10:12:44Z</time>
      </trkpt>
      <trkpt lat="46.33084" lon="6.79031">
        <ele>2201.08</ele>
        <time>2013-09-28T10:12:58Z</time>
      </trkpt>
      <trkpt lat="46.33076" lon="6.79046">
        <ele>2194.83</ele>
        <time>2013-09-28T10:13:14Z</time>
      </trkpt>
      <trkpt lat="46.33069" lon="6.79064">
        <ele>2190.02</ele>
        <time>2013-09-28T10:13:29Z</time>
      </trkpt>
      <trkpt lat="46.33062" lon="6.79069">
        <ele>2185.69</ele>
        <time>2013-09-28T10:13:45Z</time>
      </trkpt>
      <trkpt lat="46.3305" lon="6.79081">
        <ele>2181.37</ele>
        <time>2013-09-28T10:14:01Z</time>
      </trkpt>
      <trkpt lat="46.33049" lon="6.79084">
        <ele>2179.93</ele>
        <time>2013-09-28T10:14:05Z</time>
      </trkpt>
      <trkpt lat="46.33046" lon="6.79087">
        <ele>2178.97</ele>
        <time>2013-09-28T10:14:17Z</time>
      </trkpt>
      <trkpt lat="46.33044" lon="6.79088">
        <ele>2178.48</ele>
        <time>2013-09-28T10:14:35Z</time>
      </trkpt>
      <trkpt lat="46.33044" lon="6.79089">
        <ele>2178.48</ele>
        <time>2013-09-28T10:15:00Z</time>
      </trkpt>
      <trkpt lat="46.33044" lon="6.79088">
        <ele>2179.93</ele>
        <time>2013-09-28T10:15:29Z</time>
      </trkpt>
      <trkpt lat="46.33044" lon="6.79086">
        <ele>2181.37</ele>
        <time>2013-09-28T10:16:00Z</time>
      </trkpt>
      <trkpt lat="46.33043" lon="6.79086">
        <ele>2181.37</ele>
        <time>2013-09-28T10:16:26Z</time>
      </trkpt>
      <trkpt lat="46.33044" lon="6.79086">
        <ele>2181.85</ele>
        <time>2013-09-28T10:16:56Z</time>
      </trkpt>
      <trkpt lat="46.33043" lon="6.79088">
        <ele>2181.85</ele>
        <time>2013-09-28T10:17:11Z</time>
      </trkpt>
      <trkpt lat="46.33039" lon="6.79099">
        <ele>2180.89</ele>
        <time>2013-09-28T10:17:26Z</time>
      </trkpt>
      <trkpt lat="46.33037" lon="6.79123">
        <ele>2177.04</ele>
        <time>2013-09-28T10:17:38Z</time>
      </trkpt>
      <trkpt lat="46.3304" lon="6.79143">
        <ele>2174.16</ele>
        <time>2013-09-28T10:17:49Z</time>
      </trkpt>
      <trkpt lat="46.3304" lon="6.79142">
        <ele>2173.68</ele>
        <time>2013-09-28T10:18:13Z</time>
      </trkpt>
      <trkpt lat="46.33041" lon="6.79145">
        <ele>2173.2</ele>
        <time>2013-09-28T10:18:18Z</time>
      </trkpt>
      <trkpt lat="46.3304" lon="6.79169">
        <ele>2168.87</ele>
        <time>2013-09-28T10:18:26Z</time>
      </trkpt>
      <trkpt lat="46.33037" lon="6.79196">
        <ele>2164.55</ele>
        <time>2013-09-28T10:18:35Z</time>
      </trkpt>
      <trkpt lat="46.33034" lon="6.7921">
        <ele>2158.78</ele>
        <time>2013-09-28T10:18:49Z</time>
      </trkpt>
      <trkpt lat="46.33031" lon="6.79221">
        <ele>2153.97</ele>
        <time>2013-09-28T10:19:03Z</time>
      </trkpt>
      <trkpt lat="46.3303" lon="6.79221">
        <ele>2153.49</ele>
        <time>2013-09-28T10:19:04Z</time>
      </trkpt>
      <trkpt lat="46.33025" lon="6.79231">
        <ele>2151.09</ele>
        <time>2013-09-28T10:19:20Z</time>
      </trkpt>
      <trkpt lat="46.33025" lon="6.79233">
        <ele>2151.09</ele>
        <time>2013-09-28T10:19:27Z</time>
      </trkpt>
      <trkpt lat="46.33025" lon="6.79253">
        <ele>2146.76</ele>
        <time>2013-09-28T10:19:36Z</time>
      </trkpt>
      <trkpt lat="46.33019" lon="6.79273">
        <ele>2140.51</ele>
        <time>2013-09-28T10:19:51Z</time>
      </trkpt>
      <trkpt lat="46.33017" lon="6.79282">
        <ele>2136.19</ele>
        <time>2013-09-28T10:20:05Z</time>
      </trkpt>
      <trkpt lat="46.33011" lon="6.79287">
        <ele>2131.38</ele>
        <time>2013-09-28T10:20:20Z</time>
      </trkpt>
      <trkpt lat="46.33002" lon="6.79284">
        <ele>2125.13</ele>
        <time>2013-09-28T10:20:34Z</time>
      </trkpt>
      <trkpt lat="46.32996" lon="6.79291">
        <ele>2120.81</ele>
        <time>2013-09-28T10:20:49Z</time>
      </trkpt>
      <trkpt lat="46.32989" lon="6.79297">
        <ele>2116.96</ele>
        <time>2013-09-28T10:21:01Z</time>
      </trkpt>
      <trkpt lat="46.32985" lon="6.79301">
        <ele>2115.52</ele>
        <time>2013-09-28T10:21:06Z</time>
      </trkpt>
      <trkpt lat="46.32983" lon="6.79319">
        <ele>2112.63</ele>
        <time>2013-09-28T10:21:21Z</time>
      </trkpt>
      <trkpt lat="46.32982" lon="6.79328">
        <ele>2111.19</ele>
        <time>2013-09-28T10:21:28Z</time>
      </trkpt>
      <trkpt lat="46.32985" lon="6.79342">
        <ele>2108.31</ele>
        <time>2013-09-28T10:21:39Z</time>
      </trkpt>
      <trkpt lat="46.32985" lon="6.79355">
        <ele>2106.87</ele>
        <time>2013-09-28T10:21:48Z</time>
      </trkpt>
      <trkpt lat="46.32985" lon="6.79366">
        <ele>2105.42</ele>
        <time>2013-09-28T10:21:59Z</time>
      </trkpt>
      <trkpt lat="46.32977" lon="6.79379">
        <ele>2102.54</ele>
        <time>2013-09-28T10:22:14Z</time>
      </trkpt>
      <trkpt lat="46.32982" lon="6.79386">
        <ele>2097.25</ele>
        <time>2013-09-28T10:22:28Z</time>
      </trkpt>
      <trkpt lat="46.32985" lon="6.79395">
        <ele>2093.41</ele>
        <time>2013-09-28T10:22:43Z</time>
      </trkpt>
      <trkpt lat="46.3298" lon="6.79399">
        <ele>2090.52</ele>
        <time>2013-09-28T10:22:56Z</time>
      </trkpt>
      <trkpt lat="46.32979" lon="6.79414">
        <ele>2087.16</ele>
        <time>2013-09-28T10:23:11Z</time>
      </trkpt>
      <trkpt lat="46.32981" lon="6.79428">
        <ele>2085.72</ele>
        <time>2013-09-28T10:23:27Z</time>
      </trkpt>
      <trkpt lat="46.32983" lon="6.7944">
        <ele>2084.76</ele>
        <time>2013-09-28T10:23:43Z</time>
      </trkpt>
      <trkpt lat="46.32983" lon="6.79443">
        <ele>2083.79</ele>
        <time>2013-09-28T10:23:50Z</time>
      </trkpt>
      <trkpt lat="46.32984" lon="6.79452">
        <ele>2082.83</ele>
        <time>2013-09-28T10:23:57Z</time>
      </trkpt>
      <trkpt lat="46.32985" lon="6.79465">
        <ele>2080.43</ele>
        <time>2013-09-28T10:24:10Z</time>
      </trkpt>
      <trkpt lat="46.32986" lon="6.79475">
        <ele>2078.51</ele>
        <time>2013-09-28T10:24:26Z</time>
      </trkpt>
      <trkpt lat="46.32985" lon="6.79486">
        <ele>2076.1</ele>
        <time>2013-09-28T10:24:38Z</time>
      </trkpt>
      <trkpt lat="46.32982" lon="6.79492">
        <ele>2074.18</ele>
        <time>2013-09-28T10:24:44Z</time>
      </trkpt>
      <trkpt lat="46.32983" lon="6.795">
        <ele>2073.22</ele>
        <time>2013-09-28T10:24:50Z</time>
      </trkpt>
      <trkpt lat="46.32983" lon="6.79518">
        <ele>2070.82</ele>
        <time>2013-09-28T10:25:02Z</time>
      </trkpt>
      <trkpt lat="46.3298" lon="6.7952">
        <ele>2069.38</ele>
        <time>2013-09-28T10:25:16Z</time>
      </trkpt>
      <trkpt lat="46.32978" lon="6.79529">
        <ele>2067.93</ele>
        <time>2013-09-28T10:25:21Z</time>
      </trkpt>
      <trkpt lat="46.32975" lon="6.79536">
        <ele>2067.45</ele>
        <time>2013-09-28T10:25:25Z</time>
      </trkpt>
      <trkpt lat="46.3297" lon="6.79548">
        <ele>2065.05</ele>
        <time>2013-09-28T10:25:33Z</time>
      </trkpt>
      <trkpt lat="46.32952" lon="6.79567">
        <ele>2059.76</ele>
        <time>2013-09-28T10:25:50Z</time>
      </trkpt>
      <trkpt lat="46.32936" lon="6.79585">
        <ele>2054.96</ele>
        <time>2013-09-28T10:26:06Z</time>
      </trkpt>
      <trkpt lat="46.32924" lon="6.79592">
        <ele>2052.55</ele>
        <time>2013-09-28T10:26:19Z</time>
      </trkpt>
      <trkpt lat="46.32909" lon="6.79608">
        <ele>2051.11</ele>
        <time>2013-09-28T10:26:34Z</time>
      </trkpt>
      <trkpt lat="46.32902" lon="6.7961">
        <ele>2050.63</ele>
        <time>2013-09-28T10:26:40Z</time>
      </trkpt>
      <trkpt lat="46.329" lon="6.79613">
        <ele>2050.63</ele>
        <time>2013-09-28T10:26:43Z</time>
      </trkpt>
      <trkpt lat="46.32881" lon="6.79622">
        <ele>2047.75</ele>
        <time>2013-09-28T10:27:00Z</time>
      </trkpt>
      <trkpt lat="46.32859" lon="6.79635">
        <ele>2048.23</ele>
        <time>2013-09-28T10:27:18Z</time>
      </trkpt>
      <trkpt lat="46.32842" lon="6.79646">
        <ele>2051.59</ele>
        <time>2013-09-28T10:27:34Z</time>
      </trkpt>
      <trkpt lat="46.32828" lon="6.79659">
        <ele>2053.99</ele>
        <time>2013-09-28T10:27:48Z</time>
      </trkpt>
      <trkpt lat="46.32818" lon="6.79671">
        <ele>2056.88</ele>
        <time>2013-09-28T10:27:58Z</time>
      </trkpt>
      <trkpt lat="46.32809" lon="6.79697">
        <ele>2064.09</ele>
        <time>2013-09-28T10:28:15Z</time>
      </trkpt>
      <trkpt lat="46.32808" lon="6.79712">
        <ele>2065.05</ele>
        <time>2013-09-28T10:28:23Z</time>
      </trkpt>
      <trkpt lat="46.32802" lon="6.79719">
        <ele>2064.57</ele>
        <time>2013-09-28T10:28:31Z</time>
      </trkpt>
      <trkpt lat="46.32801" lon="6.79735">
        <ele>2065.05</ele>
        <time>2013-09-28T10:28:43Z</time>
      </trkpt>
      <trkpt lat="46.32799" lon="6.79738">
        <ele>2065.05</ele>
        <time>2013-09-28T10:28:56Z</time>
      </trkpt>
      <trkpt lat="46.32795" lon="6.79752">
        <ele>2064.09</ele>
        <time>2013-09-28T10:29:03Z</time>
      </trkpt>
      <trkpt lat="46.32793" lon="6.79764">
        <ele>2062.65</ele>
        <time>2013-09-28T10:29:12Z</time>
      </trkpt>
      <trkpt lat="46.32788" lon="6.79769">
        <ele>2061.68</ele>
        <time>2013-09-28T10:29:17Z</time>
      </trkpt>
      <trkpt lat="46.32774" lon="6.79781">
        <ele>2056.88</ele>
        <time>2013-09-28T10:29:32Z</time>
      </trkpt>
      <trkpt lat="46.32771" lon="6.79774">
        <ele>2054.47</ele>
        <time>2013-09-28T10:29:37Z</time>
      </trkpt>
      <trkpt lat="46.32769" lon="6.7977">
        <ele>2053.03</ele>
        <time>2013-09-28T10:29:40Z</time>
      </trkpt>
      <trkpt lat="46.32768" lon="6.79762">
        <ele>2051.11</ele>
        <time>2013-09-28T10:29:45Z</time>
      </trkpt>
      <trkpt lat="46.32759" lon="6.7974">
        <ele>2046.3</ele>
        <time>2013-09-28T10:30:00Z</time>
      </trkpt>
      <trkpt lat="46.32748" lon="6.79724">
        <ele>2041.02</ele>
        <time>2013-09-28T10:30:14Z</time>
      </trkpt>
      <trkpt lat="46.32742" lon="6.79706">
        <ele>2036.69</ele>
        <time>2013-09-28T10:30:27Z</time>
      </trkpt>
      <trkpt lat="46.32732" lon="6.79701">
        <ele>2031.88</ele>
        <time>2013-09-28T10:30:39Z</time>
      </trkpt>
      <trkpt lat="46.32726" lon="6.79706">
        <ele>2028.04</ele>
        <time>2013-09-28T10:30:48Z</time>
      </trkpt>
      <trkpt lat="46.32718" lon="6.79715">
        <ele>2024.19</ele>
        <time>2013-09-28T10:31:00Z</time>
      </trkpt>
      <trkpt lat="46.32715" lon="6.79709">
        <ele>2021.79</ele>
        <time>2013-09-28T10:31:17Z</time>
      </trkpt>
      <trkpt lat="46.32713" lon="6.7971">
        <ele>2020.83</ele>
        <time>2013-09-28T10:31:41Z</time>
      </trkpt>
      <trkpt lat="46.32706" lon="6.79695">
        <ele>2016.98</ele>
        <time>2013-09-28T10:31:56Z</time>
      </trkpt>
      <trkpt lat="46.32699" lon="6.7968">
        <ele>2010.25</ele>
        <time>2013-09-28T10:32:13Z</time>
      </trkpt>
      <trkpt lat="46.3269" lon="6.79675">
        <ele>2006.89</ele>
        <time>2013-09-28T10:32:27Z</time>
      </trkpt>
      <trkpt lat="46.32685" lon="6.79686">
        <ele>2003.04</ele>
        <time>2013-09-28T10:32:38Z</time>
      </trkpt>
      <trkpt lat="46.32678" lon="6.79704">
        <ele>1998.24</ele>
        <time>2013-09-28T10:32:54Z</time>
      </trkpt>
      <trkpt lat="46.32672" lon="6.79726">
        <ele>1994.87</ele>
        <time>2013-09-28T10:33:12Z</time>
      </trkpt>
      <trkpt lat="46.32672" lon="6.79729">
        <ele>1994.39</ele>
        <time>2013-09-28T10:33:14Z</time>
      </trkpt>
      <trkpt lat="46.32668" lon="6.79748">
        <ele>1991.03</ele>
        <time>2013-09-28T10:33:28Z</time>
      </trkpt>
      <trkpt lat="46.32662" lon="6.79764">
        <ele>1987.66</ele>
        <time>2013-09-28T10:33:43Z</time>
      </trkpt>
      <trkpt lat="46.32657" lon="6.79775">
        <ele>1982.86</ele>
        <time>2013-09-28T10:33:58Z</time>
      </trkpt>
      <trkpt lat="46.32654" lon="6.79772">
        <ele>1980.45</ele>
        <time>2013-09-28T10:34:05Z</time>
      </trkpt>
      <trkpt lat="46.32648" lon="6.79761">
        <ele>1976.61</ele>
        <time>2013-09-28T10:34:15Z</time>
      </trkpt>
      <trkpt lat="46.32636" lon="6.79737">
        <ele>1969.4</ele>
        <time>2013-09-28T10:34:33Z</time>
      </trkpt>
      <trkpt lat="46.32628" lon="6.79719">
        <ele>1962.19</ele>
        <time>2013-09-28T10:34:49Z</time>
      </trkpt>
      <trkpt lat="46.32621" lon="6.79704">
        <ele>1957.38</ele>
        <time>2013-09-28T10:35:03Z</time>
      </trkpt>
      <trkpt lat="46.32618" lon="6.79706">
        <ele>1956.42</ele>
        <time>2013-09-28T10:35:06Z</time>
      </trkpt>
      <trkpt lat="46.32614" lon="6.79716">
        <ele>1950.65</ele>
        <time>2013-09-28T10:35:23Z</time>
      </trkpt>
      <trkpt lat="46.32607" lon="6.79703">
        <ele>1945.36</ele>
        <time>2013-09-28T10:35:39Z</time>
      </trkpt>
      <trkpt lat="46.32605" lon="6.79699">
        <ele>1944.4</ele>
        <time>2013-09-28T10:35:43Z</time>
      </trkpt>
      <trkpt lat="46.32597" lon="6.79687">
        <ele>1940.56</ele>
        <time>2013-09-28T10:35:59Z</time>
      </trkpt>
      <trkpt lat="46.32596" lon="6.79688">
        <ele>1940.56</ele>
        <time>2013-09-28T10:36:00Z</time>
      </trkpt>
      <trkpt lat="46.32595" lon="6.79691">
        <ele>1940.08</ele>
        <time>2013-09-28T10:36:03Z</time>
      </trkpt>
      <trkpt lat="46.32595" lon="6.79694">
        <ele>1939.12</ele>
        <time>2013-09-28T10:36:06Z</time>
      </trkpt>
      <trkpt lat="46.32589" lon="6.79711">
        <ele>1933.83</ele>
        <time>2013-09-28T10:36:21Z</time>
      </trkpt>
      <trkpt lat="46.32583" lon="6.79735">
        <ele>1927.1</ele>
        <time>2013-09-28T10:36:40Z</time>
      </trkpt>
      <trkpt lat="46.32581" lon="6.79744">
        <ele>1925.66</ele>
        <time>2013-09-28T10:36:47Z</time>
      </trkpt>
      <trkpt lat="46.32573" lon="6.79761">
        <ele>1921.33</ele>
        <time>2013-09-28T10:37:02Z</time>
      </trkpt>
      <trkpt lat="46.32571" lon="6.79766">
        <ele>1919.89</ele>
        <time>2013-09-28T10:37:07Z</time>
      </trkpt>
      <trkpt lat="46.32569" lon="6.79771">
        <ele>1918.45</ele>
        <time>2013-09-28T10:37:11Z</time>
      </trkpt>
      <trkpt lat="46.32561" lon="6.7979">
        <ele>1914.6</ele>
        <time>2013-09-28T10:37:27Z</time>
      </trkpt>
      <trkpt lat="46.32554" lon="6.79788">
        <ele>1910.76</ele>
        <time>2013-09-28T10:37:41Z</time>
      </trkpt>
      <trkpt lat="46.3255" lon="6.79779">
        <ele>1905.95</ele>
        <time>2013-09-28T10:37:56Z</time>
      </trkpt>
      <trkpt lat="46.32543" lon="6.79774">
        <ele>1902.59</ele>
        <time>2013-09-28T10:38:06Z</time>
      </trkpt>
      <trkpt lat="46.32533" lon="6.79754">
        <ele>1895.86</ele>
        <time>2013-09-28T10:38:26Z</time>
      </trkpt>
      <trkpt lat="46.32528" lon="6.7974">
        <ele>1891.05</ele>
        <time>2013-09-28T10:38:42Z</time>
      </trkpt>
      <trkpt lat="46.32524" lon="6.79748">
        <ele>1888.17</ele>
        <time>2013-09-28T10:38:51Z</time>
      </trkpt>
      <trkpt lat="46.3252" lon="6.7976">
        <ele>1886.24</ele>
        <time>2013-09-28T10:39:01Z</time>
      </trkpt>
      <trkpt lat="46.32516" lon="6.79762">
        <ele>1885.28</ele>
        <time>2013-09-28T10:39:07Z</time>
      </trkpt>
      <trkpt lat="46.32513" lon="6.79749">
        <ele>1880.96</ele>
        <time>2013-09-28T10:39:23Z</time>
      </trkpt>
      <trkpt lat="46.3251" lon="6.79746">
        <ele>1880</ele>
        <time>2013-09-28T10:39:26Z</time>
      </trkpt>
      <trkpt lat="46.32501" lon="6.79759">
        <ele>1875.19</ele>
        <time>2013-09-28T10:39:40Z</time>
      </trkpt>
      <trkpt lat="46.32498" lon="6.7976">
        <ele>1872.79</ele>
        <time>2013-09-28T10:39:46Z</time>
      </trkpt>
      <trkpt lat="46.32489" lon="6.79762">
        <ele>1867.98</ele>
        <time>2013-09-28T10:39:58Z</time>
      </trkpt>
      <trkpt lat="46.32486" lon="6.79762">
        <ele>1865.09</ele>
        <time>2013-09-28T10:40:05Z</time>
      </trkpt>
      <trkpt lat="46.3248" lon="6.79765">
        <ele>1862.21</ele>
        <time>2013-09-28T10:40:12Z</time>
      </trkpt>
      <trkpt lat="46.32473" lon="6.79783">
        <ele>1857.4</ele>
        <time>2013-09-28T10:40:27Z</time>
      </trkpt>
      <trkpt lat="46.32471" lon="6.79787">
        <ele>1855</ele>
        <time>2013-09-28T10:40:31Z</time>
      </trkpt>
      <trkpt lat="46.32462" lon="6.798">
        <ele>1849.71</ele>
        <time>2013-09-28T10:40:45Z</time>
      </trkpt>
      <trkpt lat="46.32452" lon="6.79812">
        <ele>1845.87</ele>
        <time>2013-09-28T10:41:00Z</time>
      </trkpt>
      <trkpt lat="46.32451" lon="6.79814">
        <ele>1843.95</ele>
        <time>2013-09-28T10:41:13Z</time>
      </trkpt>
      <trkpt lat="46.32437" lon="6.79828">
        <ele>1840.1</ele>
        <time>2013-09-28T10:41:29Z</time>
      </trkpt>
      <trkpt lat="46.32429" lon="6.79841">
        <ele>1836.74</ele>
        <time>2013-09-28T10:41:43Z</time>
      </trkpt>
      <trkpt lat="46.32429" lon="6.7984">
        <ele>1836.74</ele>
        <time>2013-09-28T10:42:19Z</time>
      </trkpt>
      <trkpt lat="46.32429" lon="6.7984">
        <ele>1836.74</ele>
        <time>2013-09-28T10:42:21Z</time>
      </trkpt>
      <trkpt lat="46.32426" lon="6.7984">
        <ele>1836.26</ele>
        <time>2013-09-28T10:42:37Z</time>
      </trkpt>
      <trkpt lat="46.32418" lon="6.79846">
        <ele>1834.81</ele>
        <time>2013-09-28T10:43:00Z</time>
      </trkpt>
      <trkpt lat="46.32415" lon="6.79854">
        <ele>1832.41</ele>
        <time>2013-09-28T10:43:12Z</time>
      </trkpt>
      <trkpt lat="46.32396" lon="6.79845">
        <ele>1828.08</ele>
        <time>2013-09-28T10:43:25Z</time>
      </trkpt>
      <trkpt lat="46.32387" lon="6.79847">
        <ele>1825.68</ele>
        <time>2013-09-28T10:43:33Z</time>
      </trkpt>
      <trkpt lat="46.32383" lon="6.7985">
        <ele>1822.32</ele>
        <time>2013-09-28T10:43:47Z</time>
      </trkpt>
      <trkpt lat="46.32381" lon="6.79849">
        <ele>1822.32</ele>
        <time>2013-09-28T10:43:50Z</time>
      </trkpt>
      <trkpt lat="46.32368" lon="6.79836">
        <ele>1822.32</ele>
        <time>2013-09-28T10:44:04Z</time>
      </trkpt>
      <trkpt lat="46.32368" lon="6.79834">
        <ele>1822.32</ele>
        <time>2013-09-28T10:44:06Z</time>
      </trkpt>
      <trkpt lat="46.32352" lon="6.7982">
        <ele>1820.87</ele>
        <time>2013-09-28T10:44:25Z</time>
      </trkpt>
      <trkpt lat="46.32363" lon="6.79804">
        <ele>1817.51</ele>
        <time>2013-09-28T10:44:42Z</time>
      </trkpt>
      <trkpt lat="46.32368" lon="6.79787">
        <ele>1813.18</ele>
        <time>2013-09-28T10:44:58Z</time>
      </trkpt>
      <trkpt lat="46.32368" lon="6.7977">
        <ele>1809.82</ele>
        <time>2013-09-28T10:45:10Z</time>
      </trkpt>
      <trkpt lat="46.32373" lon="6.79741">
        <ele>1803.09</ele>
        <time>2013-09-28T10:45:31Z</time>
      </trkpt>
      <trkpt lat="46.32369" lon="6.79718">
        <ele>1794.44</ele>
        <time>2013-09-28T10:45:48Z</time>
      </trkpt>
      <trkpt lat="46.32362" lon="6.79693">
        <ele>1788.19</ele>
        <time>2013-09-28T10:46:05Z</time>
      </trkpt>
      <trkpt lat="46.32361" lon="6.79704">
        <ele>1785.79</ele>
        <time>2013-09-28T10:46:10Z</time>
      </trkpt>
      <trkpt lat="46.32356" lon="6.79715">
        <ele>1784.34</ele>
        <time>2013-09-28T10:46:20Z</time>
      </trkpt>
      <trkpt lat="46.32344" lon="6.7972">
        <ele>1780.5</ele>
        <time>2013-09-28T10:46:35Z</time>
      </trkpt>
      <trkpt lat="46.32341" lon="6.79701">
        <ele>1773.77</ele>
        <time>2013-09-28T10:46:50Z</time>
      </trkpt>
      <trkpt lat="46.32338" lon="6.79692">
        <ele>1770.89</ele>
        <time>2013-09-28T10:47:08Z</time>
      </trkpt>
      <trkpt lat="46.32338" lon="6.7969">
        <ele>1770.41</ele>
        <time>2013-09-28T10:47:09Z</time>
      </trkpt>
      <trkpt lat="46.32334" lon="6.79692">
        <ele>1766.56</ele>
        <time>2013-09-28T10:47:20Z</time>
      </trkpt>
      <trkpt lat="46.32322" lon="6.79688">
        <ele>1756.95</ele>
        <time>2013-09-28T10:47:37Z</time>
      </trkpt>
      <trkpt lat="46.32321" lon="6.79672">
        <ele>1748.78</ele>
        <time>2013-09-28T10:47:52Z</time>
      </trkpt>
      <trkpt lat="46.32317" lon="6.79666">
        <ele>1744.45</ele>
        <time>2013-09-28T10:48:01Z</time>
      </trkpt>
      <trkpt lat="46.32317" lon="6.79658">
        <ele>1741.57</ele>
        <time>2013-09-28T10:48:09Z</time>
      </trkpt>
      <trkpt lat="46.32311" lon="6.79653">
        <ele>1739.16</ele>
        <time>2013-09-28T10:48:16Z</time>
      </trkpt>
      <trkpt lat="46.32309" lon="6.79634">
        <ele>1735.8</ele>
        <time>2013-09-28T10:48:31Z</time>
      </trkpt>
      <trkpt lat="46.32306" lon="6.7963">
        <ele>1735.32</ele>
        <time>2013-09-28T10:48:34Z</time>
      </trkpt>
      <trkpt lat="46.32303" lon="6.79624">
        <ele>1734.36</ele>
        <time>2013-09-28T10:48:39Z</time>
      </trkpt>
      <trkpt lat="46.32302" lon="6.79621">
        <ele>1733.88</ele>
        <time>2013-09-28T10:48:42Z</time>
      </trkpt>
      <trkpt lat="46.323" lon="6.79617">
        <ele>1733.88</ele>
        <time>2013-09-28T10:48:45Z</time>
      </trkpt>
      <trkpt lat="46.32298" lon="6.79606">
        <ele>1730.99</ele>
        <time>2013-09-28T10:48:53Z</time>
      </trkpt>
      <trkpt lat="46.32291" lon="6.7959">
        <ele>1727.63</ele>
        <time>2013-09-28T10:49:07Z</time>
      </trkpt>
      <trkpt lat="46.32285" lon="6.7958">
        <ele>1724.26</ele>
        <time>2013-09-28T10:49:23Z</time>
      </trkpt>
      <trkpt lat="46.32281" lon="6.79572">
        <ele>1720.9</ele>
        <time>2013-09-28T10:49:31Z</time>
      </trkpt>
      <trkpt lat="46.32277" lon="6.79556">
        <ele>1717.53</ele>
        <time>2013-09-28T10:49:43Z</time>
      </trkpt>
      <trkpt lat="46.32278" lon="6.79543">
        <ele>1716.57</ele>
        <time>2013-09-28T10:49:50Z</time>
      </trkpt>
      <trkpt lat="46.32287" lon="6.79508">
        <ele>1711.76</ele>
        <time>2013-09-28T10:50:09Z</time>
      </trkpt>
      <trkpt lat="46.32295" lon="6.79473">
        <ele>1709.36</ele>
        <time>2013-09-28T10:50:26Z</time>
      </trkpt>
      <trkpt lat="46.32305" lon="6.79434">
        <ele>1704.55</ele>
        <time>2013-09-28T10:50:45Z</time>
      </trkpt>
      <trkpt lat="46.32319" lon="6.79402">
        <ele>1703.11</ele>
        <time>2013-09-28T10:51:02Z</time>
      </trkpt>
      <trkpt lat="46.32331" lon="6.79368">
        <ele>1699.75</ele>
        <time>2013-09-28T10:51:20Z</time>
      </trkpt>
      <trkpt lat="46.32337" lon="6.79335">
        <ele>1693.02</ele>
        <time>2013-09-28T10:51:37Z</time>
      </trkpt>
      <trkpt lat="46.32337" lon="6.79334">
        <ele>1692.54</ele>
        <time>2013-09-28T10:51:38Z</time>
      </trkpt>
      <trkpt lat="46.32335" lon="6.7932">
        <ele>1690.62</ele>
        <time>2013-09-28T10:51:46Z</time>
      </trkpt>
      <trkpt lat="46.32329" lon="6.79313">
        <ele>1688.69</ele>
        <time>2013-09-28T10:51:53Z</time>
      </trkpt>
      <trkpt lat="46.32314" lon="6.79323">
        <ele>1682.93</ele>
        <time>2013-09-28T10:52:08Z</time>
      </trkpt>
      <trkpt lat="46.32309" lon="6.79348">
        <ele>1678.12</ele>
        <time>2013-09-28T10:52:19Z</time>
      </trkpt>
      <trkpt lat="46.32295" lon="6.79375">
        <ele>1674.75</ele>
        <time>2013-09-28T10:52:34Z</time>
      </trkpt>
      <trkpt lat="46.32274" lon="6.79397">
        <ele>1674.27</ele>
        <time>2013-09-28T10:52:49Z</time>
      </trkpt>
      <trkpt lat="46.32259" lon="6.79423">
        <ele>1674.27</ele>
        <time>2013-09-28T10:53:04Z</time>
      </trkpt>
      <trkpt lat="46.32251" lon="6.79444">
        <ele>1674.75</ele>
        <time>2013-09-28T10:53:17Z</time>
      </trkpt>
      <trkpt lat="46.32236" lon="6.79465">
        <ele>1669.95</ele>
        <time>2013-09-28T10:53:32Z</time>
      </trkpt>
      <trkpt lat="46.32222" lon="6.79483">
        <ele>1664.18</ele>
        <time>2013-09-28T10:53:46Z</time>
      </trkpt>
      <trkpt lat="46.32201" lon="6.79503">
        <ele>1658.41</ele>
        <time>2013-09-28T10:54:01Z</time>
      </trkpt>
      <trkpt lat="46.32196" lon="6.79503">
        <ele>1656.01</ele>
        <time>2013-09-28T10:54:05Z</time>
      </trkpt>
      <trkpt lat="46.32175" lon="6.79496">
        <ele>1655.05</ele>
        <time>2013-09-28T10:54:21Z</time>
      </trkpt>
      <trkpt lat="46.32162" lon="6.79496">
        <ele>1655.05</ele>
        <time>2013-09-28T10:54:31Z</time>
      </trkpt>
      <trkpt lat="46.32152" lon="6.795">
        <ele>1655.05</ele>
        <time>2013-09-28T10:54:37Z</time>
      </trkpt>
      <trkpt lat="46.32149" lon="6.79496">
        <ele>1655.05</ele>
        <time>2013-09-28T10:54:40Z</time>
      </trkpt>
      <trkpt lat="46.32152" lon="6.79465">
        <ele>1655.53</ele>
        <time>2013-09-28T10:54:57Z</time>
      </trkpt>
      <trkpt lat="46.32159" lon="6.79446">
        <ele>1644.95</ele>
        <time>2013-09-28T10:55:13Z</time>
      </trkpt>
      <trkpt lat="46.32167" lon="6.79422">
        <ele>1631.49</ele>
        <time>2013-09-28T10:55:29Z</time>
      </trkpt>
      <trkpt lat="46.32169" lon="6.79415">
        <ele>1629.57</ele>
        <time>2013-09-28T10:55:33Z</time>
      </trkpt>
      <trkpt lat="46.32179" lon="6.79392">
        <ele>1623.32</ele>
        <time>2013-09-28T10:55:48Z</time>
      </trkpt>
      <trkpt lat="46.32168" lon="6.79372">
        <ele>1619</ele>
        <time>2013-09-28T10:56:01Z</time>
      </trkpt>
      <trkpt lat="46.32151" lon="6.79351">
        <ele>1613.71</ele>
        <time>2013-09-28T10:56:15Z</time>
      </trkpt>
      <trkpt lat="46.3213" lon="6.79324">
        <ele>1607.46</ele>
        <time>2013-09-28T10:56:33Z</time>
      </trkpt>
      <trkpt lat="46.32107" lon="6.79315">
        <ele>1601.69</ele>
        <time>2013-09-28T10:56:49Z</time>
      </trkpt>
      <trkpt lat="46.32084" lon="6.79312">
        <ele>1597.37</ele>
        <time>2013-09-28T10:57:04Z</time>
      </trkpt>
      <trkpt lat="46.32066" lon="6.79309">
        <ele>1593.52</ele>
        <time>2013-09-28T10:57:17Z</time>
      </trkpt>
      <trkpt lat="46.32049" lon="6.79294">
        <ele>1587.27</ele>
        <time>2013-09-28T10:57:31Z</time>
      </trkpt>
      <trkpt lat="46.32036" lon="6.79272">
        <ele>1583.91</ele>
        <time>2013-09-28T10:57:46Z</time>
      </trkpt>
      <trkpt lat="46.32022" lon="6.79243">
        <ele>1582.95</ele>
        <time>2013-09-28T10:58:04Z</time>
      </trkpt>
      <trkpt lat="46.32013" lon="6.79233">
        <ele>1581.51</ele>
        <time>2013-09-28T10:58:19Z</time>
      </trkpt>
      <trkpt lat="46.32013" lon="6.79234">
        <ele>1581.51</ele>
        <time>2013-09-28T10:58:31Z</time>
      </trkpt>
      <trkpt lat="46.32005" lon="6.79213">
        <ele>1579.1</ele>
        <time>2013-09-28T10:58:45Z</time>
      </trkpt>
      <trkpt lat="46.3199" lon="6.79188">
        <ele>1573.33</ele>
        <time>2013-09-28T10:59:06Z</time>
      </trkpt>
      <trkpt lat="46.31985" lon="6.79175">
        <ele>1569.49</ele>
        <time>2013-09-28T10:59:17Z</time>
      </trkpt>
      <trkpt lat="46.31972" lon="6.79157">
        <ele>1564.2</ele>
        <time>2013-09-28T10:59:33Z</time>
      </trkpt>
      <trkpt lat="46.3196" lon="6.79133">
        <ele>1561.32</ele>
        <time>2013-09-28T10:59:50Z</time>
      </trkpt>
      <trkpt lat="46.3195" lon="6.79103">
        <ele>1558.43</ele>
        <time>2013-09-28T11:00:09Z</time>
      </trkpt>
      <trkpt lat="46.31938" lon="6.79071">
        <ele>1552.67</ele>
        <time>2013-09-28T11:00:28Z</time>
      </trkpt>
      <trkpt lat="46.31931" lon="6.79048">
        <ele>1547.86</ele>
        <time>2013-09-28T11:00:44Z</time>
      </trkpt>
      <trkpt lat="46.31932" lon="6.79049">
        <ele>1544.01</ele>
        <time>2013-09-28T11:01:01Z</time>
      </trkpt>
      <trkpt lat="46.31933" lon="6.7905">
        <ele>1540.65</ele>
        <time>2013-09-28T11:01:14Z</time>
      </trkpt>
      <trkpt lat="46.31932" lon="6.7905">
        <ele>1540.17</ele>
        <time>2013-09-28T11:01:27Z</time>
      </trkpt>
      <trkpt lat="46.31927" lon="6.79049">
        <ele>1538.73</ele>
        <time>2013-09-28T11:01:43Z</time>
      </trkpt>
      <trkpt lat="46.31925" lon="6.79061">
        <ele>1532.96</ele>
        <time>2013-09-28T11:01:59Z</time>
      </trkpt>
      <trkpt lat="46.31924" lon="6.79064">
        <ele>1532</ele>
        <time>2013-09-28T11:02:01Z</time>
      </trkpt>
      <trkpt lat="46.31921" lon="6.79061">
        <ele>1530.08</ele>
        <time>2013-09-28T11:02:17Z</time>
      </trkpt>
      <trkpt lat="46.3192" lon="6.79058">
        <ele>1529.59</ele>
        <time>2013-09-28T11:02:19Z</time>
      </trkpt>
      <trkpt lat="46.31919" lon="6.79046">
        <ele>1526.23</ele>
        <time>2013-09-28T11:02:35Z</time>
      </trkpt>
      <trkpt lat="46.31918" lon="6.79045">
        <ele>1526.23</ele>
        <time>2013-09-28T11:02:44Z</time>
      </trkpt>
      <trkpt lat="46.31917" lon="6.79043">
        <ele>1524.79</ele>
        <time>2013-09-28T11:02:46Z</time>
      </trkpt>
      <trkpt lat="46.31901" lon="6.79016">
        <ele>1520.46</ele>
        <time>2013-09-28T11:03:00Z</time>
      </trkpt>
      <trkpt lat="46.31896" lon="6.79009">
        <ele>1517.58</ele>
        <time>2013-09-28T11:03:14Z</time>
      </trkpt>
      <trkpt lat="46.31889" lon="6.78994">
        <ele>1515.18</ele>
        <time>2013-09-28T11:03:25Z</time>
      </trkpt>
      <trkpt lat="46.31884" lon="6.78982">
        <ele>1511.33</ele>
        <time>2013-09-28T11:03:33Z</time>
      </trkpt>
      <trkpt lat="46.31877" lon="6.78965">
        <ele>1506.04</ele>
        <time>2013-09-28T11:03:47Z</time>
      </trkpt>
      <trkpt lat="46.31869" lon="6.78948">
        <ele>1498.83</ele>
        <time>2013-09-28T11:04:02Z</time>
      </trkpt>
      <trkpt lat="46.31862" lon="6.7893">
        <ele>1493.55</ele>
        <time>2013-09-28T11:04:17Z</time>
      </trkpt>
      <trkpt lat="46.31856" lon="6.78919">
        <ele>1488.74</ele>
        <time>2013-09-28T11:04:28Z</time>
      </trkpt>
      <trkpt lat="46.31851" lon="6.78902">
        <ele>1483.45</ele>
        <time>2013-09-28T11:04:42Z</time>
      </trkpt>
      <trkpt lat="46.31841" lon="6.7889">
        <ele>1478.65</ele>
        <time>2013-09-28T11:04:55Z</time>
      </trkpt>
      <trkpt lat="46.31834" lon="6.78878">
        <ele>1475.28</ele>
        <time>2013-09-28T11:05:08Z</time>
      </trkpt>
      <trkpt lat="46.3183" lon="6.78871">
        <ele>1473.36</ele>
        <time>2013-09-28T11:05:14Z</time>
      </trkpt>
      <trkpt lat="46.3182" lon="6.78859">
        <ele>1469.99</ele>
        <time>2013-09-28T11:05:28Z</time>
      </trkpt>
      <trkpt lat="46.31809" lon="6.78849">
        <ele>1467.59</ele>
        <time>2013-09-28T11:05:39Z</time>
      </trkpt>
      <trkpt lat="46.31799" lon="6.78837">
        <ele>1461.82</ele>
        <time>2013-09-28T11:05:54Z</time>
      </trkpt>
      <trkpt lat="46.31803" lon="6.7883">
        <ele>1459.9</ele>
        <time>2013-09-28T11:06:03Z</time>
      </trkpt>
      <trkpt lat="46.318" lon="6.78827">
        <ele>1459.9</ele>
        <time>2013-09-28T11:06:17Z</time>
      </trkpt>
      <trkpt lat="46.31792" lon="6.78828">
        <ele>1459.9</ele>
        <time>2013-09-28T11:06:30Z</time>
      </trkpt>
      <trkpt lat="46.31788" lon="6.7883">
        <ele>1459.9</ele>
        <time>2013-09-28T11:06:36Z</time>
      </trkpt>
      <trkpt lat="46.31778" lon="6.7883">
        <ele>1460.38</ele>
        <time>2013-09-28T11:06:51Z</time>
      </trkpt>
      <trkpt lat="46.31775" lon="6.78842">
        <ele>1459.42</ele>
        <time>2013-09-28T11:06:55Z</time>
      </trkpt>
      <trkpt lat="46.31779" lon="6.78862">
        <ele>1457.02</ele>
        <time>2013-09-28T11:07:10Z</time>
      </trkpt>
      <trkpt lat="46.31781" lon="6.7888">
        <ele>1455.09</ele>
        <time>2013-09-28T11:07:27Z</time>
      </trkpt>
      <trkpt lat="46.3178" lon="6.78886">
        <ele>1455.09</ele>
        <time>2013-09-28T11:07:29Z</time>
      </trkpt>
      <trkpt lat="46.31779" lon="6.78894">
        <ele>1455.57</ele>
        <time>2013-09-28T11:07:46Z</time>
      </trkpt>
      <trkpt lat="46.31779" lon="6.78898">
        <ele>1455.57</ele>
        <time>2013-09-28T11:08:04Z</time>
      </trkpt>
      <trkpt lat="46.3178" lon="6.78905">
        <ele>1455.57</ele>
        <time>2013-09-28T11:08:21Z</time>
      </trkpt>
      <trkpt lat="46.3178" lon="6.78904">
        <ele>1455.57</ele>
        <time>2013-09-28T11:08:46Z</time>
      </trkpt>
      <trkpt lat="46.31782" lon="6.78899">
        <ele>1455.57</ele>
        <time>2013-09-28T11:09:05Z</time>
      </trkpt>
      <trkpt lat="46.3178" lon="6.78898">
        <ele>1455.57</ele>
        <time>2013-09-28T11:09:21Z</time>
      </trkpt>
      <trkpt lat="46.31783" lon="6.78896">
        <ele>1455.57</ele>
        <time>2013-09-28T11:09:34Z</time>
      </trkpt>
      <trkpt lat="46.31784" lon="6.78883">
        <ele>1456.05</ele>
        <time>2013-09-28T11:09:49Z</time>
      </trkpt>
      <trkpt lat="46.31784" lon="6.78882">
        <ele>1456.05</ele>
        <time>2013-09-28T11:09:50Z</time>
      </trkpt>
      <trkpt lat="46.31777" lon="6.7888">
        <ele>1455.57</ele>
        <time>2013-09-28T11:09:54Z</time>
      </trkpt>
      <trkpt lat="46.31753" lon="6.78856">
        <ele>1455.57</ele>
        <time>2013-09-28T11:10:07Z</time>
      </trkpt>
      <trkpt lat="46.31727" lon="6.78837">
        <ele>1455.57</ele>
        <time>2013-09-28T11:10:19Z</time>
      </trkpt>
      <trkpt lat="46.31706" lon="6.78828">
        <ele>1455.57</ele>
        <time>2013-09-28T11:10:29Z</time>
      </trkpt>
      <trkpt lat="46.31697" lon="6.78814">
        <ele>1455.57</ele>
        <time>2013-09-28T11:10:36Z</time>
      </trkpt>
      <trkpt lat="46.31686" lon="6.78801">
        <ele>1455.09</ele>
        <time>2013-09-28T11:10:42Z</time>
      </trkpt>
      <trkpt lat="46.31671" lon="6.78785">
        <ele>1455.09</ele>
        <time>2013-09-28T11:10:51Z</time>
      </trkpt>
      <trkpt lat="46.31652" lon="6.78761">
        <ele>1455.09</ele>
        <time>2013-09-28T11:11:04Z</time>
      </trkpt>
      <trkpt lat="46.31637" lon="6.78735">
        <ele>1455.09</ele>
        <time>2013-09-28T11:11:16Z</time>
      </trkpt>
      <trkpt lat="46.31625" lon="6.78704">
        <ele>1454.61</ele>
        <time>2013-09-28T11:11:27Z</time>
      </trkpt>
      <trkpt lat="46.31622" lon="6.78701">
        <ele>1454.61</ele>
        <time>2013-09-28T11:11:37Z</time>
      </trkpt>
      <trkpt lat="46.31622" lon="6.78702">
        <ele>1453.65</ele>
        <time>2013-09-28T11:12:02Z</time>
      </trkpt>
      <trkpt lat="46.31622" lon="6.78701">
        <ele>1453.17</ele>
        <time>2013-09-28T11:12:26Z</time>
      </trkpt>
      <trkpt lat="46.31628" lon="6.7871">
        <ele>1451.25</ele>
        <time>2013-09-28T11:12:41Z</time>
      </trkpt>
      <trkpt lat="46.3163" lon="6.78718">
        <ele>1439.71</ele>
        <time>2013-09-28T11:13:05Z</time>
      </trkpt>
      <trkpt lat="46.31641" lon="6.78716">
        <ele>1430.58</ele>
        <time>2013-09-28T11:13:24Z</time>
      </trkpt>
      <trkpt lat="46.31641" lon="6.78706">
        <ele>1429.14</ele>
        <time>2013-09-28T11:13:45Z</time>
      </trkpt>
      <trkpt lat="46.3164" lon="6.78704">
        <ele>1429.14</ele>
        <time>2013-09-28T11:13:47Z</time>
      </trkpt>
      <trkpt lat="46.31623" lon="6.78692">
        <ele>1429.14</ele>
        <time>2013-09-28T11:14:00Z</time>
      </trkpt>
      <trkpt lat="46.31614" lon="6.7869">
        <ele>1429.14</ele>
        <time>2013-09-28T11:14:08Z</time>
      </trkpt>
      <trkpt lat="46.31609" lon="6.78687">
        <ele>1429.14</ele>
        <time>2013-09-28T11:14:12Z</time>
      </trkpt>
      <trkpt lat="46.31588" lon="6.78674">
        <ele>1428.66</ele>
        <time>2013-09-28T11:14:28Z</time>
      </trkpt>
      <trkpt lat="46.31579" lon="6.78663">
        <ele>1428.66</ele>
        <time>2013-09-28T11:14:38Z</time>
      </trkpt>
      <trkpt lat="46.31562" lon="6.7866">
        <ele>1428.66</ele>
        <time>2013-09-28T11:14:54Z</time>
      </trkpt>
      <trkpt lat="46.31544" lon="6.78646">
        <ele>1428.66</ele>
        <time>2013-09-28T11:15:12Z</time>
      </trkpt>
      <trkpt lat="46.3152" lon="6.78624">
        <ele>1428.66</ele>
        <time>2013-09-28T11:15:30Z</time>
      </trkpt>
      <trkpt lat="46.31498" lon="6.78602">
        <ele>1428.18</ele>
        <time>2013-09-28T11:15:46Z</time>
      </trkpt>
      <trkpt lat="46.31473" lon="6.78593">
        <ele>1414.24</ele>
        <time>2013-09-28T11:16:07Z</time>
      </trkpt>
      <trkpt lat="46.31467" lon="6.78595">
        <ele>1408.95</ele>
        <time>2013-09-28T11:16:13Z</time>
      </trkpt>
      <trkpt lat="46.31462" lon="6.78593">
        <ele>1406.07</ele>
        <time>2013-09-28T11:16:17Z</time>
      </trkpt>
      <trkpt lat="46.31448" lon="6.78609">
        <ele>1383.96</ele>
        <time>2013-09-28T11:16:35Z</time>
      </trkpt>
      <trkpt lat="46.31451" lon="6.78609">
        <ele>1366.17</ele>
        <time>2013-09-28T11:16:52Z</time>
      </trkpt>
      <trkpt lat="46.31449" lon="6.7861">
        <ele>1355.12</ele>
        <time>2013-09-28T11:17:01Z</time>
      </trkpt>
      <trkpt lat="46.31444" lon="6.78612">
        <ele>1353.19</ele>
        <time>2013-09-28T11:17:07Z</time>
      </trkpt>
      <trkpt lat="46.31417" lon="6.78594">
        <ele>1347.91</ele>
        <time>2013-09-28T11:17:23Z</time>
      </trkpt>
      <trkpt lat="46.31402" lon="6.78575">
        <ele>1349.35</ele>
        <time>2013-09-28T11:17:29Z</time>
      </trkpt>
      <trkpt lat="46.31397" lon="6.78596">
        <ele>1322.91</ele>
        <time>2013-09-28T11:17:44Z</time>
      </trkpt>
      <trkpt lat="46.31393" lon="6.78599">
        <ele>1318.59</ele>
        <time>2013-09-28T11:18:02Z</time>
      </trkpt>
      <trkpt lat="46.31383" lon="6.78593">
        <ele>1318.59</ele>
        <time>2013-09-28T11:18:21Z</time>
      </trkpt>
      <trkpt lat="46.31366" lon="6.78578">
        <ele>1319.07</ele>
        <time>2013-09-28T11:18:33Z</time>
      </trkpt>
      <trkpt lat="46.3136" lon="6.78579">
        <ele>1318.1</ele>
        <time>2013-09-28T11:18:37Z</time>
      </trkpt>
      <trkpt lat="46.31326" lon="6.78575">
        <ele>1316.66</ele>
        <time>2013-09-28T11:18:50Z</time>
      </trkpt>
      <trkpt lat="46.313" lon="6.78575">
        <ele>1315.22</ele>
        <time>2013-09-28T11:19:05Z</time>
      </trkpt>
      <trkpt lat="46.31285" lon="6.78569">
        <ele>1314.74</ele>
        <time>2013-09-28T11:19:25Z</time>
      </trkpt>
      <trkpt lat="46.31282" lon="6.78567">
        <ele>1314.74</ele>
        <time>2013-09-28T11:19:49Z</time>
      </trkpt>
      <trkpt lat="46.31283" lon="6.7857">
        <ele>1314.26</ele>
        <time>2013-09-28T11:19:57Z</time>
      </trkpt>
      <trkpt lat="46.31284" lon="6.78571">
        <ele>1314.74</ele>
        <time>2013-09-28T11:20:08Z</time>
      </trkpt>
      <trkpt lat="46.31285" lon="6.78576">
        <ele>1315.22</ele>
        <time>2013-09-28T11:20:17Z</time>
      </trkpt>
      <trkpt lat="46.3128" lon="6.78574">
        <ele>1314.74</ele>
        <time>2013-09-28T11:20:22Z</time>
      </trkpt>
      <trkpt lat="46.31257" lon="6.78565">
        <ele>1313.78</ele>
        <time>2013-09-28T11:20:38Z</time>
      </trkpt>
      <trkpt lat="46.31233" lon="6.7855">
        <ele>1313.3</ele>
        <time>2013-09-28T11:20:55Z</time>
      </trkpt>
      <trkpt lat="46.31216" lon="6.78541">
        <ele>1312.82</ele>
        <time>2013-09-28T11:21:11Z</time>
      </trkpt>
      <trkpt lat="46.31191" lon="6.7854">
        <ele>1311.86</ele>
        <time>2013-09-28T11:21:25Z</time>
      </trkpt>
      <trkpt lat="46.31161" lon="6.78535">
        <ele>1311.38</ele>
        <time>2013-09-28T11:21:45Z</time>
      </trkpt>
      <trkpt lat="46.31137" lon="6.78525">
        <ele>1309.45</ele>
        <time>2013-09-28T11:22:01Z</time>
      </trkpt>
      <trkpt lat="46.31109" lon="6.78526">
        <ele>1306.09</ele>
        <time>2013-09-28T11:22:19Z</time>
      </trkpt>
      <trkpt lat="46.31071" lon="6.78537">
        <ele>1303.2</ele>
        <time>2013-09-28T11:22:40Z</time>
      </trkpt>
      <trkpt lat="46.31053" lon="6.7854">
        <ele>1301.28</ele>
        <time>2013-09-28T11:22:57Z</time>
      </trkpt>
      <trkpt lat="46.31049" lon="6.78539">
        <ele>1301.28</ele>
        <time>2013-09-28T11:23:00Z</time>
      </trkpt>
      <trkpt lat="46.31019" lon="6.78539">
        <ele>1297.92</ele>
        <time>2013-09-28T11:23:15Z</time>
      </trkpt>
      <trkpt lat="46.30997" lon="6.78548">
        <ele>1295.51</ele>
        <time>2013-09-28T11:23:32Z</time>
      </trkpt>
      <trkpt lat="46.3098" lon="6.78553">
        <ele>1294.55</ele>
        <time>2013-09-28T11:23:40Z</time>
      </trkpt>
      <trkpt lat="46.30961" lon="6.78548">
        <ele>1291.19</ele>
        <time>2013-09-28T11:23:57Z</time>
      </trkpt>
      <trkpt lat="46.3096" lon="6.78546">
        <ele>1291.19</ele>
        <time>2013-09-28T11:23:59Z</time>
      </trkpt>
      <trkpt lat="46.30957" lon="6.78542">
        <ele>1290.71</ele>
        <time>2013-09-28T11:24:01Z</time>
      </trkpt>
      <trkpt lat="46.3094" lon="6.78534">
        <ele>1289.27</ele>
        <time>2013-09-28T11:24:15Z</time>
      </trkpt>
      <trkpt lat="46.30952" lon="6.78525">
        <ele>1284.46</ele>
        <time>2013-09-28T11:24:34Z</time>
      </trkpt>
      <trkpt lat="46.30945" lon="6.78539">
        <ele>1279.17</ele>
        <time>2013-09-28T11:24:37Z</time>
      </trkpt>
      <trkpt lat="46.30938" lon="6.78548">
        <ele>1274.85</ele>
        <time>2013-09-28T11:24:55Z</time>
      </trkpt>
      <trkpt lat="46.30942" lon="6.78552">
        <ele>1272.92</ele>
        <time>2013-09-28T11:25:04Z</time>
      </trkpt>
      <trkpt lat="46.3094" lon="6.78561">
        <ele>1270.52</ele>
        <time>2013-09-28T11:25:10Z</time>
      </trkpt>
      <trkpt lat="46.30941" lon="6.78567">
        <ele>1268.6</ele>
        <time>2013-09-28T11:25:12Z</time>
      </trkpt>
      <trkpt lat="46.30941" lon="6.78577">
        <ele>1266.19</ele>
        <time>2013-09-28T11:25:17Z</time>
      </trkpt>
      <trkpt lat="46.30937" lon="6.78599">
        <ele>1263.79</ele>
        <time>2013-09-28T11:25:30Z</time>
      </trkpt>
      <trkpt lat="46.30937" lon="6.78608">
        <ele>1263.31</ele>
        <time>2013-09-28T11:25:34Z</time>
      </trkpt>
      <trkpt lat="46.30939" lon="6.78612">
        <ele>1258.98</ele>
        <time>2013-09-28T11:25:39Z</time>
      </trkpt>
      <trkpt lat="46.30943" lon="6.78628">
        <ele>1256.1</ele>
        <time>2013-09-28T11:25:46Z</time>
      </trkpt>
      <trkpt lat="46.30942" lon="6.7864">
        <ele>1253.22</ele>
        <time>2013-09-28T11:25:51Z</time>
      </trkpt>
      <trkpt lat="46.30938" lon="6.78665">
        <ele>1246.01</ele>
        <time>2013-09-28T11:26:02Z</time>
      </trkpt>
      <trkpt lat="46.30914" lon="6.78675">
        <ele>1245.04</ele>
        <time>2013-09-28T11:26:18Z</time>
      </trkpt>
      <trkpt lat="46.30889" lon="6.78679">
        <ele>1243.6</ele>
        <time>2013-09-28T11:26:35Z</time>
      </trkpt>
      <trkpt lat="46.30862" lon="6.78696">
        <ele>1237.35</ele>
        <time>2013-09-28T11:26:54Z</time>
      </trkpt>
      <trkpt lat="46.30841" lon="6.78709">
        <ele>1234.95</ele>
        <time>2013-09-28T11:27:09Z</time>
      </trkpt>
      <trkpt lat="46.30828" lon="6.78724">
        <ele>1232.55</ele>
        <time>2013-09-28T11:27:23Z</time>
      </trkpt>
      <trkpt lat="46.30822" lon="6.78731">
        <ele>1231.11</ele>
        <time>2013-09-28T11:27:27Z</time>
      </trkpt>
      <trkpt lat="46.30793" lon="6.78761">
        <ele>1227.26</ele>
        <time>2013-09-28T11:27:49Z</time>
      </trkpt>
      <trkpt lat="46.30787" lon="6.78769">
        <ele>1225.82</ele>
        <time>2013-09-28T11:27:54Z</time>
      </trkpt>
      <trkpt lat="46.30765" lon="6.78787">
        <ele>1223.9</ele>
        <time>2013-09-28T11:28:12Z</time>
      </trkpt>
      <trkpt lat="46.30746" lon="6.78799">
        <ele>1221.49</ele>
        <time>2013-09-28T11:28:29Z</time>
      </trkpt>
      <trkpt lat="46.3071" lon="6.78809">
        <ele>1221.97</ele>
        <time>2013-09-28T11:28:49Z</time>
      </trkpt>
      <trkpt lat="46.30689" lon="6.78812">
        <ele>1222.45</ele>
        <time>2013-09-28T11:29:05Z</time>
      </trkpt>
      <trkpt lat="46.30664" lon="6.78824">
        <ele>1218.61</ele>
        <time>2013-09-28T11:29:23Z</time>
      </trkpt>
      <trkpt lat="46.30632" lon="6.78829">
        <ele>1217.65</ele>
        <time>2013-09-28T11:29:41Z</time>
      </trkpt>
      <trkpt lat="46.30615" lon="6.78845">
        <ele>1213.8</ele>
        <time>2013-09-28T11:29:53Z</time>
      </trkpt>
      <trkpt lat="46.3061" lon="6.78855">
        <ele>1208.51</ele>
        <time>2013-09-28T11:29:59Z</time>
      </trkpt>
      <trkpt lat="46.30593" lon="6.78869">
        <ele>1202.27</ele>
        <time>2013-09-28T11:30:14Z</time>
      </trkpt>
      <trkpt lat="46.30591" lon="6.7887">
        <ele>1201.79</ele>
        <time>2013-09-28T11:30:15Z</time>
      </trkpt>
      <trkpt lat="46.30587" lon="6.78875">
        <ele>1199.86</ele>
        <time>2013-09-28T11:30:19Z</time>
      </trkpt>
      <trkpt lat="46.30574" lon="6.78898">
        <ele>1186.88</ele>
        <time>2013-09-28T11:30:35Z</time>
      </trkpt>
      <trkpt lat="46.30569" lon="6.78911">
        <ele>1183.04</ele>
        <time>2013-09-28T11:30:42Z</time>
      </trkpt>
      <trkpt lat="46.3055" lon="6.78926">
        <ele>1176.79</ele>
        <time>2013-09-28T11:30:58Z</time>
      </trkpt>
      <trkpt lat="46.30528" lon="6.78926">
        <ele>1175.83</ele>
        <time>2013-09-28T11:31:14Z</time>
      </trkpt>
      <trkpt lat="46.30502" lon="6.78905">
        <ele>1175.83</ele>
        <time>2013-09-28T11:31:32Z</time>
      </trkpt>
      <trkpt lat="46.30475" lon="6.78904">
        <ele>1175.35</ele>
        <time>2013-09-28T11:31:52Z</time>
      </trkpt>
      <trkpt lat="46.30451" lon="6.78894">
        <ele>1174.39</ele>
        <time>2013-09-28T11:32:09Z</time>
      </trkpt>
      <trkpt lat="46.30432" lon="6.78893">
        <ele>1174.39</ele>
        <time>2013-09-28T11:32:17Z</time>
      </trkpt>
      <trkpt lat="46.30404" lon="6.78894">
        <ele>1173.91</ele>
        <time>2013-09-28T11:32:32Z</time>
      </trkpt>
      <trkpt lat="46.30393" lon="6.78893">
        <ele>1173.91</ele>
        <time>2013-09-28T11:32:39Z</time>
      </trkpt>
      <trkpt lat="46.30376" lon="6.78902">
        <ele>1173.43</ele>
        <time>2013-09-28T11:32:53Z</time>
      </trkpt>
      <trkpt lat="46.3035" lon="6.78895">
        <ele>1173.43</ele>
        <time>2013-09-28T11:33:11Z</time>
      </trkpt>
      <trkpt lat="46.30347" lon="6.78896">
        <ele>1173.43</ele>
        <time>2013-09-28T11:33:13Z</time>
      </trkpt>
      <trkpt lat="46.30323" lon="6.78904">
        <ele>1173.43</ele>
        <time>2013-09-28T11:33:32Z</time>
      </trkpt>
      <trkpt lat="46.30291" lon="6.78898">
        <ele>1172.95</ele>
        <time>2013-09-28T11:33:50Z</time>
      </trkpt>
      <trkpt lat="46.3027" lon="6.7889">
        <ele>1172.95</ele>
        <time>2013-09-28T11:34:06Z</time>
      </trkpt>
      <trkpt lat="46.30252" lon="6.78887">
        <ele>1172.95</ele>
        <time>2013-09-28T11:34:17Z</time>
      </trkpt>
      <trkpt lat="46.30211" lon="6.78894">
        <ele>1172.95</ele>
        <time>2013-09-28T11:34:37Z</time>
      </trkpt>
      <trkpt lat="46.30183" lon="6.78898">
        <ele>1172.47</ele>
        <time>2013-09-28T11:34:56Z</time>
      </trkpt>
      <trkpt lat="46.30174" lon="6.78907">
        <ele>1172.47</ele>
        <time>2013-09-28T11:35:07Z</time>
      </trkpt>
      <trkpt lat="46.30162" lon="6.7891">
        <ele>1172.47</ele>
        <time>2013-09-28T11:35:15Z</time>
      </trkpt>
      <trkpt lat="46.30151" lon="6.7891">
        <ele>1172.47</ele>
        <time>2013-09-28T11:35:20Z</time>
      </trkpt>
      <trkpt lat="46.30107" lon="6.78902">
        <ele>1172.47</ele>
        <time>2013-09-28T11:35:40Z</time>
      </trkpt>
      <trkpt lat="46.30076" lon="6.78906">
        <ele>1171.02</ele>
        <time>2013-09-28T11:35:58Z</time>
      </trkpt>
      <trkpt lat="46.3005" lon="6.78922">
        <ele>1171.5</ele>
        <time>2013-09-28T11:36:17Z</time>
      </trkpt>
      <trkpt lat="46.30029" lon="6.78938">
        <ele>1169.58</ele>
        <time>2013-09-28T11:36:34Z</time>
      </trkpt>
      <trkpt lat="46.30003" lon="6.78941">
        <ele>1169.1</ele>
        <time>2013-09-28T11:36:54Z</time>
      </trkpt>
      <trkpt lat="46.29983" lon="6.78948">
        <ele>1168.62</ele>
        <time>2013-09-28T11:37:14Z</time>
      </trkpt>
      <trkpt lat="46.29984" lon="6.78934">
        <ele>1159.97</ele>
        <time>2013-09-28T11:37:31Z</time>
      </trkpt>
      <trkpt lat="46.2997" lon="6.78944">
        <ele>1154.2</ele>
        <time>2013-09-28T11:37:51Z</time>
      </trkpt>
      <trkpt lat="46.29929" lon="6.78943">
        <ele>1149.87</ele>
        <time>2013-09-28T11:38:08Z</time>
      </trkpt>
      <trkpt lat="46.29909" lon="6.78943">
        <ele>1148.91</ele>
        <time>2013-09-28T11:38:25Z</time>
      </trkpt>
      <trkpt lat="46.29881" lon="6.78937">
        <ele>1151.32</ele>
        <time>2013-09-28T11:38:44Z</time>
      </trkpt>
      <trkpt lat="46.29862" lon="6.7893">
        <ele>1150.84</ele>
        <time>2013-09-28T11:38:55Z</time>
      </trkpt>
      <trkpt lat="46.29812" lon="6.78923">
        <ele>1147.95</ele>
        <time>2013-09-28T11:39:15Z</time>
      </trkpt>
      <trkpt lat="46.29804" lon="6.78927">
        <ele>1146.51</ele>
        <time>2013-09-28T11:39:29Z</time>
      </trkpt>
      <trkpt lat="46.29801" lon="6.78928">
        <ele>1145.55</ele>
        <time>2013-09-28T11:39:36Z</time>
      </trkpt>
      <trkpt lat="46.29789" lon="6.7893">
        <ele>1143.63</ele>
        <time>2013-09-28T11:39:49Z</time>
      </trkpt>
      <trkpt lat="46.29764" lon="6.78916">
        <ele>1129.69</ele>
        <time>2013-09-28T11:40:05Z</time>
      </trkpt>
      <trkpt lat="46.29751" lon="6.78939">
        <ele>1110.94</ele>
        <time>2013-09-28T11:40:21Z</time>
      </trkpt>
      <trkpt lat="46.29749" lon="6.78955">
        <ele>1083.54</ele>
        <time>2013-09-28T11:40:35Z</time>
      </trkpt>
      <trkpt lat="46.29749" lon="6.78954">
        <ele>1080.18</ele>
        <time>2013-09-28T11:40:38Z</time>
      </trkpt>
      <trkpt lat="46.29724" lon="6.78935">
        <ele>1076.81</ele>
        <time>2013-09-28T11:41:01Z</time>
      </trkpt>
      <trkpt lat="46.29715" lon="6.78914">
        <ele>1073.45</ele>
        <time>2013-09-28T11:41:21Z</time>
      </trkpt>
      <trkpt lat="46.29683" lon="6.78902">
        <ele>1070.57</ele>
        <time>2013-09-28T11:41:39Z</time>
      </trkpt>
      <trkpt lat="46.29651" lon="6.78898">
        <ele>1063.36</ele>
        <time>2013-09-28T11:42:00Z</time>
      </trkpt>
      <trkpt lat="46.29636" lon="6.78888">
        <ele>1047.97</ele>
        <time>2013-09-28T11:42:18Z</time>
      </trkpt>
      <trkpt lat="46.29613" lon="6.78878">
        <ele>1039.32</ele>
        <time>2013-09-28T11:42:38Z</time>
      </trkpt>
      <trkpt lat="46.29587" lon="6.78861">
        <ele>1035.48</ele>
        <time>2013-09-28T11:42:58Z</time>
      </trkpt>
      <trkpt lat="46.29564" lon="6.78846">
        <ele>1035</ele>
        <time>2013-09-28T11:43:18Z</time>
      </trkpt>
      <trkpt lat="46.29547" lon="6.78835">
        <ele>1033.55</ele>
        <time>2013-09-28T11:43:30Z</time>
      </trkpt>
      <trkpt lat="46.29534" lon="6.78837">
        <ele>1031.63</ele>
        <time>2013-09-28T11:43:46Z</time>
      </trkpt>
      <trkpt lat="46.29534" lon="6.78838">
        <ele>1031.15</ele>
        <time>2013-09-28T11:43:48Z</time>
      </trkpt>
      <trkpt lat="46.29535" lon="6.78847">
        <ele>1028.75</ele>
        <time>2013-09-28T11:44:02Z</time>
      </trkpt>
      <trkpt lat="46.29537" lon="6.78852">
        <ele>1027.31</ele>
        <time>2013-09-28T11:44:19Z</time>
      </trkpt>
      <trkpt lat="46.29538" lon="6.78857">
        <ele>1026.83</ele>
        <time>2013-09-28T11:44:38Z</time>
      </trkpt>
      <trkpt lat="46.2953" lon="6.78881">
        <ele>1026.34</ele>
        <time>2013-09-28T11:44:52Z</time>
      </trkpt>
      <trkpt lat="46.29534" lon="6.78903">
        <ele>1025.38</ele>
        <time>2013-09-28T11:45:03Z</time>
      </trkpt>
      <trkpt lat="46.29522" lon="6.78913">
        <ele>1025.38</ele>
        <time>2013-09-28T11:45:10Z</time>
      </trkpt>
      <trkpt lat="46.29514" lon="6.78929">
        <ele>1025.86</ele>
        <time>2013-09-28T11:45:19Z</time>
      </trkpt>
      <trkpt lat="46.29512" lon="6.7895">
        <ele>1023.94</ele>
        <time>2013-09-28T11:45:31Z</time>
      </trkpt>
      <trkpt lat="46.2951" lon="6.78963">
        <ele>1023.94</ele>
        <time>2013-09-28T11:45:37Z</time>
      </trkpt>
      <trkpt lat="46.29508" lon="6.78994">
        <ele>1021.06</ele>
        <time>2013-09-28T11:45:54Z</time>
      </trkpt>
      <trkpt lat="46.29506" lon="6.7901">
        <ele>1020.1</ele>
        <time>2013-09-28T11:46:02Z</time>
      </trkpt>
      <trkpt lat="46.29499" lon="6.79053">
        <ele>1019.13</ele>
        <time>2013-09-28T11:46:23Z</time>
      </trkpt>
      <trkpt lat="46.29494" lon="6.79084">
        <ele>1016.73</ele>
        <time>2013-09-28T11:46:40Z</time>
      </trkpt>
      <trkpt lat="46.29488" lon="6.79114">
        <ele>1016.73</ele>
        <time>2013-09-28T11:46:55Z</time>
      </trkpt>
      <trkpt lat="46.29482" lon="6.79153">
        <ele>1014.81</ele>
        <time>2013-09-28T11:47:15Z</time>
      </trkpt>
      <trkpt lat="46.29476" lon="6.79187">
        <ele>1015.77</ele>
        <time>2013-09-28T11:47:32Z</time>
      </trkpt>
      <trkpt lat="46.29454" lon="6.79223">
        <ele>1017.21</ele>
        <time>2013-09-28T11:47:54Z</time>
      </trkpt>
      <trkpt lat="46.29439" lon="6.79249">
        <ele>1019.13</ele>
        <time>2013-09-28T11:48:11Z</time>
      </trkpt>
      <trkpt lat="46.29421" lon="6.79274">
        <ele>1019.62</ele>
        <time>2013-09-28T11:48:27Z</time>
      </trkpt>
      <trkpt lat="46.29404" lon="6.79302">
        <ele>1020.58</ele>
        <time>2013-09-28T11:48:44Z</time>
      </trkpt>
      <trkpt lat="46.29392" lon="6.79325">
        <ele>1021.06</ele>
        <time>2013-09-28T11:48:59Z</time>
      </trkpt>
      <trkpt lat="46.29375" lon="6.79358">
        <ele>1021.54</ele>
        <time>2013-09-28T11:49:18Z</time>
      </trkpt>
      <trkpt lat="46.29363" lon="6.79376">
        <ele>1022.02</ele>
        <time>2013-09-28T11:49:37Z</time>
      </trkpt>
      <trkpt lat="46.29355" lon="6.79401">
        <ele>1022.5</ele>
        <time>2013-09-28T11:49:52Z</time>
      </trkpt>
      <trkpt lat="46.29349" lon="6.79425">
        <ele>1022.5</ele>
        <time>2013-09-28T11:50:07Z</time>
      </trkpt>
      <trkpt lat="46.29345" lon="6.79442">
        <ele>1025.86</ele>
        <time>2013-09-28T11:50:18Z</time>
      </trkpt>
      <trkpt lat="46.29351" lon="6.79478">
        <ele>1022.5</ele>
        <time>2013-09-28T11:50:34Z</time>
      </trkpt>
      <trkpt lat="46.2935" lon="6.79481">
        <ele>1022.02</ele>
        <time>2013-09-28T11:50:36Z</time>
      </trkpt>
      <trkpt lat="46.29344" lon="6.79517">
        <ele>1020.1</ele>
        <time>2013-09-28T11:50:55Z</time>
      </trkpt>
      <trkpt lat="46.29339" lon="6.79545">
        <ele>1018.65</ele>
        <time>2013-09-28T11:51:10Z</time>
      </trkpt>
      <trkpt lat="46.29334" lon="6.79574">
        <ele>1016.73</ele>
        <time>2013-09-28T11:51:24Z</time>
      </trkpt>
      <trkpt lat="46.29332" lon="6.79599">
        <ele>1017.69</ele>
        <time>2013-09-28T11:51:36Z</time>
      </trkpt>
      <trkpt lat="46.29319" lon="6.79622">
        <ele>1018.17</ele>
        <time>2013-09-28T11:51:51Z</time>
      </trkpt>
      <trkpt lat="46.29312" lon="6.79643">
        <ele>1018.65</ele>
        <time>2013-09-28T11:52:01Z</time>
      </trkpt>
      <trkpt lat="46.29313" lon="6.79658">
        <ele>1019.13</ele>
        <time>2013-09-28T11:52:05Z</time>
      </trkpt>
      <trkpt lat="46.29304" lon="6.79683">
        <ele>1020.58</ele>
        <time>2013-09-28T11:52:20Z</time>
      </trkpt>
      <trkpt lat="46.29303" lon="6.79685">
        <ele>1021.06</ele>
        <time>2013-09-28T11:52:22Z</time>
      </trkpt>
      <trkpt lat="46.29292" lon="6.79725">
        <ele>1018.65</ele>
        <time>2013-09-28T11:52:45Z</time>
      </trkpt>
      <trkpt lat="46.29282" lon="6.79764">
        <ele>1017.69</ele>
        <time>2013-09-28T11:53:03Z</time>
      </trkpt>
      <trkpt lat="46.2927" lon="6.79797">
        <ele>1015.77</ele>
        <time>2013-09-28T11:53:22Z</time>
      </trkpt>
      <trkpt lat="46.29261" lon="6.79838">
        <ele>1011.44</ele>
        <time>2013-09-28T11:53:42Z</time>
      </trkpt>
      <trkpt lat="46.29245" lon="6.79864">
        <ele>1011.93</ele>
        <time>2013-09-28T11:53:59Z</time>
      </trkpt>
      <trkpt lat="46.29228" lon="6.79898">
        <ele>1013.37</ele>
        <time>2013-09-28T11:54:18Z</time>
      </trkpt>
      <trkpt lat="46.29216" lon="6.79928">
        <ele>1012.89</ele>
        <time>2013-09-28T11:54:35Z</time>
      </trkpt>
      <trkpt lat="46.29202" lon="6.79952">
        <ele>1014.33</ele>
        <time>2013-09-28T11:54:51Z</time>
      </trkpt>
      <trkpt lat="46.2919" lon="6.79977">
        <ele>1015.29</ele>
        <time>2013-09-28T11:55:06Z</time>
      </trkpt>
      <trkpt lat="46.29181" lon="6.80008">
        <ele>1015.29</ele>
        <time>2013-09-28T11:55:23Z</time>
      </trkpt>
      <trkpt lat="46.2917" lon="6.80038">
        <ele>1016.25</ele>
        <time>2013-09-28T11:55:41Z</time>
      </trkpt>
      <trkpt lat="46.2916" lon="6.80082">
        <ele>1018.17</ele>
        <time>2013-09-28T11:56:04Z</time>
      </trkpt>
      <trkpt lat="46.29147" lon="6.80107">
        <ele>1016.73</ele>
        <time>2013-09-28T11:56:21Z</time>
      </trkpt>
      <trkpt lat="46.2914" lon="6.80139">
        <ele>1015.77</ele>
        <time>2013-09-28T11:56:39Z</time>
      </trkpt>
      <trkpt lat="46.29114" lon="6.80164">
        <ele>1014.33</ele>
        <time>2013-09-28T11:56:59Z</time>
      </trkpt>
      <trkpt lat="46.2911" lon="6.80163">
        <ele>1014.33</ele>
        <time>2013-09-28T11:57:17Z</time>
      </trkpt>
      <trkpt lat="46.29113" lon="6.80163">
        <ele>1016.25</ele>
        <time>2013-09-28T11:57:30Z</time>
      </trkpt>
      <trkpt lat="46.29111" lon="6.80136">
        <ele>1021.06</ele>
        <time>2013-09-28T11:57:46Z</time>
      </trkpt>
      <trkpt lat="46.29108" lon="6.80134">
        <ele>1021.06</ele>
        <time>2013-09-28T11:58:04Z</time>
      </trkpt>
      <trkpt lat="46.29106" lon="6.80135">
        <ele>1022.02</ele>
        <time>2013-09-28T11:58:24Z</time>
      </trkpt>
      <trkpt lat="46.29106" lon="6.80134">
        <ele>1022.5</ele>
        <time>2013-09-28T11:58:49Z</time>
      </trkpt>
      <trkpt lat="46.29105" lon="6.80135">
        <ele>1022.02</ele>
        <time>2013-09-28T11:59:11Z</time>
      </trkpt>
      <trkpt lat="46.29105" lon="6.80134">
        <ele>1022.98</ele>
        <time>2013-09-28T11:59:40Z</time>
      </trkpt>
      <trkpt lat="46.29105" lon="6.80133">
        <ele>1022.98</ele>
        <time>2013-09-28T12:00:08Z</time>
      </trkpt>
      <trkpt lat="46.29104" lon="6.80136">
        <ele>1022.5</ele>
        <time>2013-09-28T12:00:34Z</time>
      </trkpt>
      <trkpt lat="46.29104" lon="6.80155">
        <ele>1021.54</ele>
        <time>2013-09-28T12:00:50Z</time>
      </trkpt>
      <trkpt lat="46.29106" lon="6.80159">
        <ele>1020.58</ele>
        <time>2013-09-28T12:01:13Z</time>
      </trkpt>
      <trkpt lat="46.29108" lon="6.80164">
        <ele>1020.1</ele>
        <time>2013-09-28T12:01:24Z</time>
      </trkpt>
      <trkpt lat="46.29096" lon="6.80204">
        <ele>1017.21</ele>
        <time>2013-09-28T12:01:45Z</time>
      </trkpt>
      <trkpt lat="46.2909" lon="6.80215">
        <ele>1017.21</ele>
        <time>2013-09-28T12:01:52Z</time>
      </trkpt>
      <trkpt lat="46.29076" lon="6.80239">
        <ele>1018.65</ele>
        <time>2013-09-28T12:02:07Z</time>
      </trkpt>
      <trkpt lat="46.29058" lon="6.80266">
        <ele>1014.33</ele>
        <time>2013-09-28T12:02:24Z</time>
      </trkpt>
      <trkpt lat="46.29047" lon="6.80298">
        <ele>1007.12</ele>
        <time>2013-09-28T12:02:42Z</time>
      </trkpt>
      <trkpt lat="46.29032" lon="6.80326">
        <ele>1000.87</ele>
        <time>2013-09-28T12:02:59Z</time>
      </trkpt>
      <trkpt lat="46.29025" lon="6.80361">
        <ele>996.54</ele>
        <time>2013-09-28T12:03:17Z</time>
      </trkpt>
      <trkpt lat="46.29011" lon="6.80389">
        <ele>993.66</ele>
        <time>2013-09-28T12:03:35Z</time>
      </trkpt>
      <trkpt lat="46.28997" lon="6.80417">
        <ele>987.89</ele>
        <time>2013-09-28T12:03:53Z</time>
      </trkpt>
      <trkpt lat="46.28984" lon="6.80446">
        <ele>987.89</ele>
        <time>2013-09-28T12:04:10Z</time>
      </trkpt>
      <trkpt lat="46.28981" lon="6.80445">
        <ele>997.99</ele>
        <time>2013-09-28T12:04:12Z</time>
      </trkpt>
      <trkpt lat="46.28973" lon="6.80449">
        <ele>1011.44</ele>
        <time>2013-09-28T12:04:17Z</time>
      </trkpt>
      <trkpt lat="46.2896" lon="6.80485">
        <ele>1006.64</ele>
        <time>2013-09-28T12:04:37Z</time>
      </trkpt>
      <trkpt lat="46.28952" lon="6.80513">
        <ele>1004.23</ele>
        <time>2013-09-28T12:04:52Z</time>
      </trkpt>
      <trkpt lat="46.28941" lon="6.80547">
        <ele>1005.68</ele>
        <time>2013-09-28T12:05:08Z</time>
      </trkpt>
      <trkpt lat="46.28927" lon="6.80583">
        <ele>1008.56</ele>
        <time>2013-09-28T12:05:28Z</time>
      </trkpt>
      <trkpt lat="46.28918" lon="6.80611">
        <ele>1008.56</ele>
        <time>2013-09-28T12:05:44Z</time>
      </trkpt>
      <trkpt lat="46.28908" lon="6.80643">
        <ele>1009.04</ele>
        <time>2013-09-28T12:06:00Z</time>
      </trkpt>
      <trkpt lat="46.28896" lon="6.80673">
        <ele>1010.96</ele>
        <time>2013-09-28T12:06:17Z</time>
      </trkpt>
      <trkpt lat="46.28891" lon="6.80689">
        <ele>1010.48</ele>
        <time>2013-09-28T12:06:26Z</time>
      </trkpt>
      <trkpt lat="46.28881" lon="6.80715">
        <ele>1013.37</ele>
        <time>2013-09-28T12:06:42Z</time>
      </trkpt>
      <trkpt lat="46.2888" lon="6.80716">
        <ele>1014.33</ele>
        <time>2013-09-28T12:06:43Z</time>
      </trkpt>
      <trkpt lat="46.28866" lon="6.80717">
        <ele>1020.1</ele>
        <time>2013-09-28T12:06:55Z</time>
      </trkpt>
      <trkpt lat="46.28828" lon="6.80703">
        <ele>1025.86</ele>
        <time>2013-09-28T12:07:19Z</time>
      </trkpt>
      <trkpt lat="46.28796" lon="6.80694">
        <ele>1025.38</ele>
        <time>2013-09-28T12:07:41Z</time>
      </trkpt>
      <trkpt lat="46.28759" lon="6.80691">
        <ele>1025.38</ele>
        <time>2013-09-28T12:08:04Z</time>
      </trkpt>
      <trkpt lat="46.28725" lon="6.807">
        <ele>1024.42</ele>
        <time>2013-09-28T12:08:28Z</time>
      </trkpt>
      <trkpt lat="46.28705" lon="6.80679">
        <ele>1022.02</ele>
        <time>2013-09-28T12:08:49Z</time>
      </trkpt>
      <trkpt lat="46.28698" lon="6.80655">
        <ele>1019.62</ele>
        <time>2013-09-28T12:09:08Z</time>
      </trkpt>
      <trkpt lat="46.28685" lon="6.80625">
        <ele>1018.17</ele>
        <time>2013-09-28T12:09:26Z</time>
      </trkpt>
      <trkpt lat="46.28661" lon="6.80604">
        <ele>1024.42</ele>
        <time>2013-09-28T12:09:41Z</time>
      </trkpt>
      <trkpt lat="46.28647" lon="6.80586">
        <ele>1028.27</ele>
        <time>2013-09-28T12:09:54Z</time>
      </trkpt>
      <trkpt lat="46.28634" lon="6.8057">
        <ele>1031.63</ele>
        <time>2013-09-28T12:10:07Z</time>
      </trkpt>
      <trkpt lat="46.28621" lon="6.80556">
        <ele>1033.55</ele>
        <time>2013-09-28T12:10:20Z</time>
      </trkpt>
      <trkpt lat="46.28606" lon="6.80532">
        <ele>1036.92</ele>
        <time>2013-09-28T12:10:42Z</time>
      </trkpt>
      <trkpt lat="46.28585" lon="6.80507">
        <ele>1042.69</ele>
        <time>2013-09-28T12:11:04Z</time>
      </trkpt>
      <trkpt lat="46.28573" lon="6.80494">
        <ele>1043.17</ele>
        <time>2013-09-28T12:11:20Z</time>
      </trkpt>
      <trkpt lat="46.28572" lon="6.80494">
        <ele>1040.28</ele>
        <time>2013-09-28T12:11:43Z</time>
      </trkpt>
      <trkpt lat="46.28572" lon="6.80494">
        <ele>1038.36</ele>
        <time>2013-09-28T12:12:08Z</time>
      </trkpt>
      <trkpt lat="46.28573" lon="6.80496">
        <ele>1037.4</ele>
        <time>2013-09-28T12:12:33Z</time>
      </trkpt>
      <trkpt lat="46.28574" lon="6.80496">
        <ele>1037.4</ele>
        <time>2013-09-28T12:13:00Z</time>
      </trkpt>
      <trkpt lat="46.28574" lon="6.80497">
        <ele>1037.4</ele>
        <time>2013-09-28T12:13:27Z</time>
      </trkpt>
      <trkpt lat="46.28575" lon="6.80497">
        <ele>1036.44</ele>
        <time>2013-09-28T12:13:49Z</time>
      </trkpt>
      <trkpt lat="46.28576" lon="6.80497">
        <ele>1034.52</ele>
        <time>2013-09-28T12:14:20Z</time>
      </trkpt>
      <trkpt lat="46.28576" lon="6.80497">
        <ele>1034.04</ele>
        <time>2013-09-28T12:14:49Z</time>
      </trkpt>
      <trkpt lat="46.28575" lon="6.80498">
        <ele>1034.04</ele>
        <time>2013-09-28T12:15:17Z</time>
      </trkpt>
      <trkpt lat="46.28574" lon="6.80498">
        <ele>1034.52</ele>
        <time>2013-09-28T12:15:44Z</time>
      </trkpt>
      <trkpt lat="46.28574" lon="6.80497">
        <ele>1034.04</ele>
        <time>2013-09-28T12:16:11Z</time>
      </trkpt>
      <trkpt lat="46.28574" lon="6.80496">
        <ele>1034.04</ele>
        <time>2013-09-28T12:16:43Z</time>
      </trkpt>
      <trkpt lat="46.28574" lon="6.80496">
        <ele>1033.55</ele>
        <time>2013-09-28T12:17:16Z</time>
      </trkpt>
      <trkpt lat="46.28574" lon="6.80496">
        <ele>1033.55</ele>
        <time>2013-09-28T12:17:49Z</time>
      </trkpt>
      <trkpt lat="46.28574" lon="6.80496">
        <ele>1034.04</ele>
        <time>2013-09-28T12:18:22Z</time>
      </trkpt>
      <trkpt lat="46.28574" lon="6.80497">
        <ele>1034.52</ele>
        <time>2013-09-28T12:18:52Z</time>
      </trkpt>
      <trkpt lat="46.28574" lon="6.80495">
        <ele>1034.52</ele>
        <time>2013-09-28T12:19:29Z</time>
      </trkpt>
      <trkpt lat="46.28573" lon="6.80496">
        <ele>1034.52</ele>
        <time>2013-09-28T12:20:02Z</time>
      </trkpt>
      <trkpt lat="46.28572" lon="6.80497">
        <ele>1034.52</ele>
        <time>2013-09-28T12:20:24Z</time>
      </trkpt>
      <trkpt lat="46.28573" lon="6.80497">
        <ele>1034.52</ele>
        <time>2013-09-28T12:20:53Z</time>
      </trkpt>
      <trkpt lat="46.28573" lon="6.80497">
        <ele>1034.52</ele>
        <time>2013-09-28T12:21:19Z</time>
      </trkpt>
      <trkpt lat="46.28573" lon="6.80497">
        <ele>1034.52</ele>
        <time>2013-09-28T12:21:43Z</time>
      </trkpt>
      <trkpt lat="46.28573" lon="6.80497">
        <ele>1034.52</ele>
        <time>2013-09-28T12:22:09Z</time>
      </trkpt>
      <trkpt lat="46.28573" lon="6.80496">
        <ele>1035</ele>
        <time>2013-09-28T12:22:41Z</time>
      </trkpt>
      <trkpt lat="46.28573" lon="6.80496">
        <ele>1035.48</ele>
        <time>2013-09-28T12:23:07Z</time>
      </trkpt>
      <trkpt lat="46.28573" lon="6.80495">
        <ele>1035</ele>
        <time>2013-09-28T12:23:31Z</time>
      </trkpt>
      <trkpt lat="46.28573" lon="6.80495">
        <ele>1034.52</ele>
        <time>2013-09-28T12:23:57Z</time>
      </trkpt>
      <trkpt lat="46.28573" lon="6.80495">
        <ele>1035</ele>
        <time>2013-09-28T12:24:21Z</time>
      </trkpt>
      <trkpt lat="46.28574" lon="6.80494">
        <ele>1035.96</ele>
        <time>2013-09-28T12:24:38Z</time>
      </trkpt>
      <trkpt lat="46.28574" lon="6.80494">
        <ele>1037.88</ele>
        <time>2013-09-28T12:24:58Z</time>
      </trkpt>
      <trkpt lat="46.28574" lon="6.80495">
        <ele>1038.36</ele>
        <time>2013-09-28T12:25:25Z</time>
      </trkpt>
      <trkpt lat="46.28574" lon="6.80495">
        <ele>1037.88</ele>
        <time>2013-09-28T12:25:53Z</time>
      </trkpt>
      <trkpt lat="46.28574" lon="6.80495">
        <ele>1036.92</ele>
        <time>2013-09-28T12:26:04Z</time>
      </trkpt>
      <trkpt lat="46.28573" lon="6.80494">
        <ele>1035.96</ele>
        <time>2013-09-28T12:26:23Z</time>
      </trkpt>
      <trkpt lat="46.28573" lon="6.80495">
        <ele>1035.96</ele>
        <time>2013-09-28T12:26:43Z</time>
      </trkpt>
      <trkpt lat="46.28572" lon="6.80495">
        <ele>1036.92</ele>
        <time>2013-09-28T12:27:07Z</time>
      </trkpt>
      <trkpt lat="46.28572" lon="6.80494">
        <ele>1036.92</ele>
        <time>2013-09-28T12:27:25Z</time>
      </trkpt>
      <trkpt lat="46.28572" lon="6.80498">
        <ele>1037.88</ele>
        <time>2013-09-28T12:27:44Z</time>
      </trkpt>
      <trkpt lat="46.28568" lon="6.80503">
        <ele>1037.4</ele>
        <time>2013-09-28T12:27:58Z</time>
      </trkpt>
      <trkpt lat="46.28568" lon="6.80504">
        <ele>1037.4</ele>
        <time>2013-09-28T12:28:16Z</time>
      </trkpt>
      <trkpt lat="46.2856" lon="6.80505">
        <ele>1037.4</ele>
        <time>2013-09-28T12:28:37Z</time>
      </trkpt>
      <trkpt lat="46.28541" lon="6.80497">
        <ele>1036.44</ele>
        <time>2013-09-28T12:28:57Z</time>
      </trkpt>
      <trkpt lat="46.2853" lon="6.80498">
        <ele>1035.96</ele>
        <time>2013-09-28T12:29:06Z</time>
      </trkpt>
      <trkpt lat="46.28511" lon="6.80514">
        <ele>1037.4</ele>
        <time>2013-09-28T12:29:25Z</time>
      </trkpt>
      <trkpt lat="46.28493" lon="6.8052">
        <ele>1046.53</ele>
        <time>2013-09-28T12:29:36Z</time>
      </trkpt>
      <trkpt lat="46.28491" lon="6.80521">
        <ele>1047.49</ele>
        <time>2013-09-28T12:29:38Z</time>
      </trkpt>
      <trkpt lat="46.28469" lon="6.8054">
        <ele>1047.97</ele>
        <time>2013-09-28T12:29:57Z</time>
      </trkpt>
      <trkpt lat="46.2845" lon="6.80553">
        <ele>1046.53</ele>
        <time>2013-09-28T12:30:17Z</time>
      </trkpt>
      <trkpt lat="46.28441" lon="6.80549">
        <ele>1047.49</ele>
        <time>2013-09-28T12:30:26Z</time>
      </trkpt>
      <trkpt lat="46.28425" lon="6.80559">
        <ele>1052.78</ele>
        <time>2013-09-28T12:30:47Z</time>
      </trkpt>
      <trkpt lat="46.28412" lon="6.80564">
        <ele>1063.36</ele>
        <time>2013-09-28T12:31:01Z</time>
      </trkpt>
      <trkpt lat="46.28399" lon="6.80529">
        <ele>1070.08</ele>
        <time>2013-09-28T12:31:18Z</time>
      </trkpt>
      <trkpt lat="46.28402" lon="6.8051">
        <ele>1074.41</ele>
        <time>2013-09-28T12:31:34Z</time>
      </trkpt>
      <trkpt lat="46.28411" lon="6.80486">
        <ele>1076.81</ele>
        <time>2013-09-28T12:31:52Z</time>
      </trkpt>
      <trkpt lat="46.28408" lon="6.80453">
        <ele>1089.31</ele>
        <time>2013-09-28T12:32:11Z</time>
      </trkpt>
      <trkpt lat="46.28371" lon="6.80432">
        <ele>1106.61</ele>
        <time>2013-09-28T12:32:36Z</time>
      </trkpt>
      <trkpt lat="46.28366" lon="6.80431">
        <ele>1110.46</ele>
        <time>2013-09-28T12:32:49Z</time>
      </trkpt>
      <trkpt lat="46.28362" lon="6.80432">
        <ele>1113.82</ele>
        <time>2013-09-28T12:33:03Z</time>
      </trkpt>
      <trkpt lat="46.28357" lon="6.80456">
        <ele>1122</ele>
        <time>2013-09-28T12:33:19Z</time>
      </trkpt>
      <trkpt lat="46.28358" lon="6.80461">
        <ele>1126.32</ele>
        <time>2013-09-28T12:33:43Z</time>
      </trkpt>
      <trkpt lat="46.2836" lon="6.80458">
        <ele>1127.28</ele>
        <time>2013-09-28T12:34:03Z</time>
      </trkpt>
      <trkpt lat="46.28363" lon="6.80475">
        <ele>1129.69</ele>
        <time>2013-09-28T12:34:15Z</time>
      </trkpt>
      <trkpt lat="46.28364" lon="6.80503">
        <ele>1124.88</ele>
        <time>2013-09-28T12:34:32Z</time>
      </trkpt>
      <trkpt lat="46.28357" lon="6.80517">
        <ele>1112.86</ele>
        <time>2013-09-28T12:34:51Z</time>
      </trkpt>
      <trkpt lat="46.28344" lon="6.8054">
        <ele>1119.59</ele>
        <time>2013-09-28T12:35:10Z</time>
      </trkpt>
      <trkpt lat="46.28328" lon="6.80556">
        <ele>1120.07</ele>
        <time>2013-09-28T12:35:23Z</time>
      </trkpt>
      <trkpt lat="46.28318" lon="6.80569">
        <ele>1126.32</ele>
        <time>2013-09-28T12:35:42Z</time>
      </trkpt>
      <trkpt lat="46.2832" lon="6.80569">
        <ele>1127.28</ele>
        <time>2013-09-28T12:35:45Z</time>
      </trkpt>
      <trkpt lat="46.28321" lon="6.80547">
        <ele>1135.94</ele>
        <time>2013-09-28T12:36:05Z</time>
      </trkpt>
      <trkpt lat="46.28319" lon="6.80524">
        <ele>1142.66</ele>
        <time>2013-09-28T12:36:25Z</time>
      </trkpt>
      <trkpt lat="46.28315" lon="6.80512">
        <ele>1145.55</ele>
        <time>2013-09-28T12:36:37Z</time>
      </trkpt>
      <trkpt lat="46.28316" lon="6.80479">
        <ele>1149.39</ele>
        <time>2013-09-28T12:36:57Z</time>
      </trkpt>
      <trkpt lat="46.28296" lon="6.80463">
        <ele>1153.24</ele>
        <time>2013-09-28T12:37:17Z</time>
      </trkpt>
      <trkpt lat="46.28293" lon="6.80466">
        <ele>1154.2</ele>
        <time>2013-09-28T12:37:23Z</time>
      </trkpt>
      <trkpt lat="46.2829" lon="6.80456">
        <ele>1156.6</ele>
        <time>2013-09-28T12:37:42Z</time>
      </trkpt>
      <trkpt lat="46.28286" lon="6.80431">
        <ele>1164.77</ele>
        <time>2013-09-28T12:38:01Z</time>
      </trkpt>
      <trkpt lat="46.28284" lon="6.80388">
        <ele>1176.31</ele>
        <time>2013-09-28T12:38:22Z</time>
      </trkpt>
      <trkpt lat="46.28273" lon="6.80372">
        <ele>1176.79</ele>
        <time>2013-09-28T12:38:43Z</time>
      </trkpt>
      <trkpt lat="46.28252" lon="6.80353">
        <ele>1180.16</ele>
        <time>2013-09-28T12:39:00Z</time>
      </trkpt>
      <trkpt lat="46.28239" lon="6.80343">
        <ele>1176.31</ele>
        <time>2013-09-28T12:39:12Z</time>
      </trkpt>
      <trkpt lat="46.28234" lon="6.8033">
        <ele>1175.83</ele>
        <time>2013-09-28T12:39:32Z</time>
      </trkpt>
      <trkpt lat="46.2822" lon="6.80319">
        <ele>1177.75</ele>
        <time>2013-09-28T12:39:52Z</time>
      </trkpt>
      <trkpt lat="46.28222" lon="6.80315">
        <ele>1180.16</ele>
        <time>2013-09-28T12:40:13Z</time>
      </trkpt>
      <trkpt lat="46.2822" lon="6.80307">
        <ele>1181.6</ele>
        <time>2013-09-28T12:40:34Z</time>
      </trkpt>
      <trkpt lat="46.28186" lon="6.80288">
        <ele>1192.17</ele>
        <time>2013-09-28T12:40:50Z</time>
      </trkpt>
      <trkpt lat="46.28177" lon="6.80286">
        <ele>1196.02</ele>
        <time>2013-09-28T12:41:03Z</time>
      </trkpt>
      <trkpt lat="46.28167" lon="6.80282">
        <ele>1195.54</ele>
        <time>2013-09-28T12:41:16Z</time>
      </trkpt>
      <trkpt lat="46.28159" lon="6.80269">
        <ele>1194.09</ele>
        <time>2013-09-28T12:41:28Z</time>
      </trkpt>
      <trkpt lat="46.28158" lon="6.80268">
        <ele>1194.58</ele>
        <time>2013-09-28T12:41:29Z</time>
      </trkpt>
      <trkpt lat="46.28149" lon="6.80263">
        <ele>1192.65</ele>
        <time>2013-09-28T12:41:42Z</time>
      </trkpt>
      <trkpt lat="46.28147" lon="6.80244">
        <ele>1192.17</ele>
        <time>2013-09-28T12:42:00Z</time>
      </trkpt>
      <trkpt lat="46.28144" lon="6.80233">
        <ele>1195.54</ele>
        <time>2013-09-28T12:42:17Z</time>
      </trkpt>
      <trkpt lat="46.2813" lon="6.80225">
        <ele>1198.9</ele>
        <time>2013-09-28T12:42:35Z</time>
      </trkpt>
      <trkpt lat="46.28124" lon="6.80224">
        <ele>1202.75</ele>
        <time>2013-09-28T12:42:51Z</time>
      </trkpt>
      <trkpt lat="46.28093" lon="6.80226">
        <ele>1214.28</ele>
        <time>2013-09-28T12:43:13Z</time>
      </trkpt>
      <trkpt lat="46.28085" lon="6.80235">
        <ele>1221.97</ele>
        <time>2013-09-28T12:43:32Z</time>
      </trkpt>
      <trkpt lat="46.28081" lon="6.80245">
        <ele>1227.74</ele>
        <time>2013-09-28T12:43:45Z</time>
      </trkpt>
      <trkpt lat="46.28081" lon="6.80249">
        <ele>1229.18</ele>
        <time>2013-09-28T12:44:02Z</time>
      </trkpt>
      <trkpt lat="46.2808" lon="6.8025">
        <ele>1228.22</ele>
        <time>2013-09-28T12:44:24Z</time>
      </trkpt>
      <trkpt lat="46.28079" lon="6.80252">
        <ele>1228.7</ele>
        <time>2013-09-28T12:44:27Z</time>
      </trkpt>
      <trkpt lat="46.28083" lon="6.80272">
        <ele>1228.22</ele>
        <time>2013-09-28T12:44:38Z</time>
      </trkpt>
      <trkpt lat="46.28086" lon="6.80289">
        <ele>1227.26</ele>
        <time>2013-09-28T12:44:48Z</time>
      </trkpt>
      <trkpt lat="46.28084" lon="6.80309">
        <ele>1228.7</ele>
        <time>2013-09-28T12:45:03Z</time>
      </trkpt>
      <trkpt lat="46.28083" lon="6.80326">
        <ele>1229.66</ele>
        <time>2013-09-28T12:45:14Z</time>
      </trkpt>
      <trkpt lat="46.28082" lon="6.80337">
        <ele>1229.66</ele>
        <time>2013-09-28T12:45:20Z</time>
      </trkpt>
      <trkpt lat="46.28071" lon="6.8036">
        <ele>1232.55</ele>
        <time>2013-09-28T12:45:36Z</time>
      </trkpt>
      <trkpt lat="46.28062" lon="6.80385">
        <ele>1234.95</ele>
        <time>2013-09-28T12:45:53Z</time>
      </trkpt>
      <trkpt lat="46.28046" lon="6.80423">
        <ele>1238.8</ele>
        <time>2013-09-28T12:46:14Z</time>
      </trkpt>
      <trkpt lat="46.28031" lon="6.80444">
        <ele>1238.8</ele>
        <time>2013-09-28T12:46:32Z</time>
      </trkpt>
      <trkpt lat="46.28014" lon="6.80438">
        <ele>1242.16</ele>
        <time>2013-09-28T12:46:44Z</time>
      </trkpt>
      <trkpt lat="46.27999" lon="6.80432">
        <ele>1248.89</ele>
        <time>2013-09-28T12:47:01Z</time>
      </trkpt>
      <trkpt lat="46.27993" lon="6.80432">
        <ele>1251.29</ele>
        <time>2013-09-28T12:47:07Z</time>
      </trkpt>
      <trkpt lat="46.2798" lon="6.80442">
        <ele>1257.54</ele>
        <time>2013-09-28T12:47:27Z</time>
      </trkpt>
      <trkpt lat="46.27966" lon="6.80441">
        <ele>1257.54</ele>
        <time>2013-09-28T12:47:47Z</time>
      </trkpt>
      <trkpt lat="46.27955" lon="6.80438">
        <ele>1259.94</ele>
        <time>2013-09-28T12:48:00Z</time>
      </trkpt>
      <trkpt lat="46.27946" lon="6.80436">
        <ele>1261.39</ele>
        <time>2013-09-28T12:48:13Z</time>
      </trkpt>
      <trkpt lat="46.27937" lon="6.80431">
        <ele>1264.27</ele>
        <time>2013-09-28T12:48:28Z</time>
      </trkpt>
      <trkpt lat="46.27931" lon="6.80427">
        <ele>1267.16</ele>
        <time>2013-09-28T12:48:44Z</time>
      </trkpt>
      <trkpt lat="46.27929" lon="6.80428">
        <ele>1270.52</ele>
        <time>2013-09-28T12:49:01Z</time>
      </trkpt>
      <trkpt lat="46.27923" lon="6.80426">
        <ele>1273.4</ele>
        <time>2013-09-28T12:49:22Z</time>
      </trkpt>
      <trkpt lat="46.27905" lon="6.80425">
        <ele>1275.81</ele>
        <time>2013-09-28T12:49:43Z</time>
      </trkpt>
      <trkpt lat="46.2789" lon="6.80424">
        <ele>1275.33</ele>
        <time>2013-09-28T12:50:09Z</time>
      </trkpt>
      <trkpt lat="46.27888" lon="6.80425">
        <ele>1274.85</ele>
        <time>2013-09-28T12:50:31Z</time>
      </trkpt>
      <trkpt lat="46.27883" lon="6.8042">
        <ele>1277.73</ele>
        <time>2013-09-28T12:50:51Z</time>
      </trkpt>
      <trkpt lat="46.27882" lon="6.80412">
        <ele>1281.09</ele>
        <time>2013-09-28T12:51:08Z</time>
      </trkpt>
      <trkpt lat="46.27874" lon="6.80396">
        <ele>1289.27</ele>
        <time>2013-09-28T12:51:28Z</time>
      </trkpt>
      <trkpt lat="46.27866" lon="6.80385">
        <ele>1293.59</ele>
        <time>2013-09-28T12:51:50Z</time>
      </trkpt>
      <trkpt lat="46.27849" lon="6.80377">
        <ele>1301.76</ele>
        <time>2013-09-28T12:52:11Z</time>
      </trkpt>
      <trkpt lat="46.27835" lon="6.80372">
        <ele>1306.09</ele>
        <time>2013-09-28T12:52:35Z</time>
      </trkpt>
      <trkpt lat="46.27808" lon="6.80366">
        <ele>1315.22</ele>
        <time>2013-09-28T12:52:54Z</time>
      </trkpt>
      <trkpt lat="46.27798" lon="6.80379">
        <ele>1320.03</ele>
        <time>2013-09-28T12:53:09Z</time>
      </trkpt>
      <trkpt lat="46.278" lon="6.8039">
        <ele>1320.99</ele>
        <time>2013-09-28T12:53:25Z</time>
      </trkpt>
      <trkpt lat="46.27781" lon="6.80404">
        <ele>1323.87</ele>
        <time>2013-09-28T12:53:42Z</time>
      </trkpt>
      <trkpt lat="46.27767" lon="6.80418">
        <ele>1311.86</ele>
        <time>2013-09-28T12:53:58Z</time>
      </trkpt>
      <trkpt lat="46.27759" lon="6.80433">
        <ele>1317.62</ele>
        <time>2013-09-28T12:54:15Z</time>
      </trkpt>
      <trkpt lat="46.27757" lon="6.80452">
        <ele>1318.59</ele>
        <time>2013-09-28T12:54:36Z</time>
      </trkpt>
      <trkpt lat="46.27754" lon="6.80444">
        <ele>1326.28</ele>
        <time>2013-09-28T12:54:53Z</time>
      </trkpt>
      <trkpt lat="46.2775" lon="6.80421">
        <ele>1335.41</ele>
        <time>2013-09-28T12:55:11Z</time>
      </trkpt>
      <trkpt lat="46.27745" lon="6.80402">
        <ele>1339.73</ele>
        <time>2013-09-28T12:55:28Z</time>
      </trkpt>
      <trkpt lat="46.27737" lon="6.80394">
        <ele>1343.58</ele>
        <time>2013-09-28T12:55:43Z</time>
      </trkpt>
      <trkpt lat="46.27734" lon="6.80399">
        <ele>1345.02</ele>
        <time>2013-09-28T12:55:50Z</time>
      </trkpt>
      <trkpt lat="46.2773" lon="6.80402">
        <ele>1346.94</ele>
        <time>2013-09-28T12:55:58Z</time>
      </trkpt>
      <trkpt lat="46.2771" lon="6.80406">
        <ele>1351.27</ele>
        <time>2013-09-28T12:56:17Z</time>
      </trkpt>
      <trkpt lat="46.27698" lon="6.80417">
        <ele>1346.46</ele>
        <time>2013-09-28T12:56:35Z</time>
      </trkpt>
      <trkpt lat="46.27685" lon="6.80429">
        <ele>1345.98</ele>
        <time>2013-09-28T12:56:55Z</time>
      </trkpt>
      <trkpt lat="46.27671" lon="6.80427">
        <ele>1349.83</ele>
        <time>2013-09-28T12:57:13Z</time>
      </trkpt>
      <trkpt lat="46.27661" lon="6.80425">
        <ele>1354.15</ele>
        <time>2013-09-28T12:57:31Z</time>
      </trkpt>
      <trkpt lat="46.27641" lon="6.80429">
        <ele>1358.48</ele>
        <time>2013-09-28T12:57:49Z</time>
      </trkpt>
      <trkpt lat="46.27619" lon="6.80444">
        <ele>1360.4</ele>
        <time>2013-09-28T12:58:08Z</time>
      </trkpt>
      <trkpt lat="46.27604" lon="6.80467">
        <ele>1361.36</ele>
        <time>2013-09-28T12:58:29Z</time>
      </trkpt>
      <trkpt lat="46.2759" lon="6.80503">
        <ele>1361.84</ele>
        <time>2013-09-28T12:58:52Z</time>
      </trkpt>
      <trkpt lat="46.27573" lon="6.80518">
        <ele>1362.81</ele>
        <time>2013-09-28T12:59:12Z</time>
      </trkpt>
      <trkpt lat="46.27559" lon="6.80524">
        <ele>1369.54</ele>
        <time>2013-09-28T12:59:33Z</time>
      </trkpt>
      <trkpt lat="46.27547" lon="6.80526">
        <ele>1374.34</ele>
        <time>2013-09-28T12:59:52Z</time>
      </trkpt>
      <trkpt lat="46.27532" lon="6.80538">
        <ele>1379.63</ele>
        <time>2013-09-28T13:00:08Z</time>
      </trkpt>
      <trkpt lat="46.27523" lon="6.80548">
        <ele>1383.47</ele>
        <time>2013-09-28T13:00:27Z</time>
      </trkpt>
      <trkpt lat="46.27511" lon="6.80554">
        <ele>1389.24</ele>
        <time>2013-09-28T13:00:42Z</time>
      </trkpt>
      <trkpt lat="46.27503" lon="6.80568">
        <ele>1396.93</ele>
        <time>2013-09-28T13:01:01Z</time>
      </trkpt>
      <trkpt lat="46.27486" lon="6.80592">
        <ele>1401.74</ele>
        <time>2013-09-28T13:01:19Z</time>
      </trkpt>
      <trkpt lat="46.27473" lon="6.80618">
        <ele>1402.22</ele>
        <time>2013-09-28T13:01:39Z</time>
      </trkpt>
      <trkpt lat="46.27466" lon="6.80623">
        <ele>1403.66</ele>
        <time>2013-09-28T13:01:59Z</time>
      </trkpt>
      <trkpt lat="46.27452" lon="6.80629">
        <ele>1403.18</ele>
        <time>2013-09-28T13:02:17Z</time>
      </trkpt>
      <trkpt lat="46.27426" lon="6.80632">
        <ele>1403.18</ele>
        <time>2013-09-28T13:02:35Z</time>
      </trkpt>
      <trkpt lat="46.27414" lon="6.80636">
        <ele>1406.07</ele>
        <time>2013-09-28T13:02:55Z</time>
      </trkpt>
      <trkpt lat="46.27412" lon="6.80635">
        <ele>1407.03</ele>
        <time>2013-09-28T13:03:11Z</time>
      </trkpt>
      <trkpt lat="46.27415" lon="6.80641">
        <ele>1409.43</ele>
        <time>2013-09-28T13:03:28Z</time>
      </trkpt>
      <trkpt lat="46.2739" lon="6.80635">
        <ele>1415.68</ele>
        <time>2013-09-28T13:03:48Z</time>
      </trkpt>
      <trkpt lat="46.27381" lon="6.8064">
        <ele>1426.25</ele>
        <time>2013-09-28T13:04:06Z</time>
      </trkpt>
      <trkpt lat="46.27363" lon="6.80628">
        <ele>1432.5</ele>
        <time>2013-09-28T13:04:21Z</time>
      </trkpt>
      <trkpt lat="46.27361" lon="6.80631">
        <ele>1434.91</ele>
        <time>2013-09-28T13:04:38Z</time>
      </trkpt>
      <trkpt lat="46.27352" lon="6.80639">
        <ele>1440.67</ele>
        <time>2013-09-28T13:04:58Z</time>
      </trkpt>
      <trkpt lat="46.27337" lon="6.8065">
        <ele>1445.48</ele>
        <time>2013-09-28T13:05:18Z</time>
      </trkpt>
      <trkpt lat="46.27329" lon="6.80644">
        <ele>1445</ele>
        <time>2013-09-28T13:05:29Z</time>
      </trkpt>
      <trkpt lat="46.27314" lon="6.80636">
        <ele>1445.96</ele>
        <time>2013-09-28T13:05:50Z</time>
      </trkpt>
      <trkpt lat="46.27304" lon="6.80637">
        <ele>1445.96</ele>
        <time>2013-09-28T13:06:03Z</time>
      </trkpt>
      <trkpt lat="46.2729" lon="6.8065">
        <ele>1445.48</ele>
        <time>2013-09-28T13:06:16Z</time>
      </trkpt>
      <trkpt lat="46.27281" lon="6.80648">
        <ele>1440.67</ele>
        <time>2013-09-28T13:06:27Z</time>
      </trkpt>
      <trkpt lat="46.27279" lon="6.80649">
        <ele>1440.19</ele>
        <time>2013-09-28T13:06:30Z</time>
      </trkpt>
      <trkpt lat="46.2727" lon="6.80653">
        <ele>1441.63</ele>
        <time>2013-09-28T13:06:40Z</time>
      </trkpt>
      <trkpt lat="46.27264" lon="6.80659">
        <ele>1442.11</ele>
        <time>2013-09-28T13:06:50Z</time>
      </trkpt>
      <trkpt lat="46.27253" lon="6.8067">
        <ele>1443.08</ele>
        <time>2013-09-28T13:07:01Z</time>
      </trkpt>
      <trkpt lat="46.27243" lon="6.80679">
        <ele>1445.48</ele>
        <time>2013-09-28T13:07:12Z</time>
      </trkpt>
      <trkpt lat="46.27241" lon="6.80681">
        <ele>1445.48</ele>
        <time>2013-09-28T13:07:14Z</time>
      </trkpt>
      <trkpt lat="46.27234" lon="6.80682">
        <ele>1450.77</ele>
        <time>2013-09-28T13:07:28Z</time>
      </trkpt>
      <trkpt lat="46.2722" lon="6.8069">
        <ele>1458.46</ele>
        <time>2013-09-28T13:07:44Z</time>
      </trkpt>
      <trkpt lat="46.27218" lon="6.80693">
        <ele>1458.94</ele>
        <time>2013-09-28T13:07:46Z</time>
      </trkpt>
      <trkpt lat="46.27208" lon="6.80705">
        <ele>1459.9</ele>
        <time>2013-09-28T13:08:00Z</time>
      </trkpt>
      <trkpt lat="46.27201" lon="6.80717">
        <ele>1464.23</ele>
        <time>2013-09-28T13:08:16Z</time>
      </trkpt>
      <trkpt lat="46.27182" lon="6.80721">
        <ele>1471.44</ele>
        <time>2013-09-28T13:08:30Z</time>
      </trkpt>
      <trkpt lat="46.27173" lon="6.80733">
        <ele>1476.24</ele>
        <time>2013-09-28T13:08:44Z</time>
      </trkpt>
      <trkpt lat="46.27166" lon="6.80751">
        <ele>1478.16</ele>
        <time>2013-09-28T13:08:58Z</time>
      </trkpt>
      <trkpt lat="46.2717" lon="6.80749">
        <ele>1478.65</ele>
        <time>2013-09-28T13:09:14Z</time>
      </trkpt>
      <trkpt lat="46.2717" lon="6.80752">
        <ele>1482.49</ele>
        <time>2013-09-28T13:09:30Z</time>
      </trkpt>
      <trkpt lat="46.27165" lon="6.8076">
        <ele>1485.85</ele>
        <time>2013-09-28T13:09:46Z</time>
      </trkpt>
      <trkpt lat="46.27165" lon="6.80762">
        <ele>1488.26</ele>
        <time>2013-09-28T13:10:03Z</time>
      </trkpt>
      <trkpt lat="46.27154" lon="6.80766">
        <ele>1491.14</ele>
        <time>2013-09-28T13:10:19Z</time>
      </trkpt>
      <trkpt lat="46.27149" lon="6.80765">
        <ele>1493.06</ele>
        <time>2013-09-28T13:10:35Z</time>
      </trkpt>
      <trkpt lat="46.27146" lon="6.80769">
        <ele>1498.35</ele>
        <time>2013-09-28T13:10:54Z</time>
      </trkpt>
      <trkpt lat="46.27142" lon="6.80774">
        <ele>1502.2</ele>
        <time>2013-09-28T13:11:10Z</time>
      </trkpt>
      <trkpt lat="46.27111" lon="6.80794">
        <ele>1503.64</ele>
        <time>2013-09-28T13:11:25Z</time>
      </trkpt>
      <trkpt lat="46.27097" lon="6.80804">
        <ele>1502.68</ele>
        <time>2013-09-28T13:11:51Z</time>
      </trkpt>
      <trkpt lat="46.27089" lon="6.80817">
        <ele>1506.04</ele>
        <time>2013-09-28T13:12:06Z</time>
      </trkpt>
      <trkpt lat="46.27078" lon="6.80821">
        <ele>1504.12</ele>
        <time>2013-09-28T13:12:24Z</time>
      </trkpt>
      <trkpt lat="46.27072" lon="6.80838">
        <ele>1511.81</ele>
        <time>2013-09-28T13:12:40Z</time>
      </trkpt>
      <trkpt lat="46.27064" lon="6.80853">
        <ele>1517.1</ele>
        <time>2013-09-28T13:12:56Z</time>
      </trkpt>
      <trkpt lat="46.27053" lon="6.80858">
        <ele>1519.98</ele>
        <time>2013-09-28T13:13:13Z</time>
      </trkpt>
      <trkpt lat="46.27037" lon="6.80867">
        <ele>1519.5</ele>
        <time>2013-09-28T13:13:28Z</time>
      </trkpt>
      <trkpt lat="46.27031" lon="6.80872">
        <ele>1520.46</ele>
        <time>2013-09-28T13:13:32Z</time>
      </trkpt>
      <trkpt lat="46.27026" lon="6.80886">
        <ele>1523.35</ele>
        <time>2013-09-28T13:13:45Z</time>
      </trkpt>
      <trkpt lat="46.27024" lon="6.80888">
        <ele>1523.83</ele>
        <time>2013-09-28T13:13:48Z</time>
      </trkpt>
      <trkpt lat="46.27014" lon="6.80895">
        <ele>1530.56</ele>
        <time>2013-09-28T13:14:02Z</time>
      </trkpt>
      <trkpt lat="46.27005" lon="6.80903">
        <ele>1536.8</ele>
        <time>2013-09-28T13:14:15Z</time>
      </trkpt>
      <trkpt lat="46.26993" lon="6.80912">
        <ele>1538.73</ele>
        <time>2013-09-28T13:14:27Z</time>
      </trkpt>
      <trkpt lat="46.26986" lon="6.80913">
        <ele>1537.77</ele>
        <time>2013-09-28T13:14:32Z</time>
      </trkpt>
      <trkpt lat="46.2697" lon="6.80916">
        <ele>1536.32</ele>
        <time>2013-09-28T13:14:47Z</time>
      </trkpt>
      <trkpt lat="46.26969" lon="6.80931">
        <ele>1533.92</ele>
        <time>2013-09-28T13:15:00Z</time>
      </trkpt>
      <trkpt lat="46.26967" lon="6.8094">
        <ele>1532.96</ele>
        <time>2013-09-28T13:15:04Z</time>
      </trkpt>
      <trkpt lat="46.26964" lon="6.80946">
        <ele>1531.52</ele>
        <time>2013-09-28T13:15:10Z</time>
      </trkpt>
      <trkpt lat="46.2696" lon="6.80948">
        <ele>1531.52</ele>
        <time>2013-09-28T13:15:13Z</time>
      </trkpt>
      <trkpt lat="46.26956" lon="6.80957">
        <ele>1533.44</ele>
        <time>2013-09-28T13:15:21Z</time>
      </trkpt>
      <trkpt lat="46.2695" lon="6.80962">
        <ele>1535.36</ele>
        <time>2013-09-28T13:15:33Z</time>
      </trkpt>
      <trkpt lat="46.26948" lon="6.80963">
        <ele>1536.32</ele>
        <time>2013-09-28T13:15:35Z</time>
      </trkpt>
      <trkpt lat="46.26944" lon="6.80968">
        <ele>1536.8</ele>
        <time>2013-09-28T13:15:40Z</time>
      </trkpt>
      <trkpt lat="46.2694" lon="6.80969">
        <ele>1537.29</ele>
        <time>2013-09-28T13:15:43Z</time>
      </trkpt>
      <trkpt lat="46.26934" lon="6.80976">
        <ele>1536.32</ele>
        <time>2013-09-28T13:15:49Z</time>
      </trkpt>
      <trkpt lat="46.2693" lon="6.80984">
        <ele>1536.32</ele>
        <time>2013-09-28T13:15:55Z</time>
      </trkpt>
      <trkpt lat="46.26923" lon="6.80987">
        <ele>1537.29</ele>
        <time>2013-09-28T13:16:02Z</time>
      </trkpt>
      <trkpt lat="46.26917" lon="6.80991">
        <ele>1542.57</ele>
        <time>2013-09-28T13:16:16Z</time>
      </trkpt>
      <trkpt lat="46.26914" lon="6.8099">
        <ele>1548.34</ele>
        <time>2013-09-28T13:16:31Z</time>
      </trkpt>
      <trkpt lat="46.26913" lon="6.80989">
        <ele>1549.3</ele>
        <time>2013-09-28T13:16:34Z</time>
      </trkpt>
      <trkpt lat="46.26908" lon="6.80979">
        <ele>1555.07</ele>
        <time>2013-09-28T13:16:48Z</time>
      </trkpt>
      <trkpt lat="46.26906" lon="6.80976">
        <ele>1560.84</ele>
        <time>2013-09-28T13:17:00Z</time>
      </trkpt>
      <trkpt lat="46.26907" lon="6.80968">
        <ele>1563.72</ele>
        <time>2013-09-28T13:17:14Z</time>
      </trkpt>
      <trkpt lat="46.26907" lon="6.80949">
        <ele>1566.61</ele>
        <time>2013-09-28T13:17:30Z</time>
      </trkpt>
      <trkpt lat="46.26899" lon="6.80932">
        <ele>1569.49</ele>
        <time>2013-09-28T13:17:45Z</time>
      </trkpt>
      <trkpt lat="46.26888" lon="6.80911">
        <ele>1570.45</ele>
        <time>2013-09-28T13:18:01Z</time>
      </trkpt>
      <trkpt lat="46.26872" lon="6.80891">
        <ele>1568.53</ele>
        <time>2013-09-28T13:18:15Z</time>
      </trkpt>
      <trkpt lat="46.26867" lon="6.80873">
        <ele>1567.09</ele>
        <time>2013-09-28T13:18:25Z</time>
      </trkpt>
      <trkpt lat="46.26863" lon="6.80863">
        <ele>1567.57</ele>
        <time>2013-09-28T13:18:34Z</time>
      </trkpt>
      <trkpt lat="46.26864" lon="6.8085">
        <ele>1568.53</ele>
        <time>2013-09-28T13:18:44Z</time>
      </trkpt>
      <trkpt lat="46.26863" lon="6.80844">
        <ele>1568.53</ele>
        <time>2013-09-28T13:18:48Z</time>
      </trkpt>
      <trkpt lat="46.26858" lon="6.80824">
        <ele>1569.01</ele>
        <time>2013-09-28T13:19:03Z</time>
      </trkpt>
      <trkpt lat="46.26856" lon="6.80818">
        <ele>1568.53</ele>
        <time>2013-09-28T13:19:11Z</time>
      </trkpt>
      <trkpt lat="46.26858" lon="6.80802">
        <ele>1568.53</ele>
        <time>2013-09-28T13:19:25Z</time>
      </trkpt>
      <trkpt lat="46.26852" lon="6.80785">
        <ele>1569.01</ele>
        <time>2013-09-28T13:19:41Z</time>
      </trkpt>
      <trkpt lat="46.26857" lon="6.80766">
        <ele>1574.3</ele>
        <time>2013-09-28T13:19:57Z</time>
      </trkpt>
      <trkpt lat="46.26857" lon="6.80747">
        <ele>1578.62</ele>
        <time>2013-09-28T13:20:11Z</time>
      </trkpt>
      <trkpt lat="46.26862" lon="6.80727">
        <ele>1585.83</ele>
        <time>2013-09-28T13:20:25Z</time>
      </trkpt>
      <trkpt lat="46.26851" lon="6.80718">
        <ele>1587.75</ele>
        <time>2013-09-28T13:20:38Z</time>
      </trkpt>
      <trkpt lat="46.26841" lon="6.80726">
        <ele>1590.64</ele>
        <time>2013-09-28T13:20:53Z</time>
      </trkpt>
      <trkpt lat="46.26834" lon="6.80726">
        <ele>1594.48</ele>
        <time>2013-09-28T13:21:06Z</time>
      </trkpt>
      <trkpt lat="46.26836" lon="6.80718">
        <ele>1598.33</ele>
        <time>2013-09-28T13:21:20Z</time>
      </trkpt>
      <trkpt lat="46.26823" lon="6.80716">
        <ele>1599.29</ele>
        <time>2013-09-28T13:21:34Z</time>
      </trkpt>
      <trkpt lat="46.26817" lon="6.80721">
        <ele>1601.69</ele>
        <time>2013-09-28T13:21:50Z</time>
      </trkpt>
      <trkpt lat="46.26818" lon="6.80714">
        <ele>1603.62</ele>
        <time>2013-09-28T13:22:02Z</time>
      </trkpt>
      <trkpt lat="46.26809" lon="6.80708">
        <ele>1609.86</ele>
        <time>2013-09-28T13:22:16Z</time>
      </trkpt>
      <trkpt lat="46.26799" lon="6.80699">
        <ele>1617.56</ele>
        <time>2013-09-28T13:22:31Z</time>
      </trkpt>
      <trkpt lat="46.26788" lon="6.80709">
        <ele>1623.32</ele>
        <time>2013-09-28T13:22:48Z</time>
      </trkpt>
      <trkpt lat="46.26784" lon="6.80708">
        <ele>1624.28</ele>
        <time>2013-09-28T13:22:59Z</time>
      </trkpt>
      <trkpt lat="46.26779" lon="6.80702">
        <ele>1625.73</ele>
        <time>2013-09-28T13:23:12Z</time>
      </trkpt>
      <trkpt lat="46.26776" lon="6.80723">
        <ele>1626.69</ele>
        <time>2013-09-28T13:23:26Z</time>
      </trkpt>
      <trkpt lat="46.26776" lon="6.80728">
        <ele>1627.17</ele>
        <time>2013-09-28T13:23:40Z</time>
      </trkpt>
      <trkpt lat="46.26771" lon="6.80717">
        <ele>1633.42</ele>
        <time>2013-09-28T13:23:53Z</time>
      </trkpt>
      <trkpt lat="46.26771" lon="6.80719">
        <ele>1633.42</ele>
        <time>2013-09-28T13:24:11Z</time>
      </trkpt>
      <trkpt lat="46.26769" lon="6.80717">
        <ele>1637.26</ele>
        <time>2013-09-28T13:24:32Z</time>
      </trkpt>
      <trkpt lat="46.26773" lon="6.80712">
        <ele>1644.47</ele>
        <time>2013-09-28T13:24:48Z</time>
      </trkpt>
      <trkpt lat="46.26753" lon="6.80715">
        <ele>1647.36</ele>
        <time>2013-09-28T13:25:01Z</time>
      </trkpt>
      <trkpt lat="46.26735" lon="6.8073">
        <ele>1656.49</ele>
        <time>2013-09-28T13:25:22Z</time>
      </trkpt>
      <trkpt lat="46.26728" lon="6.80743">
        <ele>1662.74</ele>
        <time>2013-09-28T13:25:36Z</time>
      </trkpt>
      <trkpt lat="46.26717" lon="6.80746">
        <ele>1667.54</ele>
        <time>2013-09-28T13:25:53Z</time>
      </trkpt>
      <trkpt lat="46.26709" lon="6.80749">
        <ele>1669.95</ele>
        <time>2013-09-28T13:26:05Z</time>
      </trkpt>
      <trkpt lat="46.26698" lon="6.80752">
        <ele>1674.75</ele>
        <time>2013-09-28T13:26:21Z</time>
      </trkpt>
      <trkpt lat="46.26693" lon="6.80755">
        <ele>1677.64</ele>
        <time>2013-09-28T13:26:37Z</time>
      </trkpt>
      <trkpt lat="46.26693" lon="6.80761">
        <ele>1678.6</ele>
        <time>2013-09-28T13:27:04Z</time>
      </trkpt>
      <trkpt lat="46.26694" lon="6.8076">
        <ele>1679.08</ele>
        <time>2013-09-28T13:27:20Z</time>
      </trkpt>
      <trkpt lat="46.26693" lon="6.80759">
        <ele>1679.08</ele>
        <time>2013-09-28T13:27:43Z</time>
      </trkpt>
      <trkpt lat="46.26692" lon="6.80759">
        <ele>1679.08</ele>
        <time>2013-09-28T13:28:02Z</time>
      </trkpt>
      <trkpt lat="46.2669" lon="6.80761">
        <ele>1680.52</ele>
        <time>2013-09-28T13:28:14Z</time>
      </trkpt>
      <trkpt lat="46.26684" lon="6.80763">
        <ele>1681.96</ele>
        <time>2013-09-28T13:28:29Z</time>
      </trkpt>
      <trkpt lat="46.26685" lon="6.80765">
        <ele>1681.48</ele>
        <time>2013-09-28T13:28:43Z</time>
      </trkpt>
      <trkpt lat="46.26672" lon="6.80765">
        <ele>1681.96</ele>
        <time>2013-09-28T13:28:56Z</time>
      </trkpt>
      <trkpt lat="46.26653" lon="6.80761">
        <ele>1686.77</ele>
        <time>2013-09-28T13:29:10Z</time>
      </trkpt>
      <trkpt lat="46.26642" lon="6.80764">
        <ele>1690.14</ele>
        <time>2013-09-28T13:29:23Z</time>
      </trkpt>
      <trkpt lat="46.26635" lon="6.80766">
        <ele>1694.46</ele>
        <time>2013-09-28T13:29:39Z</time>
      </trkpt>
      <trkpt lat="46.26626" lon="6.80762">
        <ele>1697.34</ele>
        <time>2013-09-28T13:29:54Z</time>
      </trkpt>
      <trkpt lat="46.26619" lon="6.80757">
        <ele>1697.34</ele>
        <time>2013-09-28T13:30:10Z</time>
      </trkpt>
      <trkpt lat="46.26619" lon="6.80755">
        <ele>1700.23</ele>
        <time>2013-09-28T13:30:25Z</time>
      </trkpt>
      <trkpt lat="46.26617" lon="6.80751">
        <ele>1698.79</ele>
        <time>2013-09-28T13:30:37Z</time>
      </trkpt>
      <trkpt lat="46.26616" lon="6.80739">
        <ele>1698.79</ele>
        <time>2013-09-28T13:30:52Z</time>
      </trkpt>
      <trkpt lat="46.26612" lon="6.80735">
        <ele>1699.27</ele>
        <time>2013-09-28T13:31:10Z</time>
      </trkpt>
      <trkpt lat="46.26613" lon="6.80736">
        <ele>1699.27</ele>
        <time>2013-09-28T13:31:42Z</time>
      </trkpt>
      <trkpt lat="46.26612" lon="6.80734">
        <ele>1698.79</ele>
        <time>2013-09-28T13:31:58Z</time>
      </trkpt>
      <trkpt lat="46.26612" lon="6.80734">
        <ele>1698.79</ele>
        <time>2013-09-28T13:32:06Z</time>
      </trkpt>
      <trkpt lat="46.26601" lon="6.80728">
        <ele>1698.31</ele>
        <time>2013-09-28T13:32:18Z</time>
      </trkpt>
      <trkpt lat="46.26589" lon="6.80723">
        <ele>1696.86</ele>
        <time>2013-09-28T13:32:33Z</time>
      </trkpt>
      <trkpt lat="46.26591" lon="6.80723">
        <ele>1696.86</ele>
        <time>2013-09-28T13:33:04Z</time>
      </trkpt>
      <trkpt lat="46.26591" lon="6.80723">
        <ele>1696.38</ele>
        <time>2013-09-28T13:33:22Z</time>
      </trkpt>
      <trkpt lat="46.26592" lon="6.8072">
        <ele>1694.46</ele>
        <time>2013-09-28T13:33:49Z</time>
      </trkpt>
      <trkpt lat="46.26593" lon="6.8072">
        <ele>1694.94</ele>
        <time>2013-09-28T13:34:17Z</time>
      </trkpt>
      <trkpt lat="46.26592" lon="6.80721">
        <ele>1694.46</ele>
        <time>2013-09-28T13:34:44Z</time>
      </trkpt>
      <trkpt lat="46.26592" lon="6.80721">
        <ele>1694.94</ele>
        <time>2013-09-28T13:35:02Z</time>
      </trkpt>
      <trkpt lat="46.26593" lon="6.80722">
        <ele>1694.94</ele>
        <time>2013-09-28T13:35:20Z</time>
      </trkpt>
      <trkpt lat="46.26592" lon="6.80722">
        <ele>1695.42</ele>
        <time>2013-09-28T13:35:42Z</time>
      </trkpt>
      <trkpt lat="46.26589" lon="6.80722">
        <ele>1693.98</ele>
        <time>2013-09-28T13:36:04Z</time>
      </trkpt>
      <trkpt lat="46.26589" lon="6.80721">
        <ele>1693.02</ele>
        <time>2013-09-28T13:36:30Z</time>
      </trkpt>
      <trkpt lat="46.26589" lon="6.80722">
        <ele>1692.54</ele>
        <time>2013-09-28T13:36:51Z</time>
      </trkpt>
      <trkpt lat="46.26589" lon="6.8072">
        <ele>1692.06</ele>
        <time>2013-09-28T13:37:04Z</time>
      </trkpt>
      <trkpt lat="46.26584" lon="6.80713">
        <ele>1691.58</ele>
        <time>2013-09-28T13:37:20Z</time>
      </trkpt>
      <trkpt lat="46.2658" lon="6.80699">
        <ele>1692.06</ele>
        <time>2013-09-28T13:37:33Z</time>
      </trkpt>
      <trkpt lat="46.26578" lon="6.80695">
        <ele>1693.02</ele>
        <time>2013-09-28T13:37:37Z</time>
      </trkpt>
      <trkpt lat="46.26575" lon="6.80688">
        <ele>1693.5</ele>
        <time>2013-09-28T13:37:42Z</time>
      </trkpt>
      <trkpt lat="46.26567" lon="6.80671">
        <ele>1694.46</ele>
        <time>2013-09-28T13:37:55Z</time>
      </trkpt>
      <trkpt lat="46.26563" lon="6.80656">
        <ele>1698.79</ele>
        <time>2013-09-28T13:38:07Z</time>
      </trkpt>
      <trkpt lat="46.26561" lon="6.80644">
        <ele>1700.23</ele>
        <time>2013-09-28T13:38:18Z</time>
      </trkpt>
      <trkpt lat="46.26558" lon="6.80638">
        <ele>1700.71</ele>
        <time>2013-09-28T13:38:24Z</time>
      </trkpt>
      <trkpt lat="46.26557" lon="6.80636">
        <ele>1701.19</ele>
        <time>2013-09-28T13:38:26Z</time>
      </trkpt>
      <trkpt lat="46.26552" lon="6.80629">
        <ele>1702.15</ele>
        <time>2013-09-28T13:38:32Z</time>
      </trkpt>
      <trkpt lat="46.26544" lon="6.80616">
        <ele>1705.52</ele>
        <time>2013-09-28T13:38:44Z</time>
      </trkpt>
      <trkpt lat="46.26535" lon="6.80611">
        <ele>1708.88</ele>
        <time>2013-09-28T13:38:56Z</time>
      </trkpt>
      <trkpt lat="46.26528" lon="6.8061">
        <ele>1711.76</ele>
        <time>2013-09-28T13:39:05Z</time>
      </trkpt>
      <trkpt lat="46.26522" lon="6.8061">
        <ele>1713.69</ele>
        <time>2013-09-28T13:39:11Z</time>
      </trkpt>
      <trkpt lat="46.26514" lon="6.80601">
        <ele>1718.97</ele>
        <time>2013-09-28T13:39:25Z</time>
      </trkpt>
      <trkpt lat="46.26511" lon="6.80591">
        <ele>1721.38</ele>
        <time>2013-09-28T13:39:35Z</time>
      </trkpt>
      <trkpt lat="46.26511" lon="6.80588">
        <ele>1722.34</ele>
        <time>2013-09-28T13:39:38Z</time>
      </trkpt>
      <trkpt lat="46.26509" lon="6.80584">
        <ele>1721.86</ele>
        <time>2013-09-28T13:39:41Z</time>
      </trkpt>
      <trkpt lat="46.26501" lon="6.80568">
        <ele>1723.78</ele>
        <time>2013-09-28T13:39:55Z</time>
      </trkpt>
      <trkpt lat="46.2649" lon="6.80553">
        <ele>1725.7</ele>
        <time>2013-09-28T13:40:10Z</time>
      </trkpt>
      <trkpt lat="46.26481" lon="6.80544">
        <ele>1726.67</ele>
        <time>2013-09-28T13:40:19Z</time>
      </trkpt>
      <trkpt lat="46.26466" lon="6.80537">
        <ele>1731.95</ele>
        <time>2013-09-28T13:40:36Z</time>
      </trkpt>
      <trkpt lat="46.26454" lon="6.80527">
        <ele>1733.88</ele>
        <time>2013-09-28T13:40:50Z</time>
      </trkpt>
      <trkpt lat="46.2645" lon="6.80524">
        <ele>1733.88</ele>
        <time>2013-09-28T13:40:54Z</time>
      </trkpt>
      <trkpt lat="46.26445" lon="6.80515">
        <ele>1734.36</ele>
        <time>2013-09-28T13:41:02Z</time>
      </trkpt>
      <trkpt lat="46.2644" lon="6.80495">
        <ele>1733.88</ele>
        <time>2013-09-28T13:41:14Z</time>
      </trkpt>
      <trkpt lat="46.2644" lon="6.80494">
        <ele>1733.88</ele>
        <time>2013-09-28T13:41:15Z</time>
      </trkpt>
      <trkpt lat="46.26437" lon="6.80488">
        <ele>1732.91</ele>
        <time>2013-09-28T13:41:19Z</time>
      </trkpt>
      <trkpt lat="46.26433" lon="6.80472">
        <ele>1732.91</ele>
        <time>2013-09-28T13:41:30Z</time>
      </trkpt>
      <trkpt lat="46.26436" lon="6.80448">
        <ele>1732.43</ele>
        <time>2013-09-28T13:41:44Z</time>
      </trkpt>
      <trkpt lat="46.26435" lon="6.8044">
        <ele>1733.39</ele>
        <time>2013-09-28T13:41:50Z</time>
      </trkpt>
      <trkpt lat="46.26434" lon="6.80422">
        <ele>1737.24</ele>
        <time>2013-09-28T13:42:01Z</time>
      </trkpt>
      <trkpt lat="46.26435" lon="6.80412">
        <ele>1740.12</ele>
        <time>2013-09-28T13:42:09Z</time>
      </trkpt>
      <trkpt lat="46.26431" lon="6.80404">
        <ele>1742.05</ele>
        <time>2013-09-28T13:42:17Z</time>
      </trkpt>
      <trkpt lat="46.26431" lon="6.80401">
        <ele>1742.53</ele>
        <time>2013-09-28T13:42:19Z</time>
      </trkpt>
      <trkpt lat="46.26428" lon="6.80379">
        <ele>1744.45</ele>
        <time>2013-09-28T13:42:32Z</time>
      </trkpt>
      <trkpt lat="46.26428" lon="6.80378">
        <ele>1744.45</ele>
        <time>2013-09-28T13:42:33Z</time>
      </trkpt>
      <trkpt lat="46.26428" lon="6.80373">
        <ele>1744.45</ele>
        <time>2013-09-28T13:42:35Z</time>
      </trkpt>
      <trkpt lat="46.26427" lon="6.80367">
        <ele>1745.41</ele>
        <time>2013-09-28T13:42:39Z</time>
      </trkpt>
      <trkpt lat="46.26416" lon="6.80351">
        <ele>1745.41</ele>
        <time>2013-09-28T13:42:53Z</time>
      </trkpt>
      <trkpt lat="46.26402" lon="6.80333">
        <ele>1743.97</ele>
        <time>2013-09-28T13:43:07Z</time>
      </trkpt>
      <trkpt lat="46.26394" lon="6.80325">
        <ele>1747.81</ele>
        <time>2013-09-28T13:43:17Z</time>
      </trkpt>
      <trkpt lat="46.2639" lon="6.80323">
        <ele>1750.22</ele>
        <time>2013-09-28T13:43:23Z</time>
      </trkpt>
      <trkpt lat="46.26377" lon="6.80324">
        <ele>1754.06</ele>
        <time>2013-09-28T13:43:36Z</time>
      </trkpt>
      <trkpt lat="46.26363" lon="6.80325">
        <ele>1756.47</ele>
        <time>2013-09-28T13:43:50Z</time>
      </trkpt>
      <trkpt lat="46.26349" lon="6.80326">
        <ele>1760.31</ele>
        <time>2013-09-28T13:44:03Z</time>
      </trkpt>
      <trkpt lat="46.26336" lon="6.8033">
        <ele>1765.6</ele>
        <time>2013-09-28T13:44:15Z</time>
      </trkpt>
      <trkpt lat="46.26331" lon="6.80332">
        <ele>1767.52</ele>
        <time>2013-09-28T13:44:20Z</time>
      </trkpt>
      <trkpt lat="46.26318" lon="6.80339">
        <ele>1771.37</ele>
        <time>2013-09-28T13:44:35Z</time>
      </trkpt>
      <trkpt lat="46.26307" lon="6.80342">
        <ele>1775.21</ele>
        <time>2013-09-28T13:44:48Z</time>
      </trkpt>
      <trkpt lat="46.26299" lon="6.80343">
        <ele>1777.13</ele>
        <time>2013-09-28T13:44:58Z</time>
      </trkpt>
      <trkpt lat="46.26297" lon="6.80342">
        <ele>1777.13</ele>
        <time>2013-09-28T13:45:00Z</time>
      </trkpt>
      <trkpt lat="46.26294" lon="6.8033">
        <ele>1779.54</ele>
        <time>2013-09-28T13:45:10Z</time>
      </trkpt>
      <trkpt lat="46.26292" lon="6.80324">
        <ele>1780.02</ele>
        <time>2013-09-28T13:45:16Z</time>
      </trkpt>
      <trkpt lat="46.26289" lon="6.80305">
        <ele>1781.46</ele>
        <time>2013-09-28T13:45:31Z</time>
      </trkpt>
      <trkpt lat="46.26286" lon="6.80296">
        <ele>1782.42</ele>
        <time>2013-09-28T13:45:38Z</time>
      </trkpt>
      <trkpt lat="46.26281" lon="6.80291">
        <ele>1785.31</ele>
        <time>2013-09-28T13:45:45Z</time>
      </trkpt>
      <trkpt lat="46.26282" lon="6.80274">
        <ele>1786.27</ele>
        <time>2013-09-28T13:45:57Z</time>
      </trkpt>
      <trkpt lat="46.26284" lon="6.80252">
        <ele>1785.79</ele>
        <time>2013-09-28T13:46:12Z</time>
      </trkpt>
      <trkpt lat="46.26284" lon="6.80251">
        <ele>1785.79</ele>
        <time>2013-09-28T13:46:13Z</time>
      </trkpt>
      <trkpt lat="46.26288" lon="6.80239">
        <ele>1785.79</ele>
        <time>2013-09-28T13:46:22Z</time>
      </trkpt>
      <trkpt lat="46.26291" lon="6.80234">
        <ele>1784.34</ele>
        <time>2013-09-28T13:46:26Z</time>
      </trkpt>
      <trkpt lat="46.26291" lon="6.80221">
        <ele>1785.31</ele>
        <time>2013-09-28T13:46:34Z</time>
      </trkpt>
      <trkpt lat="46.26289" lon="6.80207">
        <ele>1786.75</ele>
        <time>2013-09-28T13:46:43Z</time>
      </trkpt>
      <trkpt lat="46.26285" lon="6.80201">
        <ele>1788.19</ele>
        <time>2013-09-28T13:46:48Z</time>
      </trkpt>
      <trkpt lat="46.26284" lon="6.8019">
        <ele>1790.11</ele>
        <time>2013-09-28T13:46:56Z</time>
      </trkpt>
      <trkpt lat="46.26278" lon="6.80185">
        <ele>1791.55</ele>
        <time>2013-09-28T13:47:04Z</time>
      </trkpt>
      <trkpt lat="46.26267" lon="6.80185">
        <ele>1797.8</ele>
        <time>2013-09-28T13:47:18Z</time>
      </trkpt>
      <trkpt lat="46.26264" lon="6.80178">
        <ele>1800.69</ele>
        <time>2013-09-28T13:47:30Z</time>
      </trkpt>
      <trkpt lat="46.26269" lon="6.80164">
        <ele>1803.09</ele>
        <time>2013-09-28T13:47:43Z</time>
      </trkpt>
      <trkpt lat="46.2627" lon="6.80151">
        <ele>1802.13</ele>
        <time>2013-09-28T13:47:54Z</time>
      </trkpt>
      <trkpt lat="46.26269" lon="6.80137">
        <ele>1806.45</ele>
        <time>2013-09-28T13:48:08Z</time>
      </trkpt>
      <trkpt lat="46.26268" lon="6.80127">
        <ele>1809.34</ele>
        <time>2013-09-28T13:48:20Z</time>
      </trkpt>
      <trkpt lat="46.26268" lon="6.80124">
        <ele>1810.78</ele>
        <time>2013-09-28T13:48:25Z</time>
      </trkpt>
      <trkpt lat="46.26269" lon="6.80111">
        <ele>1816.55</ele>
        <time>2013-09-28T13:48:39Z</time>
      </trkpt>
      <trkpt lat="46.26266" lon="6.80099">
        <ele>1819.43</ele>
        <time>2013-09-28T13:48:51Z</time>
      </trkpt>
      <trkpt lat="46.26264" lon="6.80091">
        <ele>1822.32</ele>
        <time>2013-09-28T13:49:01Z</time>
      </trkpt>
      <trkpt lat="46.26262" lon="6.80074">
        <ele>1823.76</ele>
        <time>2013-09-28T13:49:13Z</time>
      </trkpt>
      <trkpt lat="46.26259" lon="6.80062">
        <ele>1826.64</ele>
        <time>2013-09-28T13:49:25Z</time>
      </trkpt>
      <trkpt lat="46.26254" lon="6.80053">
        <ele>1830.01</ele>
        <time>2013-09-28T13:49:38Z</time>
      </trkpt>
      <trkpt lat="46.26252" lon="6.80043">
        <ele>1831.93</ele>
        <time>2013-09-28T13:49:50Z</time>
      </trkpt>
      <trkpt lat="46.26247" lon="6.80037">
        <ele>1831.93</ele>
        <time>2013-09-28T13:50:05Z</time>
      </trkpt>
      <trkpt lat="46.26243" lon="6.80024">
        <ele>1832.41</ele>
        <time>2013-09-28T13:50:15Z</time>
      </trkpt>
      <trkpt lat="46.26238" lon="6.80011">
        <ele>1835.29</ele>
        <time>2013-09-28T13:50:28Z</time>
      </trkpt>
      <trkpt lat="46.26234" lon="6.80001">
        <ele>1840.58</ele>
        <time>2013-09-28T13:50:40Z</time>
      </trkpt>
      <trkpt lat="46.26234" lon="6.79994">
        <ele>1841.54</ele>
        <time>2013-09-28T13:50:53Z</time>
      </trkpt>
      <trkpt lat="46.26229" lon="6.79986">
        <ele>1842.5</ele>
        <time>2013-09-28T13:51:05Z</time>
      </trkpt>
      <trkpt lat="46.26227" lon="6.79981">
        <ele>1844.91</ele>
        <time>2013-09-28T13:51:16Z</time>
      </trkpt>
      <trkpt lat="46.26224" lon="6.79968">
        <ele>1848.27</ele>
        <time>2013-09-28T13:51:28Z</time>
      </trkpt>
      <trkpt lat="46.26224" lon="6.79963">
        <ele>1849.23</ele>
        <time>2013-09-28T13:51:34Z</time>
      </trkpt>
      <trkpt lat="46.26223" lon="6.7995">
        <ele>1850.68</ele>
        <time>2013-09-28T13:51:46Z</time>
      </trkpt>
      <trkpt lat="46.26225" lon="6.79942">
        <ele>1854.04</ele>
        <time>2013-09-28T13:51:55Z</time>
      </trkpt>
      <trkpt lat="46.2623" lon="6.79935">
        <ele>1853.08</ele>
        <time>2013-09-28T13:52:05Z</time>
      </trkpt>
      <trkpt lat="46.26231" lon="6.79933">
        <ele>1853.56</ele>
        <time>2013-09-28T13:52:07Z</time>
      </trkpt>
      <trkpt lat="46.26228" lon="6.79924">
        <ele>1855.48</ele>
        <time>2013-09-28T13:52:19Z</time>
      </trkpt>
      <trkpt lat="46.26223" lon="6.79915">
        <ele>1857.4</ele>
        <time>2013-09-28T13:52:31Z</time>
      </trkpt>
      <trkpt lat="46.26221" lon="6.79909">
        <ele>1859.81</ele>
        <time>2013-09-28T13:52:38Z</time>
      </trkpt>
      <trkpt lat="46.26216" lon="6.79904">
        <ele>1862.21</ele>
        <time>2013-09-28T13:52:49Z</time>
      </trkpt>
      <trkpt lat="46.26215" lon="6.79898">
        <ele>1866.06</ele>
        <time>2013-09-28T13:52:59Z</time>
      </trkpt>
      <trkpt lat="46.26215" lon="6.79891">
        <ele>1867.5</ele>
        <time>2013-09-28T13:53:09Z</time>
      </trkpt>
      <trkpt lat="46.26209" lon="6.79881">
        <ele>1869.42</ele>
        <time>2013-09-28T13:53:21Z</time>
      </trkpt>
      <trkpt lat="46.26207" lon="6.79876">
        <ele>1873.27</ele>
        <time>2013-09-28T13:53:31Z</time>
      </trkpt>
      <trkpt lat="46.26205" lon="6.79868">
        <ele>1877.59</ele>
        <time>2013-09-28T13:53:42Z</time>
      </trkpt>
      <trkpt lat="46.26201" lon="6.79861">
        <ele>1879.51</ele>
        <time>2013-09-28T13:53:54Z</time>
      </trkpt>
      <trkpt lat="46.26194" lon="6.79854">
        <ele>1882.4</ele>
        <time>2013-09-28T13:54:07Z</time>
      </trkpt>
      <trkpt lat="46.26186" lon="6.79853">
        <ele>1883.84</ele>
        <time>2013-09-28T13:54:20Z</time>
      </trkpt>
      <trkpt lat="46.26179" lon="6.79852">
        <ele>1885.28</ele>
        <time>2013-09-28T13:54:29Z</time>
      </trkpt>
      <trkpt lat="46.26172" lon="6.79854">
        <ele>1888.17</ele>
        <time>2013-09-28T13:54:41Z</time>
      </trkpt>
      <trkpt lat="46.26164" lon="6.7986">
        <ele>1891.05</ele>
        <time>2013-09-28T13:54:52Z</time>
      </trkpt>
      <trkpt lat="46.26159" lon="6.7987">
        <ele>1893.45</ele>
        <time>2013-09-28T13:55:03Z</time>
      </trkpt>
      <trkpt lat="46.26159" lon="6.79874">
        <ele>1892.97</ele>
        <time>2013-09-28T13:55:07Z</time>
      </trkpt>
      <trkpt lat="46.26157" lon="6.7987">
        <ele>1892.97</ele>
        <time>2013-09-28T13:55:19Z</time>
      </trkpt>
      <trkpt lat="46.26156" lon="6.79859">
        <ele>1894.42</ele>
        <time>2013-09-28T13:55:30Z</time>
      </trkpt>
      <trkpt lat="46.26158" lon="6.79848">
        <ele>1897.3</ele>
        <time>2013-09-28T13:55:43Z</time>
      </trkpt>
      <trkpt lat="46.26156" lon="6.79842">
        <ele>1898.74</ele>
        <time>2013-09-28T13:55:55Z</time>
      </trkpt>
      <trkpt lat="46.26161" lon="6.79827">
        <ele>1901.63</ele>
        <time>2013-09-28T13:56:08Z</time>
      </trkpt>
      <trkpt lat="46.26164" lon="6.79821">
        <ele>1903.07</ele>
        <time>2013-09-28T13:56:18Z</time>
      </trkpt>
      <trkpt lat="46.26154" lon="6.7982">
        <ele>1905.47</ele>
        <time>2013-09-28T13:56:30Z</time>
      </trkpt>
      <trkpt lat="46.26154" lon="6.79819">
        <ele>1905.95</ele>
        <time>2013-09-28T13:56:39Z</time>
      </trkpt>
      <trkpt lat="46.26155" lon="6.79817">
        <ele>1905.47</ele>
        <time>2013-09-28T13:57:07Z</time>
      </trkpt>
      <trkpt lat="46.26156" lon="6.79813">
        <ele>1905.95</ele>
        <time>2013-09-28T13:57:14Z</time>
      </trkpt>
      <trkpt lat="46.26146" lon="6.79808">
        <ele>1909.32</ele>
        <time>2013-09-28T13:57:22Z</time>
      </trkpt>
      <trkpt lat="46.26147" lon="6.79808">
        <ele>1910.28</ele>
        <time>2013-09-28T13:57:24Z</time>
      </trkpt>
      <trkpt lat="46.26149" lon="6.79805">
        <ele>1910.76</ele>
        <time>2013-09-28T13:57:28Z</time>
      </trkpt>
      <trkpt lat="46.26147" lon="6.798">
        <ele>1912.2</ele>
        <time>2013-09-28T13:57:33Z</time>
      </trkpt>
      <trkpt lat="46.26144" lon="6.79789">
        <ele>1916.04</ele>
        <time>2013-09-28T13:57:45Z</time>
      </trkpt>
      <trkpt lat="46.26143" lon="6.79784">
        <ele>1917.97</ele>
        <time>2013-09-28T13:57:51Z</time>
      </trkpt>
      <trkpt lat="46.2614" lon="6.79781">
        <ele>1919.41</ele>
        <time>2013-09-28T13:57:56Z</time>
      </trkpt>
      <trkpt lat="46.26138" lon="6.7978">
        <ele>1919.89</ele>
        <time>2013-09-28T13:58:05Z</time>
      </trkpt>
      <trkpt lat="46.26123" lon="6.7977">
        <ele>1917.97</ele>
        <time>2013-09-28T13:58:20Z</time>
      </trkpt>
      <trkpt lat="46.26119" lon="6.79766">
        <ele>1917.49</ele>
        <time>2013-09-28T13:58:25Z</time>
      </trkpt>
      <trkpt lat="46.261" lon="6.79765">
        <ele>1915.56</ele>
        <time>2013-09-28T13:58:41Z</time>
      </trkpt>
      <trkpt lat="46.26081" lon="6.79756">
        <ele>1915.08</ele>
        <time>2013-09-28T13:58:55Z</time>
      </trkpt>
      <trkpt lat="46.26063" lon="6.79743">
        <ele>1914.12</ele>
        <time>2013-09-28T13:59:09Z</time>
      </trkpt>
      <trkpt lat="46.26046" lon="6.79733">
        <ele>1912.68</ele>
        <time>2013-09-28T13:59:23Z</time>
      </trkpt>
      <trkpt lat="46.26041" lon="6.7973">
        <ele>1912.68</ele>
        <time>2013-09-28T13:59:27Z</time>
      </trkpt>
      <trkpt lat="46.26024" lon="6.79712">
        <ele>1910.76</ele>
        <time>2013-09-28T13:59:42Z</time>
      </trkpt>
      <trkpt lat="46.26018" lon="6.79702">
        <ele>1908.83</ele>
        <time>2013-09-28T13:59:48Z</time>
      </trkpt>
      <trkpt lat="46.26014" lon="6.79684">
        <ele>1906.43</ele>
        <time>2013-09-28T13:59:58Z</time>
      </trkpt>
      <trkpt lat="46.2601" lon="6.7968">
        <ele>1905.47</ele>
        <time>2013-09-28T14:00:02Z</time>
      </trkpt>
      <trkpt lat="46.2602" lon="6.79657">
        <ele>1903.55</ele>
        <time>2013-09-28T14:00:15Z</time>
      </trkpt>
      <trkpt lat="46.2602" lon="6.79649">
        <ele>1902.59</ele>
        <time>2013-09-28T14:00:28Z</time>
      </trkpt>
      <trkpt lat="46.26021" lon="6.79646">
        <ele>1902.11</ele>
        <time>2013-09-28T14:00:31Z</time>
      </trkpt>
      <trkpt lat="46.26022" lon="6.79643">
        <ele>1902.11</ele>
        <time>2013-09-28T14:00:33Z</time>
      </trkpt>
      <trkpt lat="46.26021" lon="6.79633">
        <ele>1902.11</ele>
        <time>2013-09-28T14:00:38Z</time>
      </trkpt>
      <trkpt lat="46.26024" lon="6.79605">
        <ele>1900.66</ele>
        <time>2013-09-28T14:00:53Z</time>
      </trkpt>
      <trkpt lat="46.26024" lon="6.79601">
        <ele>1900.66</ele>
        <time>2013-09-28T14:00:55Z</time>
      </trkpt>
      <trkpt lat="46.26026" lon="6.79584">
        <ele>1900.18</ele>
        <time>2013-09-28T14:01:08Z</time>
      </trkpt>
      <trkpt lat="46.26031" lon="6.7956">
        <ele>1899.7</ele>
        <time>2013-09-28T14:01:21Z</time>
      </trkpt>
      <trkpt lat="46.26037" lon="6.79542">
        <ele>1898.74</ele>
        <time>2013-09-28T14:01:33Z</time>
      </trkpt>
      <trkpt lat="46.26043" lon="6.79531">
        <ele>1897.3</ele>
        <time>2013-09-28T14:01:39Z</time>
      </trkpt>
      <trkpt lat="46.26055" lon="6.79506">
        <ele>1895.38</ele>
        <time>2013-09-28T14:01:53Z</time>
      </trkpt>
      <trkpt lat="46.26061" lon="6.79494">
        <ele>1895.38</ele>
        <time>2013-09-28T14:02:00Z</time>
      </trkpt>
      <trkpt lat="46.26062" lon="6.79489">
        <ele>1895.38</ele>
        <time>2013-09-28T14:02:03Z</time>
      </trkpt>
      <trkpt lat="46.2607" lon="6.79468">
        <ele>1895.86</ele>
        <time>2013-09-28T14:02:16Z</time>
      </trkpt>
      <trkpt lat="46.26074" lon="6.79462">
        <ele>1895.86</ele>
        <time>2013-09-28T14:02:20Z</time>
      </trkpt>
      <trkpt lat="46.26078" lon="6.79449">
        <ele>1894.9</ele>
        <time>2013-09-28T14:02:27Z</time>
      </trkpt>
      <trkpt lat="46.26084" lon="6.79421">
        <ele>1893.93</ele>
        <time>2013-09-28T14:02:43Z</time>
      </trkpt>
      <trkpt lat="46.26088" lon="6.79394">
        <ele>1892.01</ele>
        <time>2013-09-28T14:02:56Z</time>
      </trkpt>
      <trkpt lat="46.26088" lon="6.7939">
        <ele>1892.01</ele>
        <time>2013-09-28T14:02:58Z</time>
      </trkpt>
      <trkpt lat="46.26093" lon="6.79363">
        <ele>1890.09</ele>
        <time>2013-09-28T14:03:11Z</time>
      </trkpt>
      <trkpt lat="46.26096" lon="6.79348">
        <ele>1888.65</ele>
        <time>2013-09-28T14:03:20Z</time>
      </trkpt>
      <trkpt lat="46.26097" lon="6.79342">
        <ele>1887.69</ele>
        <time>2013-09-28T14:03:24Z</time>
      </trkpt>
      <trkpt lat="46.26098" lon="6.79335">
        <ele>1887.21</ele>
        <time>2013-09-28T14:03:28Z</time>
      </trkpt>
      <trkpt lat="46.26103" lon="6.79314">
        <ele>1887.21</ele>
        <time>2013-09-28T14:03:39Z</time>
      </trkpt>
      <trkpt lat="46.26101" lon="6.79309">
        <ele>1886.72</ele>
        <time>2013-09-28T14:03:42Z</time>
      </trkpt>
      <trkpt lat="46.261" lon="6.79305">
        <ele>1886.24</ele>
        <time>2013-09-28T14:03:44Z</time>
      </trkpt>
      <trkpt lat="46.26101" lon="6.79272">
        <ele>1881.92</ele>
        <time>2013-09-28T14:03:59Z</time>
      </trkpt>
      <trkpt lat="46.26091" lon="6.79271">
        <ele>1880.48</ele>
        <time>2013-09-28T14:04:05Z</time>
      </trkpt>
      <trkpt lat="46.26071" lon="6.79275">
        <ele>1875.19</ele>
        <time>2013-09-28T14:04:20Z</time>
      </trkpt>
      <trkpt lat="46.26065" lon="6.79283">
        <ele>1872.3</ele>
        <time>2013-09-28T14:04:32Z</time>
      </trkpt>
      <trkpt lat="46.26064" lon="6.79285">
        <ele>1871.82</ele>
        <time>2013-09-28T14:04:33Z</time>
      </trkpt>
      <trkpt lat="46.26066" lon="6.79299">
        <ele>1868.94</ele>
        <time>2013-09-28T14:04:46Z</time>
      </trkpt>
      <trkpt lat="46.26069" lon="6.79315">
        <ele>1865.09</ele>
        <time>2013-09-28T14:04:57Z</time>
      </trkpt>
      <trkpt lat="46.26068" lon="6.79325">
        <ele>1861.25</ele>
        <time>2013-09-28T14:05:10Z</time>
      </trkpt>
      <trkpt lat="46.26062" lon="6.79334">
        <ele>1856.44</ele>
        <time>2013-09-28T14:05:24Z</time>
      </trkpt>
      <trkpt lat="46.26055" lon="6.79356">
        <ele>1850.19</ele>
        <time>2013-09-28T14:05:40Z</time>
      </trkpt>
      <trkpt lat="46.26051" lon="6.79367">
        <ele>1847.31</ele>
        <time>2013-09-28T14:05:56Z</time>
      </trkpt>
      <trkpt lat="46.26047" lon="6.7937">
        <ele>1845.39</ele>
        <time>2013-09-28T14:06:12Z</time>
      </trkpt>
      <trkpt lat="46.26035" lon="6.79378">
        <ele>1839.14</ele>
        <time>2013-09-28T14:06:26Z</time>
      </trkpt>
      <trkpt lat="46.26033" lon="6.79377">
        <ele>1838.66</ele>
        <time>2013-09-28T14:06:29Z</time>
      </trkpt>
      <trkpt lat="46.26032" lon="6.79369">
        <ele>1838.66</ele>
        <time>2013-09-28T14:06:35Z</time>
      </trkpt>
      <trkpt lat="46.2603" lon="6.79356">
        <ele>1836.74</ele>
        <time>2013-09-28T14:06:45Z</time>
      </trkpt>
      <trkpt lat="46.26028" lon="6.79352">
        <ele>1836.26</ele>
        <time>2013-09-28T14:06:49Z</time>
      </trkpt>
      <trkpt lat="46.26026" lon="6.79343">
        <ele>1834.33</ele>
        <time>2013-09-28T14:06:56Z</time>
      </trkpt>
      <trkpt lat="46.26013" lon="6.79331">
        <ele>1831.93</ele>
        <time>2013-09-28T14:07:10Z</time>
      </trkpt>
      <trkpt lat="46.26001" lon="6.79317">
        <ele>1825.68</ele>
        <time>2013-09-28T14:07:26Z</time>
      </trkpt>
      <trkpt lat="46.25991" lon="6.79304">
        <ele>1820.87</ele>
        <time>2013-09-28T14:07:39Z</time>
      </trkpt>
      <trkpt lat="46.25979" lon="6.79282">
        <ele>1812.7</ele>
        <time>2013-09-28T14:07:52Z</time>
      </trkpt>
      <trkpt lat="46.25966" lon="6.79266">
        <ele>1810.3</ele>
        <time>2013-09-28T14:08:05Z</time>
      </trkpt>
      <trkpt lat="46.25963" lon="6.79267">
        <ele>1815.59</ele>
        <time>2013-09-28T14:08:14Z</time>
      </trkpt>
      <trkpt lat="46.25957" lon="6.79269">
        <ele>1817.03</ele>
        <time>2013-09-28T14:08:19Z</time>
      </trkpt>
      <trkpt lat="46.25941" lon="6.79274">
        <ele>1817.03</ele>
        <time>2013-09-28T14:08:32Z</time>
      </trkpt>
      <trkpt lat="46.25933" lon="6.79276">
        <ele>1817.51</ele>
        <time>2013-09-28T14:08:42Z</time>
      </trkpt>
      <trkpt lat="46.25933" lon="6.79275">
        <ele>1817.51</ele>
        <time>2013-09-28T14:08:43Z</time>
      </trkpt>
      <trkpt lat="46.25928" lon="6.7927">
        <ele>1816.55</ele>
        <time>2013-09-28T14:08:48Z</time>
      </trkpt>
      <trkpt lat="46.25912" lon="6.79265">
        <ele>1816.55</ele>
        <time>2013-09-28T14:09:02Z</time>
      </trkpt>
      <trkpt lat="46.25909" lon="6.79268">
        <ele>1815.59</ele>
        <time>2013-09-28T14:09:06Z</time>
      </trkpt>
      <trkpt lat="46.25902" lon="6.79284">
        <ele>1812.7</ele>
        <time>2013-09-28T14:09:17Z</time>
      </trkpt>
      <trkpt lat="46.25894" lon="6.79292">
        <ele>1810.78</ele>
        <time>2013-09-28T14:09:33Z</time>
      </trkpt>
      <trkpt lat="46.25892" lon="6.79294">
        <ele>1810.3</ele>
        <time>2013-09-28T14:09:41Z</time>
      </trkpt>
      <trkpt lat="46.25887" lon="6.79304">
        <ele>1808.86</ele>
        <time>2013-09-28T14:09:46Z</time>
      </trkpt>
      <trkpt lat="46.25885" lon="6.79308">
        <ele>1807.9</ele>
        <time>2013-09-28T14:09:48Z</time>
      </trkpt>
      <trkpt lat="46.25884" lon="6.79317">
        <ele>1805.49</ele>
        <time>2013-09-28T14:09:53Z</time>
      </trkpt>
      <trkpt lat="46.25887" lon="6.79332">
        <ele>1803.09</ele>
        <time>2013-09-28T14:10:00Z</time>
      </trkpt>
      <trkpt lat="46.25888" lon="6.79349">
        <ele>1800.69</ele>
        <time>2013-09-28T14:10:12Z</time>
      </trkpt>
      <trkpt lat="46.25888" lon="6.7935">
        <ele>1800.69</ele>
        <time>2013-09-28T14:10:13Z</time>
      </trkpt>
      <trkpt lat="46.25884" lon="6.79357">
        <ele>1800.69</ele>
        <time>2013-09-28T14:10:27Z</time>
      </trkpt>
      <trkpt lat="46.2588" lon="6.79363">
        <ele>1800.69</ele>
        <time>2013-09-28T14:10:42Z</time>
      </trkpt>
      <trkpt lat="46.25877" lon="6.79368">
        <ele>1800.21</ele>
        <time>2013-09-28T14:10:53Z</time>
      </trkpt>
      <trkpt lat="46.25876" lon="6.79373">
        <ele>1799.73</ele>
        <time>2013-09-28T14:10:58Z</time>
      </trkpt>
      <trkpt lat="46.25873" lon="6.79374">
        <ele>1798.76</ele>
        <time>2013-09-28T14:11:02Z</time>
      </trkpt>
      <trkpt lat="46.25868" lon="6.79375">
        <ele>1797.32</ele>
        <time>2013-09-28T14:11:08Z</time>
      </trkpt>
      <trkpt lat="46.25858" lon="6.7938">
        <ele>1795.4</ele>
        <time>2013-09-28T14:11:13Z</time>
      </trkpt>
      <trkpt lat="46.2585" lon="6.79384">
        <ele>1797.32</ele>
        <time>2013-09-28T14:11:18Z</time>
      </trkpt>
      <trkpt lat="46.25837" lon="6.79404">
        <ele>1794.44</ele>
        <time>2013-09-28T14:11:33Z</time>
      </trkpt>
      <trkpt lat="46.25836" lon="6.79405">
        <ele>1794.44</ele>
        <time>2013-09-28T14:11:35Z</time>
      </trkpt>
      <trkpt lat="46.2584" lon="6.79431">
        <ele>1792.03</ele>
        <time>2013-09-28T14:11:50Z</time>
      </trkpt>
      <trkpt lat="46.25842" lon="6.79441">
        <ele>1790.11</ele>
        <time>2013-09-28T14:11:57Z</time>
      </trkpt>
      <trkpt lat="46.2584" lon="6.7945">
        <ele>1789.15</ele>
        <time>2013-09-28T14:12:03Z</time>
      </trkpt>
      <trkpt lat="46.25832" lon="6.79459">
        <ele>1784.34</ele>
        <time>2013-09-28T14:12:20Z</time>
      </trkpt>
      <trkpt lat="46.25829" lon="6.79468">
        <ele>1783.38</ele>
        <time>2013-09-28T14:12:32Z</time>
      </trkpt>
      <trkpt lat="46.25815" lon="6.79462">
        <ele>1776.65</ele>
        <time>2013-09-28T14:12:42Z</time>
      </trkpt>
      <trkpt lat="46.25814" lon="6.79457">
        <ele>1775.69</ele>
        <time>2013-09-28T14:12:44Z</time>
      </trkpt>
      <trkpt lat="46.25807" lon="6.79435">
        <ele>1770.41</ele>
        <time>2013-09-28T14:12:55Z</time>
      </trkpt>
      <trkpt lat="46.25805" lon="6.79429">
        <ele>1768.48</ele>
        <time>2013-09-28T14:13:08Z</time>
      </trkpt>
      <trkpt lat="46.25803" lon="6.79425">
        <ele>1770.89</ele>
        <time>2013-09-28T14:13:27Z</time>
      </trkpt>
      <trkpt lat="46.25802" lon="6.79425">
        <ele>1770.89</ele>
        <time>2013-09-28T14:13:35Z</time>
      </trkpt>
      <trkpt lat="46.25796" lon="6.79428">
        <ele>1770.41</ele>
        <time>2013-09-28T14:13:41Z</time>
      </trkpt>
      <trkpt lat="46.25793" lon="6.79435">
        <ele>1769.44</ele>
        <time>2013-09-28T14:13:45Z</time>
      </trkpt>
      <trkpt lat="46.25787" lon="6.79462">
        <ele>1766.08</ele>
        <time>2013-09-28T14:13:57Z</time>
      </trkpt>
      <trkpt lat="46.25788" lon="6.79474">
        <ele>1763.68</ele>
        <time>2013-09-28T14:14:03Z</time>
      </trkpt>
      <trkpt lat="46.25788" lon="6.79486">
        <ele>1762.23</ele>
        <time>2013-09-28T14:14:09Z</time>
      </trkpt>
      <trkpt lat="46.25787" lon="6.79496">
        <ele>1760.79</ele>
        <time>2013-09-28T14:14:15Z</time>
      </trkpt>
      <trkpt lat="46.25776" lon="6.79504">
        <ele>1757.91</ele>
        <time>2013-09-28T14:14:28Z</time>
      </trkpt>
      <trkpt lat="46.25775" lon="6.79506">
        <ele>1755.99</ele>
        <time>2013-09-28T14:14:42Z</time>
      </trkpt>
      <trkpt lat="46.25775" lon="6.79505">
        <ele>1755.5</ele>
        <time>2013-09-28T14:14:44Z</time>
      </trkpt>
      <trkpt lat="46.25767" lon="6.79493">
        <ele>1753.58</ele>
        <time>2013-09-28T14:14:51Z</time>
      </trkpt>
      <trkpt lat="46.25765" lon="6.79489">
        <ele>1751.66</ele>
        <time>2013-09-28T14:14:55Z</time>
      </trkpt>
      <trkpt lat="46.25762" lon="6.79485">
        <ele>1750.7</ele>
        <time>2013-09-28T14:15:00Z</time>
      </trkpt>
      <trkpt lat="46.25758" lon="6.79486">
        <ele>1749.26</ele>
        <time>2013-09-28T14:15:04Z</time>
      </trkpt>
      <trkpt lat="46.25751" lon="6.79507">
        <ele>1745.89</ele>
        <time>2013-09-28T14:15:16Z</time>
      </trkpt>
      <trkpt lat="46.25738" lon="6.79518">
        <ele>1745.41</ele>
        <time>2013-09-28T14:15:28Z</time>
      </trkpt>
      <trkpt lat="46.25737" lon="6.79522">
        <ele>1744.45</ele>
        <time>2013-09-28T14:15:38Z</time>
      </trkpt>
      <trkpt lat="46.25734" lon="6.79518">
        <ele>1743.97</ele>
        <time>2013-09-28T14:15:42Z</time>
      </trkpt>
      <trkpt lat="46.25729" lon="6.79517">
        <ele>1743.49</ele>
        <time>2013-09-28T14:15:47Z</time>
      </trkpt>
      <trkpt lat="46.25714" lon="6.79518">
        <ele>1743.01</ele>
        <time>2013-09-28T14:16:02Z</time>
      </trkpt>
      <trkpt lat="46.25712" lon="6.79523">
        <ele>1742.53</ele>
        <time>2013-09-28T14:16:12Z</time>
      </trkpt>
      <trkpt lat="46.25713" lon="6.79522">
        <ele>1742.53</ele>
        <time>2013-09-28T14:16:14Z</time>
      </trkpt>
      <trkpt lat="46.25719" lon="6.79514">
        <ele>1742.53</ele>
        <time>2013-09-28T14:16:23Z</time>
      </trkpt>
      <trkpt lat="46.25718" lon="6.79511">
        <ele>1743.01</ele>
        <time>2013-09-28T14:16:25Z</time>
      </trkpt>
      <trkpt lat="46.25724" lon="6.7949">
        <ele>1744.45</ele>
        <time>2013-09-28T14:16:39Z</time>
      </trkpt>
      <trkpt lat="46.25732" lon="6.79474">
        <ele>1746.85</ele>
        <time>2013-09-28T14:16:52Z</time>
      </trkpt>
      <trkpt lat="46.25734" lon="6.79471">
        <ele>1746.85</ele>
        <time>2013-09-28T14:16:54Z</time>
      </trkpt>
      <trkpt lat="46.2574" lon="6.79438">
        <ele>1741.57</ele>
        <time>2013-09-28T14:17:10Z</time>
      </trkpt>
      <trkpt lat="46.25738" lon="6.79422">
        <ele>1734.36</ele>
        <time>2013-09-28T14:17:20Z</time>
      </trkpt>
      <trkpt lat="46.25737" lon="6.79422">
        <ele>1735.32</ele>
        <time>2013-09-28T14:17:29Z</time>
      </trkpt>
      <trkpt lat="46.25734" lon="6.79424">
        <ele>1734.84</ele>
        <time>2013-09-28T14:17:34Z</time>
      </trkpt>
      <trkpt lat="46.25729" lon="6.79423">
        <ele>1735.32</ele>
        <time>2013-09-28T14:17:46Z</time>
      </trkpt>
      <trkpt lat="46.25722" lon="6.7942">
        <ele>1732.91</ele>
        <time>2013-09-28T14:18:01Z</time>
      </trkpt>
      <trkpt lat="46.25717" lon="6.79419">
        <ele>1730.99</ele>
        <time>2013-09-28T14:18:08Z</time>
      </trkpt>
      <trkpt lat="46.25709" lon="6.79414">
        <ele>1725.7</ele>
        <time>2013-09-28T14:18:21Z</time>
      </trkpt>
      <trkpt lat="46.25706" lon="6.79413">
        <ele>1724.26</ele>
        <time>2013-09-28T14:18:33Z</time>
      </trkpt>
      <trkpt lat="46.25698" lon="6.79413">
        <ele>1718.97</ele>
        <time>2013-09-28T14:18:42Z</time>
      </trkpt>
      <trkpt lat="46.25702" lon="6.79402">
        <ele>1715.61</ele>
        <time>2013-09-28T14:18:57Z</time>
      </trkpt>
      <trkpt lat="46.25707" lon="6.79383">
        <ele>1713.69</ele>
        <time>2013-09-28T14:19:09Z</time>
      </trkpt>
      <trkpt lat="46.25711" lon="6.79378">
        <ele>1714.17</ele>
        <time>2013-09-28T14:19:18Z</time>
      </trkpt>
      <trkpt lat="46.25712" lon="6.79372">
        <ele>1714.17</ele>
        <time>2013-09-28T14:19:21Z</time>
      </trkpt>
      <trkpt lat="46.25715" lon="6.79366">
        <ele>1714.17</ele>
        <time>2013-09-28T14:19:25Z</time>
      </trkpt>
      <trkpt lat="46.25716" lon="6.79361">
        <ele>1715.13</ele>
        <time>2013-09-28T14:19:29Z</time>
      </trkpt>
      <trkpt lat="46.25717" lon="6.79358">
        <ele>1716.09</ele>
        <time>2013-09-28T14:19:32Z</time>
      </trkpt>
      <trkpt lat="46.25719" lon="6.79347">
        <ele>1715.61</ele>
        <time>2013-09-28T14:19:37Z</time>
      </trkpt>
      <trkpt lat="46.25727" lon="6.79329">
        <ele>1714.17</ele>
        <time>2013-09-28T14:19:51Z</time>
      </trkpt>
      <trkpt lat="46.25733" lon="6.79305">
        <ele>1712.25</ele>
        <time>2013-09-28T14:20:05Z</time>
      </trkpt>
      <trkpt lat="46.25737" lon="6.79286">
        <ele>1709.36</ele>
        <time>2013-09-28T14:20:20Z</time>
      </trkpt>
      <trkpt lat="46.25739" lon="6.79271">
        <ele>1709.36</ele>
        <time>2013-09-28T14:20:32Z</time>
      </trkpt>
      <trkpt lat="46.2574" lon="6.79268">
        <ele>1708.88</ele>
        <time>2013-09-28T14:20:34Z</time>
      </trkpt>
      <trkpt lat="46.25738" lon="6.79264">
        <ele>1708.88</ele>
        <time>2013-09-28T14:20:36Z</time>
      </trkpt>
      <trkpt lat="46.25735" lon="6.79237">
        <ele>1708.4</ele>
        <time>2013-09-28T14:20:48Z</time>
      </trkpt>
      <trkpt lat="46.25735" lon="6.79235">
        <ele>1707.92</ele>
        <time>2013-09-28T14:20:49Z</time>
      </trkpt>
      <trkpt lat="46.25741" lon="6.79225">
        <ele>1706</ele>
        <time>2013-09-28T14:21:03Z</time>
      </trkpt>
      <trkpt lat="46.25741" lon="6.79222">
        <ele>1706</ele>
        <time>2013-09-28T14:21:10Z</time>
      </trkpt>
      <trkpt lat="46.25743" lon="6.79218">
        <ele>1705.52</ele>
        <time>2013-09-28T14:21:13Z</time>
      </trkpt>
      <trkpt lat="46.25744" lon="6.79214">
        <ele>1705.52</ele>
        <time>2013-09-28T14:21:26Z</time>
      </trkpt>
      <trkpt lat="46.25745" lon="6.79211">
        <ele>1706.48</ele>
        <time>2013-09-28T14:21:35Z</time>
      </trkpt>
      <trkpt lat="46.25746" lon="6.79202">
        <ele>1707.44</ele>
        <time>2013-09-28T14:21:46Z</time>
      </trkpt>
      <trkpt lat="46.25747" lon="6.79202">
        <ele>1706.96</ele>
        <time>2013-09-28T14:22:11Z</time>
      </trkpt>
      <trkpt lat="46.25748" lon="6.79201">
        <ele>1706.48</ele>
        <time>2013-09-28T14:22:18Z</time>
      </trkpt>
      <trkpt lat="46.25747" lon="6.79196">
        <ele>1706.48</ele>
        <time>2013-09-28T14:22:22Z</time>
      </trkpt>
      <trkpt lat="46.25739" lon="6.79185">
        <ele>1706.48</ele>
        <time>2013-09-28T14:22:36Z</time>
      </trkpt>
      <trkpt lat="46.25733" lon="6.79181">
        <ele>1706.48</ele>
        <time>2013-09-28T14:22:47Z</time>
      </trkpt>
      <trkpt lat="46.25724" lon="6.79184">
        <ele>1702.63</ele>
        <time>2013-09-28T14:23:02Z</time>
      </trkpt>
      <trkpt lat="46.25723" lon="6.79185">
        <ele>1702.15</ele>
        <time>2013-09-28T14:23:07Z</time>
      </trkpt>
      <trkpt lat="46.25713" lon="6.79185">
        <ele>1694.94</ele>
        <time>2013-09-28T14:23:20Z</time>
      </trkpt>
      <trkpt lat="46.25703" lon="6.79185">
        <ele>1686.29</ele>
        <time>2013-09-28T14:23:36Z</time>
      </trkpt>
      <trkpt lat="46.25699" lon="6.79195">
        <ele>1684.37</ele>
        <time>2013-09-28T14:23:45Z</time>
      </trkpt>
      <trkpt lat="46.25688" lon="6.79206">
        <ele>1677.64</ele>
        <time>2013-09-28T14:23:59Z</time>
      </trkpt>
      <trkpt lat="46.25677" lon="6.79214">
        <ele>1672.35</ele>
        <time>2013-09-28T14:24:14Z</time>
      </trkpt>
      <trkpt lat="46.25676" lon="6.79214">
        <ele>1671.87</ele>
        <time>2013-09-28T14:24:16Z</time>
      </trkpt>
      <trkpt lat="46.25664" lon="6.7922">
        <ele>1666.58</ele>
        <time>2013-09-28T14:24:30Z</time>
      </trkpt>
      <trkpt lat="46.25653" lon="6.7922">
        <ele>1666.58</ele>
        <time>2013-09-28T14:24:43Z</time>
      </trkpt>
      <trkpt lat="46.25647" lon="6.79223">
        <ele>1665.62</ele>
        <time>2013-09-28T14:24:50Z</time>
      </trkpt>
      <trkpt lat="46.2564" lon="6.79222">
        <ele>1664.18</ele>
        <time>2013-09-28T14:25:04Z</time>
      </trkpt>
      <trkpt lat="46.25637" lon="6.79222">
        <ele>1663.22</ele>
        <time>2013-09-28T14:25:11Z</time>
      </trkpt>
      <trkpt lat="46.25627" lon="6.79222">
        <ele>1662.74</ele>
        <time>2013-09-28T14:25:24Z</time>
      </trkpt>
      <trkpt lat="46.25627" lon="6.79224">
        <ele>1662.74</ele>
        <time>2013-09-28T14:25:39Z</time>
      </trkpt>
      <trkpt lat="46.25627" lon="6.79224">
        <ele>1663.7</ele>
        <time>2013-09-28T14:26:08Z</time>
      </trkpt>
      <trkpt lat="46.25627" lon="6.79224">
        <ele>1663.7</ele>
        <time>2013-09-28T14:26:13Z</time>
      </trkpt>
      <trkpt lat="46.25622" lon="6.79228">
        <ele>1662.74</ele>
        <time>2013-09-28T14:26:17Z</time>
      </trkpt>
      <trkpt lat="46.25612" lon="6.79222">
        <ele>1660.33</ele>
        <time>2013-09-28T14:26:23Z</time>
      </trkpt>
      <trkpt lat="46.25585" lon="6.79188">
        <ele>1656.97</ele>
        <time>2013-09-28T14:26:35Z</time>
      </trkpt>
      <trkpt lat="46.25583" lon="6.79186">
        <ele>1656.01</ele>
        <time>2013-09-28T14:26:37Z</time>
      </trkpt>
      <trkpt lat="46.25573" lon="6.79171">
        <ele>1654.09</ele>
        <time>2013-09-28T14:26:49Z</time>
      </trkpt>
      <trkpt lat="46.25563" lon="6.79158">
        <ele>1659.85</ele>
        <time>2013-09-28T14:26:59Z</time>
      </trkpt>
      <trkpt lat="46.2555" lon="6.79144">
        <ele>1664.18</ele>
        <time>2013-09-28T14:27:12Z</time>
      </trkpt>
      <trkpt lat="46.25545" lon="6.79139">
        <ele>1666.1</ele>
        <time>2013-09-28T14:27:16Z</time>
      </trkpt>
      <trkpt lat="46.25541" lon="6.79135">
        <ele>1666.58</ele>
        <time>2013-09-28T14:27:20Z</time>
      </trkpt>
      <trkpt lat="46.25536" lon="6.79129">
        <ele>1668.02</ele>
        <time>2013-09-28T14:27:26Z</time>
      </trkpt>
      <trkpt lat="46.25527" lon="6.79118">
        <ele>1669.95</ele>
        <time>2013-09-28T14:27:40Z</time>
      </trkpt>
      <trkpt lat="46.25517" lon="6.79106">
        <ele>1672.35</ele>
        <time>2013-09-28T14:27:53Z</time>
      </trkpt>
      <trkpt lat="46.25515" lon="6.79104">
        <ele>1673.31</ele>
        <time>2013-09-28T14:27:55Z</time>
      </trkpt>
      <trkpt lat="46.25505" lon="6.79093">
        <ele>1677.16</ele>
        <time>2013-09-28T14:28:08Z</time>
      </trkpt>
      <trkpt lat="46.25497" lon="6.7908">
        <ele>1679.56</ele>
        <time>2013-09-28T14:28:19Z</time>
      </trkpt>
      <trkpt lat="46.25487" lon="6.79061">
        <ele>1682.44</ele>
        <time>2013-09-28T14:28:33Z</time>
      </trkpt>
      <trkpt lat="46.2548" lon="6.79061">
        <ele>1684.37</ele>
        <time>2013-09-28T14:28:39Z</time>
      </trkpt>
      <trkpt lat="46.25462" lon="6.79082">
        <ele>1687.73</ele>
        <time>2013-09-28T14:28:55Z</time>
      </trkpt>
      <trkpt lat="46.25451" lon="6.79094">
        <ele>1690.62</ele>
        <time>2013-09-28T14:29:10Z</time>
      </trkpt>
      <trkpt lat="46.2544" lon="6.79109">
        <ele>1692.54</ele>
        <time>2013-09-28T14:29:25Z</time>
      </trkpt>
      <trkpt lat="46.25432" lon="6.7911">
        <ele>1692.06</ele>
        <time>2013-09-28T14:29:34Z</time>
      </trkpt>
      <trkpt lat="46.2542" lon="6.79128">
        <ele>1693.02</ele>
        <time>2013-09-28T14:29:46Z</time>
      </trkpt>
      <trkpt lat="46.25408" lon="6.79146">
        <ele>1695.42</ele>
        <time>2013-09-28T14:30:01Z</time>
      </trkpt>
      <trkpt lat="46.25388" lon="6.79161">
        <ele>1693.98</ele>
        <time>2013-09-28T14:30:18Z</time>
      </trkpt>
      <trkpt lat="46.25373" lon="6.79168">
        <ele>1692.54</ele>
        <time>2013-09-28T14:30:31Z</time>
      </trkpt>
      <trkpt lat="46.25356" lon="6.7918">
        <ele>1690.62</ele>
        <time>2013-09-28T14:30:45Z</time>
      </trkpt>
      <trkpt lat="46.25334" lon="6.79184">
        <ele>1694.46</ele>
        <time>2013-09-28T14:31:01Z</time>
      </trkpt>
      <trkpt lat="46.25321" lon="6.7918">
        <ele>1695.9</ele>
        <time>2013-09-28T14:31:11Z</time>
      </trkpt>
      <trkpt lat="46.25314" lon="6.79176">
        <ele>1697.34</ele>
        <time>2013-09-28T14:31:17Z</time>
      </trkpt>
      <trkpt lat="46.25309" lon="6.79175">
        <ele>1698.79</ele>
        <time>2013-09-28T14:31:21Z</time>
      </trkpt>
      <trkpt lat="46.25293" lon="6.7916">
        <ele>1704.55</ele>
        <time>2013-09-28T14:31:37Z</time>
      </trkpt>
      <trkpt lat="46.25276" lon="6.79153">
        <ele>1707.44</ele>
        <time>2013-09-28T14:31:52Z</time>
      </trkpt>
      <trkpt lat="46.25258" lon="6.79157">
        <ele>1708.88</ele>
        <time>2013-09-28T14:32:06Z</time>
      </trkpt>
      <trkpt lat="46.25256" lon="6.79158">
        <ele>1709.36</ele>
        <time>2013-09-28T14:32:08Z</time>
      </trkpt>
      <trkpt lat="46.25241" lon="6.79152">
        <ele>1710.32</ele>
        <time>2013-09-28T14:32:22Z</time>
      </trkpt>
      <trkpt lat="46.25228" lon="6.79147">
        <ele>1713.69</ele>
        <time>2013-09-28T14:32:35Z</time>
      </trkpt>
      <trkpt lat="46.25224" lon="6.79145">
        <ele>1714.65</ele>
        <time>2013-09-28T14:32:39Z</time>
      </trkpt>
      <trkpt lat="46.2522" lon="6.79145">
        <ele>1716.09</ele>
        <time>2013-09-28T14:32:43Z</time>
      </trkpt>
      <trkpt lat="46.25217" lon="6.79144">
        <ele>1716.57</ele>
        <time>2013-09-28T14:32:46Z</time>
      </trkpt>
      <trkpt lat="46.25207" lon="6.79141">
        <ele>1718.97</ele>
        <time>2013-09-28T14:32:55Z</time>
      </trkpt>
      <trkpt lat="46.25196" lon="6.79139">
        <ele>1721.86</ele>
        <time>2013-09-28T14:33:04Z</time>
      </trkpt>
      <trkpt lat="46.25194" lon="6.79138">
        <ele>1721.86</ele>
        <time>2013-09-28T14:33:07Z</time>
      </trkpt>
      <trkpt lat="46.25184" lon="6.79136">
        <ele>1724.74</ele>
        <time>2013-09-28T14:33:16Z</time>
      </trkpt>
      <trkpt lat="46.25176" lon="6.79136">
        <ele>1725.22</ele>
        <time>2013-09-28T14:33:22Z</time>
      </trkpt>
      <trkpt lat="46.25156" lon="6.79126">
        <ele>1729.07</ele>
        <time>2013-09-28T14:33:39Z</time>
      </trkpt>
      <trkpt lat="46.25139" lon="6.79109">
        <ele>1732.91</ele>
        <time>2013-09-28T14:33:57Z</time>
      </trkpt>
      <trkpt lat="46.25121" lon="6.791">
        <ele>1733.88</ele>
        <time>2013-09-28T14:34:13Z</time>
      </trkpt>
      <trkpt lat="46.25111" lon="6.79097">
        <ele>1735.32</ele>
        <time>2013-09-28T14:34:21Z</time>
      </trkpt>
      <trkpt lat="46.25106" lon="6.79097">
        <ele>1735.32</ele>
        <time>2013-09-28T14:34:26Z</time>
      </trkpt>
      <trkpt lat="46.25091" lon="6.79094">
        <ele>1737.24</ele>
        <time>2013-09-28T14:34:39Z</time>
      </trkpt>
      <trkpt lat="46.25075" lon="6.7909">
        <ele>1741.57</ele>
        <time>2013-09-28T14:34:53Z</time>
      </trkpt>
      <trkpt lat="46.25065" lon="6.79089">
        <ele>1744.93</ele>
        <time>2013-09-28T14:35:04Z</time>
      </trkpt>
      <trkpt lat="46.2505" lon="6.79084">
        <ele>1748.78</ele>
        <time>2013-09-28T14:35:19Z</time>
      </trkpt>
      <trkpt lat="46.25033" lon="6.79078">
        <ele>1751.18</ele>
        <time>2013-09-28T14:35:36Z</time>
      </trkpt>
      <trkpt lat="46.25016" lon="6.79078">
        <ele>1753.58</ele>
        <time>2013-09-28T14:35:50Z</time>
      </trkpt>
      <trkpt lat="46.24996" lon="6.79074">
        <ele>1756.95</ele>
        <time>2013-09-28T14:36:07Z</time>
      </trkpt>
      <trkpt lat="46.24978" lon="6.79063">
        <ele>1761.27</ele>
        <time>2013-09-28T14:36:23Z</time>
      </trkpt>
      <trkpt lat="46.24962" lon="6.79053">
        <ele>1765.12</ele>
        <time>2013-09-28T14:36:37Z</time>
      </trkpt>
      <trkpt lat="46.24944" lon="6.79051">
        <ele>1766.08</ele>
        <time>2013-09-28T14:36:52Z</time>
      </trkpt>
      <trkpt lat="46.24928" lon="6.7905">
        <ele>1768</ele>
        <time>2013-09-28T14:37:06Z</time>
      </trkpt>
      <trkpt lat="46.2491" lon="6.79043">
        <ele>1770.41</ele>
        <time>2013-09-28T14:37:21Z</time>
      </trkpt>
      <trkpt lat="46.24906" lon="6.79036">
        <ele>1771.85</ele>
        <time>2013-09-28T14:37:26Z</time>
      </trkpt>
      <trkpt lat="46.24897" lon="6.79038">
        <ele>1774.73</ele>
        <time>2013-09-28T14:37:36Z</time>
      </trkpt>
      <trkpt lat="46.24882" lon="6.79046">
        <ele>1778.1</ele>
        <time>2013-09-28T14:37:52Z</time>
      </trkpt>
      <trkpt lat="46.24865" lon="6.79052">
        <ele>1780.98</ele>
        <time>2013-09-28T14:38:08Z</time>
      </trkpt>
      <trkpt lat="46.24847" lon="6.7905">
        <ele>1781.94</ele>
        <time>2013-09-28T14:38:24Z</time>
      </trkpt>
      <trkpt lat="46.24843" lon="6.79045">
        <ele>1782.42</ele>
        <time>2013-09-28T14:38:29Z</time>
      </trkpt>
      <trkpt lat="46.2484" lon="6.79043">
        <ele>1782.9</ele>
        <time>2013-09-28T14:38:32Z</time>
      </trkpt>
      <trkpt lat="46.24829" lon="6.79033">
        <ele>1787.23</ele>
        <time>2013-09-28T14:38:45Z</time>
      </trkpt>
      <trkpt lat="46.2482" lon="6.79021">
        <ele>1790.59</ele>
        <time>2013-09-28T14:38:55Z</time>
      </trkpt>
      <trkpt lat="46.24807" lon="6.79002">
        <ele>1793.48</ele>
        <time>2013-09-28T14:39:11Z</time>
      </trkpt>
      <trkpt lat="46.24801" lon="6.78989">
        <ele>1795.88</ele>
        <time>2013-09-28T14:39:21Z</time>
      </trkpt>
      <trkpt lat="46.24804" lon="6.78986">
        <ele>1796.84</ele>
        <time>2013-09-28T14:39:26Z</time>
      </trkpt>
      <trkpt lat="46.2481" lon="6.78993">
        <ele>1798.28</ele>
        <time>2013-09-28T14:39:35Z</time>
      </trkpt>
      <trkpt lat="46.24819" lon="6.79">
        <ele>1798.76</ele>
        <time>2013-09-28T14:39:46Z</time>
      </trkpt>
      <trkpt lat="46.24822" lon="6.79003">
        <ele>1799.24</ele>
        <time>2013-09-28T14:39:50Z</time>
      </trkpt>
      <trkpt lat="46.24833" lon="6.79005">
        <ele>1799.73</ele>
        <time>2013-09-28T14:40:02Z</time>
      </trkpt>
      <trkpt lat="46.24838" lon="6.78997">
        <ele>1802.61</ele>
        <time>2013-09-28T14:40:16Z</time>
      </trkpt>
      <trkpt lat="46.24833" lon="6.78991">
        <ele>1803.09</ele>
        <time>2013-09-28T14:40:21Z</time>
      </trkpt>
      <trkpt lat="46.24823" lon="6.78976">
        <ele>1804.05</ele>
        <time>2013-09-28T14:40:34Z</time>
      </trkpt>
      <trkpt lat="46.24815" lon="6.78952">
        <ele>1808.86</ele>
        <time>2013-09-28T14:40:52Z</time>
      </trkpt>
      <trkpt lat="46.2481" lon="6.78948">
        <ele>1809.82</ele>
        <time>2013-09-28T14:40:58Z</time>
      </trkpt>
      <trkpt lat="46.24794" lon="6.78934">
        <ele>1814.15</ele>
        <time>2013-09-28T14:41:16Z</time>
      </trkpt>
      <trkpt lat="46.24793" lon="6.7893">
        <ele>1814.63</ele>
        <time>2013-09-28T14:41:19Z</time>
      </trkpt>
      <trkpt lat="46.24783" lon="6.78912">
        <ele>1818.95</ele>
        <time>2013-09-28T14:41:33Z</time>
      </trkpt>
      <trkpt lat="46.24784" lon="6.78912">
        <ele>1820.39</ele>
        <time>2013-09-28T14:41:39Z</time>
      </trkpt>
      <trkpt lat="46.24797" lon="6.78929">
        <ele>1824.72</ele>
        <time>2013-09-28T14:41:56Z</time>
      </trkpt>
      <trkpt lat="46.24818" lon="6.78932">
        <ele>1827.12</ele>
        <time>2013-09-28T14:42:14Z</time>
      </trkpt>
      <trkpt lat="46.24835" lon="6.78938">
        <ele>1827.6</ele>
        <time>2013-09-28T14:42:31Z</time>
      </trkpt>
      <trkpt lat="46.24838" lon="6.7893">
        <ele>1828.56</ele>
        <time>2013-09-28T14:42:39Z</time>
      </trkpt>
      <trkpt lat="46.24836" lon="6.78922">
        <ele>1829.53</ele>
        <time>2013-09-28T14:42:44Z</time>
      </trkpt>
      <trkpt lat="46.24822" lon="6.78909">
        <ele>1830.49</ele>
        <time>2013-09-28T14:43:01Z</time>
      </trkpt>
      <trkpt lat="46.24809" lon="6.78893">
        <ele>1831.45</ele>
        <time>2013-09-28T14:43:18Z</time>
      </trkpt>
      <trkpt lat="46.24798" lon="6.78873">
        <ele>1833.85</ele>
        <time>2013-09-28T14:43:37Z</time>
      </trkpt>
      <trkpt lat="46.24786" lon="6.78853">
        <ele>1836.26</ele>
        <time>2013-09-28T14:43:52Z</time>
      </trkpt>
      <trkpt lat="46.24776" lon="6.78835">
        <ele>1840.1</ele>
        <time>2013-09-28T14:44:07Z</time>
      </trkpt>
      <trkpt lat="46.24775" lon="6.78835">
        <ele>1840.1</ele>
        <time>2013-09-28T14:44:08Z</time>
      </trkpt>
      <trkpt lat="46.24763" lon="6.78818">
        <ele>1844.43</ele>
        <time>2013-09-28T14:44:24Z</time>
      </trkpt>
      <trkpt lat="46.24755" lon="6.78796">
        <ele>1845.87</ele>
        <time>2013-09-28T14:44:39Z</time>
      </trkpt>
      <trkpt lat="46.24747" lon="6.78781">
        <ele>1848.27</ele>
        <time>2013-09-28T14:44:53Z</time>
      </trkpt>
      <trkpt lat="46.24746" lon="6.78775">
        <ele>1847.79</ele>
        <time>2013-09-28T14:45:06Z</time>
      </trkpt>
      <trkpt lat="46.24746" lon="6.78775">
        <ele>1847.79</ele>
        <time>2013-09-28T14:45:37Z</time>
      </trkpt>
      <trkpt lat="46.24747" lon="6.78769">
        <ele>1847.79</ele>
        <time>2013-09-28T14:45:50Z</time>
      </trkpt>
      <trkpt lat="46.24752" lon="6.78768">
        <ele>1850.19</ele>
        <time>2013-09-28T14:46:00Z</time>
      </trkpt>
      <trkpt lat="46.24757" lon="6.78774">
        <ele>1855.96</ele>
        <time>2013-09-28T14:46:10Z</time>
      </trkpt>
      <trkpt lat="46.24767" lon="6.78778">
        <ele>1860.77</ele>
        <time>2013-09-28T14:46:25Z</time>
      </trkpt>
      <trkpt lat="46.24775" lon="6.78768">
        <ele>1865.09</ele>
        <time>2013-09-28T14:46:41Z</time>
      </trkpt>
      <trkpt lat="46.24782" lon="6.78755">
        <ele>1869.42</ele>
        <time>2013-09-28T14:46:58Z</time>
      </trkpt>
      <trkpt lat="46.24788" lon="6.78755">
        <ele>1870.86</ele>
        <time>2013-09-28T14:47:12Z</time>
      </trkpt>
      <trkpt lat="46.24796" lon="6.7876">
        <ele>1875.19</ele>
        <time>2013-09-28T14:47:28Z</time>
      </trkpt>
      <trkpt lat="46.24796" lon="6.7876">
        <ele>1876.63</ele>
        <time>2013-09-28T14:47:45Z</time>
      </trkpt>
      <trkpt lat="46.248" lon="6.78764">
        <ele>1877.59</ele>
        <time>2013-09-28T14:48:00Z</time>
      </trkpt>
      <trkpt lat="46.24808" lon="6.78779">
        <ele>1880</ele>
        <time>2013-09-28T14:48:16Z</time>
      </trkpt>
      <trkpt lat="46.24819" lon="6.78783">
        <ele>1884.32</ele>
        <time>2013-09-28T14:48:30Z</time>
      </trkpt>
      <trkpt lat="46.24831" lon="6.78788">
        <ele>1888.17</ele>
        <time>2013-09-28T14:48:44Z</time>
      </trkpt>
      <trkpt lat="46.24842" lon="6.78795">
        <ele>1891.53</ele>
        <time>2013-09-28T14:48:57Z</time>
      </trkpt>
      <trkpt lat="46.2485" lon="6.78786">
        <ele>1895.86</ele>
        <time>2013-09-28T14:49:09Z</time>
      </trkpt>
      <trkpt lat="46.24854" lon="6.78783">
        <ele>1898.74</ele>
        <time>2013-09-28T14:49:17Z</time>
      </trkpt>
      <trkpt lat="46.24867" lon="6.78775">
        <ele>1902.59</ele>
        <time>2013-09-28T14:49:34Z</time>
      </trkpt>
      <trkpt lat="46.24877" lon="6.78771">
        <ele>1906.43</ele>
        <time>2013-09-28T14:49:52Z</time>
      </trkpt>
      <trkpt lat="46.24887" lon="6.78777">
        <ele>1909.8</ele>
        <time>2013-09-28T14:50:07Z</time>
      </trkpt>
      <trkpt lat="46.24895" lon="6.78773">
        <ele>1913.16</ele>
        <time>2013-09-28T14:50:22Z</time>
      </trkpt>
      <trkpt lat="46.249" lon="6.78771">
        <ele>1917.49</ele>
        <time>2013-09-28T14:50:38Z</time>
      </trkpt>
      <trkpt lat="46.24913" lon="6.78774">
        <ele>1922.77</ele>
        <time>2013-09-28T14:50:56Z</time>
      </trkpt>
      <trkpt lat="46.24923" lon="6.78763">
        <ele>1928.06</ele>
        <time>2013-09-28T14:51:13Z</time>
      </trkpt>
      <trkpt lat="46.24935" lon="6.78754">
        <ele>1931.43</ele>
        <time>2013-09-28T14:51:30Z</time>
      </trkpt>
      <trkpt lat="46.24945" lon="6.78743">
        <ele>1936.71</ele>
        <time>2013-09-28T14:51:48Z</time>
      </trkpt>
      <trkpt lat="46.24957" lon="6.78741">
        <ele>1940.56</ele>
        <time>2013-09-28T14:52:03Z</time>
      </trkpt>
      <trkpt lat="46.24967" lon="6.78728">
        <ele>1944.88</ele>
        <time>2013-09-28T14:52:18Z</time>
      </trkpt>
      <trkpt lat="46.24975" lon="6.78709">
        <ele>1950.65</ele>
        <time>2013-09-28T14:52:36Z</time>
      </trkpt>
      <trkpt lat="46.24977" lon="6.78708">
        <ele>1951.13</ele>
        <time>2013-09-28T14:52:39Z</time>
      </trkpt>
      <trkpt lat="46.24987" lon="6.7869">
        <ele>1954.5</ele>
        <time>2013-09-28T14:52:56Z</time>
      </trkpt>
      <trkpt lat="46.24992" lon="6.78681">
        <ele>1955.94</ele>
        <time>2013-09-28T14:53:03Z</time>
      </trkpt>
      <trkpt lat="46.24999" lon="6.78666">
        <ele>1960.27</ele>
        <time>2013-09-28T14:53:18Z</time>
      </trkpt>
      <trkpt lat="46.25006" lon="6.78655">
        <ele>1963.15</ele>
        <time>2013-09-28T14:53:32Z</time>
      </trkpt>
      <trkpt lat="46.25015" lon="6.78651">
        <ele>1966.03</ele>
        <time>2013-09-28T14:53:48Z</time>
      </trkpt>
      <trkpt lat="46.25024" lon="6.78646">
        <ele>1969.4</ele>
        <time>2013-09-28T14:54:01Z</time>
      </trkpt>
      <trkpt lat="46.25034" lon="6.78641">
        <ele>1973.24</ele>
        <time>2013-09-28T14:54:17Z</time>
      </trkpt>
      <trkpt lat="46.25039" lon="6.7864">
        <ele>1974.2</ele>
        <time>2013-09-28T14:54:23Z</time>
      </trkpt>
      <trkpt lat="46.25052" lon="6.78628">
        <ele>1978.05</ele>
        <time>2013-09-28T14:54:41Z</time>
      </trkpt>
      <trkpt lat="46.25057" lon="6.78623">
        <ele>1980.45</ele>
        <time>2013-09-28T14:54:49Z</time>
      </trkpt>
      <trkpt lat="46.25068" lon="6.78613">
        <ele>1984.78</ele>
        <time>2013-09-28T14:55:06Z</time>
      </trkpt>
      <trkpt lat="46.25077" lon="6.78603">
        <ele>1988.14</ele>
        <time>2013-09-28T14:55:20Z</time>
      </trkpt>
      <trkpt lat="46.25086" lon="6.78593">
        <ele>1992.47</ele>
        <time>2013-09-28T14:55:34Z</time>
      </trkpt>
      <trkpt lat="46.25097" lon="6.78586">
        <ele>1997.28</ele>
        <time>2013-09-28T14:55:49Z</time>
      </trkpt>
      <trkpt lat="46.25108" lon="6.78579">
        <ele>1999.68</ele>
        <time>2013-09-28T14:56:04Z</time>
      </trkpt>
      <trkpt lat="46.2512" lon="6.7857">
        <ele>2003.04</ele>
        <time>2013-09-28T14:56:19Z</time>
      </trkpt>
      <trkpt lat="46.25127" lon="6.78557">
        <ele>2005.93</ele>
        <time>2013-09-28T14:56:33Z</time>
      </trkpt>
      <trkpt lat="46.25135" lon="6.78539">
        <ele>2007.37</ele>
        <time>2013-09-28T14:56:50Z</time>
      </trkpt>
      <trkpt lat="46.25135" lon="6.78538">
        <ele>2008.81</ele>
        <time>2013-09-28T14:57:14Z</time>
      </trkpt>
      <trkpt lat="46.25135" lon="6.78538">
        <ele>2008.81</ele>
        <time>2013-09-28T14:57:38Z</time>
      </trkpt>
      <trkpt lat="46.25137" lon="6.78515">
        <ele>2010.25</ele>
        <time>2013-09-28T14:57:53Z</time>
      </trkpt>
      <trkpt lat="46.25137" lon="6.78512">
        <ele>2010.25</ele>
        <time>2013-09-28T14:57:55Z</time>
      </trkpt>
      <trkpt lat="46.25139" lon="6.78505">
        <ele>2010.73</ele>
        <time>2013-09-28T14:58:09Z</time>
      </trkpt>
      <trkpt lat="46.25141" lon="6.78493">
        <ele>2009.29</ele>
        <time>2013-09-28T14:58:22Z</time>
      </trkpt>
      <trkpt lat="46.25143" lon="6.78486">
        <ele>2008.81</ele>
        <time>2013-09-28T14:58:26Z</time>
      </trkpt>
      <trkpt lat="46.25147" lon="6.78463">
        <ele>2010.73</ele>
        <time>2013-09-28T14:58:40Z</time>
      </trkpt>
      <trkpt lat="46.25153" lon="6.78441">
        <ele>2012.66</ele>
        <time>2013-09-28T14:58:53Z</time>
      </trkpt>
      <trkpt lat="46.25154" lon="6.78415">
        <ele>2014.58</ele>
        <time>2013-09-28T14:59:07Z</time>
      </trkpt>
      <trkpt lat="46.25158" lon="6.7839">
        <ele>2015.06</ele>
        <time>2013-09-28T14:59:21Z</time>
      </trkpt>
      <trkpt lat="46.25162" lon="6.78378">
        <ele>2016.5</ele>
        <time>2013-09-28T14:59:29Z</time>
      </trkpt>
      <trkpt lat="46.25168" lon="6.78358">
        <ele>2015.54</ele>
        <time>2013-09-28T14:59:41Z</time>
      </trkpt>
      <trkpt lat="46.25171" lon="6.78345">
        <ele>2016.98</ele>
        <time>2013-09-28T14:59:56Z</time>
      </trkpt>
      <trkpt lat="46.25171" lon="6.78343">
        <ele>2016.5</ele>
        <time>2013-09-28T15:00:13Z</time>
      </trkpt>
      <trkpt lat="46.25175" lon="6.78336">
        <ele>2017.94</ele>
        <time>2013-09-28T15:00:19Z</time>
      </trkpt>
      <trkpt lat="46.2519" lon="6.78321">
        <ele>2022.27</ele>
        <time>2013-09-28T15:00:35Z</time>
      </trkpt>
      <trkpt lat="46.25199" lon="6.78307">
        <ele>2026.6</ele>
        <time>2013-09-28T15:00:48Z</time>
      </trkpt>
      <trkpt lat="46.25212" lon="6.78299">
        <ele>2030.44</ele>
        <time>2013-09-28T15:01:02Z</time>
      </trkpt>
      <trkpt lat="46.25223" lon="6.78276">
        <ele>2030.44</ele>
        <time>2013-09-28T15:01:17Z</time>
      </trkpt>
      <trkpt lat="46.25234" lon="6.78255">
        <ele>2027.08</ele>
        <time>2013-09-28T15:01:31Z</time>
      </trkpt>
      <trkpt lat="46.25251" lon="6.78232">
        <ele>2023.23</ele>
        <time>2013-09-28T15:01:45Z</time>
      </trkpt>
      <trkpt lat="46.25262" lon="6.78211">
        <ele>2019.87</ele>
        <time>2013-09-28T15:01:58Z</time>
      </trkpt>
      <trkpt lat="46.25273" lon="6.78199">
        <ele>2020.35</ele>
        <time>2013-09-28T15:02:10Z</time>
      </trkpt>
      <trkpt lat="46.25276" lon="6.78197">
        <ele>2020.83</ele>
        <time>2013-09-28T15:02:12Z</time>
      </trkpt>
      <trkpt lat="46.2528" lon="6.78189">
        <ele>2021.31</ele>
        <time>2013-09-28T15:02:18Z</time>
      </trkpt>
      <trkpt lat="46.25287" lon="6.7817">
        <ele>2022.27</ele>
        <time>2013-09-28T15:02:32Z</time>
      </trkpt>
      <trkpt lat="46.2529" lon="6.78154">
        <ele>2022.27</ele>
        <time>2013-09-28T15:02:42Z</time>
      </trkpt>
      <trkpt lat="46.25292" lon="6.78151">
        <ele>2022.27</ele>
        <time>2013-09-28T15:02:44Z</time>
      </trkpt>
      <trkpt lat="46.25297" lon="6.78135">
        <ele>2023.23</ele>
        <time>2013-09-28T15:02:57Z</time>
      </trkpt>
      <trkpt lat="46.25302" lon="6.78122">
        <ele>2025.64</ele>
        <time>2013-09-28T15:03:08Z</time>
      </trkpt>
      <trkpt lat="46.25308" lon="6.78112">
        <ele>2029</ele>
        <time>2013-09-28T15:03:22Z</time>
      </trkpt>
      <trkpt lat="46.25314" lon="6.781">
        <ele>2032.84</ele>
        <time>2013-09-28T15:03:36Z</time>
      </trkpt>
      <trkpt lat="46.25319" lon="6.78092">
        <ele>2036.21</ele>
        <time>2013-09-28T15:03:48Z</time>
      </trkpt>
      <trkpt lat="46.25324" lon="6.78083">
        <ele>2038.61</ele>
        <time>2013-09-28T15:04:00Z</time>
      </trkpt>
      <trkpt lat="46.25331" lon="6.78071">
        <ele>2041.98</ele>
        <time>2013-09-28T15:04:14Z</time>
      </trkpt>
      <trkpt lat="46.25336" lon="6.78061">
        <ele>2045.82</ele>
        <time>2013-09-28T15:04:27Z</time>
      </trkpt>
      <trkpt lat="46.25341" lon="6.78053">
        <ele>2051.59</ele>
        <time>2013-09-28T15:04:41Z</time>
      </trkpt>
      <trkpt lat="46.25346" lon="6.78046">
        <ele>2055.92</ele>
        <time>2013-09-28T15:04:53Z</time>
      </trkpt>
      <trkpt lat="46.25352" lon="6.78038">
        <ele>2059.28</ele>
        <time>2013-09-28T15:05:05Z</time>
      </trkpt>
      <trkpt lat="46.25359" lon="6.78029">
        <ele>2064.09</ele>
        <time>2013-09-28T15:05:19Z</time>
      </trkpt>
      <trkpt lat="46.25365" lon="6.78016">
        <ele>2064.57</ele>
        <time>2013-09-28T15:05:32Z</time>
      </trkpt>
      <trkpt lat="46.25366" lon="6.78012">
        <ele>2064.09</ele>
        <time>2013-09-28T15:05:36Z</time>
      </trkpt>
      <trkpt lat="46.25371" lon="6.77995">
        <ele>2063.13</ele>
        <time>2013-09-28T15:05:50Z</time>
      </trkpt>
      <trkpt lat="46.25372" lon="6.77991">
        <ele>2063.61</ele>
        <time>2013-09-28T15:05:53Z</time>
      </trkpt>
      <trkpt lat="46.25375" lon="6.77987">
        <ele>2065.05</ele>
        <time>2013-09-28T15:06:10Z</time>
      </trkpt>
      <trkpt lat="46.25382" lon="6.77976">
        <ele>2067.45</ele>
        <time>2013-09-28T15:06:23Z</time>
      </trkpt>
      <trkpt lat="46.25389" lon="6.77957">
        <ele>2068.89</ele>
        <time>2013-09-28T15:06:36Z</time>
      </trkpt>
      <trkpt lat="46.25396" lon="6.77942">
        <ele>2070.34</ele>
        <time>2013-09-28T15:06:49Z</time>
      </trkpt>
      <trkpt lat="46.25399" lon="6.77941">
        <ele>2072.26</ele>
        <time>2013-09-28T15:06:53Z</time>
      </trkpt>
      <trkpt lat="46.2541" lon="6.77929">
        <ele>2077.55</ele>
        <time>2013-09-28T15:07:08Z</time>
      </trkpt>
      <trkpt lat="46.25417" lon="6.77919">
        <ele>2080.91</ele>
        <time>2013-09-28T15:07:20Z</time>
      </trkpt>
      <trkpt lat="46.25422" lon="6.77905">
        <ele>2085.24</ele>
        <time>2013-09-28T15:07:34Z</time>
      </trkpt>
      <trkpt lat="46.25427" lon="6.77895">
        <ele>2088.6</ele>
        <time>2013-09-28T15:07:44Z</time>
      </trkpt>
      <trkpt lat="46.2543" lon="6.77882">
        <ele>2094.37</ele>
        <time>2013-09-28T15:07:58Z</time>
      </trkpt>
      <trkpt lat="46.25434" lon="6.77869">
        <ele>2102.06</ele>
        <time>2013-09-28T15:08:13Z</time>
      </trkpt>
      <trkpt lat="46.25439" lon="6.7786">
        <ele>2107.35</ele>
        <time>2013-09-28T15:08:26Z</time>
      </trkpt>
      <trkpt lat="46.25443" lon="6.77851">
        <ele>2111.19</ele>
        <time>2013-09-28T15:08:37Z</time>
      </trkpt>
      <trkpt lat="46.25443" lon="6.77851">
        <ele>2111.19</ele>
        <time>2013-09-28T15:08:41Z</time>
      </trkpt>
      <trkpt lat="46.25446" lon="6.77859">
        <ele>2113.6</ele>
        <time>2013-09-28T15:08:54Z</time>
      </trkpt>
      <trkpt lat="46.2545" lon="6.77868">
        <ele>2115.04</ele>
        <time>2013-09-28T15:09:06Z</time>
      </trkpt>
      <trkpt lat="46.2545" lon="6.77869">
        <ele>2115.52</ele>
        <time>2013-09-28T15:09:07Z</time>
      </trkpt>
      <trkpt lat="46.25453" lon="6.77878">
        <ele>2116.96</ele>
        <time>2013-09-28T15:09:20Z</time>
      </trkpt>
      <trkpt lat="46.25455" lon="6.77875">
        <ele>2119.84</ele>
        <time>2013-09-28T15:09:30Z</time>
      </trkpt>
      <trkpt lat="46.25458" lon="6.77864">
        <ele>2125.13</ele>
        <time>2013-09-28T15:09:44Z</time>
      </trkpt>
      <trkpt lat="46.25463" lon="6.77852">
        <ele>2128.98</ele>
        <time>2013-09-28T15:09:56Z</time>
      </trkpt>
      <trkpt lat="46.25464" lon="6.77848">
        <ele>2129.94</ele>
        <time>2013-09-28T15:09:59Z</time>
      </trkpt>
      <trkpt lat="46.25466" lon="6.77842">
        <ele>2130.42</ele>
        <time>2013-09-28T15:10:12Z</time>
      </trkpt>
      <trkpt lat="46.25469" lon="6.77838">
        <ele>2130.9</ele>
        <time>2013-09-28T15:10:27Z</time>
      </trkpt>
      <trkpt lat="46.25472" lon="6.77838">
        <ele>2131.38</ele>
        <time>2013-09-28T15:10:40Z</time>
      </trkpt>
      <trkpt lat="46.25475" lon="6.77845">
        <ele>2134.26</ele>
        <time>2013-09-28T15:10:52Z</time>
      </trkpt>
      <trkpt lat="46.25477" lon="6.77849">
        <ele>2134.74</ele>
        <time>2013-09-28T15:11:05Z</time>
      </trkpt>
      <trkpt lat="46.2548" lon="6.77849">
        <ele>2135.71</ele>
        <time>2013-09-28T15:11:16Z</time>
      </trkpt>
      <trkpt lat="46.25485" lon="6.77841">
        <ele>2139.55</ele>
        <time>2013-09-28T15:11:27Z</time>
      </trkpt>
      <trkpt lat="46.25488" lon="6.77835">
        <ele>2142.92</ele>
        <time>2013-09-28T15:11:41Z</time>
      </trkpt>
      <trkpt lat="46.25488" lon="6.77835">
        <ele>2142.92</ele>
        <time>2013-09-28T15:11:42Z</time>
      </trkpt>
      <trkpt lat="46.25489" lon="6.77838">
        <ele>2144.36</ele>
        <time>2013-09-28T15:11:50Z</time>
      </trkpt>
      <trkpt lat="46.25492" lon="6.77845">
        <ele>2146.28</ele>
        <time>2013-09-28T15:12:03Z</time>
      </trkpt>
      <trkpt lat="46.25496" lon="6.77846">
        <ele>2148.68</ele>
        <time>2013-09-28T15:12:16Z</time>
      </trkpt>
      <trkpt lat="46.25498" lon="6.77844">
        <ele>2150.13</ele>
        <time>2013-09-28T15:12:29Z</time>
      </trkpt>
      <trkpt lat="46.25505" lon="6.77833">
        <ele>2155.41</ele>
        <time>2013-09-28T15:12:42Z</time>
      </trkpt>
      <trkpt lat="46.25509" lon="6.77828">
        <ele>2158.3</ele>
        <time>2013-09-28T15:12:56Z</time>
      </trkpt>
      <trkpt lat="46.25511" lon="6.77825">
        <ele>2157.82</ele>
        <time>2013-09-28T15:13:05Z</time>
      </trkpt>
      <trkpt lat="46.25512" lon="6.77825">
        <ele>2158.78</ele>
        <time>2013-09-28T15:13:17Z</time>
      </trkpt>
      <trkpt lat="46.25514" lon="6.77835">
        <ele>2162.14</ele>
        <time>2013-09-28T15:13:30Z</time>
      </trkpt>
      <trkpt lat="46.25516" lon="6.77836">
        <ele>2162.62</ele>
        <time>2013-09-28T15:13:41Z</time>
      </trkpt>
      <trkpt lat="46.25521" lon="6.77832">
        <ele>2165.51</ele>
        <time>2013-09-28T15:13:54Z</time>
      </trkpt>
      <trkpt lat="46.25522" lon="6.7783">
        <ele>2165.99</ele>
        <time>2013-09-28T15:14:06Z</time>
      </trkpt>
      <trkpt lat="46.25526" lon="6.77829">
        <ele>2166.95</ele>
        <time>2013-09-28T15:14:17Z</time>
      </trkpt>
      <trkpt lat="46.25527" lon="6.77829">
        <ele>2167.91</ele>
        <time>2013-09-28T15:14:26Z</time>
      </trkpt>
      <trkpt lat="46.25533" lon="6.77827">
        <ele>2171.27</ele>
        <time>2013-09-28T15:14:39Z</time>
      </trkpt>
      <trkpt lat="46.25543" lon="6.7782">
        <ele>2174.16</ele>
        <time>2013-09-28T15:14:53Z</time>
      </trkpt>
      <trkpt lat="46.25547" lon="6.77814">
        <ele>2174.64</ele>
        <time>2013-09-28T15:15:02Z</time>
      </trkpt>
      <trkpt lat="46.25551" lon="6.77802">
        <ele>2176.08</ele>
        <time>2013-09-28T15:15:14Z</time>
      </trkpt>
      <trkpt lat="46.25553" lon="6.77793">
        <ele>2179.93</ele>
        <time>2013-09-28T15:15:24Z</time>
      </trkpt>
      <trkpt lat="46.25555" lon="6.77783">
        <ele>2183.77</ele>
        <time>2013-09-28T15:15:39Z</time>
      </trkpt>
      <trkpt lat="46.2556" lon="6.7778">
        <ele>2185.69</ele>
        <time>2013-09-28T15:15:44Z</time>
      </trkpt>
      <trkpt lat="46.25568" lon="6.77768">
        <ele>2190.02</ele>
        <time>2013-09-28T15:15:58Z</time>
      </trkpt>
      <trkpt lat="46.25575" lon="6.77755">
        <ele>2192.9</ele>
        <time>2013-09-28T15:16:15Z</time>
      </trkpt>
      <trkpt lat="46.25583" lon="6.77751">
        <ele>2196.27</ele>
        <time>2013-09-28T15:16:30Z</time>
      </trkpt>
      <trkpt lat="46.2559" lon="6.77755">
        <ele>2199.15</ele>
        <time>2013-09-28T15:16:43Z</time>
      </trkpt>
      <trkpt lat="46.25593" lon="6.77761">
        <ele>2201.08</ele>
        <time>2013-09-28T15:16:52Z</time>
      </trkpt>
      <trkpt lat="46.25598" lon="6.77775">
        <ele>2206.84</ele>
        <time>2013-09-28T15:17:07Z</time>
      </trkpt>
      <trkpt lat="46.25598" lon="6.7778">
        <ele>2207.81</ele>
        <time>2013-09-28T15:17:12Z</time>
      </trkpt>
      <trkpt lat="46.25604" lon="6.77791">
        <ele>2211.17</ele>
        <time>2013-09-28T15:17:26Z</time>
      </trkpt>
      <trkpt lat="46.25613" lon="6.77797">
        <ele>2214.05</ele>
        <time>2013-09-28T15:17:41Z</time>
      </trkpt>
      <trkpt lat="46.25613" lon="6.77798">
        <ele>2214.05</ele>
        <time>2013-09-28T15:17:42Z</time>
      </trkpt>
      <trkpt lat="46.25621" lon="6.77808">
        <ele>2217.9</ele>
        <time>2013-09-28T15:17:58Z</time>
      </trkpt>
      <trkpt lat="46.25629" lon="6.77816">
        <ele>2221.26</ele>
        <time>2013-09-28T15:18:13Z</time>
      </trkpt>
      <trkpt lat="46.25636" lon="6.7782">
        <ele>2225.11</ele>
        <time>2013-09-28T15:18:27Z</time>
      </trkpt>
      <trkpt lat="46.25641" lon="6.77823">
        <ele>2227.03</ele>
        <time>2013-09-28T15:18:40Z</time>
      </trkpt>
      <trkpt lat="46.25645" lon="6.77826">
        <ele>2227.51</ele>
        <time>2013-09-28T15:18:57Z</time>
      </trkpt>
      <trkpt lat="46.25655" lon="6.77826">
        <ele>2231.84</ele>
        <time>2013-09-28T15:19:12Z</time>
      </trkpt>
      <trkpt lat="46.25664" lon="6.77827">
        <ele>2234.72</ele>
        <time>2013-09-28T15:19:24Z</time>
      </trkpt>
      <trkpt lat="46.25671" lon="6.77829">
        <ele>2238.57</ele>
        <time>2013-09-28T15:19:39Z</time>
      </trkpt>
      <trkpt lat="46.2568" lon="6.77831">
        <ele>2242.89</ele>
        <time>2013-09-28T15:19:52Z</time>
      </trkpt>
      <trkpt lat="46.25688" lon="6.77832">
        <ele>2244.82</ele>
        <time>2013-09-28T15:20:05Z</time>
      </trkpt>
      <trkpt lat="46.25698" lon="6.7783">
        <ele>2247.22</ele>
        <time>2013-09-28T15:20:19Z</time>
      </trkpt>
      <trkpt lat="46.25699" lon="6.7783">
        <ele>2246.74</ele>
        <time>2013-09-28T15:20:42Z</time>
      </trkpt>
      <trkpt lat="46.25709" lon="6.77831">
        <ele>2249.62</ele>
        <time>2013-09-28T15:20:57Z</time>
      </trkpt>
      <trkpt lat="46.25732" lon="6.77831">
        <ele>2258.27</ele>
        <time>2013-09-28T15:21:09Z</time>
      </trkpt>
      <trkpt lat="46.25735" lon="6.77831">
        <ele>2260.68</ele>
        <time>2013-09-28T15:21:22Z</time>
      </trkpt>
      <trkpt lat="46.25741" lon="6.7783">
        <ele>2263.56</ele>
        <time>2013-09-28T15:21:35Z</time>
      </trkpt>
      <trkpt lat="46.25748" lon="6.77831">
        <ele>2266.93</ele>
        <time>2013-09-28T15:21:52Z</time>
      </trkpt>
      <trkpt lat="46.25756" lon="6.77835">
        <ele>2270.29</ele>
        <time>2013-09-28T15:22:06Z</time>
      </trkpt>
      <trkpt lat="46.25763" lon="6.77837">
        <ele>2274.62</ele>
        <time>2013-09-28T15:22:19Z</time>
      </trkpt>
      <trkpt lat="46.2577" lon="6.77841">
        <ele>2277.98</ele>
        <time>2013-09-28T15:22:33Z</time>
      </trkpt>
      <trkpt lat="46.25776" lon="6.77846">
        <ele>2280.38</ele>
        <time>2013-09-28T15:22:48Z</time>
      </trkpt>
      <trkpt lat="46.25784" lon="6.77846">
        <ele>2283.27</ele>
        <time>2013-09-28T15:23:02Z</time>
      </trkpt>
      <trkpt lat="46.25793" lon="6.77847">
        <ele>2287.59</ele>
        <time>2013-09-28T15:23:16Z</time>
      </trkpt>
      <trkpt lat="46.25803" lon="6.7785">
        <ele>2291.44</ele>
        <time>2013-09-28T15:23:33Z</time>
      </trkpt>
      <trkpt lat="46.2581" lon="6.77852">
        <ele>2294.8</ele>
        <time>2013-09-28T15:23:44Z</time>
      </trkpt>
      <trkpt lat="46.25814" lon="6.77853">
        <ele>2296.73</ele>
        <time>2013-09-28T15:23:56Z</time>
      </trkpt>
      <trkpt lat="46.2582" lon="6.77857">
        <ele>2298.65</ele>
        <time>2013-09-28T15:24:13Z</time>
      </trkpt>
      <trkpt lat="46.25829" lon="6.7786">
        <ele>2304.42</ele>
        <time>2013-09-28T15:24:26Z</time>
      </trkpt>
      <trkpt lat="46.25832" lon="6.77859">
        <ele>2305.38</ele>
        <time>2013-09-28T15:24:30Z</time>
      </trkpt>
      <trkpt lat="46.25837" lon="6.77859">
        <ele>2309.7</ele>
        <time>2013-09-28T15:24:44Z</time>
      </trkpt>
      <trkpt lat="46.25842" lon="6.77868">
        <ele>2312.11</ele>
        <time>2013-09-28T15:25:00Z</time>
      </trkpt>
      <trkpt lat="46.25847" lon="6.77868">
        <ele>2314.51</ele>
        <time>2013-09-28T15:25:13Z</time>
      </trkpt>
      <trkpt lat="46.25853" lon="6.77872">
        <ele>2317.4</ele>
        <time>2013-09-28T15:25:27Z</time>
      </trkpt>
      <trkpt lat="46.25858" lon="6.77875">
        <ele>2320.28</ele>
        <time>2013-09-28T15:25:42Z</time>
      </trkpt>
      <trkpt lat="46.25862" lon="6.7788">
        <ele>2323.16</ele>
        <time>2013-09-28T15:25:55Z</time>
      </trkpt>
      <trkpt lat="46.25869" lon="6.77887">
        <ele>2325.57</ele>
        <time>2013-09-28T15:26:08Z</time>
      </trkpt>
      <trkpt lat="46.25878" lon="6.77893">
        <ele>2328.93</ele>
        <time>2013-09-28T15:26:22Z</time>
      </trkpt>
      <trkpt lat="46.25883" lon="6.77895">
        <ele>2331.33</ele>
        <time>2013-09-28T15:26:34Z</time>
      </trkpt>
      <trkpt lat="46.2589" lon="6.77898">
        <ele>2334.7</ele>
        <time>2013-09-28T15:26:46Z</time>
      </trkpt>
      <trkpt lat="46.25895" lon="6.779">
        <ele>2337.1</ele>
        <time>2013-09-28T15:26:58Z</time>
      </trkpt>
      <trkpt lat="46.25898" lon="6.77904">
        <ele>2338.06</ele>
        <time>2013-09-28T15:27:11Z</time>
      </trkpt>
      <trkpt lat="46.25906" lon="6.7791">
        <ele>2340.95</ele>
        <time>2013-09-28T15:27:27Z</time>
      </trkpt>
      <trkpt lat="46.25909" lon="6.77912">
        <ele>2342.87</ele>
        <time>2013-09-28T15:27:39Z</time>
      </trkpt>
      <trkpt lat="46.25916" lon="6.77916">
        <ele>2346.23</ele>
        <time>2013-09-28T15:27:52Z</time>
      </trkpt>
      <trkpt lat="46.25921" lon="6.77921">
        <ele>2348.16</ele>
        <time>2013-09-28T15:28:09Z</time>
      </trkpt>
      <trkpt lat="46.25928" lon="6.77925">
        <ele>2351.04</ele>
        <time>2013-09-28T15:28:23Z</time>
      </trkpt>
      <trkpt lat="46.25931" lon="6.77924">
        <ele>2352</ele>
        <time>2013-09-28T15:28:29Z</time>
      </trkpt>
      <trkpt lat="46.25939" lon="6.77931">
        <ele>2355.85</ele>
        <time>2013-09-28T15:28:43Z</time>
      </trkpt>
      <trkpt lat="46.2594" lon="6.77931">
        <ele>2356.81</ele>
        <time>2013-09-28T15:28:51Z</time>
      </trkpt>
      <trkpt lat="46.25945" lon="6.77942">
        <ele>2361.14</ele>
        <time>2013-09-28T15:29:04Z</time>
      </trkpt>
      <trkpt lat="46.25953" lon="6.77946">
        <ele>2365.46</ele>
        <time>2013-09-28T15:29:18Z</time>
      </trkpt>
      <trkpt lat="46.25957" lon="6.7795">
        <ele>2369.31</ele>
        <time>2013-09-28T15:29:33Z</time>
      </trkpt>
      <trkpt lat="46.25962" lon="6.77954">
        <ele>2370.75</ele>
        <time>2013-09-28T15:29:44Z</time>
      </trkpt>
      <trkpt lat="46.25969" lon="6.77954">
        <ele>2373.15</ele>
        <time>2013-09-28T15:29:55Z</time>
      </trkpt>
      <trkpt lat="46.25974" lon="6.77963">
        <ele>2375.07</ele>
        <time>2013-09-28T15:30:09Z</time>
      </trkpt>
      <trkpt lat="46.25976" lon="6.77962">
        <ele>2376.04</ele>
        <time>2013-09-28T15:30:14Z</time>
      </trkpt>
      <trkpt lat="46.25982" lon="6.77965">
        <ele>2377.96</ele>
        <time>2013-09-28T15:30:25Z</time>
      </trkpt>
      <trkpt lat="46.25988" lon="6.7797">
        <ele>2381.8</ele>
        <time>2013-09-28T15:30:38Z</time>
      </trkpt>
      <trkpt lat="46.25989" lon="6.77968">
        <ele>2383.25</ele>
        <time>2013-09-28T15:30:54Z</time>
      </trkpt>
      <trkpt lat="46.2599" lon="6.77967">
        <ele>2382.76</ele>
        <time>2013-09-28T15:31:02Z</time>
      </trkpt>
      <trkpt lat="46.25998" lon="6.7797">
        <ele>2386.13</ele>
        <time>2013-09-28T15:31:13Z</time>
      </trkpt>
      <trkpt lat="46.25999" lon="6.77971">
        <ele>2387.09</ele>
        <time>2013-09-28T15:31:15Z</time>
      </trkpt>
      <trkpt lat="46.26001" lon="6.77974">
        <ele>2388.05</ele>
        <time>2013-09-28T15:31:19Z</time>
      </trkpt>
      <trkpt lat="46.2601" lon="6.77986">
        <ele>2393.34</ele>
        <time>2013-09-28T15:31:30Z</time>
      </trkpt>
      <trkpt lat="46.26016" lon="6.7799">
        <ele>2393.82</ele>
        <time>2013-09-28T15:31:43Z</time>
      </trkpt>
      <trkpt lat="46.26024" lon="6.77999">
        <ele>2395.26</ele>
        <time>2013-09-28T15:31:57Z</time>
      </trkpt>
      <trkpt lat="46.2603" lon="6.78002">
        <ele>2396.22</ele>
        <time>2013-09-28T15:32:12Z</time>
      </trkpt>
      <trkpt lat="46.26034" lon="6.78004">
        <ele>2397.18</ele>
        <time>2013-09-28T15:32:17Z</time>
      </trkpt>
      <trkpt lat="46.26042" lon="6.78006">
        <ele>2397.67</ele>
        <time>2013-09-28T15:32:24Z</time>
      </trkpt>
      <trkpt lat="46.26057" lon="6.78009">
        <ele>2398.63</ele>
        <time>2013-09-28T15:32:38Z</time>
      </trkpt>
      <trkpt lat="46.26065" lon="6.78009">
        <ele>2403.43</ele>
        <time>2013-09-28T15:32:50Z</time>
      </trkpt>
      <trkpt lat="46.26071" lon="6.78007">
        <ele>2406.32</ele>
        <time>2013-09-28T15:33:03Z</time>
      </trkpt>
      <trkpt lat="46.26079" lon="6.78005">
        <ele>2410.16</ele>
        <time>2013-09-28T15:33:14Z</time>
      </trkpt>
      <trkpt lat="46.26082" lon="6.78005">
        <ele>2410.64</ele>
        <time>2013-09-28T15:33:32Z</time>
      </trkpt>
      <trkpt lat="46.26084" lon="6.78005">
        <ele>2411.6</ele>
        <time>2013-09-28T15:33:49Z</time>
      </trkpt>
      <trkpt lat="46.26088" lon="6.78008">
        <ele>2411.12</ele>
        <time>2013-09-28T15:34:05Z</time>
      </trkpt>
      <trkpt lat="46.26101" lon="6.78017">
        <ele>2410.16</ele>
        <time>2013-09-28T15:34:18Z</time>
      </trkpt>
      <trkpt lat="46.26113" lon="6.7802">
        <ele>2409.68</ele>
        <time>2013-09-28T15:34:30Z</time>
      </trkpt>
      <trkpt lat="46.26121" lon="6.78026">
        <ele>2410.64</ele>
        <time>2013-09-28T15:34:43Z</time>
      </trkpt>
      <trkpt lat="46.26127" lon="6.78029">
        <ele>2411.12</ele>
        <time>2013-09-28T15:34:50Z</time>
      </trkpt>
      <trkpt lat="46.26133" lon="6.78036">
        <ele>2412.09</ele>
        <time>2013-09-28T15:35:02Z</time>
      </trkpt>
      <trkpt lat="46.2614" lon="6.78044">
        <ele>2411.6</ele>
        <time>2013-09-28T15:35:13Z</time>
      </trkpt>
      <trkpt lat="46.26141" lon="6.78045">
        <ele>2411.6</ele>
        <time>2013-09-28T15:35:15Z</time>
      </trkpt>
      <trkpt lat="46.26145" lon="6.78048">
        <ele>2409.68</ele>
        <time>2013-09-28T15:35:27Z</time>
      </trkpt>
      <trkpt lat="46.26157" lon="6.78052">
        <ele>2412.57</ele>
        <time>2013-09-28T15:35:41Z</time>
      </trkpt>
      <trkpt lat="46.26165" lon="6.78046">
        <ele>2424.1</ele>
        <time>2013-09-28T15:35:55Z</time>
      </trkpt>
      <trkpt lat="46.26166" lon="6.78043">
        <ele>2426.99</ele>
        <time>2013-09-28T15:36:05Z</time>
      </trkpt>
      <trkpt lat="46.26171" lon="6.78042">
        <ele>2430.35</ele>
        <time>2013-09-28T15:36:16Z</time>
      </trkpt>
      <trkpt lat="46.26176" lon="6.78036">
        <ele>2433.23</ele>
        <time>2013-09-28T15:36:29Z</time>
      </trkpt>
      <trkpt lat="46.26186" lon="6.78037">
        <ele>2434.68</ele>
        <time>2013-09-28T15:36:42Z</time>
      </trkpt>
      <trkpt lat="46.26208" lon="6.7803">
        <ele>2433.71</ele>
        <time>2013-09-28T15:36:56Z</time>
      </trkpt>
      <trkpt lat="46.26212" lon="6.78029">
        <ele>2433.71</ele>
        <time>2013-09-28T15:37:01Z</time>
      </trkpt>
      <trkpt lat="46.26216" lon="6.7803">
        <ele>2433.23</ele>
        <time>2013-09-28T15:37:06Z</time>
      </trkpt>
      <trkpt lat="46.26221" lon="6.78033">
        <ele>2434.68</ele>
        <time>2013-09-28T15:37:13Z</time>
      </trkpt>
      <trkpt lat="46.26225" lon="6.78036">
        <ele>2436.6</ele>
        <time>2013-09-28T15:37:19Z</time>
      </trkpt>
      <trkpt lat="46.26231" lon="6.78032">
        <ele>2439</ele>
        <time>2013-09-28T15:37:31Z</time>
      </trkpt>
      <trkpt lat="46.26232" lon="6.78032">
        <ele>2438.52</ele>
        <time>2013-09-28T15:37:46Z</time>
      </trkpt>
      <trkpt lat="46.26233" lon="6.78032">
        <ele>2437.08</ele>
        <time>2013-09-28T15:38:07Z</time>
      </trkpt>
      <trkpt lat="46.26233" lon="6.78032">
        <ele>2435.16</ele>
        <time>2013-09-28T15:38:27Z</time>
      </trkpt>
      <trkpt lat="46.26233" lon="6.78032">
        <ele>2434.68</ele>
        <time>2013-09-28T15:38:39Z</time>
      </trkpt>
      <trkpt lat="46.26233" lon="6.78032">
        <ele>2434.2</ele>
        <time>2013-09-28T15:38:54Z</time>
      </trkpt>
      <trkpt lat="46.26233" lon="6.78032">
        <ele>2433.71</ele>
        <time>2013-09-28T15:39:24Z</time>
      </trkpt>
      <trkpt lat="46.26233" lon="6.78032">
        <ele>2432.75</ele>
        <time>2013-09-28T15:39:49Z</time>
      </trkpt>
      <trkpt lat="46.26233" lon="6.78032">
        <ele>2433.23</ele>
        <time>2013-09-28T15:40:20Z</time>
      </trkpt>
      <trkpt lat="46.26232" lon="6.78031">
        <ele>2433.23</ele>
        <time>2013-09-28T15:40:48Z</time>
      </trkpt>
      <trkpt lat="46.26233" lon="6.78031">
        <ele>2432.75</ele>
        <time>2013-09-28T15:41:00Z</time>
      </trkpt>
      <trkpt lat="46.26233" lon="6.78031">
        <ele>2432.27</ele>
        <time>2013-09-28T15:41:17Z</time>
      </trkpt>
      <trkpt lat="46.26233" lon="6.78031">
        <ele>2432.27</ele>
        <time>2013-09-28T15:41:45Z</time>
      </trkpt>
      <trkpt lat="46.26231" lon="6.7803">
        <ele>2432.27</ele>
        <time>2013-09-28T15:41:49Z</time>
      </trkpt>
      <trkpt lat="46.26225" lon="6.78028">
        <ele>2430.35</ele>
        <time>2013-09-28T15:42:01Z</time>
      </trkpt>
      <trkpt lat="46.26222" lon="6.7803">
        <ele>2429.39</ele>
        <time>2013-09-28T15:42:07Z</time>
      </trkpt>
      <trkpt lat="46.26219" lon="6.78025">
        <ele>2427.47</ele>
        <time>2013-09-28T15:42:22Z</time>
      </trkpt>
      <trkpt lat="46.26214" lon="6.78026">
        <ele>2425.54</ele>
        <time>2013-09-28T15:42:47Z</time>
      </trkpt>
      <trkpt lat="46.26208" lon="6.7803">
        <ele>2423.62</ele>
        <time>2013-09-28T15:42:54Z</time>
      </trkpt>
      <trkpt lat="46.26198" lon="6.78031">
        <ele>2420.26</ele>
        <time>2013-09-28T15:43:07Z</time>
      </trkpt>
      <trkpt lat="46.26194" lon="6.7803">
        <ele>2418.81</ele>
        <time>2013-09-28T15:43:10Z</time>
      </trkpt>
      <trkpt lat="46.26192" lon="6.78031">
        <ele>2418.33</ele>
        <time>2013-09-28T15:43:12Z</time>
      </trkpt>
      <trkpt lat="46.26187" lon="6.78032">
        <ele>2417.85</ele>
        <time>2013-09-28T15:43:16Z</time>
      </trkpt>
      <trkpt lat="46.26174" lon="6.78035">
        <ele>2415.93</ele>
        <time>2013-09-28T15:43:27Z</time>
      </trkpt>
      <trkpt lat="46.26172" lon="6.78037">
        <ele>2415.45</ele>
        <time>2013-09-28T15:43:40Z</time>
      </trkpt>
      <trkpt lat="46.26171" lon="6.78038">
        <ele>2415.45</ele>
        <time>2013-09-28T15:43:42Z</time>
      </trkpt>
      <trkpt lat="46.26166" lon="6.78041">
        <ele>2414.01</ele>
        <time>2013-09-28T15:43:54Z</time>
      </trkpt>
      <trkpt lat="46.26163" lon="6.78046">
        <ele>2412.09</ele>
        <time>2013-09-28T15:44:20Z</time>
      </trkpt>
      <trkpt lat="46.26162" lon="6.78048">
        <ele>2411.6</ele>
        <time>2013-09-28T15:44:21Z</time>
      </trkpt>
      <trkpt lat="46.26144" lon="6.7804">
        <ele>2408.24</ele>
        <time>2013-09-28T15:44:29Z</time>
      </trkpt>
      <trkpt lat="46.26138" lon="6.78033">
        <ele>2406.32</ele>
        <time>2013-09-28T15:44:33Z</time>
      </trkpt>
      <trkpt lat="46.26122" lon="6.78017">
        <ele>2402.47</ele>
        <time>2013-09-28T15:44:44Z</time>
      </trkpt>
      <trkpt lat="46.26093" lon="6.78007">
        <ele>2402.47</ele>
        <time>2013-09-28T15:44:56Z</time>
      </trkpt>
      <trkpt lat="46.26081" lon="6.78003">
        <ele>2402.95</ele>
        <time>2013-09-28T15:45:09Z</time>
      </trkpt>
      <trkpt lat="46.26069" lon="6.78004">
        <ele>2402.47</ele>
        <time>2013-09-28T15:45:25Z</time>
      </trkpt>
      <trkpt lat="46.26061" lon="6.78006">
        <ele>2398.63</ele>
        <time>2013-09-28T15:45:42Z</time>
      </trkpt>
      <trkpt lat="46.26048" lon="6.78003">
        <ele>2395.74</ele>
        <time>2013-09-28T15:45:55Z</time>
      </trkpt>
      <trkpt lat="46.26033" lon="6.78">
        <ele>2393.34</ele>
        <time>2013-09-28T15:46:09Z</time>
      </trkpt>
      <trkpt lat="46.26027" lon="6.77997">
        <ele>2391.9</ele>
        <time>2013-09-28T15:46:15Z</time>
      </trkpt>
      <trkpt lat="46.26024" lon="6.77992">
        <ele>2389.97</ele>
        <time>2013-09-28T15:46:19Z</time>
      </trkpt>
      <trkpt lat="46.2601" lon="6.77977">
        <ele>2386.13</ele>
        <time>2013-09-28T15:46:33Z</time>
      </trkpt>
      <trkpt lat="46.26002" lon="6.77971">
        <ele>2382.76</ele>
        <time>2013-09-28T15:46:48Z</time>
      </trkpt>
      <trkpt lat="46.25993" lon="6.77964">
        <ele>2379.4</ele>
        <time>2013-09-28T15:47:02Z</time>
      </trkpt>
      <trkpt lat="46.25985" lon="6.77961">
        <ele>2375.55</ele>
        <time>2013-09-28T15:47:17Z</time>
      </trkpt>
      <trkpt lat="46.25983" lon="6.77959">
        <ele>2373.15</ele>
        <time>2013-09-28T15:47:30Z</time>
      </trkpt>
      <trkpt lat="46.25982" lon="6.77958">
        <ele>2373.63</ele>
        <time>2013-09-28T15:48:02Z</time>
      </trkpt>
      <trkpt lat="46.25981" lon="6.77959">
        <ele>2373.15</ele>
        <time>2013-09-28T15:48:26Z</time>
      </trkpt>
      <trkpt lat="46.25979" lon="6.7796">
        <ele>2371.71</ele>
        <time>2013-09-28T15:48:41Z</time>
      </trkpt>
      <trkpt lat="46.25977" lon="6.77959">
        <ele>2370.75</ele>
        <time>2013-09-28T15:48:44Z</time>
      </trkpt>
      <trkpt lat="46.25966" lon="6.77954">
        <ele>2366.9</ele>
        <time>2013-09-28T15:48:57Z</time>
      </trkpt>
      <trkpt lat="46.25963" lon="6.77954">
        <ele>2366.42</ele>
        <time>2013-09-28T15:48:59Z</time>
      </trkpt>
      <trkpt lat="46.25957" lon="6.77947">
        <ele>2364.02</ele>
        <time>2013-09-28T15:49:06Z</time>
      </trkpt>
      <trkpt lat="46.25946" lon="6.77941">
        <ele>2358.73</ele>
        <time>2013-09-28T15:49:17Z</time>
      </trkpt>
      <trkpt lat="46.25943" lon="6.77941">
        <ele>2357.77</ele>
        <time>2013-09-28T15:49:20Z</time>
      </trkpt>
      <trkpt lat="46.25937" lon="6.77928">
        <ele>2351.04</ele>
        <time>2013-09-28T15:49:36Z</time>
      </trkpt>
      <trkpt lat="46.25928" lon="6.77922">
        <ele>2346.72</ele>
        <time>2013-09-28T15:49:48Z</time>
      </trkpt>
      <trkpt lat="46.25926" lon="6.7792">
        <ele>2345.27</ele>
        <time>2013-09-28T15:49:52Z</time>
      </trkpt>
      <trkpt lat="46.25916" lon="6.77909">
        <ele>2339.51</ele>
        <time>2013-09-28T15:50:04Z</time>
      </trkpt>
      <trkpt lat="46.25906" lon="6.77903">
        <ele>2334.7</ele>
        <time>2013-09-28T15:50:16Z</time>
      </trkpt>
      <trkpt lat="46.25895" lon="6.779">
        <ele>2328.45</ele>
        <time>2013-09-28T15:50:30Z</time>
      </trkpt>
      <trkpt lat="46.25886" lon="6.77893">
        <ele>2323.64</ele>
        <time>2013-09-28T15:50:45Z</time>
      </trkpt>
      <trkpt lat="46.25873" lon="6.77887">
        <ele>2319.32</ele>
        <time>2013-09-28T15:50:59Z</time>
      </trkpt>
      <trkpt lat="46.25863" lon="6.77878">
        <ele>2314.51</ele>
        <time>2013-09-28T15:51:15Z</time>
      </trkpt>
      <trkpt lat="46.25857" lon="6.7787">
        <ele>2311.63</ele>
        <time>2013-09-28T15:51:29Z</time>
      </trkpt>
      <trkpt lat="46.25851" lon="6.77866">
        <ele>2309.22</ele>
        <time>2013-09-28T15:51:42Z</time>
      </trkpt>
      <trkpt lat="46.25845" lon="6.77867">
        <ele>2305.86</ele>
        <time>2013-09-28T15:51:52Z</time>
      </trkpt>
      <trkpt lat="46.25833" lon="6.77855">
        <ele>2300.09</ele>
        <time>2013-09-28T15:52:07Z</time>
      </trkpt>
      <trkpt lat="46.25831" lon="6.77856">
        <ele>2299.13</ele>
        <time>2013-09-28T15:52:10Z</time>
      </trkpt>
      <trkpt lat="46.25827" lon="6.77857">
        <ele>2296.73</ele>
        <time>2013-09-28T15:52:17Z</time>
      </trkpt>
      <trkpt lat="46.25818" lon="6.77852">
        <ele>2292.4</ele>
        <time>2013-09-28T15:52:28Z</time>
      </trkpt>
      <trkpt lat="46.25809" lon="6.77849">
        <ele>2288.56</ele>
        <time>2013-09-28T15:52:36Z</time>
      </trkpt>
      <trkpt lat="46.25785" lon="6.77843">
        <ele>2279.42</ele>
        <time>2013-09-28T15:52:55Z</time>
      </trkpt>
      <trkpt lat="46.25777" lon="6.77843">
        <ele>2276.06</ele>
        <time>2013-09-28T15:53:01Z</time>
      </trkpt>
      <trkpt lat="46.25766" lon="6.77832">
        <ele>2268.37</ele>
        <time>2013-09-28T15:53:14Z</time>
      </trkpt>
      <trkpt lat="46.2576" lon="6.77832">
        <ele>2264.52</ele>
        <time>2013-09-28T15:53:20Z</time>
      </trkpt>
      <trkpt lat="46.25755" lon="6.77829">
        <ele>2261.64</ele>
        <time>2013-09-28T15:53:26Z</time>
      </trkpt>
      <trkpt lat="46.25747" lon="6.77826">
        <ele>2257.31</ele>
        <time>2013-09-28T15:53:33Z</time>
      </trkpt>
      <trkpt lat="46.25729" lon="6.77827">
        <ele>2250.58</ele>
        <time>2013-09-28T15:53:49Z</time>
      </trkpt>
      <trkpt lat="46.25712" lon="6.77826">
        <ele>2245.78</ele>
        <time>2013-09-28T15:54:04Z</time>
      </trkpt>
      <trkpt lat="46.25708" lon="6.77826">
        <ele>2245.78</ele>
        <time>2013-09-28T15:54:18Z</time>
      </trkpt>
      <trkpt lat="46.25707" lon="6.77827">
        <ele>2245.78</ele>
        <time>2013-09-28T15:54:35Z</time>
      </trkpt>
      <trkpt lat="46.25707" lon="6.77827">
        <ele>2245.78</ele>
        <time>2013-09-28T15:54:46Z</time>
      </trkpt>
      <trkpt lat="46.25706" lon="6.77827">
        <ele>2246.26</ele>
        <time>2013-09-28T15:54:57Z</time>
      </trkpt>
      <trkpt lat="46.25706" lon="6.77827">
        <ele>2246.26</ele>
        <time>2013-09-28T15:55:05Z</time>
      </trkpt>
      <trkpt lat="46.25697" lon="6.77827">
        <ele>2244.33</ele>
        <time>2013-09-28T15:55:17Z</time>
      </trkpt>
      <trkpt lat="46.25696" lon="6.77827">
        <ele>2244.33</ele>
        <time>2013-09-28T15:55:18Z</time>
      </trkpt>
      <trkpt lat="46.2569" lon="6.7783">
        <ele>2242.89</ele>
        <time>2013-09-28T15:55:29Z</time>
      </trkpt>
      <trkpt lat="46.25686" lon="6.77831">
        <ele>2240.49</ele>
        <time>2013-09-28T15:55:45Z</time>
      </trkpt>
      <trkpt lat="46.25684" lon="6.77831">
        <ele>2239.53</ele>
        <time>2013-09-28T15:56:01Z</time>
      </trkpt>
      <trkpt lat="46.25682" lon="6.77831">
        <ele>2239.05</ele>
        <time>2013-09-28T15:56:03Z</time>
      </trkpt>
      <trkpt lat="46.2567" lon="6.77831">
        <ele>2237.13</ele>
        <time>2013-09-28T15:56:09Z</time>
      </trkpt>
      <trkpt lat="46.2564" lon="6.77822">
        <ele>2226.55</ele>
        <time>2013-09-28T15:56:22Z</time>
      </trkpt>
      <trkpt lat="46.25614" lon="6.77796">
        <ele>2214.05</ele>
        <time>2013-09-28T15:56:35Z</time>
      </trkpt>
      <trkpt lat="46.25597" lon="6.77771">
        <ele>2203</ele>
        <time>2013-09-28T15:56:45Z</time>
      </trkpt>
      <trkpt lat="46.25588" lon="6.77749">
        <ele>2192.9</ele>
        <time>2013-09-28T15:56:54Z</time>
      </trkpt>
      <trkpt lat="46.25575" lon="6.7775">
        <ele>2185.21</ele>
        <time>2013-09-28T15:57:02Z</time>
      </trkpt>
      <trkpt lat="46.25575" lon="6.77753">
        <ele>2183.77</ele>
        <time>2013-09-28T15:57:04Z</time>
      </trkpt>
      <trkpt lat="46.25564" lon="6.77774">
        <ele>2176.08</ele>
        <time>2013-09-28T15:57:15Z</time>
      </trkpt>
      <trkpt lat="46.25564" lon="6.77774">
        <ele>2176.08</ele>
        <time>2013-09-28T15:57:17Z</time>
      </trkpt>
      <trkpt lat="46.25556" lon="6.77778">
        <ele>2174.16</ele>
        <time>2013-09-28T15:57:22Z</time>
      </trkpt>
      <trkpt lat="46.25554" lon="6.77786">
        <ele>2173.2</ele>
        <time>2013-09-28T15:57:26Z</time>
      </trkpt>
      <trkpt lat="46.25549" lon="6.77807">
        <ele>2169.83</ele>
        <time>2013-09-28T15:57:32Z</time>
      </trkpt>
      <trkpt lat="46.25537" lon="6.77833">
        <ele>2161.66</ele>
        <time>2013-09-28T15:57:44Z</time>
      </trkpt>
      <trkpt lat="46.25534" lon="6.77833">
        <ele>2158.3</ele>
        <time>2013-09-28T15:57:55Z</time>
      </trkpt>
      <trkpt lat="46.25533" lon="6.77825">
        <ele>2155.89</ele>
        <time>2013-09-28T15:58:01Z</time>
      </trkpt>
      <trkpt lat="46.25529" lon="6.77826">
        <ele>2154.45</ele>
        <time>2013-09-28T15:58:08Z</time>
      </trkpt>
      <trkpt lat="46.25524" lon="6.77835">
        <ele>2151.57</ele>
        <time>2013-09-28T15:58:22Z</time>
      </trkpt>
      <trkpt lat="46.25518" lon="6.77833">
        <ele>2150.61</ele>
        <time>2013-09-28T15:58:33Z</time>
      </trkpt>
      <trkpt lat="46.25517" lon="6.77825">
        <ele>2148.2</ele>
        <time>2013-09-28T15:58:50Z</time>
      </trkpt>
      <trkpt lat="46.25512" lon="6.77829">
        <ele>2145.8</ele>
        <time>2013-09-28T15:59:02Z</time>
      </trkpt>
      <trkpt lat="46.2551" lon="6.77832">
        <ele>2144.36</ele>
        <time>2013-09-28T15:59:05Z</time>
      </trkpt>
      <trkpt lat="46.25502" lon="6.77845">
        <ele>2137.63</ele>
        <time>2013-09-28T15:59:19Z</time>
      </trkpt>
      <trkpt lat="46.255" lon="6.77847">
        <ele>2136.19</ele>
        <time>2013-09-28T15:59:35Z</time>
      </trkpt>
      <trkpt lat="46.25494" lon="6.77841">
        <ele>2135.71</ele>
        <time>2013-09-28T15:59:48Z</time>
      </trkpt>
      <trkpt lat="46.25489" lon="6.7784">
        <ele>2131.38</ele>
        <time>2013-09-28T16:00:03Z</time>
      </trkpt>
      <trkpt lat="46.25488" lon="6.77845">
        <ele>2129.94</ele>
        <time>2013-09-28T16:00:08Z</time>
      </trkpt>
      <trkpt lat="46.25484" lon="6.77853">
        <ele>2126.57</ele>
        <time>2013-09-28T16:00:20Z</time>
      </trkpt>
      <trkpt lat="46.2548" lon="6.77847">
        <ele>2123.21</ele>
        <time>2013-09-28T16:00:32Z</time>
      </trkpt>
      <trkpt lat="46.25475" lon="6.77839">
        <ele>2119.84</ele>
        <time>2013-09-28T16:00:45Z</time>
      </trkpt>
      <trkpt lat="46.25473" lon="6.77831">
        <ele>2117.44</ele>
        <time>2013-09-28T16:00:54Z</time>
      </trkpt>
      <trkpt lat="46.2547" lon="6.77831">
        <ele>2116</ele>
        <time>2013-09-28T16:00:58Z</time>
      </trkpt>
      <trkpt lat="46.25466" lon="6.77849">
        <ele>2114.56</ele>
        <time>2013-09-28T16:01:07Z</time>
      </trkpt>
      <trkpt lat="46.25459" lon="6.77866">
        <ele>2110.71</ele>
        <time>2013-09-28T16:01:20Z</time>
      </trkpt>
      <trkpt lat="46.25457" lon="6.77879">
        <ele>2106.39</ele>
        <time>2013-09-28T16:01:34Z</time>
      </trkpt>
      <trkpt lat="46.25456" lon="6.77878">
        <ele>2106.39</ele>
        <time>2013-09-28T16:01:35Z</time>
      </trkpt>
      <trkpt lat="46.25451" lon="6.7786">
        <ele>2100.62</ele>
        <time>2013-09-28T16:01:52Z</time>
      </trkpt>
      <trkpt lat="46.25446" lon="6.77848">
        <ele>2096.29</ele>
        <time>2013-09-28T16:02:07Z</time>
      </trkpt>
      <trkpt lat="46.25443" lon="6.77853">
        <ele>2094.37</ele>
        <time>2013-09-28T16:02:12Z</time>
      </trkpt>
      <trkpt lat="46.25435" lon="6.7787">
        <ele>2090.04</ele>
        <time>2013-09-28T16:02:27Z</time>
      </trkpt>
      <trkpt lat="46.25428" lon="6.77889">
        <ele>2084.76</ele>
        <time>2013-09-28T16:02:44Z</time>
      </trkpt>
      <trkpt lat="46.25421" lon="6.77909">
        <ele>2080.91</ele>
        <time>2013-09-28T16:02:57Z</time>
      </trkpt>
      <trkpt lat="46.25417" lon="6.77922">
        <ele>2077.07</ele>
        <time>2013-09-28T16:03:12Z</time>
      </trkpt>
      <trkpt lat="46.25414" lon="6.77924">
        <ele>2077.55</ele>
        <time>2013-09-28T16:03:25Z</time>
      </trkpt>
      <trkpt lat="46.2541" lon="6.77928">
        <ele>2077.55</ele>
        <time>2013-09-28T16:03:29Z</time>
      </trkpt>
      <trkpt lat="46.25401" lon="6.77938">
        <ele>2076.59</ele>
        <time>2013-09-28T16:03:39Z</time>
      </trkpt>
      <trkpt lat="46.25393" lon="6.77941">
        <ele>2074.18</ele>
        <time>2013-09-28T16:03:46Z</time>
      </trkpt>
      <trkpt lat="46.25388" lon="6.77955">
        <ele>2071.3</ele>
        <time>2013-09-28T16:03:54Z</time>
      </trkpt>
      <trkpt lat="46.25386" lon="6.77969">
        <ele>2070.82</ele>
        <time>2013-09-28T16:04:10Z</time>
      </trkpt>
      <trkpt lat="46.2538" lon="6.77977">
        <ele>2068.89</ele>
        <time>2013-09-28T16:04:22Z</time>
      </trkpt>
      <trkpt lat="46.25371" lon="6.77991">
        <ele>2064.09</ele>
        <time>2013-09-28T16:04:36Z</time>
      </trkpt>
      <trkpt lat="46.25366" lon="6.78009">
        <ele>2060.24</ele>
        <time>2013-09-28T16:04:52Z</time>
      </trkpt>
      <trkpt lat="46.25366" lon="6.7801">
        <ele>2059.76</ele>
        <time>2013-09-28T16:05:07Z</time>
      </trkpt>
      <trkpt lat="46.25362" lon="6.78022">
        <ele>2058.32</ele>
        <time>2013-09-28T16:05:13Z</time>
      </trkpt>
      <trkpt lat="46.25356" lon="6.78032">
        <ele>2056.88</ele>
        <time>2013-09-28T16:05:20Z</time>
      </trkpt>
      <trkpt lat="46.25341" lon="6.78052">
        <ele>2050.15</ele>
        <time>2013-09-28T16:05:37Z</time>
      </trkpt>
      <trkpt lat="46.25321" lon="6.78088">
        <ele>2037.17</ele>
        <time>2013-09-28T16:05:50Z</time>
      </trkpt>
      <trkpt lat="46.25318" lon="6.78093">
        <ele>2032.84</ele>
        <time>2013-09-28T16:06:02Z</time>
      </trkpt>
      <trkpt lat="46.25318" lon="6.78093">
        <ele>2031.88</ele>
        <time>2013-09-28T16:06:31Z</time>
      </trkpt>
      <trkpt lat="46.25315" lon="6.78098">
        <ele>2029.96</ele>
        <time>2013-09-28T16:06:53Z</time>
      </trkpt>
      <trkpt lat="46.2531" lon="6.78102">
        <ele>2028.52</ele>
        <time>2013-09-28T16:06:57Z</time>
      </trkpt>
      <trkpt lat="46.25301" lon="6.78122">
        <ele>2022.27</ele>
        <time>2013-09-28T16:07:09Z</time>
      </trkpt>
      <trkpt lat="46.25289" lon="6.7815">
        <ele>2014.58</ele>
        <time>2013-09-28T16:07:25Z</time>
      </trkpt>
      <trkpt lat="46.2528" lon="6.78176">
        <ele>2011.22</ele>
        <time>2013-09-28T16:07:36Z</time>
      </trkpt>
      <trkpt lat="46.25278" lon="6.78183">
        <ele>2010.73</ele>
        <time>2013-09-28T16:07:39Z</time>
      </trkpt>
      <trkpt lat="46.2526" lon="6.78205">
        <ele>2011.22</ele>
        <time>2013-09-28T16:07:51Z</time>
      </trkpt>
      <trkpt lat="46.25256" lon="6.7821">
        <ele>2012.18</ele>
        <time>2013-09-28T16:07:54Z</time>
      </trkpt>
      <trkpt lat="46.25252" lon="6.7822">
        <ele>2013.62</ele>
        <time>2013-09-28T16:08:01Z</time>
      </trkpt>
      <trkpt lat="46.25242" lon="6.78236">
        <ele>2015.54</ele>
        <time>2013-09-28T16:08:13Z</time>
      </trkpt>
      <trkpt lat="46.2523" lon="6.78254">
        <ele>2018.43</ele>
        <time>2013-09-28T16:08:28Z</time>
      </trkpt>
      <trkpt lat="46.25223" lon="6.78269">
        <ele>2019.87</ele>
        <time>2013-09-28T16:08:39Z</time>
      </trkpt>
      <trkpt lat="46.25219" lon="6.78276">
        <ele>2020.35</ele>
        <time>2013-09-28T16:08:43Z</time>
      </trkpt>
      <trkpt lat="46.2521" lon="6.78295">
        <ele>2020.83</ele>
        <time>2013-09-28T16:08:55Z</time>
      </trkpt>
      <trkpt lat="46.25206" lon="6.78301">
        <ele>2019.87</ele>
        <time>2013-09-28T16:09:00Z</time>
      </trkpt>
      <trkpt lat="46.25188" lon="6.7832">
        <ele>2015.54</ele>
        <time>2013-09-28T16:09:14Z</time>
      </trkpt>
      <trkpt lat="46.25172" lon="6.78333">
        <ele>2009.29</ele>
        <time>2013-09-28T16:09:27Z</time>
      </trkpt>
      <trkpt lat="46.25164" lon="6.78359">
        <ele>2007.85</ele>
        <time>2013-09-28T16:09:40Z</time>
      </trkpt>
      <trkpt lat="46.25156" lon="6.78385">
        <ele>2005.93</ele>
        <time>2013-09-28T16:09:53Z</time>
      </trkpt>
      <trkpt lat="46.25153" lon="6.78413">
        <ele>2004.49</ele>
        <time>2013-09-28T16:10:07Z</time>
      </trkpt>
      <trkpt lat="46.25147" lon="6.7845">
        <ele>2004.01</ele>
        <time>2013-09-28T16:10:25Z</time>
      </trkpt>
      <trkpt lat="46.25142" lon="6.78483">
        <ele>2003.04</ele>
        <time>2013-09-28T16:10:41Z</time>
      </trkpt>
      <trkpt lat="46.25135" lon="6.78518">
        <ele>2001.6</ele>
        <time>2013-09-28T16:10:58Z</time>
      </trkpt>
      <trkpt lat="46.25131" lon="6.78543">
        <ele>2002.08</ele>
        <time>2013-09-28T16:11:10Z</time>
      </trkpt>
      <trkpt lat="46.25129" lon="6.78551">
        <ele>2001.12</ele>
        <time>2013-09-28T16:11:15Z</time>
      </trkpt>
      <trkpt lat="46.25125" lon="6.78556">
        <ele>1999.68</ele>
        <time>2013-09-28T16:11:19Z</time>
      </trkpt>
      <trkpt lat="46.25119" lon="6.78562">
        <ele>1996.8</ele>
        <time>2013-09-28T16:11:34Z</time>
      </trkpt>
      <trkpt lat="46.25117" lon="6.78566">
        <ele>1996.8</ele>
        <time>2013-09-28T16:11:40Z</time>
      </trkpt>
      <trkpt lat="46.2511" lon="6.78575">
        <ele>1994.39</ele>
        <time>2013-09-28T16:11:47Z</time>
      </trkpt>
      <trkpt lat="46.25092" lon="6.78585">
        <ele>1987.18</ele>
        <time>2013-09-28T16:12:01Z</time>
      </trkpt>
      <trkpt lat="46.25075" lon="6.78603">
        <ele>1979.01</ele>
        <time>2013-09-28T16:12:17Z</time>
      </trkpt>
      <trkpt lat="46.25062" lon="6.78615">
        <ele>1973.24</ele>
        <time>2013-09-28T16:12:31Z</time>
      </trkpt>
      <trkpt lat="46.25054" lon="6.78623">
        <ele>1969.4</ele>
        <time>2013-09-28T16:12:40Z</time>
      </trkpt>
      <trkpt lat="46.25052" lon="6.78624">
        <ele>1968.92</ele>
        <time>2013-09-28T16:12:42Z</time>
      </trkpt>
      <trkpt lat="46.25037" lon="6.78638">
        <ele>1963.63</ele>
        <time>2013-09-28T16:12:57Z</time>
      </trkpt>
      <trkpt lat="46.2502" lon="6.78646">
        <ele>1958.82</ele>
        <time>2013-09-28T16:13:12Z</time>
      </trkpt>
      <trkpt lat="46.25006" lon="6.78653">
        <ele>1952.57</ele>
        <time>2013-09-28T16:13:26Z</time>
      </trkpt>
      <trkpt lat="46.24997" lon="6.78665">
        <ele>1947.77</ele>
        <time>2013-09-28T16:13:38Z</time>
      </trkpt>
      <trkpt lat="46.24987" lon="6.78686">
        <ele>1943.92</ele>
        <time>2013-09-28T16:13:53Z</time>
      </trkpt>
      <trkpt lat="46.24978" lon="6.787">
        <ele>1939.6</ele>
        <time>2013-09-28T16:14:05Z</time>
      </trkpt>
      <trkpt lat="46.24971" lon="6.78709">
        <ele>1937.67</ele>
        <time>2013-09-28T16:14:12Z</time>
      </trkpt>
      <trkpt lat="46.24966" lon="6.78726">
        <ele>1933.35</ele>
        <time>2013-09-28T16:14:23Z</time>
      </trkpt>
      <trkpt lat="46.24962" lon="6.7873">
        <ele>1932.39</ele>
        <time>2013-09-28T16:14:27Z</time>
      </trkpt>
      <trkpt lat="46.24949" lon="6.78741">
        <ele>1928.54</ele>
        <time>2013-09-28T16:14:42Z</time>
      </trkpt>
      <trkpt lat="46.24939" lon="6.78742">
        <ele>1927.1</ele>
        <time>2013-09-28T16:14:56Z</time>
      </trkpt>
      <trkpt lat="46.24928" lon="6.78753">
        <ele>1923.74</ele>
        <time>2013-09-28T16:15:12Z</time>
      </trkpt>
      <trkpt lat="46.24924" lon="6.78756">
        <ele>1922.77</ele>
        <time>2013-09-28T16:15:17Z</time>
      </trkpt>
      <trkpt lat="46.2492" lon="6.78761">
        <ele>1920.85</ele>
        <time>2013-09-28T16:15:32Z</time>
      </trkpt>
      <trkpt lat="46.2492" lon="6.78761">
        <ele>1920.85</ele>
        <time>2013-09-28T16:15:34Z</time>
      </trkpt>
      <trkpt lat="46.24915" lon="6.78767">
        <ele>1918.93</ele>
        <time>2013-09-28T16:15:39Z</time>
      </trkpt>
      <trkpt lat="46.24904" lon="6.78767">
        <ele>1912.68</ele>
        <time>2013-09-28T16:15:51Z</time>
      </trkpt>
      <trkpt lat="46.24899" lon="6.78766">
        <ele>1908.35</ele>
        <time>2013-09-28T16:16:01Z</time>
      </trkpt>
      <trkpt lat="46.24895" lon="6.78768">
        <ele>1906.43</ele>
        <time>2013-09-28T16:16:05Z</time>
      </trkpt>
      <trkpt lat="46.24886" lon="6.78768">
        <ele>1901.63</ele>
        <time>2013-09-28T16:16:19Z</time>
      </trkpt>
      <trkpt lat="46.24884" lon="6.78768">
        <ele>1901.63</ele>
        <time>2013-09-28T16:16:22Z</time>
      </trkpt>
      <trkpt lat="46.24879" lon="6.78766">
        <ele>1900.18</ele>
        <time>2013-09-28T16:16:28Z</time>
      </trkpt>
      <trkpt lat="46.2487" lon="6.7877">
        <ele>1895.86</ele>
        <time>2013-09-28T16:16:37Z</time>
      </trkpt>
      <trkpt lat="46.24864" lon="6.78771">
        <ele>1893.93</ele>
        <time>2013-09-28T16:16:42Z</time>
      </trkpt>
      <trkpt lat="46.24859" lon="6.78772">
        <ele>1891.53</ele>
        <time>2013-09-28T16:16:47Z</time>
      </trkpt>
      <trkpt lat="46.24849" lon="6.78785">
        <ele>1886.24</ele>
        <time>2013-09-28T16:17:02Z</time>
      </trkpt>
      <trkpt lat="46.24848" lon="6.78788">
        <ele>1885.28</ele>
        <time>2013-09-28T16:17:04Z</time>
      </trkpt>
      <trkpt lat="46.24846" lon="6.78792">
        <ele>1883.84</ele>
        <time>2013-09-28T16:17:08Z</time>
      </trkpt>
      <trkpt lat="46.24837" lon="6.78784">
        <ele>1880.48</ele>
        <time>2013-09-28T16:17:22Z</time>
      </trkpt>
      <trkpt lat="46.24829" lon="6.78782">
        <ele>1878.55</ele>
        <time>2013-09-28T16:17:34Z</time>
      </trkpt>
      <trkpt lat="46.24825" lon="6.78783">
        <ele>1876.15</ele>
        <time>2013-09-28T16:17:39Z</time>
      </trkpt>
      <trkpt lat="46.24816" lon="6.78777">
        <ele>1873.27</ele>
        <time>2013-09-28T16:17:54Z</time>
      </trkpt>
      <trkpt lat="46.24808" lon="6.78772">
        <ele>1871.82</ele>
        <time>2013-09-28T16:18:04Z</time>
      </trkpt>
      <trkpt lat="46.24798" lon="6.78757">
        <ele>1867.5</ele>
        <time>2013-09-28T16:18:20Z</time>
      </trkpt>
      <trkpt lat="46.24794" lon="6.7875">
        <ele>1864.61</ele>
        <time>2013-09-28T16:18:28Z</time>
      </trkpt>
      <trkpt lat="46.24783" lon="6.78748">
        <ele>1860.29</ele>
        <time>2013-09-28T16:18:44Z</time>
      </trkpt>
      <trkpt lat="46.24779" lon="6.78758">
        <ele>1858.37</ele>
        <time>2013-09-28T16:18:54Z</time>
      </trkpt>
      <trkpt lat="46.24774" lon="6.78767">
        <ele>1856.44</ele>
        <time>2013-09-28T16:19:09Z</time>
      </trkpt>
      <trkpt lat="46.24768" lon="6.78773">
        <ele>1852.6</ele>
        <time>2013-09-28T16:19:24Z</time>
      </trkpt>
      <trkpt lat="46.2476" lon="6.78768">
        <ele>1849.71</ele>
        <time>2013-09-28T16:19:37Z</time>
      </trkpt>
      <trkpt lat="46.24753" lon="6.78767">
        <ele>1845.39</ele>
        <time>2013-09-28T16:19:52Z</time>
      </trkpt>
      <trkpt lat="46.24752" lon="6.78768">
        <ele>1844.91</ele>
        <time>2013-09-28T16:19:54Z</time>
      </trkpt>
      <trkpt lat="46.24748" lon="6.78765">
        <ele>1844.43</ele>
        <time>2013-09-28T16:19:59Z</time>
      </trkpt>
      <trkpt lat="46.24745" lon="6.78741">
        <ele>1841.54</ele>
        <time>2013-09-28T16:20:11Z</time>
      </trkpt>
      <trkpt lat="46.24745" lon="6.78733">
        <ele>1841.06</ele>
        <time>2013-09-28T16:20:15Z</time>
      </trkpt>
      <trkpt lat="46.24742" lon="6.78716">
        <ele>1840.1</ele>
        <time>2013-09-28T16:20:25Z</time>
      </trkpt>
      <trkpt lat="46.2474" lon="6.78707">
        <ele>1840.1</ele>
        <time>2013-09-28T16:20:30Z</time>
      </trkpt>
      <trkpt lat="46.24741" lon="6.78684">
        <ele>1840.1</ele>
        <time>2013-09-28T16:20:42Z</time>
      </trkpt>
      <trkpt lat="46.24742" lon="6.78675">
        <ele>1840.1</ele>
        <time>2013-09-28T16:20:47Z</time>
      </trkpt>
      <trkpt lat="46.24747" lon="6.78656">
        <ele>1838.18</ele>
        <time>2013-09-28T16:20:57Z</time>
      </trkpt>
      <trkpt lat="46.24755" lon="6.78631">
        <ele>1833.85</ele>
        <time>2013-09-28T16:21:07Z</time>
      </trkpt>
      <trkpt lat="46.24759" lon="6.78615">
        <ele>1831.45</ele>
        <time>2013-09-28T16:21:13Z</time>
      </trkpt>
      <trkpt lat="46.24764" lon="6.78605">
        <ele>1829.53</ele>
        <time>2013-09-28T16:21:18Z</time>
      </trkpt>
      <trkpt lat="46.24767" lon="6.78591">
        <ele>1828.08</ele>
        <time>2013-09-28T16:21:23Z</time>
      </trkpt>
      <trkpt lat="46.24771" lon="6.78581">
        <ele>1827.12</ele>
        <time>2013-09-28T16:21:27Z</time>
      </trkpt>
      <trkpt lat="46.24775" lon="6.78565">
        <ele>1825.2</ele>
        <time>2013-09-28T16:21:34Z</time>
      </trkpt>
      <trkpt lat="46.24779" lon="6.78551">
        <ele>1824.24</ele>
        <time>2013-09-28T16:21:40Z</time>
      </trkpt>
      <trkpt lat="46.24781" lon="6.78528">
        <ele>1821.84</ele>
        <time>2013-09-28T16:21:48Z</time>
      </trkpt>
      <trkpt lat="46.24783" lon="6.78508">
        <ele>1821.84</ele>
        <time>2013-09-28T16:21:54Z</time>
      </trkpt>
      <trkpt lat="46.24786" lon="6.78489">
        <ele>1819.91</ele>
        <time>2013-09-28T16:22:02Z</time>
      </trkpt>
      <trkpt lat="46.24787" lon="6.78476">
        <ele>1818.47</ele>
        <time>2013-09-28T16:22:06Z</time>
      </trkpt>
      <trkpt lat="46.24792" lon="6.78447">
        <ele>1815.59</ele>
        <time>2013-09-28T16:22:15Z</time>
      </trkpt>
      <trkpt lat="46.24794" lon="6.7844">
        <ele>1814.63</ele>
        <time>2013-09-28T16:22:18Z</time>
      </trkpt>
      <trkpt lat="46.24797" lon="6.7843">
        <ele>1811.74</ele>
        <time>2013-09-28T16:22:23Z</time>
      </trkpt>
      <trkpt lat="46.24804" lon="6.784">
        <ele>1807.42</ele>
        <time>2013-09-28T16:22:35Z</time>
      </trkpt>
      <trkpt lat="46.24805" lon="6.78388">
        <ele>1806.94</ele>
        <time>2013-09-28T16:22:39Z</time>
      </trkpt>
      <trkpt lat="46.24805" lon="6.78368">
        <ele>1806.94</ele>
        <time>2013-09-28T16:22:45Z</time>
      </trkpt>
      <trkpt lat="46.24805" lon="6.78352">
        <ele>1806.94</ele>
        <time>2013-09-28T16:22:49Z</time>
      </trkpt>
      <trkpt lat="46.24807" lon="6.78336">
        <ele>1804.53</ele>
        <time>2013-09-28T16:22:55Z</time>
      </trkpt>
      <trkpt lat="46.24811" lon="6.78302">
        <ele>1801.17</ele>
        <time>2013-09-28T16:23:07Z</time>
      </trkpt>
      <trkpt lat="46.24818" lon="6.7827">
        <ele>1796.36</ele>
        <time>2013-09-28T16:23:20Z</time>
      </trkpt>
      <trkpt lat="46.24831" lon="6.78235">
        <ele>1791.07</ele>
        <time>2013-09-28T16:23:34Z</time>
      </trkpt>
      <trkpt lat="46.24841" lon="6.78194">
        <ele>1786.27</ele>
        <time>2013-09-28T16:23:48Z</time>
      </trkpt>
      <trkpt lat="46.24844" lon="6.78155">
        <ele>1782.42</ele>
        <time>2013-09-28T16:24:01Z</time>
      </trkpt>
      <trkpt lat="46.2485" lon="6.78121">
        <ele>1778.58</ele>
        <time>2013-09-28T16:24:14Z</time>
      </trkpt>
      <trkpt lat="46.24852" lon="6.78076">
        <ele>1776.65</ele>
        <time>2013-09-28T16:24:29Z</time>
      </trkpt>
      <trkpt lat="46.24849" lon="6.78038">
        <ele>1774.25</ele>
        <time>2013-09-28T16:24:41Z</time>
      </trkpt>
      <trkpt lat="46.24847" lon="6.78006">
        <ele>1771.37</ele>
        <time>2013-09-28T16:24:52Z</time>
      </trkpt>
      <trkpt lat="46.24851" lon="6.77969">
        <ele>1767.52</ele>
        <time>2013-09-28T16:25:04Z</time>
      </trkpt>
      <trkpt lat="46.24858" lon="6.77921">
        <ele>1760.79</ele>
        <time>2013-09-28T16:25:18Z</time>
      </trkpt>
      <trkpt lat="46.24854" lon="6.77908">
        <ele>1759.83</ele>
        <time>2013-09-28T16:25:22Z</time>
      </trkpt>
      <trkpt lat="46.24852" lon="6.77906">
        <ele>1758.87</ele>
        <time>2013-09-28T16:25:27Z</time>
      </trkpt>
      <trkpt lat="46.24846" lon="6.77914">
        <ele>1756.47</ele>
        <time>2013-09-28T16:25:41Z</time>
      </trkpt>
      <trkpt lat="46.24847" lon="6.77914">
        <ele>1755.99</ele>
        <time>2013-09-28T16:25:50Z</time>
      </trkpt>
      <trkpt lat="46.24839" lon="6.77908">
        <ele>1755.5</ele>
        <time>2013-09-28T16:26:04Z</time>
      </trkpt>
      <trkpt lat="46.24834" lon="6.77907">
        <ele>1754.54</ele>
        <time>2013-09-28T16:26:10Z</time>
      </trkpt>
      <trkpt lat="46.24828" lon="6.77902">
        <ele>1749.26</ele>
        <time>2013-09-28T16:26:16Z</time>
      </trkpt>
      <trkpt lat="46.24821" lon="6.77901">
        <ele>1745.41</ele>
        <time>2013-09-28T16:26:22Z</time>
      </trkpt>
      <trkpt lat="46.24818" lon="6.77895">
        <ele>1744.93</ele>
        <time>2013-09-28T16:26:28Z</time>
      </trkpt>
      <trkpt lat="46.24815" lon="6.77866">
        <ele>1742.53</ele>
        <time>2013-09-28T16:26:46Z</time>
      </trkpt>
      <trkpt lat="46.24807" lon="6.77832">
        <ele>1741.08</ele>
        <time>2013-09-28T16:27:02Z</time>
      </trkpt>
      <trkpt lat="46.24792" lon="6.77801">
        <ele>1738.68</ele>
        <time>2013-09-28T16:27:15Z</time>
      </trkpt>
      <trkpt lat="46.24777" lon="6.77777">
        <ele>1734.84</ele>
        <time>2013-09-28T16:27:27Z</time>
      </trkpt>
      <trkpt lat="46.24769" lon="6.77763">
        <ele>1732.43</ele>
        <time>2013-09-28T16:27:38Z</time>
      </trkpt>
      <trkpt lat="46.24762" lon="6.77753">
        <ele>1732.43</ele>
        <time>2013-09-28T16:27:53Z</time>
      </trkpt>
      <trkpt lat="46.2476" lon="6.77745">
        <ele>1732.43</ele>
        <time>2013-09-28T16:27:58Z</time>
      </trkpt>
      <trkpt lat="46.24766" lon="6.77742">
        <ele>1732.43</ele>
        <time>2013-09-28T16:28:03Z</time>
      </trkpt>
      <trkpt lat="46.24775" lon="6.7774">
        <ele>1730.99</ele>
        <time>2013-09-28T16:28:13Z</time>
      </trkpt>
      <trkpt lat="46.24775" lon="6.77739">
        <ele>1730.51</ele>
        <time>2013-09-28T16:28:36Z</time>
      </trkpt>
      <trkpt lat="46.2478" lon="6.7774">
        <ele>1730.51</ele>
        <time>2013-09-28T16:28:57Z</time>
      </trkpt>
      <trkpt lat="46.24798" lon="6.77721">
        <ele>1730.03</ele>
        <time>2013-09-28T16:29:11Z</time>
      </trkpt>
      <trkpt lat="46.24811" lon="6.77691">
        <ele>1725.7</ele>
        <time>2013-09-28T16:29:24Z</time>
      </trkpt>
      <trkpt lat="46.24818" lon="6.77656">
        <ele>1721.86</ele>
        <time>2013-09-28T16:29:36Z</time>
      </trkpt>
      <trkpt lat="46.24832" lon="6.77621">
        <ele>1719.46</ele>
        <time>2013-09-28T16:29:49Z</time>
      </trkpt>
      <trkpt lat="46.24848" lon="6.77594">
        <ele>1716.57</ele>
        <time>2013-09-28T16:30:00Z</time>
      </trkpt>
      <trkpt lat="46.24855" lon="6.77565">
        <ele>1712.73</ele>
        <time>2013-09-28T16:30:09Z</time>
      </trkpt>
      <trkpt lat="46.24862" lon="6.77539">
        <ele>1711.28</ele>
        <time>2013-09-28T16:30:18Z</time>
      </trkpt>
      <trkpt lat="46.24869" lon="6.77519">
        <ele>1710.8</ele>
        <time>2013-09-28T16:30:26Z</time>
      </trkpt>
      <trkpt lat="46.24877" lon="6.7751">
        <ele>1711.28</ele>
        <time>2013-09-28T16:30:32Z</time>
      </trkpt>
      <trkpt lat="46.24896" lon="6.77494">
        <ele>1707.92</ele>
        <time>2013-09-28T16:30:43Z</time>
      </trkpt>
      <trkpt lat="46.24909" lon="6.77504">
        <ele>1706.96</ele>
        <time>2013-09-28T16:30:50Z</time>
      </trkpt>
      <trkpt lat="46.24929" lon="6.77516">
        <ele>1704.07</ele>
        <time>2013-09-28T16:31:04Z</time>
      </trkpt>
      <trkpt lat="46.24954" lon="6.77514">
        <ele>1703.59</ele>
        <time>2013-09-28T16:31:18Z</time>
      </trkpt>
      <trkpt lat="46.24973" lon="6.77488">
        <ele>1700.71</ele>
        <time>2013-09-28T16:31:30Z</time>
      </trkpt>
      <trkpt lat="46.24983" lon="6.77464">
        <ele>1699.27</ele>
        <time>2013-09-28T16:31:40Z</time>
      </trkpt>
      <trkpt lat="46.24987" lon="6.77425">
        <ele>1702.15</ele>
        <time>2013-09-28T16:31:53Z</time>
      </trkpt>
      <trkpt lat="46.24995" lon="6.77391">
        <ele>1703.59</ele>
        <time>2013-09-28T16:32:07Z</time>
      </trkpt>
      <trkpt lat="46.24996" lon="6.77388">
        <ele>1703.11</ele>
        <time>2013-09-28T16:32:09Z</time>
      </trkpt>
      <trkpt lat="46.25004" lon="6.77369">
        <ele>1705.52</ele>
        <time>2013-09-28T16:32:23Z</time>
      </trkpt>
      <trkpt lat="46.25019" lon="6.77348">
        <ele>1707.92</ele>
        <time>2013-09-28T16:32:39Z</time>
      </trkpt>
      <trkpt lat="46.25031" lon="6.77319">
        <ele>1709.84</ele>
        <time>2013-09-28T16:32:56Z</time>
      </trkpt>
      <trkpt lat="46.25042" lon="6.77294">
        <ele>1710.8</ele>
        <time>2013-09-28T16:33:11Z</time>
      </trkpt>
      <trkpt lat="46.25051" lon="6.77277">
        <ele>1712.73</ele>
        <time>2013-09-28T16:33:21Z</time>
      </trkpt>
      <trkpt lat="46.25071" lon="6.77256">
        <ele>1712.73</ele>
        <time>2013-09-28T16:33:35Z</time>
      </trkpt>
      <trkpt lat="46.25083" lon="6.77246">
        <ele>1711.28</ele>
        <time>2013-09-28T16:33:42Z</time>
      </trkpt>
      <trkpt lat="46.2509" lon="6.77241">
        <ele>1710.32</ele>
        <time>2013-09-28T16:33:45Z</time>
      </trkpt>
      <trkpt lat="46.25096" lon="6.77224">
        <ele>1707.92</ele>
        <time>2013-09-28T16:33:52Z</time>
      </trkpt>
      <trkpt lat="46.25094" lon="6.77185">
        <ele>1706</ele>
        <time>2013-09-28T16:34:06Z</time>
      </trkpt>
      <trkpt lat="46.25091" lon="6.77167">
        <ele>1704.55</ele>
        <time>2013-09-28T16:34:13Z</time>
      </trkpt>
      <trkpt lat="46.25092" lon="6.77143">
        <ele>1703.11</ele>
        <time>2013-09-28T16:34:21Z</time>
      </trkpt>
      <trkpt lat="46.25106" lon="6.77102">
        <ele>1701.67</ele>
        <time>2013-09-28T16:34:38Z</time>
      </trkpt>
      <trkpt lat="46.25119" lon="6.77082">
        <ele>1698.79</ele>
        <time>2013-09-28T16:34:50Z</time>
      </trkpt>
      <trkpt lat="46.25123" lon="6.77074">
        <ele>1696.86</ele>
        <time>2013-09-28T16:34:55Z</time>
      </trkpt>
      <trkpt lat="46.25139" lon="6.77052">
        <ele>1693.02</ele>
        <time>2013-09-28T16:35:12Z</time>
      </trkpt>
      <trkpt lat="46.2514" lon="6.77051">
        <ele>1693.02</ele>
        <time>2013-09-28T16:35:13Z</time>
      </trkpt>
      <trkpt lat="46.25145" lon="6.77036">
        <ele>1691.58</ele>
        <time>2013-09-28T16:35:20Z</time>
      </trkpt>
      <trkpt lat="46.2516" lon="6.77008">
        <ele>1689.65</ele>
        <time>2013-09-28T16:35:32Z</time>
      </trkpt>
      <trkpt lat="46.25173" lon="6.7697">
        <ele>1688.21</ele>
        <time>2013-09-28T16:35:46Z</time>
      </trkpt>
      <trkpt lat="46.2518" lon="6.76932">
        <ele>1684.85</ele>
        <time>2013-09-28T16:36:00Z</time>
      </trkpt>
      <trkpt lat="46.2519" lon="6.76907">
        <ele>1685.81</ele>
        <time>2013-09-28T16:36:11Z</time>
      </trkpt>
      <trkpt lat="46.25198" lon="6.76889">
        <ele>1683.41</ele>
        <time>2013-09-28T16:36:19Z</time>
      </trkpt>
      <trkpt lat="46.25216" lon="6.76858">
        <ele>1680.04</ele>
        <time>2013-09-28T16:36:33Z</time>
      </trkpt>
      <trkpt lat="46.25232" lon="6.76835">
        <ele>1678.6</ele>
        <time>2013-09-28T16:36:48Z</time>
      </trkpt>
      <trkpt lat="46.25249" lon="6.768">
        <ele>1679.08</ele>
        <time>2013-09-28T16:37:04Z</time>
      </trkpt>
      <trkpt lat="46.25262" lon="6.76772">
        <ele>1676.2</ele>
        <time>2013-09-28T16:37:19Z</time>
      </trkpt>
      <trkpt lat="46.25264" lon="6.76769">
        <ele>1675.23</ele>
        <time>2013-09-28T16:37:21Z</time>
      </trkpt>
      <trkpt lat="46.25273" lon="6.76753">
        <ele>1672.83</ele>
        <time>2013-09-28T16:37:34Z</time>
      </trkpt>
      <trkpt lat="46.25286" lon="6.76729">
        <ele>1668.02</ele>
        <time>2013-09-28T16:37:49Z</time>
      </trkpt>
      <trkpt lat="46.25289" lon="6.76727">
        <ele>1667.54</ele>
        <time>2013-09-28T16:37:51Z</time>
      </trkpt>
      <trkpt lat="46.25304" lon="6.76709">
        <ele>1665.62</ele>
        <time>2013-09-28T16:38:06Z</time>
      </trkpt>
      <trkpt lat="46.25306" lon="6.76703">
        <ele>1664.66</ele>
        <time>2013-09-28T16:38:18Z</time>
      </trkpt>
      <trkpt lat="46.25287" lon="6.76702">
        <ele>1659.85</ele>
        <time>2013-09-28T16:38:32Z</time>
      </trkpt>
      <trkpt lat="46.2526" lon="6.76707">
        <ele>1654.57</ele>
        <time>2013-09-28T16:38:48Z</time>
      </trkpt>
      <trkpt lat="46.25237" lon="6.76711">
        <ele>1650.24</ele>
        <time>2013-09-28T16:39:02Z</time>
      </trkpt>
      <trkpt lat="46.25222" lon="6.76712">
        <ele>1647.84</ele>
        <time>2013-09-28T16:39:11Z</time>
      </trkpt>
      <trkpt lat="46.25215" lon="6.76711">
        <ele>1646.4</ele>
        <time>2013-09-28T16:39:16Z</time>
      </trkpt>
      <trkpt lat="46.25217" lon="6.76703">
        <ele>1644.47</ele>
        <time>2013-09-28T16:39:22Z</time>
      </trkpt>
      <trkpt lat="46.25242" lon="6.76684">
        <ele>1640.63</ele>
        <time>2013-09-28T16:39:40Z</time>
      </trkpt>
      <trkpt lat="46.25271" lon="6.76672">
        <ele>1638.7</ele>
        <time>2013-09-28T16:39:55Z</time>
      </trkpt>
      <trkpt lat="46.25298" lon="6.7665">
        <ele>1633.9</ele>
        <time>2013-09-28T16:40:10Z</time>
      </trkpt>
      <trkpt lat="46.25302" lon="6.76607">
        <ele>1628.61</ele>
        <time>2013-09-28T16:40:24Z</time>
      </trkpt>
      <trkpt lat="46.25302" lon="6.76573">
        <ele>1627.17</ele>
        <time>2013-09-28T16:40:36Z</time>
      </trkpt>
      <trkpt lat="46.25307" lon="6.76555">
        <ele>1625.73</ele>
        <time>2013-09-28T16:40:45Z</time>
      </trkpt>
      <trkpt lat="46.25312" lon="6.7653">
        <ele>1621.88</ele>
        <time>2013-09-28T16:40:59Z</time>
      </trkpt>
      <trkpt lat="46.25315" lon="6.76501">
        <ele>1618.52</ele>
        <time>2013-09-28T16:41:14Z</time>
      </trkpt>
      <trkpt lat="46.2532" lon="6.76471">
        <ele>1615.15</ele>
        <time>2013-09-28T16:41:28Z</time>
      </trkpt>
      <trkpt lat="46.25333" lon="6.76442">
        <ele>1612.27</ele>
        <time>2013-09-28T16:41:44Z</time>
      </trkpt>
      <trkpt lat="46.25339" lon="6.7643">
        <ele>1611.79</ele>
        <time>2013-09-28T16:41:51Z</time>
      </trkpt>
      <trkpt lat="46.25355" lon="6.76416">
        <ele>1608.42</ele>
        <time>2013-09-28T16:42:04Z</time>
      </trkpt>
      <trkpt lat="46.25373" lon="6.76399">
        <ele>1605.54</ele>
        <time>2013-09-28T16:42:19Z</time>
      </trkpt>
      <trkpt lat="46.25387" lon="6.76389">
        <ele>1604.58</ele>
        <time>2013-09-28T16:42:31Z</time>
      </trkpt>
      <trkpt lat="46.25379" lon="6.76386">
        <ele>1600.73</ele>
        <time>2013-09-28T16:42:39Z</time>
      </trkpt>
      <trkpt lat="46.25377" lon="6.76386">
        <ele>1599.77</ele>
        <time>2013-09-28T16:42:41Z</time>
      </trkpt>
      <trkpt lat="46.25361" lon="6.76386">
        <ele>1596.41</ele>
        <time>2013-09-28T16:42:52Z</time>
      </trkpt>
      <trkpt lat="46.25346" lon="6.76388">
        <ele>1594</ele>
        <time>2013-09-28T16:43:04Z</time>
      </trkpt>
      <trkpt lat="46.25345" lon="6.76389">
        <ele>1594</ele>
        <time>2013-09-28T16:43:05Z</time>
      </trkpt>
      <trkpt lat="46.25335" lon="6.76391">
        <ele>1592.08</ele>
        <time>2013-09-28T16:43:12Z</time>
      </trkpt>
      <trkpt lat="46.25328" lon="6.76394">
        <ele>1591.6</ele>
        <time>2013-09-28T16:43:18Z</time>
      </trkpt>
      <trkpt lat="46.25325" lon="6.76392">
        <ele>1591.12</ele>
        <time>2013-09-28T16:43:21Z</time>
      </trkpt>
      <trkpt lat="46.25328" lon="6.76382">
        <ele>1589.2</ele>
        <time>2013-09-28T16:43:27Z</time>
      </trkpt>
      <trkpt lat="46.25343" lon="6.76359">
        <ele>1585.35</ele>
        <time>2013-09-28T16:43:44Z</time>
      </trkpt>
      <trkpt lat="46.25359" lon="6.76349">
        <ele>1580.06</ele>
        <time>2013-09-28T16:44:00Z</time>
      </trkpt>
      <trkpt lat="46.25361" lon="6.76349">
        <ele>1579.58</ele>
        <time>2013-09-28T16:44:02Z</time>
      </trkpt>
      <trkpt lat="46.25371" lon="6.76339">
        <ele>1580.06</ele>
        <time>2013-09-28T16:44:14Z</time>
      </trkpt>
      <trkpt lat="46.25383" lon="6.76331">
        <ele>1578.62</ele>
        <time>2013-09-28T16:44:25Z</time>
      </trkpt>
      <trkpt lat="46.25398" lon="6.76326">
        <ele>1576.22</ele>
        <time>2013-09-28T16:44:39Z</time>
      </trkpt>
      <trkpt lat="46.25401" lon="6.76325">
        <ele>1575.74</ele>
        <time>2013-09-28T16:44:41Z</time>
      </trkpt>
      <trkpt lat="46.25402" lon="6.76319">
        <ele>1574.3</ele>
        <time>2013-09-28T16:44:45Z</time>
      </trkpt>
      <trkpt lat="46.25385" lon="6.76322">
        <ele>1569.97</ele>
        <time>2013-09-28T16:45:01Z</time>
      </trkpt>
      <trkpt lat="46.25361" lon="6.76319">
        <ele>1567.57</ele>
        <time>2013-09-28T16:45:18Z</time>
      </trkpt>
      <trkpt lat="46.25346" lon="6.76329">
        <ele>1563.72</ele>
        <time>2013-09-28T16:45:32Z</time>
      </trkpt>
      <trkpt lat="46.2534" lon="6.76331">
        <ele>1562.28</ele>
        <time>2013-09-28T16:45:38Z</time>
      </trkpt>
      <trkpt lat="46.25317" lon="6.7633">
        <ele>1563.72</ele>
        <time>2013-09-28T16:45:53Z</time>
      </trkpt>
      <trkpt lat="46.25301" lon="6.7633">
        <ele>1562.28</ele>
        <time>2013-09-28T16:46:06Z</time>
      </trkpt>
      <trkpt lat="46.25295" lon="6.76332">
        <ele>1560.84</ele>
        <time>2013-09-28T16:46:11Z</time>
      </trkpt>
      <trkpt lat="46.25292" lon="6.76334">
        <ele>1560.36</ele>
        <time>2013-09-28T16:46:14Z</time>
      </trkpt>
      <trkpt lat="46.2527" lon="6.76339">
        <ele>1554.59</ele>
        <time>2013-09-28T16:46:30Z</time>
      </trkpt>
      <trkpt lat="46.25267" lon="6.76343">
        <ele>1553.15</ele>
        <time>2013-09-28T16:46:34Z</time>
      </trkpt>
      <trkpt lat="46.25266" lon="6.76346">
        <ele>1552.67</ele>
        <time>2013-09-28T16:46:36Z</time>
      </trkpt>
      <trkpt lat="46.25252" lon="6.76363">
        <ele>1547.86</ele>
        <time>2013-09-28T16:46:49Z</time>
      </trkpt>
      <trkpt lat="46.25249" lon="6.76364">
        <ele>1547.86</ele>
        <time>2013-09-28T16:46:52Z</time>
      </trkpt>
      <trkpt lat="46.25242" lon="6.76367">
        <ele>1547.38</ele>
        <time>2013-09-28T16:46:58Z</time>
      </trkpt>
      <trkpt lat="46.25236" lon="6.76366">
        <ele>1547.38</ele>
        <time>2013-09-28T16:47:04Z</time>
      </trkpt>
      <trkpt lat="46.25216" lon="6.76359">
        <ele>1542.09</ele>
        <time>2013-09-28T16:47:20Z</time>
      </trkpt>
      <trkpt lat="46.25202" lon="6.76352">
        <ele>1540.17</ele>
        <time>2013-09-28T16:47:34Z</time>
      </trkpt>
      <trkpt lat="46.25199" lon="6.76347">
        <ele>1538.25</ele>
        <time>2013-09-28T16:47:40Z</time>
      </trkpt>
      <trkpt lat="46.252" lon="6.76346">
        <ele>1537.29</ele>
        <time>2013-09-28T16:47:42Z</time>
      </trkpt>
      <trkpt lat="46.25211" lon="6.7634">
        <ele>1534.4</ele>
        <time>2013-09-28T16:47:57Z</time>
      </trkpt>
      <trkpt lat="46.25228" lon="6.76326">
        <ele>1532.48</ele>
        <time>2013-09-28T16:48:10Z</time>
      </trkpt>
      <trkpt lat="46.25246" lon="6.76311">
        <ele>1531.52</ele>
        <time>2013-09-28T16:48:27Z</time>
      </trkpt>
      <trkpt lat="46.25274" lon="6.76296">
        <ele>1524.79</ele>
        <time>2013-09-28T16:48:43Z</time>
      </trkpt>
      <trkpt lat="46.25292" lon="6.76278">
        <ele>1516.14</ele>
        <time>2013-09-28T16:49:01Z</time>
      </trkpt>
      <trkpt lat="46.25306" lon="6.76257">
        <ele>1510.37</ele>
        <time>2013-09-28T16:49:18Z</time>
      </trkpt>
      <trkpt lat="46.25327" lon="6.76237">
        <ele>1507.97</ele>
        <time>2013-09-28T16:49:37Z</time>
      </trkpt>
      <trkpt lat="46.25335" lon="6.76204">
        <ele>1510.85</ele>
        <time>2013-09-28T16:49:52Z</time>
      </trkpt>
      <trkpt lat="46.2534" lon="6.76192">
        <ele>1509.89</ele>
        <time>2013-09-28T16:49:58Z</time>
      </trkpt>
      <trkpt lat="46.25351" lon="6.76169">
        <ele>1508.45</ele>
        <time>2013-09-28T16:50:11Z</time>
      </trkpt>
      <trkpt lat="46.25354" lon="6.76164">
        <ele>1507.48</ele>
        <time>2013-09-28T16:50:14Z</time>
      </trkpt>
      <trkpt lat="46.25359" lon="6.76158">
        <ele>1506.04</ele>
        <time>2013-09-28T16:50:19Z</time>
      </trkpt>
      <trkpt lat="46.2537" lon="6.76141">
        <ele>1499.31</ele>
        <time>2013-09-28T16:50:31Z</time>
      </trkpt>
      <trkpt lat="46.25376" lon="6.76135">
        <ele>1495.47</ele>
        <time>2013-09-28T16:50:37Z</time>
      </trkpt>
      <trkpt lat="46.25381" lon="6.76129">
        <ele>1493.06</ele>
        <time>2013-09-28T16:50:43Z</time>
      </trkpt>
      <trkpt lat="46.25383" lon="6.76127">
        <ele>1492.58</ele>
        <time>2013-09-28T16:50:45Z</time>
      </trkpt>
      <trkpt lat="46.25389" lon="6.76115">
        <ele>1491.14</ele>
        <time>2013-09-28T16:50:52Z</time>
      </trkpt>
      <trkpt lat="46.254" lon="6.76105">
        <ele>1491.62</ele>
        <time>2013-09-28T16:51:04Z</time>
      </trkpt>
      <trkpt lat="46.25401" lon="6.76104">
        <ele>1491.62</ele>
        <time>2013-09-28T16:51:06Z</time>
      </trkpt>
      <trkpt lat="46.25415" lon="6.76098">
        <ele>1489.22</ele>
        <time>2013-09-28T16:51:20Z</time>
      </trkpt>
      <trkpt lat="46.25422" lon="6.76094">
        <ele>1487.78</ele>
        <time>2013-09-28T16:51:27Z</time>
      </trkpt>
      <trkpt lat="46.25431" lon="6.76083">
        <ele>1483.93</ele>
        <time>2013-09-28T16:51:35Z</time>
      </trkpt>
      <trkpt lat="46.25435" lon="6.76079">
        <ele>1482.97</ele>
        <time>2013-09-28T16:51:38Z</time>
      </trkpt>
      <trkpt lat="46.25451" lon="6.76068">
        <ele>1480.09</ele>
        <time>2013-09-28T16:51:51Z</time>
      </trkpt>
      <trkpt lat="46.25457" lon="6.7606">
        <ele>1479.13</ele>
        <time>2013-09-28T16:51:55Z</time>
      </trkpt>
      <trkpt lat="46.25471" lon="6.76054">
        <ele>1476.72</ele>
        <time>2013-09-28T16:52:06Z</time>
      </trkpt>
      <trkpt lat="46.25476" lon="6.76046">
        <ele>1474.8</ele>
        <time>2013-09-28T16:52:20Z</time>
      </trkpt>
      <trkpt lat="46.25486" lon="6.76037">
        <ele>1473.84</ele>
        <time>2013-09-28T16:52:35Z</time>
      </trkpt>
      <trkpt lat="46.25487" lon="6.76036">
        <ele>1473.36</ele>
        <time>2013-09-28T16:52:36Z</time>
      </trkpt>
      <trkpt lat="46.25493" lon="6.76029">
        <ele>1472.4</ele>
        <time>2013-09-28T16:52:42Z</time>
      </trkpt>
      <trkpt lat="46.25501" lon="6.76025">
        <ele>1471.44</ele>
        <time>2013-09-28T16:52:49Z</time>
      </trkpt>
      <trkpt lat="46.25516" lon="6.76018">
        <ele>1467.59</ele>
        <time>2013-09-28T16:53:01Z</time>
      </trkpt>
      <trkpt lat="46.25529" lon="6.76009">
        <ele>1468.07</ele>
        <time>2013-09-28T16:53:10Z</time>
      </trkpt>
      <trkpt lat="46.2554" lon="6.75999">
        <ele>1465.67</ele>
        <time>2013-09-28T16:53:20Z</time>
      </trkpt>
      <trkpt lat="46.25543" lon="6.75996">
        <ele>1465.19</ele>
        <time>2013-09-28T16:53:23Z</time>
      </trkpt>
      <trkpt lat="46.25547" lon="6.75994">
        <ele>1464.71</ele>
        <time>2013-09-28T16:53:27Z</time>
      </trkpt>
      <trkpt lat="46.25562" lon="6.76003">
        <ele>1462.3</ele>
        <time>2013-09-28T16:53:39Z</time>
      </trkpt>
      <trkpt lat="46.25574" lon="6.76028">
        <ele>1457.98</ele>
        <time>2013-09-28T16:53:55Z</time>
      </trkpt>
      <trkpt lat="46.25588" lon="6.76007">
        <ele>1453.17</ele>
        <time>2013-09-28T16:54:13Z</time>
      </trkpt>
      <trkpt lat="46.25587" lon="6.76001">
        <ele>1452.21</ele>
        <time>2013-09-28T16:54:16Z</time>
      </trkpt>
      <trkpt lat="46.25587" lon="6.75997">
        <ele>1452.21</ele>
        <time>2013-09-28T16:54:18Z</time>
      </trkpt>
      <trkpt lat="46.25581" lon="6.75969">
        <ele>1448.84</ele>
        <time>2013-09-28T16:54:35Z</time>
      </trkpt>
      <trkpt lat="46.25575" lon="6.75943">
        <ele>1442.11</ele>
        <time>2013-09-28T16:54:50Z</time>
      </trkpt>
      <trkpt lat="46.25566" lon="6.75924">
        <ele>1435.87</ele>
        <time>2013-09-28T16:55:03Z</time>
      </trkpt>
      <trkpt lat="46.2557" lon="6.75904">
        <ele>1426.73</ele>
        <time>2013-09-28T16:55:17Z</time>
      </trkpt>
      <trkpt lat="46.25577" lon="6.75906">
        <ele>1422.41</ele>
        <time>2013-09-28T16:55:27Z</time>
      </trkpt>
      <trkpt lat="46.25589" lon="6.75936">
        <ele>1419.04</ele>
        <time>2013-09-28T16:55:43Z</time>
      </trkpt>
      <trkpt lat="46.25603" lon="6.75975">
        <ele>1418.08</ele>
        <time>2013-09-28T16:55:56Z</time>
      </trkpt>
      <trkpt lat="46.25616" lon="6.76005">
        <ele>1415.2</ele>
        <time>2013-09-28T16:56:10Z</time>
      </trkpt>
      <trkpt lat="46.25637" lon="6.76021">
        <ele>1412.79</ele>
        <time>2013-09-28T16:56:22Z</time>
      </trkpt>
      <trkpt lat="46.25646" lon="6.76017">
        <ele>1411.35</ele>
        <time>2013-09-28T16:56:28Z</time>
      </trkpt>
      <trkpt lat="46.2565" lon="6.76007">
        <ele>1409.91</ele>
        <time>2013-09-28T16:56:33Z</time>
      </trkpt>
      <trkpt lat="46.25665" lon="6.7599">
        <ele>1412.31</ele>
        <time>2013-09-28T16:56:48Z</time>
      </trkpt>
      <trkpt lat="46.25676" lon="6.75992">
        <ele>1407.51</ele>
        <time>2013-09-28T16:57:03Z</time>
      </trkpt>
      <trkpt lat="46.25677" lon="6.75969">
        <ele>1402.22</ele>
        <time>2013-09-28T16:57:18Z</time>
      </trkpt>
      <trkpt lat="46.25675" lon="6.75953">
        <ele>1400.3</ele>
        <time>2013-09-28T16:57:32Z</time>
      </trkpt>
      <trkpt lat="46.25667" lon="6.7593">
        <ele>1401.26</ele>
        <time>2013-09-28T16:57:47Z</time>
      </trkpt>
      <trkpt lat="46.2566" lon="6.75905">
        <ele>1404.62</ele>
        <time>2013-09-28T16:58:00Z</time>
      </trkpt>
      <trkpt lat="46.25661" lon="6.759">
        <ele>1404.62</ele>
        <time>2013-09-28T16:58:03Z</time>
      </trkpt>
      <trkpt lat="46.25672" lon="6.75896">
        <ele>1397.41</ele>
        <time>2013-09-28T16:58:18Z</time>
      </trkpt>
      <trkpt lat="46.25682" lon="6.75876">
        <ele>1388.28</ele>
        <time>2013-09-28T16:58:37Z</time>
      </trkpt>
      <trkpt lat="46.25683" lon="6.75851">
        <ele>1381.07</ele>
        <time>2013-09-28T16:58:54Z</time>
      </trkpt>
      <trkpt lat="46.25689" lon="6.75823">
        <ele>1373.38</ele>
        <time>2013-09-28T16:59:14Z</time>
      </trkpt>
      <trkpt lat="46.25697" lon="6.758">
        <ele>1369.05</ele>
        <time>2013-09-28T16:59:30Z</time>
      </trkpt>
      <trkpt lat="46.25701" lon="6.75793">
        <ele>1368.57</ele>
        <time>2013-09-28T16:59:50Z</time>
      </trkpt>
      <trkpt lat="46.25717" lon="6.75791">
        <ele>1362.81</ele>
        <time>2013-09-28T17:00:08Z</time>
      </trkpt>
      <trkpt lat="46.25728" lon="6.75788">
        <ele>1359.44</ele>
        <time>2013-09-28T17:00:24Z</time>
      </trkpt>
      <trkpt lat="46.2573" lon="6.7576">
        <ele>1359.92</ele>
        <time>2013-09-28T17:00:41Z</time>
      </trkpt>
      <trkpt lat="46.25741" lon="6.75739">
        <ele>1357.52</ele>
        <time>2013-09-28T17:01:00Z</time>
      </trkpt>
      <trkpt lat="46.25748" lon="6.75716">
        <ele>1353.19</ele>
        <time>2013-09-28T17:01:16Z</time>
      </trkpt>
      <trkpt lat="46.25756" lon="6.7569">
        <ele>1347.91</ele>
        <time>2013-09-28T17:01:33Z</time>
      </trkpt>
      <trkpt lat="46.25757" lon="6.75662">
        <ele>1345.5</ele>
        <time>2013-09-28T17:01:49Z</time>
      </trkpt>
      <trkpt lat="46.25754" lon="6.75632">
        <ele>1347.43</ele>
        <time>2013-09-28T17:02:06Z</time>
      </trkpt>
      <trkpt lat="46.25752" lon="6.75617">
        <ele>1347.43</ele>
        <time>2013-09-28T17:02:13Z</time>
      </trkpt>
      <trkpt lat="46.25769" lon="6.75582">
        <ele>1348.39</ele>
        <time>2013-09-28T17:02:36Z</time>
      </trkpt>
      <trkpt lat="46.25773" lon="6.7558">
        <ele>1348.39</ele>
        <time>2013-09-28T17:02:42Z</time>
      </trkpt>
      <trkpt lat="46.25778" lon="6.75578">
        <ele>1347.43</ele>
        <time>2013-09-28T17:02:46Z</time>
      </trkpt>
      <trkpt lat="46.25796" lon="6.75568">
        <ele>1345.5</ele>
        <time>2013-09-28T17:03:02Z</time>
      </trkpt>
      <trkpt lat="46.25797" lon="6.75561">
        <ele>1345.5</ele>
        <time>2013-09-28T17:03:07Z</time>
      </trkpt>
      <trkpt lat="46.25791" lon="6.75557">
        <ele>1344.06</ele>
        <time>2013-09-28T17:03:12Z</time>
      </trkpt>
      <trkpt lat="46.25777" lon="6.75554">
        <ele>1341.18</ele>
        <time>2013-09-28T17:03:26Z</time>
      </trkpt>
      <trkpt lat="46.25783" lon="6.75538">
        <ele>1339.25</ele>
        <time>2013-09-28T17:03:36Z</time>
      </trkpt>
      <trkpt lat="46.25802" lon="6.75547">
        <ele>1335.89</ele>
        <time>2013-09-28T17:03:52Z</time>
      </trkpt>
      <trkpt lat="46.25821" lon="6.75551">
        <ele>1334.45</ele>
        <time>2013-09-28T17:04:07Z</time>
      </trkpt>
      <trkpt lat="46.25847" lon="6.75545">
        <ele>1331.08</ele>
        <time>2013-09-28T17:04:28Z</time>
      </trkpt>
      <trkpt lat="46.25847" lon="6.75541">
        <ele>1331.08</ele>
        <time>2013-09-28T17:04:30Z</time>
      </trkpt>
      <trkpt lat="46.25849" lon="6.75519">
        <ele>1330.12</ele>
        <time>2013-09-28T17:04:48Z</time>
      </trkpt>
      <trkpt lat="46.25849" lon="6.75522">
        <ele>1328.2</ele>
        <time>2013-09-28T17:05:05Z</time>
      </trkpt>
    </trkseg>
  </trk>
</gpx>